<?xml version="1.0" encoding="UTF-8" standalone="no" ?>
<gpx xmlns="http://www.topografix.com/GPX/1/1" xmlns:xsi="http://www.w3.org/2001/XMLSchema-instance" xsi:schemaLocation="http://www.topografix.com/GPX/1/1 http://www.topografix.com/GPX/1/1/gpx.xsd" version="1.1" creator="VisuGPX - https://www.visugpx.com">
  <metadata>
    <name>chauvigny</name>
    <desc><![CDATA[rando autour de chauvigny]]></desc>
  </metadata>
  <trk>
    <name><![CDATA[2010-09-26-01]]></name>
    <trkseg>
      <trkpt lat="46.56155" lon="0.40168">
        <ele>121</ele>
        <time>2010-09-26T07:12:49Z</time>
      </trkpt>
      <trkpt lat="46.56155" lon="0.40167">
        <ele>121.2</ele>
        <time>2010-09-26T07:12:52Z</time>
      </trkpt>
      <trkpt lat="46.56155" lon="0.40166">
        <ele>121.5</ele>
        <time>2010-09-26T07:12:53Z</time>
      </trkpt>
      <trkpt lat="46.56155" lon="0.40165">
        <ele>121.5</ele>
        <time>2010-09-26T07:12:54Z</time>
      </trkpt>
      <trkpt lat="46.56155" lon="0.40165">
        <ele>121.4</ele>
        <time>2010-09-26T07:12:55Z</time>
      </trkpt>
      <trkpt lat="46.56154" lon="0.40165">
        <ele>121.4</ele>
        <time>2010-09-26T07:12:56Z</time>
      </trkpt>
      <trkpt lat="46.56153" lon="0.40164">
        <ele>121</ele>
        <time>2010-09-26T07:13:00Z</time>
      </trkpt>
      <trkpt lat="46.56153" lon="0.40164">
        <ele>121.1</ele>
        <time>2010-09-26T07:13:01Z</time>
      </trkpt>
      <trkpt lat="46.56154" lon="0.40165">
        <ele>121</ele>
        <time>2010-09-26T07:13:06Z</time>
      </trkpt>
      <trkpt lat="46.56154" lon="0.40165">
        <ele>121</ele>
        <time>2010-09-26T07:13:07Z</time>
      </trkpt>
      <trkpt lat="46.56154" lon="0.40165">
        <ele>121</ele>
        <time>2010-09-26T07:13:08Z</time>
      </trkpt>
      <trkpt lat="46.56154" lon="0.40165">
        <ele>121</ele>
        <time>2010-09-26T07:13:09Z</time>
      </trkpt>
      <trkpt lat="46.56154" lon="0.40166">
        <ele>120.9</ele>
        <time>2010-09-26T07:13:10Z</time>
      </trkpt>
      <trkpt lat="46.56154" lon="0.40166">
        <ele>120.8</ele>
        <time>2010-09-26T07:13:11Z</time>
      </trkpt>
      <trkpt lat="46.56154" lon="0.40167">
        <ele>120.6</ele>
        <time>2010-09-26T07:13:13Z</time>
      </trkpt>
      <trkpt lat="46.56154" lon="0.40167">
        <ele>120.5</ele>
        <time>2010-09-26T07:13:14Z</time>
      </trkpt>
      <trkpt lat="46.56154" lon="0.40167">
        <ele>120.5</ele>
        <time>2010-09-26T07:13:15Z</time>
      </trkpt>
      <trkpt lat="46.56154" lon="0.40167">
        <ele>120</ele>
        <time>2010-09-26T07:13:16Z</time>
      </trkpt>
      <trkpt lat="46.56154" lon="0.40168">
        <ele>119.9</ele>
        <time>2010-09-26T07:13:17Z</time>
      </trkpt>
      <trkpt lat="46.56154" lon="0.40168">
        <ele>119.9</ele>
        <time>2010-09-26T07:13:18Z</time>
      </trkpt>
      <trkpt lat="46.56154" lon="0.40168">
        <ele>119.9</ele>
        <time>2010-09-26T07:13:19Z</time>
      </trkpt>
      <trkpt lat="46.56154" lon="0.40167">
        <ele>119.8</ele>
        <time>2010-09-26T07:13:20Z</time>
      </trkpt>
      <trkpt lat="46.56154" lon="0.40167">
        <ele>119.3</ele>
        <time>2010-09-26T07:13:21Z</time>
      </trkpt>
      <trkpt lat="46.56154" lon="0.40167">
        <ele>119.3</ele>
        <time>2010-09-26T07:13:22Z</time>
      </trkpt>
      <trkpt lat="46.56154" lon="0.40167">
        <ele>119.3</ele>
        <time>2010-09-26T07:13:23Z</time>
      </trkpt>
      <trkpt lat="46.56153" lon="0.40167">
        <ele>119.4</ele>
        <time>2010-09-26T07:13:24Z</time>
      </trkpt>
      <trkpt lat="46.56153" lon="0.40167">
        <ele>119.4</ele>
        <time>2010-09-26T07:13:25Z</time>
      </trkpt>
      <trkpt lat="46.56153" lon="0.40167">
        <ele>119.4</ele>
        <time>2010-09-26T07:13:26Z</time>
      </trkpt>
      <trkpt lat="46.56153" lon="0.40167">
        <ele>119.4</ele>
        <time>2010-09-26T07:13:27Z</time>
      </trkpt>
      <trkpt lat="46.56153" lon="0.40167">
        <ele>119.4</ele>
        <time>2010-09-26T07:13:28Z</time>
      </trkpt>
      <trkpt lat="46.56153" lon="0.40167">
        <ele>119.4</ele>
        <time>2010-09-26T07:13:29Z</time>
      </trkpt>
      <trkpt lat="46.56153" lon="0.40167">
        <ele>119.4</ele>
        <time>2010-09-26T07:13:30Z</time>
      </trkpt>
      <trkpt lat="46.56153" lon="0.40167">
        <ele>119.4</ele>
        <time>2010-09-26T07:13:31Z</time>
      </trkpt>
      <trkpt lat="46.56153" lon="0.40167">
        <ele>119.4</ele>
        <time>2010-09-26T07:13:32Z</time>
      </trkpt>
      <trkpt lat="46.56154" lon="0.40167">
        <ele>119.5</ele>
        <time>2010-09-26T07:13:33Z</time>
      </trkpt>
      <trkpt lat="46.56154" lon="0.40167">
        <ele>119.5</ele>
        <time>2010-09-26T07:13:34Z</time>
      </trkpt>
      <trkpt lat="46.56154" lon="0.40167">
        <ele>119.5</ele>
        <time>2010-09-26T07:13:35Z</time>
      </trkpt>
      <trkpt lat="46.56154" lon="0.40167">
        <ele>119.5</ele>
        <time>2010-09-26T07:13:36Z</time>
      </trkpt>
      <trkpt lat="46.56154" lon="0.40167">
        <ele>119.5</ele>
        <time>2010-09-26T07:13:37Z</time>
      </trkpt>
      <trkpt lat="46.56154" lon="0.40167">
        <ele>119.5</ele>
        <time>2010-09-26T07:13:38Z</time>
      </trkpt>
      <trkpt lat="46.56154" lon="0.40167">
        <ele>119.5</ele>
        <time>2010-09-26T07:13:39Z</time>
      </trkpt>
      <trkpt lat="46.56154" lon="0.40167">
        <ele>119.5</ele>
        <time>2010-09-26T07:13:40Z</time>
      </trkpt>
      <trkpt lat="46.56154" lon="0.40167">
        <ele>119.5</ele>
        <time>2010-09-26T07:13:41Z</time>
      </trkpt>
      <trkpt lat="46.56154" lon="0.40167">
        <ele>119.5</ele>
        <time>2010-09-26T07:13:42Z</time>
      </trkpt>
      <trkpt lat="46.56154" lon="0.40167">
        <ele>119.5</ele>
        <time>2010-09-26T07:13:43Z</time>
      </trkpt>
      <trkpt lat="46.56154" lon="0.40167">
        <ele>119.5</ele>
        <time>2010-09-26T07:13:44Z</time>
      </trkpt>
      <trkpt lat="46.56154" lon="0.40167">
        <ele>119.5</ele>
        <time>2010-09-26T07:13:45Z</time>
      </trkpt>
      <trkpt lat="46.56154" lon="0.40167">
        <ele>119.5</ele>
        <time>2010-09-26T07:13:46Z</time>
      </trkpt>
      <trkpt lat="46.56154" lon="0.40167">
        <ele>119.5</ele>
        <time>2010-09-26T07:13:47Z</time>
      </trkpt>
      <trkpt lat="46.56154" lon="0.40167">
        <ele>119.5</ele>
        <time>2010-09-26T07:13:48Z</time>
      </trkpt>
      <trkpt lat="46.56154" lon="0.40167">
        <ele>119.5</ele>
        <time>2010-09-26T07:13:49Z</time>
      </trkpt>
      <trkpt lat="46.56154" lon="0.40167">
        <ele>119.5</ele>
        <time>2010-09-26T07:13:50Z</time>
      </trkpt>
      <trkpt lat="46.56154" lon="0.40167">
        <ele>119.5</ele>
        <time>2010-09-26T07:13:51Z</time>
      </trkpt>
      <trkpt lat="46.56154" lon="0.40167">
        <ele>119.5</ele>
        <time>2010-09-26T07:13:52Z</time>
      </trkpt>
      <trkpt lat="46.56154" lon="0.40167">
        <ele>119.5</ele>
        <time>2010-09-26T07:13:53Z</time>
      </trkpt>
      <trkpt lat="46.56154" lon="0.40167">
        <ele>119.5</ele>
        <time>2010-09-26T07:13:54Z</time>
      </trkpt>
      <trkpt lat="46.56154" lon="0.40167">
        <ele>119.5</ele>
        <time>2010-09-26T07:13:55Z</time>
      </trkpt>
      <trkpt lat="46.56154" lon="0.40167">
        <ele>119.5</ele>
        <time>2010-09-26T07:13:56Z</time>
      </trkpt>
      <trkpt lat="46.56154" lon="0.40167">
        <ele>119.5</ele>
        <time>2010-09-26T07:13:57Z</time>
      </trkpt>
      <trkpt lat="46.56154" lon="0.40167">
        <ele>119.5</ele>
        <time>2010-09-26T07:13:58Z</time>
      </trkpt>
      <trkpt lat="46.56154" lon="0.40167">
        <ele>119.5</ele>
        <time>2010-09-26T07:13:59Z</time>
      </trkpt>
      <trkpt lat="46.56154" lon="0.40167">
        <ele>119.5</ele>
        <time>2010-09-26T07:14:00Z</time>
      </trkpt>
      <trkpt lat="46.56154" lon="0.40167">
        <ele>119.5</ele>
        <time>2010-09-26T07:14:01Z</time>
      </trkpt>
      <trkpt lat="46.56154" lon="0.40167">
        <ele>119.5</ele>
        <time>2010-09-26T07:14:02Z</time>
      </trkpt>
      <trkpt lat="46.56154" lon="0.40167">
        <ele>119.5</ele>
        <time>2010-09-26T07:14:03Z</time>
      </trkpt>
      <trkpt lat="46.56154" lon="0.40167">
        <ele>119.5</ele>
        <time>2010-09-26T07:14:04Z</time>
      </trkpt>
      <trkpt lat="46.56154" lon="0.40167">
        <ele>119.5</ele>
        <time>2010-09-26T07:14:05Z</time>
      </trkpt>
      <trkpt lat="46.56154" lon="0.40167">
        <ele>119.5</ele>
        <time>2010-09-26T07:14:06Z</time>
      </trkpt>
      <trkpt lat="46.56154" lon="0.40167">
        <ele>119.5</ele>
        <time>2010-09-26T07:14:07Z</time>
      </trkpt>
      <trkpt lat="46.56154" lon="0.40167">
        <ele>119.5</ele>
        <time>2010-09-26T07:14:08Z</time>
      </trkpt>
      <trkpt lat="46.56154" lon="0.40167">
        <ele>119.5</ele>
        <time>2010-09-26T07:14:09Z</time>
      </trkpt>
      <trkpt lat="46.56154" lon="0.40167">
        <ele>119.5</ele>
        <time>2010-09-26T07:14:10Z</time>
      </trkpt>
      <trkpt lat="46.56154" lon="0.40167">
        <ele>119.5</ele>
        <time>2010-09-26T07:14:11Z</time>
      </trkpt>
      <trkpt lat="46.56154" lon="0.40167">
        <ele>119.5</ele>
        <time>2010-09-26T07:14:12Z</time>
      </trkpt>
      <trkpt lat="46.56154" lon="0.40167">
        <ele>119.5</ele>
        <time>2010-09-26T07:14:13Z</time>
      </trkpt>
      <trkpt lat="46.56154" lon="0.40167">
        <ele>119.5</ele>
        <time>2010-09-26T07:14:14Z</time>
      </trkpt>
      <trkpt lat="46.56154" lon="0.40167">
        <ele>119.5</ele>
        <time>2010-09-26T07:14:15Z</time>
      </trkpt>
      <trkpt lat="46.56154" lon="0.40167">
        <ele>119.5</ele>
        <time>2010-09-26T07:14:16Z</time>
      </trkpt>
      <trkpt lat="46.56154" lon="0.40167">
        <ele>119.5</ele>
        <time>2010-09-26T07:14:17Z</time>
      </trkpt>
      <trkpt lat="46.56154" lon="0.40167">
        <ele>119.5</ele>
        <time>2010-09-26T07:14:18Z</time>
      </trkpt>
      <trkpt lat="46.56154" lon="0.40167">
        <ele>119.5</ele>
        <time>2010-09-26T07:14:19Z</time>
      </trkpt>
      <trkpt lat="46.56154" lon="0.40167">
        <ele>119.5</ele>
        <time>2010-09-26T07:14:20Z</time>
      </trkpt>
      <trkpt lat="46.56154" lon="0.40167">
        <ele>119.5</ele>
        <time>2010-09-26T07:14:21Z</time>
      </trkpt>
      <trkpt lat="46.56154" lon="0.40167">
        <ele>119.5</ele>
        <time>2010-09-26T07:14:22Z</time>
      </trkpt>
      <trkpt lat="46.56154" lon="0.40167">
        <ele>119.5</ele>
        <time>2010-09-26T07:14:23Z</time>
      </trkpt>
      <trkpt lat="46.56154" lon="0.40167">
        <ele>119.5</ele>
        <time>2010-09-26T07:14:24Z</time>
      </trkpt>
      <trkpt lat="46.56154" lon="0.40167">
        <ele>119.5</ele>
        <time>2010-09-26T07:14:25Z</time>
      </trkpt>
      <trkpt lat="46.56154" lon="0.40167">
        <ele>119.5</ele>
        <time>2010-09-26T07:14:26Z</time>
      </trkpt>
      <trkpt lat="46.56154" lon="0.40167">
        <ele>119.5</ele>
        <time>2010-09-26T07:14:27Z</time>
      </trkpt>
      <trkpt lat="46.56154" lon="0.40167">
        <ele>119.5</ele>
        <time>2010-09-26T07:14:28Z</time>
      </trkpt>
      <trkpt lat="46.56154" lon="0.40167">
        <ele>119.5</ele>
        <time>2010-09-26T07:14:29Z</time>
      </trkpt>
      <trkpt lat="46.56154" lon="0.40167">
        <ele>119.5</ele>
        <time>2010-09-26T07:14:30Z</time>
      </trkpt>
      <trkpt lat="46.56154" lon="0.40167">
        <ele>119.5</ele>
        <time>2010-09-26T07:14:31Z</time>
      </trkpt>
      <trkpt lat="46.56154" lon="0.40167">
        <ele>119.5</ele>
        <time>2010-09-26T07:14:32Z</time>
      </trkpt>
      <trkpt lat="46.56154" lon="0.40167">
        <ele>119.5</ele>
        <time>2010-09-26T07:14:33Z</time>
      </trkpt>
      <trkpt lat="46.56154" lon="0.40167">
        <ele>119.5</ele>
        <time>2010-09-26T07:14:34Z</time>
      </trkpt>
      <trkpt lat="46.56154" lon="0.40167">
        <ele>119.5</ele>
        <time>2010-09-26T07:14:35Z</time>
      </trkpt>
      <trkpt lat="46.56154" lon="0.40167">
        <ele>119.5</ele>
        <time>2010-09-26T07:14:36Z</time>
      </trkpt>
      <trkpt lat="46.56154" lon="0.40167">
        <ele>119.5</ele>
        <time>2010-09-26T07:14:37Z</time>
      </trkpt>
      <trkpt lat="46.56154" lon="0.40167">
        <ele>119.5</ele>
        <time>2010-09-26T07:14:38Z</time>
      </trkpt>
      <trkpt lat="46.56154" lon="0.40167">
        <ele>119.5</ele>
        <time>2010-09-26T07:14:39Z</time>
      </trkpt>
      <trkpt lat="46.56154" lon="0.40167">
        <ele>119.5</ele>
        <time>2010-09-26T07:14:40Z</time>
      </trkpt>
      <trkpt lat="46.56154" lon="0.40167">
        <ele>119.5</ele>
        <time>2010-09-26T07:14:41Z</time>
      </trkpt>
      <trkpt lat="46.56154" lon="0.40167">
        <ele>119.5</ele>
        <time>2010-09-26T07:14:42Z</time>
      </trkpt>
      <trkpt lat="46.56154" lon="0.40167">
        <ele>119.5</ele>
        <time>2010-09-26T07:14:43Z</time>
      </trkpt>
      <trkpt lat="46.56154" lon="0.40167">
        <ele>119.5</ele>
        <time>2010-09-26T07:14:44Z</time>
      </trkpt>
      <trkpt lat="46.56154" lon="0.40167">
        <ele>119.5</ele>
        <time>2010-09-26T07:14:45Z</time>
      </trkpt>
      <trkpt lat="46.56154" lon="0.40167">
        <ele>119.5</ele>
        <time>2010-09-26T07:14:46Z</time>
      </trkpt>
      <trkpt lat="46.56154" lon="0.40167">
        <ele>119.5</ele>
        <time>2010-09-26T07:14:47Z</time>
      </trkpt>
      <trkpt lat="46.56154" lon="0.40167">
        <ele>119.5</ele>
        <time>2010-09-26T07:14:48Z</time>
      </trkpt>
      <trkpt lat="46.56154" lon="0.40167">
        <ele>119.5</ele>
        <time>2010-09-26T07:14:49Z</time>
      </trkpt>
      <trkpt lat="46.56154" lon="0.40167">
        <ele>119.5</ele>
        <time>2010-09-26T07:14:50Z</time>
      </trkpt>
      <trkpt lat="46.56154" lon="0.40167">
        <ele>119.5</ele>
        <time>2010-09-26T07:14:51Z</time>
      </trkpt>
      <trkpt lat="46.56154" lon="0.40167">
        <ele>119.5</ele>
        <time>2010-09-26T07:14:52Z</time>
      </trkpt>
      <trkpt lat="46.56154" lon="0.40167">
        <ele>119.5</ele>
        <time>2010-09-26T07:14:53Z</time>
      </trkpt>
      <trkpt lat="46.56154" lon="0.40167">
        <ele>119.5</ele>
        <time>2010-09-26T07:14:54Z</time>
      </trkpt>
      <trkpt lat="46.56154" lon="0.40167">
        <ele>119.5</ele>
        <time>2010-09-26T07:14:55Z</time>
      </trkpt>
      <trkpt lat="46.56154" lon="0.40167">
        <ele>119.5</ele>
        <time>2010-09-26T07:14:56Z</time>
      </trkpt>
      <trkpt lat="46.56154" lon="0.40167">
        <ele>119.5</ele>
        <time>2010-09-26T07:14:57Z</time>
      </trkpt>
      <trkpt lat="46.56154" lon="0.40167">
        <ele>119.5</ele>
        <time>2010-09-26T07:14:58Z</time>
      </trkpt>
      <trkpt lat="46.56154" lon="0.40167">
        <ele>119.5</ele>
        <time>2010-09-26T07:14:59Z</time>
      </trkpt>
      <trkpt lat="46.56154" lon="0.40167">
        <ele>119.5</ele>
        <time>2010-09-26T07:15:00Z</time>
      </trkpt>
      <trkpt lat="46.56154" lon="0.40167">
        <ele>119.5</ele>
        <time>2010-09-26T07:15:01Z</time>
      </trkpt>
      <trkpt lat="46.56154" lon="0.40167">
        <ele>119.5</ele>
        <time>2010-09-26T07:15:02Z</time>
      </trkpt>
      <trkpt lat="46.56154" lon="0.40167">
        <ele>119.5</ele>
        <time>2010-09-26T07:15:03Z</time>
      </trkpt>
      <trkpt lat="46.56154" lon="0.40167">
        <ele>119.5</ele>
        <time>2010-09-26T07:15:04Z</time>
      </trkpt>
      <trkpt lat="46.56154" lon="0.40167">
        <ele>119.5</ele>
        <time>2010-09-26T07:15:05Z</time>
      </trkpt>
      <trkpt lat="46.56154" lon="0.40167">
        <ele>119.5</ele>
        <time>2010-09-26T07:15:06Z</time>
      </trkpt>
      <trkpt lat="46.56154" lon="0.40167">
        <ele>119.1</ele>
        <time>2010-09-26T07:15:07Z</time>
      </trkpt>
      <trkpt lat="46.56154" lon="0.40166">
        <ele>118.5</ele>
        <time>2010-09-26T07:15:08Z</time>
      </trkpt>
      <trkpt lat="46.56154" lon="0.40166">
        <ele>118</ele>
        <time>2010-09-26T07:15:09Z</time>
      </trkpt>
      <trkpt lat="46.56154" lon="0.40166">
        <ele>118</ele>
        <time>2010-09-26T07:15:10Z</time>
      </trkpt>
      <trkpt lat="46.56154" lon="0.40166">
        <ele>118</ele>
        <time>2010-09-26T07:15:11Z</time>
      </trkpt>
      <trkpt lat="46.56154" lon="0.40166">
        <ele>118</ele>
        <time>2010-09-26T07:15:12Z</time>
      </trkpt>
      <trkpt lat="46.56154" lon="0.40166">
        <ele>118</ele>
        <time>2010-09-26T07:15:13Z</time>
      </trkpt>
      <trkpt lat="46.56154" lon="0.40166">
        <ele>118</ele>
        <time>2010-09-26T07:15:14Z</time>
      </trkpt>
      <trkpt lat="46.56154" lon="0.40166">
        <ele>118</ele>
        <time>2010-09-26T07:15:15Z</time>
      </trkpt>
      <trkpt lat="46.56154" lon="0.40166">
        <ele>118</ele>
        <time>2010-09-26T07:15:16Z</time>
      </trkpt>
      <trkpt lat="46.56154" lon="0.40166">
        <ele>118</ele>
        <time>2010-09-26T07:15:17Z</time>
      </trkpt>
      <trkpt lat="46.56154" lon="0.40166">
        <ele>118</ele>
        <time>2010-09-26T07:15:18Z</time>
      </trkpt>
      <trkpt lat="46.56154" lon="0.40166">
        <ele>118</ele>
        <time>2010-09-26T07:15:19Z</time>
      </trkpt>
      <trkpt lat="46.56154" lon="0.40166">
        <ele>118</ele>
        <time>2010-09-26T07:15:20Z</time>
      </trkpt>
      <trkpt lat="46.56154" lon="0.40166">
        <ele>118</ele>
        <time>2010-09-26T07:15:21Z</time>
      </trkpt>
      <trkpt lat="46.56154" lon="0.40166">
        <ele>118</ele>
        <time>2010-09-26T07:15:22Z</time>
      </trkpt>
      <trkpt lat="46.56154" lon="0.40166">
        <ele>118</ele>
        <time>2010-09-26T07:15:23Z</time>
      </trkpt>
      <trkpt lat="46.56154" lon="0.40166">
        <ele>118</ele>
        <time>2010-09-26T07:15:24Z</time>
      </trkpt>
      <trkpt lat="46.56154" lon="0.40166">
        <ele>118</ele>
        <time>2010-09-26T07:15:25Z</time>
      </trkpt>
      <trkpt lat="46.56154" lon="0.40166">
        <ele>118</ele>
        <time>2010-09-26T07:15:26Z</time>
      </trkpt>
      <trkpt lat="46.56154" lon="0.40166">
        <ele>118</ele>
        <time>2010-09-26T07:15:27Z</time>
      </trkpt>
      <trkpt lat="46.56154" lon="0.40166">
        <ele>118</ele>
        <time>2010-09-26T07:15:28Z</time>
      </trkpt>
      <trkpt lat="46.56154" lon="0.40166">
        <ele>118</ele>
        <time>2010-09-26T07:15:29Z</time>
      </trkpt>
      <trkpt lat="46.56154" lon="0.40166">
        <ele>118</ele>
        <time>2010-09-26T07:15:30Z</time>
      </trkpt>
      <trkpt lat="46.56154" lon="0.40165">
        <ele>117.8</ele>
        <time>2010-09-26T07:15:31Z</time>
      </trkpt>
      <trkpt lat="46.56153" lon="0.40166">
        <ele>118</ele>
        <time>2010-09-26T07:15:32Z</time>
      </trkpt>
      <trkpt lat="46.56153" lon="0.40166">
        <ele>118</ele>
        <time>2010-09-26T07:15:33Z</time>
      </trkpt>
      <trkpt lat="46.56154" lon="0.40165">
        <ele>118.1</ele>
        <time>2010-09-26T07:15:34Z</time>
      </trkpt>
      <trkpt lat="46.56154" lon="0.40165">
        <ele>118.1</ele>
        <time>2010-09-26T07:15:35Z</time>
      </trkpt>
      <trkpt lat="46.56154" lon="0.40165">
        <ele>118.1</ele>
        <time>2010-09-26T07:15:36Z</time>
      </trkpt>
      <trkpt lat="46.56154" lon="0.40165">
        <ele>118.1</ele>
        <time>2010-09-26T07:15:37Z</time>
      </trkpt>
      <trkpt lat="46.56154" lon="0.40165">
        <ele>118.1</ele>
        <time>2010-09-26T07:15:38Z</time>
      </trkpt>
      <trkpt lat="46.56154" lon="0.40165">
        <ele>118.1</ele>
        <time>2010-09-26T07:15:39Z</time>
      </trkpt>
      <trkpt lat="46.56154" lon="0.40165">
        <ele>118.1</ele>
        <time>2010-09-26T07:15:40Z</time>
      </trkpt>
      <trkpt lat="46.56154" lon="0.40165">
        <ele>118.1</ele>
        <time>2010-09-26T07:15:41Z</time>
      </trkpt>
      <trkpt lat="46.56153" lon="0.40165">
        <ele>118.1</ele>
        <time>2010-09-26T07:15:42Z</time>
      </trkpt>
      <trkpt lat="46.56153" lon="0.40165">
        <ele>118</ele>
        <time>2010-09-26T07:16:03Z</time>
      </trkpt>
      <trkpt lat="46.56153" lon="0.40165">
        <ele>118</ele>
        <time>2010-09-26T07:16:04Z</time>
      </trkpt>
      <trkpt lat="46.56154" lon="0.40165">
        <ele>118.8</ele>
        <time>2010-09-26T07:16:06Z</time>
      </trkpt>
      <trkpt lat="46.56154" lon="0.40165">
        <ele>118.8</ele>
        <time>2010-09-26T07:16:09Z</time>
      </trkpt>
      <trkpt lat="46.56154" lon="0.40165">
        <ele>119.6</ele>
        <time>2010-09-26T07:16:10Z</time>
      </trkpt>
      <trkpt lat="46.56155" lon="0.40166">
        <ele>118.8</ele>
        <time>2010-09-26T07:16:11Z</time>
      </trkpt>
      <trkpt lat="46.56155" lon="0.40166">
        <ele>118.3</ele>
        <time>2010-09-26T07:16:38Z</time>
      </trkpt>
      <trkpt lat="46.56155" lon="0.40166">
        <ele>118.6</ele>
        <time>2010-09-26T07:16:39Z</time>
      </trkpt>
      <trkpt lat="46.56155" lon="0.40166">
        <ele>118.6</ele>
        <time>2010-09-26T07:16:40Z</time>
      </trkpt>
      <trkpt lat="46.56155" lon="0.40166">
        <ele>118.6</ele>
        <time>2010-09-26T07:16:41Z</time>
      </trkpt>
      <trkpt lat="46.56155" lon="0.40166">
        <ele>118.6</ele>
        <time>2010-09-26T07:16:42Z</time>
      </trkpt>
      <trkpt lat="46.56155" lon="0.40166">
        <ele>118.6</ele>
        <time>2010-09-26T07:16:43Z</time>
      </trkpt>
      <trkpt lat="46.56155" lon="0.40166">
        <ele>118.6</ele>
        <time>2010-09-26T07:16:44Z</time>
      </trkpt>
      <trkpt lat="46.56155" lon="0.40166">
        <ele>118.6</ele>
        <time>2010-09-26T07:16:45Z</time>
      </trkpt>
      <trkpt lat="46.56155" lon="0.40166">
        <ele>118.6</ele>
        <time>2010-09-26T07:16:46Z</time>
      </trkpt>
      <trkpt lat="46.56155" lon="0.40166">
        <ele>118.6</ele>
        <time>2010-09-26T07:16:47Z</time>
      </trkpt>
      <trkpt lat="46.56155" lon="0.40166">
        <ele>118.6</ele>
        <time>2010-09-26T07:16:48Z</time>
      </trkpt>
      <trkpt lat="46.56155" lon="0.40166">
        <ele>118.6</ele>
        <time>2010-09-26T07:16:49Z</time>
      </trkpt>
      <trkpt lat="46.56155" lon="0.40166">
        <ele>118.6</ele>
        <time>2010-09-26T07:16:50Z</time>
      </trkpt>
      <trkpt lat="46.56155" lon="0.40166">
        <ele>118.6</ele>
        <time>2010-09-26T07:16:51Z</time>
      </trkpt>
      <trkpt lat="46.56155" lon="0.40166">
        <ele>118.6</ele>
        <time>2010-09-26T07:16:52Z</time>
      </trkpt>
      <trkpt lat="46.56155" lon="0.40166">
        <ele>118.6</ele>
        <time>2010-09-26T07:16:53Z</time>
      </trkpt>
      <trkpt lat="46.56155" lon="0.40166">
        <ele>118.6</ele>
        <time>2010-09-26T07:16:54Z</time>
      </trkpt>
      <trkpt lat="46.56155" lon="0.40166">
        <ele>118.6</ele>
        <time>2010-09-26T07:16:55Z</time>
      </trkpt>
      <trkpt lat="46.56155" lon="0.40166">
        <ele>118.6</ele>
        <time>2010-09-26T07:16:56Z</time>
      </trkpt>
      <trkpt lat="46.56155" lon="0.40166">
        <ele>118.6</ele>
        <time>2010-09-26T07:16:57Z</time>
      </trkpt>
      <trkpt lat="46.56155" lon="0.40166">
        <ele>118.6</ele>
        <time>2010-09-26T07:16:58Z</time>
      </trkpt>
      <trkpt lat="46.56155" lon="0.40166">
        <ele>118.6</ele>
        <time>2010-09-26T07:16:59Z</time>
      </trkpt>
      <trkpt lat="46.56155" lon="0.40166">
        <ele>118.6</ele>
        <time>2010-09-26T07:17:00Z</time>
      </trkpt>
      <trkpt lat="46.56155" lon="0.40166">
        <ele>118.6</ele>
        <time>2010-09-26T07:17:01Z</time>
      </trkpt>
      <trkpt lat="46.56155" lon="0.40166">
        <ele>118.6</ele>
        <time>2010-09-26T07:17:02Z</time>
      </trkpt>
      <trkpt lat="46.56155" lon="0.40166">
        <ele>118.6</ele>
        <time>2010-09-26T07:17:03Z</time>
      </trkpt>
      <trkpt lat="46.56155" lon="0.40166">
        <ele>118.6</ele>
        <time>2010-09-26T07:17:04Z</time>
      </trkpt>
      <trkpt lat="46.56155" lon="0.40166">
        <ele>118.6</ele>
        <time>2010-09-26T07:17:05Z</time>
      </trkpt>
      <trkpt lat="46.56155" lon="0.40166">
        <ele>118.6</ele>
        <time>2010-09-26T07:17:06Z</time>
      </trkpt>
      <trkpt lat="46.56155" lon="0.40166">
        <ele>118.6</ele>
        <time>2010-09-26T07:17:07Z</time>
      </trkpt>
      <trkpt lat="46.56155" lon="0.40166">
        <ele>118.6</ele>
        <time>2010-09-26T07:17:08Z</time>
      </trkpt>
      <trkpt lat="46.56155" lon="0.40166">
        <ele>118.6</ele>
        <time>2010-09-26T07:17:09Z</time>
      </trkpt>
      <trkpt lat="46.56155" lon="0.40166">
        <ele>118.6</ele>
        <time>2010-09-26T07:17:10Z</time>
      </trkpt>
      <trkpt lat="46.56155" lon="0.40166">
        <ele>118.6</ele>
        <time>2010-09-26T07:17:11Z</time>
      </trkpt>
      <trkpt lat="46.56155" lon="0.40166">
        <ele>118.6</ele>
        <time>2010-09-26T07:17:12Z</time>
      </trkpt>
      <trkpt lat="46.56155" lon="0.40166">
        <ele>118.5</ele>
        <time>2010-09-26T07:17:13Z</time>
      </trkpt>
      <trkpt lat="46.56155" lon="0.40166">
        <ele>118.5</ele>
        <time>2010-09-26T07:17:14Z</time>
      </trkpt>
      <trkpt lat="46.56155" lon="0.40166">
        <ele>118.5</ele>
        <time>2010-09-26T07:17:15Z</time>
      </trkpt>
      <trkpt lat="46.56155" lon="0.40166">
        <ele>118.5</ele>
        <time>2010-09-26T07:17:16Z</time>
      </trkpt>
      <trkpt lat="46.56155" lon="0.40166">
        <ele>118.5</ele>
        <time>2010-09-26T07:17:17Z</time>
      </trkpt>
      <trkpt lat="46.56155" lon="0.40166">
        <ele>118.5</ele>
        <time>2010-09-26T07:17:18Z</time>
      </trkpt>
      <trkpt lat="46.56155" lon="0.40166">
        <ele>118.5</ele>
        <time>2010-09-26T07:17:19Z</time>
      </trkpt>
      <trkpt lat="46.56155" lon="0.40166">
        <ele>118.5</ele>
        <time>2010-09-26T07:17:20Z</time>
      </trkpt>
      <trkpt lat="46.56155" lon="0.40166">
        <ele>118.5</ele>
        <time>2010-09-26T07:17:21Z</time>
      </trkpt>
      <trkpt lat="46.56155" lon="0.40166">
        <ele>118.5</ele>
        <time>2010-09-26T07:17:22Z</time>
      </trkpt>
      <trkpt lat="46.56155" lon="0.40166">
        <ele>118.5</ele>
        <time>2010-09-26T07:17:23Z</time>
      </trkpt>
      <trkpt lat="46.56155" lon="0.40166">
        <ele>118.5</ele>
        <time>2010-09-26T07:17:24Z</time>
      </trkpt>
      <trkpt lat="46.56155" lon="0.40166">
        <ele>118.5</ele>
        <time>2010-09-26T07:17:25Z</time>
      </trkpt>
      <trkpt lat="46.56155" lon="0.40166">
        <ele>118.5</ele>
        <time>2010-09-26T07:17:26Z</time>
      </trkpt>
      <trkpt lat="46.56155" lon="0.40166">
        <ele>118.5</ele>
        <time>2010-09-26T07:17:27Z</time>
      </trkpt>
      <trkpt lat="46.56155" lon="0.40166">
        <ele>118.5</ele>
        <time>2010-09-26T07:17:28Z</time>
      </trkpt>
      <trkpt lat="46.56155" lon="0.40166">
        <ele>118.5</ele>
        <time>2010-09-26T07:17:29Z</time>
      </trkpt>
      <trkpt lat="46.56155" lon="0.40166">
        <ele>118.5</ele>
        <time>2010-09-26T07:17:30Z</time>
      </trkpt>
      <trkpt lat="46.56155" lon="0.40166">
        <ele>118.5</ele>
        <time>2010-09-26T07:17:31Z</time>
      </trkpt>
      <trkpt lat="46.56155" lon="0.40166">
        <ele>118.5</ele>
        <time>2010-09-26T07:17:32Z</time>
      </trkpt>
      <trkpt lat="46.56155" lon="0.40166">
        <ele>118.5</ele>
        <time>2010-09-26T07:17:33Z</time>
      </trkpt>
      <trkpt lat="46.56155" lon="0.40166">
        <ele>118.5</ele>
        <time>2010-09-26T07:17:34Z</time>
      </trkpt>
      <trkpt lat="46.56155" lon="0.40166">
        <ele>118.5</ele>
        <time>2010-09-26T07:17:35Z</time>
      </trkpt>
      <trkpt lat="46.56155" lon="0.40166">
        <ele>118.5</ele>
        <time>2010-09-26T07:17:36Z</time>
      </trkpt>
      <trkpt lat="46.56155" lon="0.40166">
        <ele>118.5</ele>
        <time>2010-09-26T07:17:37Z</time>
      </trkpt>
      <trkpt lat="46.56155" lon="0.40166">
        <ele>118.5</ele>
        <time>2010-09-26T07:17:38Z</time>
      </trkpt>
      <trkpt lat="46.56155" lon="0.40166">
        <ele>118.1</ele>
        <time>2010-09-26T07:17:39Z</time>
      </trkpt>
      <trkpt lat="46.56155" lon="0.40166">
        <ele>118.1</ele>
        <time>2010-09-26T07:17:40Z</time>
      </trkpt>
      <trkpt lat="46.56155" lon="0.40166">
        <ele>118.1</ele>
        <time>2010-09-26T07:17:41Z</time>
      </trkpt>
      <trkpt lat="46.56155" lon="0.40166">
        <ele>118.1</ele>
        <time>2010-09-26T07:17:42Z</time>
      </trkpt>
      <trkpt lat="46.56155" lon="0.40166">
        <ele>118.1</ele>
        <time>2010-09-26T07:17:43Z</time>
      </trkpt>
      <trkpt lat="46.56155" lon="0.40166">
        <ele>118.1</ele>
        <time>2010-09-26T07:17:44Z</time>
      </trkpt>
      <trkpt lat="46.56155" lon="0.40166">
        <ele>118.1</ele>
        <time>2010-09-26T07:17:45Z</time>
      </trkpt>
      <trkpt lat="46.56155" lon="0.40167">
        <ele>118.1</ele>
        <time>2010-09-26T07:17:46Z</time>
      </trkpt>
      <trkpt lat="46.56155" lon="0.40167">
        <ele>118.1</ele>
        <time>2010-09-26T07:17:47Z</time>
      </trkpt>
      <trkpt lat="46.56155" lon="0.40167">
        <ele>118.1</ele>
        <time>2010-09-26T07:17:48Z</time>
      </trkpt>
      <trkpt lat="46.56155" lon="0.40167">
        <ele>118.1</ele>
        <time>2010-09-26T07:17:49Z</time>
      </trkpt>
      <trkpt lat="46.56155" lon="0.40167">
        <ele>118.1</ele>
        <time>2010-09-26T07:17:50Z</time>
      </trkpt>
      <trkpt lat="46.56155" lon="0.40167">
        <ele>118.1</ele>
        <time>2010-09-26T07:17:51Z</time>
      </trkpt>
      <trkpt lat="46.56155" lon="0.40167">
        <ele>118.1</ele>
        <time>2010-09-26T07:17:52Z</time>
      </trkpt>
      <trkpt lat="46.56155" lon="0.40167">
        <ele>118.1</ele>
        <time>2010-09-26T07:17:53Z</time>
      </trkpt>
      <trkpt lat="46.56155" lon="0.40167">
        <ele>118.1</ele>
        <time>2010-09-26T07:17:54Z</time>
      </trkpt>
      <trkpt lat="46.56155" lon="0.40167">
        <ele>118.1</ele>
        <time>2010-09-26T07:17:55Z</time>
      </trkpt>
      <trkpt lat="46.56155" lon="0.40167">
        <ele>118.1</ele>
        <time>2010-09-26T07:17:56Z</time>
      </trkpt>
      <trkpt lat="46.56155" lon="0.40167">
        <ele>118.1</ele>
        <time>2010-09-26T07:17:57Z</time>
      </trkpt>
      <trkpt lat="46.56155" lon="0.40167">
        <ele>118.1</ele>
        <time>2010-09-26T07:17:58Z</time>
      </trkpt>
      <trkpt lat="46.56155" lon="0.40167">
        <ele>118.1</ele>
        <time>2010-09-26T07:17:59Z</time>
      </trkpt>
      <trkpt lat="46.56155" lon="0.40167">
        <ele>118.1</ele>
        <time>2010-09-26T07:18:00Z</time>
      </trkpt>
      <trkpt lat="46.56155" lon="0.40167">
        <ele>118.1</ele>
        <time>2010-09-26T07:18:01Z</time>
      </trkpt>
      <trkpt lat="46.56155" lon="0.40167">
        <ele>117.9</ele>
        <time>2010-09-26T07:18:02Z</time>
      </trkpt>
      <trkpt lat="46.56155" lon="0.40167">
        <ele>117.8</ele>
        <time>2010-09-26T07:18:03Z</time>
      </trkpt>
      <trkpt lat="46.56155" lon="0.40167">
        <ele>117.8</ele>
        <time>2010-09-26T07:18:04Z</time>
      </trkpt>
      <trkpt lat="46.56155" lon="0.40167">
        <ele>117.8</ele>
        <time>2010-09-26T07:18:05Z</time>
      </trkpt>
      <trkpt lat="46.56155" lon="0.40167">
        <ele>117.8</ele>
        <time>2010-09-26T07:18:06Z</time>
      </trkpt>
      <trkpt lat="46.56155" lon="0.40167">
        <ele>117.8</ele>
        <time>2010-09-26T07:18:07Z</time>
      </trkpt>
      <trkpt lat="46.56155" lon="0.40167">
        <ele>117.8</ele>
        <time>2010-09-26T07:18:08Z</time>
      </trkpt>
      <trkpt lat="46.56155" lon="0.40167">
        <ele>117.8</ele>
        <time>2010-09-26T07:18:09Z</time>
      </trkpt>
      <trkpt lat="46.56155" lon="0.40167">
        <ele>117.8</ele>
        <time>2010-09-26T07:18:10Z</time>
      </trkpt>
      <trkpt lat="46.56155" lon="0.40167">
        <ele>117.8</ele>
        <time>2010-09-26T07:18:11Z</time>
      </trkpt>
      <trkpt lat="46.56155" lon="0.40167">
        <ele>117.8</ele>
        <time>2010-09-26T07:18:12Z</time>
      </trkpt>
      <trkpt lat="46.56155" lon="0.40167">
        <ele>117.8</ele>
        <time>2010-09-26T07:18:13Z</time>
      </trkpt>
      <trkpt lat="46.56155" lon="0.40167">
        <ele>117.8</ele>
        <time>2010-09-26T07:18:14Z</time>
      </trkpt>
      <trkpt lat="46.56155" lon="0.40167">
        <ele>117.8</ele>
        <time>2010-09-26T07:18:15Z</time>
      </trkpt>
      <trkpt lat="46.56155" lon="0.40167">
        <ele>117.8</ele>
        <time>2010-09-26T07:18:16Z</time>
      </trkpt>
      <trkpt lat="46.56155" lon="0.40167">
        <ele>117.8</ele>
        <time>2010-09-26T07:18:17Z</time>
      </trkpt>
      <trkpt lat="46.56155" lon="0.40167">
        <ele>117.8</ele>
        <time>2010-09-26T07:18:18Z</time>
      </trkpt>
      <trkpt lat="46.56155" lon="0.40167">
        <ele>117.8</ele>
        <time>2010-09-26T07:18:19Z</time>
      </trkpt>
      <trkpt lat="46.56155" lon="0.40167">
        <ele>117.8</ele>
        <time>2010-09-26T07:18:20Z</time>
      </trkpt>
      <trkpt lat="46.56155" lon="0.40167">
        <ele>117.8</ele>
        <time>2010-09-26T07:18:21Z</time>
      </trkpt>
      <trkpt lat="46.56155" lon="0.40167">
        <ele>117.8</ele>
        <time>2010-09-26T07:18:22Z</time>
      </trkpt>
      <trkpt lat="46.56155" lon="0.40167">
        <ele>117.8</ele>
        <time>2010-09-26T07:18:23Z</time>
      </trkpt>
      <trkpt lat="46.56155" lon="0.40167">
        <ele>117.8</ele>
        <time>2010-09-26T07:18:24Z</time>
      </trkpt>
      <trkpt lat="46.56155" lon="0.40167">
        <ele>117.8</ele>
        <time>2010-09-26T07:18:25Z</time>
      </trkpt>
      <trkpt lat="46.56155" lon="0.40167">
        <ele>117.8</ele>
        <time>2010-09-26T07:18:26Z</time>
      </trkpt>
      <trkpt lat="46.56155" lon="0.40167">
        <ele>117.8</ele>
        <time>2010-09-26T07:18:27Z</time>
      </trkpt>
      <trkpt lat="46.56155" lon="0.40167">
        <ele>117.8</ele>
        <time>2010-09-26T07:18:28Z</time>
      </trkpt>
      <trkpt lat="46.56155" lon="0.40166">
        <ele>117.6</ele>
        <time>2010-09-26T07:18:29Z</time>
      </trkpt>
      <trkpt lat="46.56156" lon="0.40166">
        <ele>117.5</ele>
        <time>2010-09-26T07:18:30Z</time>
      </trkpt>
      <trkpt lat="46.56156" lon="0.40166">
        <ele>117.5</ele>
        <time>2010-09-26T07:18:31Z</time>
      </trkpt>
      <trkpt lat="46.56156" lon="0.40166">
        <ele>117.5</ele>
        <time>2010-09-26T07:18:32Z</time>
      </trkpt>
      <trkpt lat="46.56156" lon="0.40165">
        <ele>117.5</ele>
        <time>2010-09-26T07:18:33Z</time>
      </trkpt>
      <trkpt lat="46.56155" lon="0.40164">
        <ele>117.6</ele>
        <time>2010-09-26T07:18:34Z</time>
      </trkpt>
      <trkpt lat="46.56155" lon="0.40164">
        <ele>117.6</ele>
        <time>2010-09-26T07:18:35Z</time>
      </trkpt>
      <trkpt lat="46.56155" lon="0.40164">
        <ele>117.6</ele>
        <time>2010-09-26T07:18:36Z</time>
      </trkpt>
      <trkpt lat="46.56156" lon="0.40164">
        <ele>117.9</ele>
        <time>2010-09-26T07:18:37Z</time>
      </trkpt>
      <trkpt lat="46.56156" lon="0.40164">
        <ele>117.9</ele>
        <time>2010-09-26T07:18:38Z</time>
      </trkpt>
      <trkpt lat="46.56156" lon="0.40164">
        <ele>117.9</ele>
        <time>2010-09-26T07:18:39Z</time>
      </trkpt>
      <trkpt lat="46.56156" lon="0.40164">
        <ele>117.9</ele>
        <time>2010-09-26T07:18:40Z</time>
      </trkpt>
      <trkpt lat="46.56156" lon="0.40164">
        <ele>117.9</ele>
        <time>2010-09-26T07:18:41Z</time>
      </trkpt>
      <trkpt lat="46.56156" lon="0.40164">
        <ele>117.9</ele>
        <time>2010-09-26T07:18:42Z</time>
      </trkpt>
      <trkpt lat="46.56155" lon="0.40164">
        <ele>118</ele>
        <time>2010-09-26T07:18:43Z</time>
      </trkpt>
      <trkpt lat="46.56155" lon="0.40164">
        <ele>118</ele>
        <time>2010-09-26T07:18:44Z</time>
      </trkpt>
      <trkpt lat="46.56155" lon="0.40164">
        <ele>118</ele>
        <time>2010-09-26T07:18:45Z</time>
      </trkpt>
      <trkpt lat="46.56155" lon="0.40164">
        <ele>118</ele>
        <time>2010-09-26T07:18:46Z</time>
      </trkpt>
      <trkpt lat="46.56155" lon="0.40164">
        <ele>118</ele>
        <time>2010-09-26T07:18:47Z</time>
      </trkpt>
      <trkpt lat="46.56155" lon="0.40164">
        <ele>118</ele>
        <time>2010-09-26T07:18:48Z</time>
      </trkpt>
      <trkpt lat="46.56155" lon="0.40164">
        <ele>118</ele>
        <time>2010-09-26T07:18:49Z</time>
      </trkpt>
      <trkpt lat="46.56155" lon="0.40164">
        <ele>118</ele>
        <time>2010-09-26T07:18:50Z</time>
      </trkpt>
      <trkpt lat="46.56155" lon="0.40164">
        <ele>118</ele>
        <time>2010-09-26T07:18:51Z</time>
      </trkpt>
      <trkpt lat="46.56155" lon="0.40164">
        <ele>118</ele>
        <time>2010-09-26T07:18:52Z</time>
      </trkpt>
      <trkpt lat="46.56155" lon="0.40164">
        <ele>118</ele>
        <time>2010-09-26T07:18:53Z</time>
      </trkpt>
      <trkpt lat="46.56155" lon="0.40164">
        <ele>118</ele>
        <time>2010-09-26T07:18:54Z</time>
      </trkpt>
      <trkpt lat="46.56156" lon="0.40164">
        <ele>118.1</ele>
        <time>2010-09-26T07:18:55Z</time>
      </trkpt>
      <trkpt lat="46.56156" lon="0.40164">
        <ele>118.5</ele>
        <time>2010-09-26T07:18:56Z</time>
      </trkpt>
      <trkpt lat="46.56156" lon="0.40164">
        <ele>118.5</ele>
        <time>2010-09-26T07:18:57Z</time>
      </trkpt>
      <trkpt lat="46.56155" lon="0.40165">
        <ele>118.5</ele>
        <time>2010-09-26T07:18:58Z</time>
      </trkpt>
      <trkpt lat="46.56155" lon="0.40165">
        <ele>118.5</ele>
        <time>2010-09-26T07:18:59Z</time>
      </trkpt>
      <trkpt lat="46.56155" lon="0.40165">
        <ele>118.5</ele>
        <time>2010-09-26T07:19:00Z</time>
      </trkpt>
      <trkpt lat="46.56155" lon="0.40165">
        <ele>118.5</ele>
        <time>2010-09-26T07:19:01Z</time>
      </trkpt>
      <trkpt lat="46.56155" lon="0.40165">
        <ele>118.5</ele>
        <time>2010-09-26T07:19:02Z</time>
      </trkpt>
      <trkpt lat="46.56155" lon="0.40165">
        <ele>118.5</ele>
        <time>2010-09-26T07:19:03Z</time>
      </trkpt>
      <trkpt lat="46.56155" lon="0.40165">
        <ele>118.5</ele>
        <time>2010-09-26T07:19:04Z</time>
      </trkpt>
      <trkpt lat="46.56155" lon="0.40165">
        <ele>118.5</ele>
        <time>2010-09-26T07:19:05Z</time>
      </trkpt>
      <trkpt lat="46.56155" lon="0.40165">
        <ele>118.5</ele>
        <time>2010-09-26T07:19:06Z</time>
      </trkpt>
      <trkpt lat="46.56155" lon="0.40165">
        <ele>118.5</ele>
        <time>2010-09-26T07:19:07Z</time>
      </trkpt>
      <trkpt lat="46.56155" lon="0.40165">
        <ele>118.5</ele>
        <time>2010-09-26T07:19:08Z</time>
      </trkpt>
      <trkpt lat="46.56155" lon="0.40165">
        <ele>118.5</ele>
        <time>2010-09-26T07:19:09Z</time>
      </trkpt>
      <trkpt lat="46.56155" lon="0.40165">
        <ele>118.5</ele>
        <time>2010-09-26T07:19:10Z</time>
      </trkpt>
      <trkpt lat="46.56155" lon="0.40165">
        <ele>118.5</ele>
        <time>2010-09-26T07:19:11Z</time>
      </trkpt>
      <trkpt lat="46.56155" lon="0.40165">
        <ele>118.5</ele>
        <time>2010-09-26T07:19:12Z</time>
      </trkpt>
      <trkpt lat="46.56155" lon="0.40165">
        <ele>118.5</ele>
        <time>2010-09-26T07:19:13Z</time>
      </trkpt>
      <trkpt lat="46.56155" lon="0.40165">
        <ele>118.5</ele>
        <time>2010-09-26T07:19:14Z</time>
      </trkpt>
      <trkpt lat="46.56155" lon="0.40165">
        <ele>118.5</ele>
        <time>2010-09-26T07:19:15Z</time>
      </trkpt>
      <trkpt lat="46.56155" lon="0.40165">
        <ele>118.5</ele>
        <time>2010-09-26T07:19:16Z</time>
      </trkpt>
      <trkpt lat="46.56155" lon="0.40165">
        <ele>118.5</ele>
        <time>2010-09-26T07:19:17Z</time>
      </trkpt>
      <trkpt lat="46.56155" lon="0.40165">
        <ele>118.5</ele>
        <time>2010-09-26T07:19:18Z</time>
      </trkpt>
      <trkpt lat="46.56155" lon="0.40165">
        <ele>118.5</ele>
        <time>2010-09-26T07:19:19Z</time>
      </trkpt>
      <trkpt lat="46.56155" lon="0.40165">
        <ele>118.5</ele>
        <time>2010-09-26T07:19:20Z</time>
      </trkpt>
      <trkpt lat="46.56155" lon="0.40165">
        <ele>118.5</ele>
        <time>2010-09-26T07:19:21Z</time>
      </trkpt>
      <trkpt lat="46.56155" lon="0.40165">
        <ele>118.5</ele>
        <time>2010-09-26T07:19:22Z</time>
      </trkpt>
      <trkpt lat="46.56155" lon="0.40165">
        <ele>118.5</ele>
        <time>2010-09-26T07:19:23Z</time>
      </trkpt>
      <trkpt lat="46.56155" lon="0.40165">
        <ele>118.5</ele>
        <time>2010-09-26T07:19:24Z</time>
      </trkpt>
      <trkpt lat="46.56155" lon="0.40165">
        <ele>118.5</ele>
        <time>2010-09-26T07:19:25Z</time>
      </trkpt>
      <trkpt lat="46.56155" lon="0.40165">
        <ele>118.5</ele>
        <time>2010-09-26T07:19:26Z</time>
      </trkpt>
      <trkpt lat="46.56155" lon="0.40165">
        <ele>118.5</ele>
        <time>2010-09-26T07:19:27Z</time>
      </trkpt>
      <trkpt lat="46.56155" lon="0.40165">
        <ele>118.5</ele>
        <time>2010-09-26T07:19:28Z</time>
      </trkpt>
      <trkpt lat="46.56155" lon="0.40165">
        <ele>118.5</ele>
        <time>2010-09-26T07:19:29Z</time>
      </trkpt>
      <trkpt lat="46.56155" lon="0.40165">
        <ele>118.5</ele>
        <time>2010-09-26T07:19:30Z</time>
      </trkpt>
      <trkpt lat="46.56155" lon="0.40165">
        <ele>118.5</ele>
        <time>2010-09-26T07:19:31Z</time>
      </trkpt>
      <trkpt lat="46.56155" lon="0.40165">
        <ele>118.5</ele>
        <time>2010-09-26T07:19:32Z</time>
      </trkpt>
      <trkpt lat="46.56155" lon="0.40165">
        <ele>118.5</ele>
        <time>2010-09-26T07:19:33Z</time>
      </trkpt>
      <trkpt lat="46.56155" lon="0.40165">
        <ele>118.5</ele>
        <time>2010-09-26T07:19:34Z</time>
      </trkpt>
      <trkpt lat="46.56155" lon="0.40165">
        <ele>118.5</ele>
        <time>2010-09-26T07:19:35Z</time>
      </trkpt>
      <trkpt lat="46.56155" lon="0.40165">
        <ele>118.5</ele>
        <time>2010-09-26T07:19:36Z</time>
      </trkpt>
      <trkpt lat="46.56155" lon="0.40165">
        <ele>118.5</ele>
        <time>2010-09-26T07:19:37Z</time>
      </trkpt>
      <trkpt lat="46.56155" lon="0.40165">
        <ele>118.5</ele>
        <time>2010-09-26T07:19:38Z</time>
      </trkpt>
      <trkpt lat="46.56155" lon="0.40165">
        <ele>118.5</ele>
        <time>2010-09-26T07:19:39Z</time>
      </trkpt>
      <trkpt lat="46.56155" lon="0.40165">
        <ele>118.5</ele>
        <time>2010-09-26T07:19:40Z</time>
      </trkpt>
      <trkpt lat="46.56155" lon="0.40165">
        <ele>118.5</ele>
        <time>2010-09-26T07:19:41Z</time>
      </trkpt>
      <trkpt lat="46.56155" lon="0.40164">
        <ele>118.5</ele>
        <time>2010-09-26T07:19:42Z</time>
      </trkpt>
      <trkpt lat="46.56155" lon="0.40164">
        <ele>118.5</ele>
        <time>2010-09-26T07:19:43Z</time>
      </trkpt>
      <trkpt lat="46.56155" lon="0.40164">
        <ele>118.5</ele>
        <time>2010-09-26T07:19:44Z</time>
      </trkpt>
      <trkpt lat="46.56155" lon="0.40164">
        <ele>118.5</ele>
        <time>2010-09-26T07:19:45Z</time>
      </trkpt>
      <trkpt lat="46.56155" lon="0.40164">
        <ele>118.5</ele>
        <time>2010-09-26T07:19:46Z</time>
      </trkpt>
      <trkpt lat="46.56155" lon="0.40164">
        <ele>118.5</ele>
        <time>2010-09-26T07:19:47Z</time>
      </trkpt>
      <trkpt lat="46.56155" lon="0.40164">
        <ele>118.5</ele>
        <time>2010-09-26T07:19:48Z</time>
      </trkpt>
      <trkpt lat="46.56155" lon="0.40164">
        <ele>118.5</ele>
        <time>2010-09-26T07:19:49Z</time>
      </trkpt>
      <trkpt lat="46.56155" lon="0.40164">
        <ele>118.5</ele>
        <time>2010-09-26T07:19:50Z</time>
      </trkpt>
      <trkpt lat="46.56155" lon="0.40164">
        <ele>118.5</ele>
        <time>2010-09-26T07:19:51Z</time>
      </trkpt>
      <trkpt lat="46.56155" lon="0.40164">
        <ele>118.5</ele>
        <time>2010-09-26T07:19:52Z</time>
      </trkpt>
      <trkpt lat="46.56155" lon="0.40164">
        <ele>118.5</ele>
        <time>2010-09-26T07:19:53Z</time>
      </trkpt>
      <trkpt lat="46.56155" lon="0.40164">
        <ele>118.5</ele>
        <time>2010-09-26T07:19:54Z</time>
      </trkpt>
      <trkpt lat="46.56155" lon="0.40164">
        <ele>118.5</ele>
        <time>2010-09-26T07:19:55Z</time>
      </trkpt>
      <trkpt lat="46.56155" lon="0.40164">
        <ele>118.5</ele>
        <time>2010-09-26T07:19:56Z</time>
      </trkpt>
      <trkpt lat="46.56155" lon="0.40164">
        <ele>118.5</ele>
        <time>2010-09-26T07:19:57Z</time>
      </trkpt>
      <trkpt lat="46.56155" lon="0.40164">
        <ele>118.5</ele>
        <time>2010-09-26T07:19:58Z</time>
      </trkpt>
      <trkpt lat="46.56155" lon="0.40164">
        <ele>118.5</ele>
        <time>2010-09-26T07:19:59Z</time>
      </trkpt>
      <trkpt lat="46.56155" lon="0.40164">
        <ele>118.5</ele>
        <time>2010-09-26T07:20:00Z</time>
      </trkpt>
      <trkpt lat="46.56155" lon="0.40164">
        <ele>118.5</ele>
        <time>2010-09-26T07:20:01Z</time>
      </trkpt>
      <trkpt lat="46.56155" lon="0.40164">
        <ele>118.5</ele>
        <time>2010-09-26T07:20:02Z</time>
      </trkpt>
      <trkpt lat="46.56155" lon="0.40164">
        <ele>118.5</ele>
        <time>2010-09-26T07:20:03Z</time>
      </trkpt>
      <trkpt lat="46.56155" lon="0.40164">
        <ele>118.5</ele>
        <time>2010-09-26T07:20:04Z</time>
      </trkpt>
      <trkpt lat="46.56155" lon="0.40164">
        <ele>118.5</ele>
        <time>2010-09-26T07:20:05Z</time>
      </trkpt>
      <trkpt lat="46.56155" lon="0.40164">
        <ele>118.5</ele>
        <time>2010-09-26T07:20:06Z</time>
      </trkpt>
      <trkpt lat="46.56155" lon="0.40164">
        <ele>118.5</ele>
        <time>2010-09-26T07:20:07Z</time>
      </trkpt>
      <trkpt lat="46.56155" lon="0.40164">
        <ele>118.5</ele>
        <time>2010-09-26T07:20:08Z</time>
      </trkpt>
      <trkpt lat="46.56155" lon="0.40164">
        <ele>118.5</ele>
        <time>2010-09-26T07:20:09Z</time>
      </trkpt>
      <trkpt lat="46.56155" lon="0.40164">
        <ele>118.5</ele>
        <time>2010-09-26T07:20:10Z</time>
      </trkpt>
      <trkpt lat="46.56155" lon="0.40164">
        <ele>118.5</ele>
        <time>2010-09-26T07:20:11Z</time>
      </trkpt>
      <trkpt lat="46.56155" lon="0.40164">
        <ele>118.5</ele>
        <time>2010-09-26T07:20:12Z</time>
      </trkpt>
      <trkpt lat="46.56155" lon="0.40164">
        <ele>118.5</ele>
        <time>2010-09-26T07:20:13Z</time>
      </trkpt>
      <trkpt lat="46.56155" lon="0.40164">
        <ele>118.5</ele>
        <time>2010-09-26T07:20:14Z</time>
      </trkpt>
      <trkpt lat="46.56155" lon="0.40164">
        <ele>118.5</ele>
        <time>2010-09-26T07:20:15Z</time>
      </trkpt>
      <trkpt lat="46.56155" lon="0.40164">
        <ele>118.5</ele>
        <time>2010-09-26T07:20:16Z</time>
      </trkpt>
      <trkpt lat="46.56155" lon="0.40164">
        <ele>118.5</ele>
        <time>2010-09-26T07:20:17Z</time>
      </trkpt>
      <trkpt lat="46.56155" lon="0.40164">
        <ele>118.5</ele>
        <time>2010-09-26T07:20:18Z</time>
      </trkpt>
      <trkpt lat="46.56155" lon="0.40164">
        <ele>118.5</ele>
        <time>2010-09-26T07:20:19Z</time>
      </trkpt>
      <trkpt lat="46.56155" lon="0.40164">
        <ele>118.5</ele>
        <time>2010-09-26T07:20:20Z</time>
      </trkpt>
      <trkpt lat="46.56155" lon="0.40164">
        <ele>118.5</ele>
        <time>2010-09-26T07:20:21Z</time>
      </trkpt>
      <trkpt lat="46.56155" lon="0.40164">
        <ele>118.5</ele>
        <time>2010-09-26T07:20:22Z</time>
      </trkpt>
      <trkpt lat="46.56155" lon="0.40164">
        <ele>118.5</ele>
        <time>2010-09-26T07:20:23Z</time>
      </trkpt>
      <trkpt lat="46.56155" lon="0.40164">
        <ele>118.5</ele>
        <time>2010-09-26T07:20:24Z</time>
      </trkpt>
      <trkpt lat="46.56155" lon="0.40164">
        <ele>118.5</ele>
        <time>2010-09-26T07:20:25Z</time>
      </trkpt>
      <trkpt lat="46.56155" lon="0.40164">
        <ele>118.5</ele>
        <time>2010-09-26T07:20:26Z</time>
      </trkpt>
      <trkpt lat="46.56155" lon="0.40164">
        <ele>118.5</ele>
        <time>2010-09-26T07:20:27Z</time>
      </trkpt>
      <trkpt lat="46.56155" lon="0.40164">
        <ele>118.5</ele>
        <time>2010-09-26T07:20:28Z</time>
      </trkpt>
      <trkpt lat="46.56155" lon="0.40164">
        <ele>118.5</ele>
        <time>2010-09-26T07:20:29Z</time>
      </trkpt>
      <trkpt lat="46.56155" lon="0.40164">
        <ele>118.5</ele>
        <time>2010-09-26T07:20:30Z</time>
      </trkpt>
      <trkpt lat="46.56155" lon="0.40164">
        <ele>118.5</ele>
        <time>2010-09-26T07:20:31Z</time>
      </trkpt>
      <trkpt lat="46.56155" lon="0.40164">
        <ele>118.5</ele>
        <time>2010-09-26T07:20:32Z</time>
      </trkpt>
      <trkpt lat="46.56155" lon="0.40164">
        <ele>118.5</ele>
        <time>2010-09-26T07:20:33Z</time>
      </trkpt>
      <trkpt lat="46.56155" lon="0.40164">
        <ele>118.5</ele>
        <time>2010-09-26T07:20:34Z</time>
      </trkpt>
      <trkpt lat="46.56155" lon="0.40164">
        <ele>118.5</ele>
        <time>2010-09-26T07:20:35Z</time>
      </trkpt>
      <trkpt lat="46.56155" lon="0.40164">
        <ele>118.5</ele>
        <time>2010-09-26T07:20:36Z</time>
      </trkpt>
      <trkpt lat="46.56155" lon="0.40164">
        <ele>118.5</ele>
        <time>2010-09-26T07:20:37Z</time>
      </trkpt>
      <trkpt lat="46.56155" lon="0.40164">
        <ele>118.5</ele>
        <time>2010-09-26T07:20:38Z</time>
      </trkpt>
      <trkpt lat="46.56155" lon="0.40164">
        <ele>118.5</ele>
        <time>2010-09-26T07:20:39Z</time>
      </trkpt>
      <trkpt lat="46.56155" lon="0.40164">
        <ele>118.5</ele>
        <time>2010-09-26T07:20:40Z</time>
      </trkpt>
      <trkpt lat="46.56155" lon="0.40164">
        <ele>118.5</ele>
        <time>2010-09-26T07:20:41Z</time>
      </trkpt>
      <trkpt lat="46.56155" lon="0.40164">
        <ele>118.5</ele>
        <time>2010-09-26T07:20:42Z</time>
      </trkpt>
      <trkpt lat="46.56155" lon="0.40164">
        <ele>118.5</ele>
        <time>2010-09-26T07:20:43Z</time>
      </trkpt>
      <trkpt lat="46.56155" lon="0.40164">
        <ele>118.5</ele>
        <time>2010-09-26T07:20:44Z</time>
      </trkpt>
      <trkpt lat="46.56155" lon="0.40164">
        <ele>118.5</ele>
        <time>2010-09-26T07:20:45Z</time>
      </trkpt>
      <trkpt lat="46.56155" lon="0.40164">
        <ele>118.5</ele>
        <time>2010-09-26T07:20:46Z</time>
      </trkpt>
      <trkpt lat="46.56155" lon="0.40164">
        <ele>118.5</ele>
        <time>2010-09-26T07:20:47Z</time>
      </trkpt>
      <trkpt lat="46.56155" lon="0.40164">
        <ele>118.5</ele>
        <time>2010-09-26T07:20:48Z</time>
      </trkpt>
      <trkpt lat="46.56155" lon="0.40164">
        <ele>118.5</ele>
        <time>2010-09-26T07:20:49Z</time>
      </trkpt>
      <trkpt lat="46.56155" lon="0.40164">
        <ele>118.5</ele>
        <time>2010-09-26T07:20:50Z</time>
      </trkpt>
      <trkpt lat="46.56155" lon="0.40164">
        <ele>118.5</ele>
        <time>2010-09-26T07:20:51Z</time>
      </trkpt>
      <trkpt lat="46.56155" lon="0.40164">
        <ele>118.5</ele>
        <time>2010-09-26T07:20:52Z</time>
      </trkpt>
      <trkpt lat="46.56155" lon="0.40164">
        <ele>118.5</ele>
        <time>2010-09-26T07:20:53Z</time>
      </trkpt>
      <trkpt lat="46.56155" lon="0.40164">
        <ele>118.5</ele>
        <time>2010-09-26T07:20:54Z</time>
      </trkpt>
      <trkpt lat="46.56155" lon="0.40164">
        <ele>118.5</ele>
        <time>2010-09-26T07:20:55Z</time>
      </trkpt>
      <trkpt lat="46.56155" lon="0.40164">
        <ele>118.5</ele>
        <time>2010-09-26T07:20:56Z</time>
      </trkpt>
      <trkpt lat="46.56155" lon="0.40164">
        <ele>118.5</ele>
        <time>2010-09-26T07:20:57Z</time>
      </trkpt>
      <trkpt lat="46.56155" lon="0.40164">
        <ele>118.5</ele>
        <time>2010-09-26T07:20:58Z</time>
      </trkpt>
      <trkpt lat="46.56155" lon="0.40164">
        <ele>118.5</ele>
        <time>2010-09-26T07:20:59Z</time>
      </trkpt>
      <trkpt lat="46.56155" lon="0.40164">
        <ele>118.5</ele>
        <time>2010-09-26T07:21:00Z</time>
      </trkpt>
      <trkpt lat="46.56155" lon="0.40164">
        <ele>118.5</ele>
        <time>2010-09-26T07:21:01Z</time>
      </trkpt>
      <trkpt lat="46.56155" lon="0.40164">
        <ele>118.5</ele>
        <time>2010-09-26T07:21:02Z</time>
      </trkpt>
      <trkpt lat="46.56155" lon="0.40164">
        <ele>118.5</ele>
        <time>2010-09-26T07:21:03Z</time>
      </trkpt>
      <trkpt lat="46.56155" lon="0.40164">
        <ele>118.5</ele>
        <time>2010-09-26T07:21:04Z</time>
      </trkpt>
      <trkpt lat="46.56155" lon="0.40164">
        <ele>118.5</ele>
        <time>2010-09-26T07:21:05Z</time>
      </trkpt>
      <trkpt lat="46.56155" lon="0.40164">
        <ele>118.5</ele>
        <time>2010-09-26T07:21:06Z</time>
      </trkpt>
      <trkpt lat="46.56155" lon="0.40164">
        <ele>118.5</ele>
        <time>2010-09-26T07:21:07Z</time>
      </trkpt>
      <trkpt lat="46.56155" lon="0.40164">
        <ele>118.5</ele>
        <time>2010-09-26T07:21:08Z</time>
      </trkpt>
      <trkpt lat="46.56155" lon="0.40164">
        <ele>118.5</ele>
        <time>2010-09-26T07:21:09Z</time>
      </trkpt>
      <trkpt lat="46.56155" lon="0.40164">
        <ele>118.5</ele>
        <time>2010-09-26T07:21:10Z</time>
      </trkpt>
      <trkpt lat="46.56155" lon="0.40164">
        <ele>118.5</ele>
        <time>2010-09-26T07:21:11Z</time>
      </trkpt>
      <trkpt lat="46.56155" lon="0.40164">
        <ele>118.5</ele>
        <time>2010-09-26T07:21:12Z</time>
      </trkpt>
      <trkpt lat="46.56155" lon="0.40164">
        <ele>118.5</ele>
        <time>2010-09-26T07:21:13Z</time>
      </trkpt>
      <trkpt lat="46.56155" lon="0.40164">
        <ele>118.5</ele>
        <time>2010-09-26T07:21:14Z</time>
      </trkpt>
      <trkpt lat="46.56155" lon="0.40164">
        <ele>118.5</ele>
        <time>2010-09-26T07:21:15Z</time>
      </trkpt>
      <trkpt lat="46.56155" lon="0.40164">
        <ele>118.5</ele>
        <time>2010-09-26T07:21:16Z</time>
      </trkpt>
      <trkpt lat="46.56155" lon="0.40164">
        <ele>118.5</ele>
        <time>2010-09-26T07:21:17Z</time>
      </trkpt>
      <trkpt lat="46.56155" lon="0.40163">
        <ele>118</ele>
        <time>2010-09-26T07:22:47Z</time>
      </trkpt>
      <trkpt lat="46.56154" lon="0.40163">
        <ele>117.9</ele>
        <time>2010-09-26T07:22:48Z</time>
      </trkpt>
      <trkpt lat="46.56154" lon="0.40163">
        <ele>117.9</ele>
        <time>2010-09-26T07:22:49Z</time>
      </trkpt>
      <trkpt lat="46.56154" lon="0.40163">
        <ele>117.9</ele>
        <time>2010-09-26T07:22:50Z</time>
      </trkpt>
      <trkpt lat="46.56154" lon="0.40163">
        <ele>117.9</ele>
        <time>2010-09-26T07:22:51Z</time>
      </trkpt>
      <trkpt lat="46.56154" lon="0.40163">
        <ele>117.9</ele>
        <time>2010-09-26T07:22:52Z</time>
      </trkpt>
      <trkpt lat="46.56154" lon="0.40163">
        <ele>117.9</ele>
        <time>2010-09-26T07:22:53Z</time>
      </trkpt>
      <trkpt lat="46.56154" lon="0.40163">
        <ele>117.9</ele>
        <time>2010-09-26T07:22:54Z</time>
      </trkpt>
      <trkpt lat="46.56154" lon="0.40163">
        <ele>117.9</ele>
        <time>2010-09-26T07:22:55Z</time>
      </trkpt>
      <trkpt lat="46.56154" lon="0.40163">
        <ele>117.9</ele>
        <time>2010-09-26T07:22:56Z</time>
      </trkpt>
      <trkpt lat="46.56154" lon="0.40163">
        <ele>117.9</ele>
        <time>2010-09-26T07:22:57Z</time>
      </trkpt>
      <trkpt lat="46.56154" lon="0.40163">
        <ele>117.9</ele>
        <time>2010-09-26T07:22:58Z</time>
      </trkpt>
      <trkpt lat="46.56154" lon="0.40163">
        <ele>117.9</ele>
        <time>2010-09-26T07:22:59Z</time>
      </trkpt>
      <trkpt lat="46.56154" lon="0.40163">
        <ele>117.9</ele>
        <time>2010-09-26T07:23:00Z</time>
      </trkpt>
      <trkpt lat="46.56154" lon="0.40163">
        <ele>117.9</ele>
        <time>2010-09-26T07:23:01Z</time>
      </trkpt>
      <trkpt lat="46.56154" lon="0.40163">
        <ele>117.9</ele>
        <time>2010-09-26T07:23:02Z</time>
      </trkpt>
      <trkpt lat="46.56154" lon="0.40163">
        <ele>117.9</ele>
        <time>2010-09-26T07:23:03Z</time>
      </trkpt>
      <trkpt lat="46.56154" lon="0.40163">
        <ele>117.9</ele>
        <time>2010-09-26T07:23:04Z</time>
      </trkpt>
      <trkpt lat="46.56154" lon="0.40163">
        <ele>117.9</ele>
        <time>2010-09-26T07:23:05Z</time>
      </trkpt>
      <trkpt lat="46.56154" lon="0.40163">
        <ele>117.9</ele>
        <time>2010-09-26T07:23:06Z</time>
      </trkpt>
      <trkpt lat="46.56154" lon="0.40163">
        <ele>117.9</ele>
        <time>2010-09-26T07:23:07Z</time>
      </trkpt>
      <trkpt lat="46.56154" lon="0.40163">
        <ele>117.6</ele>
        <time>2010-09-26T07:23:08Z</time>
      </trkpt>
      <trkpt lat="46.56154" lon="0.40163">
        <ele>117.6</ele>
        <time>2010-09-26T07:23:09Z</time>
      </trkpt>
      <trkpt lat="46.56154" lon="0.40163">
        <ele>117.6</ele>
        <time>2010-09-26T07:23:10Z</time>
      </trkpt>
      <trkpt lat="46.56154" lon="0.40163">
        <ele>117.6</ele>
        <time>2010-09-26T07:23:11Z</time>
      </trkpt>
      <trkpt lat="46.56154" lon="0.40163">
        <ele>117.5</ele>
        <time>2010-09-26T07:23:12Z</time>
      </trkpt>
      <trkpt lat="46.56154" lon="0.40163">
        <ele>117.5</ele>
        <time>2010-09-26T07:23:13Z</time>
      </trkpt>
      <trkpt lat="46.56155" lon="0.40164">
        <ele>117.5</ele>
        <time>2010-09-26T07:23:14Z</time>
      </trkpt>
      <trkpt lat="46.56164" lon="0.40173">
        <ele>118.5</ele>
        <time>2010-09-26T07:23:18Z</time>
      </trkpt>
      <trkpt lat="46.56172" lon="0.4018">
        <ele>118.8</ele>
        <time>2010-09-26T07:23:21Z</time>
      </trkpt>
      <trkpt lat="46.56173" lon="0.40182">
        <ele>119</ele>
        <time>2010-09-26T07:23:22Z</time>
      </trkpt>
      <trkpt lat="46.56174" lon="0.40185">
        <ele>119.1</ele>
        <time>2010-09-26T07:23:23Z</time>
      </trkpt>
      <trkpt lat="46.56174" lon="0.40188">
        <ele>119.5</ele>
        <time>2010-09-26T07:23:24Z</time>
      </trkpt>
      <trkpt lat="46.56173" lon="0.40192">
        <ele>119.5</ele>
        <time>2010-09-26T07:23:25Z</time>
      </trkpt>
      <trkpt lat="46.56172" lon="0.40195">
        <ele>119.5</ele>
        <time>2010-09-26T07:23:26Z</time>
      </trkpt>
      <trkpt lat="46.5617" lon="0.40199">
        <ele>119.3</ele>
        <time>2010-09-26T07:23:27Z</time>
      </trkpt>
      <trkpt lat="46.56168" lon="0.40203">
        <ele>119.1</ele>
        <time>2010-09-26T07:23:28Z</time>
      </trkpt>
      <trkpt lat="46.56165" lon="0.40215">
        <ele>117.5</ele>
        <time>2010-09-26T07:23:31Z</time>
      </trkpt>
      <trkpt lat="46.56165" lon="0.40217">
        <ele>117.6</ele>
        <time>2010-09-26T07:23:34Z</time>
      </trkpt>
      <trkpt lat="46.56165" lon="0.40218">
        <ele>117.4</ele>
        <time>2010-09-26T07:23:35Z</time>
      </trkpt>
      <trkpt lat="46.56164" lon="0.40221">
        <ele>117.5</ele>
        <time>2010-09-26T07:23:36Z</time>
      </trkpt>
      <trkpt lat="46.56166" lon="0.40225">
        <ele>117.3</ele>
        <time>2010-09-26T07:23:37Z</time>
      </trkpt>
      <trkpt lat="46.56168" lon="0.40228">
        <ele>117</ele>
        <time>2010-09-26T07:23:38Z</time>
      </trkpt>
      <trkpt lat="46.56172" lon="0.40231">
        <ele>116.9</ele>
        <time>2010-09-26T07:23:39Z</time>
      </trkpt>
      <trkpt lat="46.56276" lon="0.40308">
        <ele>116</ele>
        <time>2010-09-26T07:23:54Z</time>
      </trkpt>
      <trkpt lat="46.56286" lon="0.40311">
        <ele>116.5</ele>
        <time>2010-09-26T07:23:55Z</time>
      </trkpt>
      <trkpt lat="46.56296" lon="0.40312">
        <ele>116.5</ele>
        <time>2010-09-26T07:23:56Z</time>
      </trkpt>
      <trkpt lat="46.56305" lon="0.40312">
        <ele>116.5</ele>
        <time>2010-09-26T07:23:57Z</time>
      </trkpt>
      <trkpt lat="46.56322" lon="0.40311">
        <ele>116.5</ele>
        <time>2010-09-26T07:23:59Z</time>
      </trkpt>
      <trkpt lat="46.56331" lon="0.40313">
        <ele>116.4</ele>
        <time>2010-09-26T07:24:00Z</time>
      </trkpt>
      <trkpt lat="46.5634" lon="0.40316">
        <ele>115.5</ele>
        <time>2010-09-26T07:24:01Z</time>
      </trkpt>
      <trkpt lat="46.56406" lon="0.4035">
        <ele>112.1</ele>
        <time>2010-09-26T07:24:10Z</time>
      </trkpt>
      <trkpt lat="46.56414" lon="0.40355">
        <ele>112</ele>
        <time>2010-09-26T07:24:14Z</time>
      </trkpt>
      <trkpt lat="46.56416" lon="0.40355">
        <ele>112</ele>
        <time>2010-09-26T07:24:15Z</time>
      </trkpt>
      <trkpt lat="46.56419" lon="0.40353">
        <ele>111.5</ele>
        <time>2010-09-26T07:24:16Z</time>
      </trkpt>
      <trkpt lat="46.56421" lon="0.40349">
        <ele>111.6</ele>
        <time>2010-09-26T07:24:17Z</time>
      </trkpt>
      <trkpt lat="46.56426" lon="0.40338">
        <ele>112.3</ele>
        <time>2010-09-26T07:24:20Z</time>
      </trkpt>
      <trkpt lat="46.56426" lon="0.40335">
        <ele>112</ele>
        <time>2010-09-26T07:24:21Z</time>
      </trkpt>
      <trkpt lat="46.56427" lon="0.4033">
        <ele>112.4</ele>
        <time>2010-09-26T07:24:23Z</time>
      </trkpt>
      <trkpt lat="46.56427" lon="0.40328">
        <ele>112.1</ele>
        <time>2010-09-26T07:24:26Z</time>
      </trkpt>
      <trkpt lat="46.56427" lon="0.40328">
        <ele>112.1</ele>
        <time>2010-09-26T07:24:27Z</time>
      </trkpt>
      <trkpt lat="46.56427" lon="0.40326">
        <ele>112.3</ele>
        <time>2010-09-26T07:24:28Z</time>
      </trkpt>
      <trkpt lat="46.56429" lon="0.40311">
        <ele>112.4</ele>
        <time>2010-09-26T07:24:30Z</time>
      </trkpt>
      <trkpt lat="46.5645" lon="0.40189">
        <ele>116.4</ele>
        <time>2010-09-26T07:24:38Z</time>
      </trkpt>
      <trkpt lat="46.56452" lon="0.40177">
        <ele>116.5</ele>
        <time>2010-09-26T07:24:39Z</time>
      </trkpt>
      <trkpt lat="46.56456" lon="0.40168">
        <ele>116.5</ele>
        <time>2010-09-26T07:24:40Z</time>
      </trkpt>
      <trkpt lat="46.56461" lon="0.40161">
        <ele>116.5</ele>
        <time>2010-09-26T07:24:41Z</time>
      </trkpt>
      <trkpt lat="46.56468" lon="0.40157">
        <ele>116.5</ele>
        <time>2010-09-26T07:24:42Z</time>
      </trkpt>
      <trkpt lat="46.56475" lon="0.40156">
        <ele>116.5</ele>
        <time>2010-09-26T07:24:43Z</time>
      </trkpt>
      <trkpt lat="46.56482" lon="0.40159">
        <ele>116.8</ele>
        <time>2010-09-26T07:24:44Z</time>
      </trkpt>
      <trkpt lat="46.56489" lon="0.40164">
        <ele>117</ele>
        <time>2010-09-26T07:24:45Z</time>
      </trkpt>
      <trkpt lat="46.56496" lon="0.40169">
        <ele>116.8</ele>
        <time>2010-09-26T07:24:46Z</time>
      </trkpt>
      <trkpt lat="46.56502" lon="0.40172">
        <ele>116.8</ele>
        <time>2010-09-26T07:24:47Z</time>
      </trkpt>
      <trkpt lat="46.56515" lon="0.40176">
        <ele>116.5</ele>
        <time>2010-09-26T07:24:49Z</time>
      </trkpt>
      <trkpt lat="46.56522" lon="0.40176">
        <ele>116</ele>
        <time>2010-09-26T07:24:50Z</time>
      </trkpt>
      <trkpt lat="46.56574" lon="0.40186">
        <ele>113.5</ele>
        <time>2010-09-26T07:24:56Z</time>
      </trkpt>
      <trkpt lat="46.56583" lon="0.4019">
        <ele>113.5</ele>
        <time>2010-09-26T07:24:57Z</time>
      </trkpt>
      <trkpt lat="46.56593" lon="0.40196">
        <ele>113.4</ele>
        <time>2010-09-26T07:24:58Z</time>
      </trkpt>
      <trkpt lat="46.56612" lon="0.40212">
        <ele>113.3</ele>
        <time>2010-09-26T07:25:00Z</time>
      </trkpt>
      <trkpt lat="46.56652" lon="0.40252">
        <ele>114.6</ele>
        <time>2010-09-26T07:25:05Z</time>
      </trkpt>
      <trkpt lat="46.5666" lon="0.40253">
        <ele>114.8</ele>
        <time>2010-09-26T07:25:06Z</time>
      </trkpt>
      <trkpt lat="46.56666" lon="0.40249">
        <ele>115</ele>
        <time>2010-09-26T07:25:07Z</time>
      </trkpt>
      <trkpt lat="46.56672" lon="0.40242">
        <ele>115.3</ele>
        <time>2010-09-26T07:25:08Z</time>
      </trkpt>
      <trkpt lat="46.56676" lon="0.40233">
        <ele>115.4</ele>
        <time>2010-09-26T07:25:09Z</time>
      </trkpt>
      <trkpt lat="46.56679" lon="0.4022">
        <ele>116</ele>
        <time>2010-09-26T07:25:10Z</time>
      </trkpt>
      <trkpt lat="46.56685" lon="0.40197">
        <ele>116.3</ele>
        <time>2010-09-26T07:25:12Z</time>
      </trkpt>
      <trkpt lat="46.5669" lon="0.40188">
        <ele>116</ele>
        <time>2010-09-26T07:25:13Z</time>
      </trkpt>
      <trkpt lat="46.56697" lon="0.40182">
        <ele>116.9</ele>
        <time>2010-09-26T07:25:14Z</time>
      </trkpt>
      <trkpt lat="46.56706" lon="0.4018">
        <ele>117</ele>
        <time>2010-09-26T07:25:15Z</time>
      </trkpt>
      <trkpt lat="46.56717" lon="0.40179">
        <ele>117</ele>
        <time>2010-09-26T07:25:16Z</time>
      </trkpt>
      <trkpt lat="46.56728" lon="0.40181">
        <ele>117</ele>
        <time>2010-09-26T07:25:17Z</time>
      </trkpt>
      <trkpt lat="46.56809" lon="0.40199">
        <ele>118.5</ele>
        <time>2010-09-26T07:25:24Z</time>
      </trkpt>
      <trkpt lat="46.56816" lon="0.40199">
        <ele>118.1</ele>
        <time>2010-09-26T07:25:25Z</time>
      </trkpt>
      <trkpt lat="46.56823" lon="0.40198">
        <ele>118.5</ele>
        <time>2010-09-26T07:25:26Z</time>
      </trkpt>
      <trkpt lat="46.56833" lon="0.40193">
        <ele>118</ele>
        <time>2010-09-26T07:25:28Z</time>
      </trkpt>
      <trkpt lat="46.56847" lon="0.40184">
        <ele>117.5</ele>
        <time>2010-09-26T07:25:30Z</time>
      </trkpt>
      <trkpt lat="46.56865" lon="0.40171">
        <ele>117.9</ele>
        <time>2010-09-26T07:25:32Z</time>
      </trkpt>
      <trkpt lat="46.56874" lon="0.40161">
        <ele>118</ele>
        <time>2010-09-26T07:25:33Z</time>
      </trkpt>
      <trkpt lat="46.56911" lon="0.4012">
        <ele>118.3</ele>
        <time>2010-09-26T07:25:37Z</time>
      </trkpt>
      <trkpt lat="46.56919" lon="0.40109">
        <ele>118.5</ele>
        <time>2010-09-26T07:25:38Z</time>
      </trkpt>
      <trkpt lat="46.57017" lon="0.39984">
        <ele>122.1</ele>
        <time>2010-09-26T07:25:52Z</time>
      </trkpt>
      <trkpt lat="46.57024" lon="0.39978">
        <ele>122.5</ele>
        <time>2010-09-26T07:25:53Z</time>
      </trkpt>
      <trkpt lat="46.57032" lon="0.39973">
        <ele>122.8</ele>
        <time>2010-09-26T07:25:54Z</time>
      </trkpt>
      <trkpt lat="46.5704" lon="0.39968">
        <ele>123.4</ele>
        <time>2010-09-26T07:25:55Z</time>
      </trkpt>
      <trkpt lat="46.5705" lon="0.39966">
        <ele>123.6</ele>
        <time>2010-09-26T07:25:56Z</time>
      </trkpt>
      <trkpt lat="46.57059" lon="0.39966">
        <ele>124</ele>
        <time>2010-09-26T07:25:57Z</time>
      </trkpt>
      <trkpt lat="46.57068" lon="0.39969">
        <ele>124</ele>
        <time>2010-09-26T07:25:58Z</time>
      </trkpt>
      <trkpt lat="46.57077" lon="0.39975">
        <ele>124.4</ele>
        <time>2010-09-26T07:25:59Z</time>
      </trkpt>
      <trkpt lat="46.57085" lon="0.39983">
        <ele>124.5</ele>
        <time>2010-09-26T07:26:00Z</time>
      </trkpt>
      <trkpt lat="46.57093" lon="0.39993">
        <ele>124.8</ele>
        <time>2010-09-26T07:26:01Z</time>
      </trkpt>
      <trkpt lat="46.57113" lon="0.40021">
        <ele>125</ele>
        <time>2010-09-26T07:26:04Z</time>
      </trkpt>
      <trkpt lat="46.57121" lon="0.40028">
        <ele>125.1</ele>
        <time>2010-09-26T07:26:05Z</time>
      </trkpt>
      <trkpt lat="46.57129" lon="0.40032">
        <ele>125.3</ele>
        <time>2010-09-26T07:26:06Z</time>
      </trkpt>
      <trkpt lat="46.57137" lon="0.40033">
        <ele>124.5</ele>
        <time>2010-09-26T07:26:07Z</time>
      </trkpt>
      <trkpt lat="46.57144" lon="0.40031">
        <ele>124.9</ele>
        <time>2010-09-26T07:26:08Z</time>
      </trkpt>
      <trkpt lat="46.57149" lon="0.40028">
        <ele>124.1</ele>
        <time>2010-09-26T07:26:09Z</time>
      </trkpt>
      <trkpt lat="46.57154" lon="0.40023">
        <ele>124.5</ele>
        <time>2010-09-26T07:26:10Z</time>
      </trkpt>
      <trkpt lat="46.57157" lon="0.40018">
        <ele>124.1</ele>
        <time>2010-09-26T07:26:11Z</time>
      </trkpt>
      <trkpt lat="46.57181" lon="0.39979">
        <ele>123.1</ele>
        <time>2010-09-26T07:26:41Z</time>
      </trkpt>
      <trkpt lat="46.57182" lon="0.39979">
        <ele>123.1</ele>
        <time>2010-09-26T07:26:42Z</time>
      </trkpt>
      <trkpt lat="46.57183" lon="0.3998">
        <ele>124</ele>
        <time>2010-09-26T07:26:43Z</time>
      </trkpt>
      <trkpt lat="46.57189" lon="0.39984">
        <ele>124.6</ele>
        <time>2010-09-26T07:26:45Z</time>
      </trkpt>
      <trkpt lat="46.5721" lon="0.39998">
        <ele>125.1</ele>
        <time>2010-09-26T07:26:48Z</time>
      </trkpt>
      <trkpt lat="46.57293" lon="0.40054">
        <ele>124.8</ele>
        <time>2010-09-26T07:26:57Z</time>
      </trkpt>
      <trkpt lat="46.57302" lon="0.40058">
        <ele>124.6</ele>
        <time>2010-09-26T07:26:58Z</time>
      </trkpt>
      <trkpt lat="46.57319" lon="0.40063">
        <ele>123.5</ele>
        <time>2010-09-26T07:27:00Z</time>
      </trkpt>
      <trkpt lat="46.57328" lon="0.40066">
        <ele>121.6</ele>
        <time>2010-09-26T07:27:01Z</time>
      </trkpt>
      <trkpt lat="46.57357" lon="0.4007">
        <ele>119.9</ele>
        <time>2010-09-26T07:27:04Z</time>
      </trkpt>
      <trkpt lat="46.57458" lon="0.40063">
        <ele>118</ele>
        <time>2010-09-26T07:27:13Z</time>
      </trkpt>
      <trkpt lat="46.5747" lon="0.40064">
        <ele>118.4</ele>
        <time>2010-09-26T07:27:14Z</time>
      </trkpt>
      <trkpt lat="46.57533" lon="0.40071">
        <ele>118.9</ele>
        <time>2010-09-26T07:27:19Z</time>
      </trkpt>
      <trkpt lat="46.57581" lon="0.40082">
        <ele>118.9</ele>
        <time>2010-09-26T07:27:23Z</time>
      </trkpt>
      <trkpt lat="46.57671" lon="0.40106">
        <ele>117.3</ele>
        <time>2010-09-26T07:27:32Z</time>
      </trkpt>
      <trkpt lat="46.57681" lon="0.40106">
        <ele>117</ele>
        <time>2010-09-26T07:27:33Z</time>
      </trkpt>
      <trkpt lat="46.57691" lon="0.40106">
        <ele>116.8</ele>
        <time>2010-09-26T07:27:34Z</time>
      </trkpt>
      <trkpt lat="46.57702" lon="0.40105">
        <ele>116.6</ele>
        <time>2010-09-26T07:27:35Z</time>
      </trkpt>
      <trkpt lat="46.57713" lon="0.40105">
        <ele>116.5</ele>
        <time>2010-09-26T07:27:36Z</time>
      </trkpt>
      <trkpt lat="46.57755" lon="0.40112">
        <ele>116.3</ele>
        <time>2010-09-26T07:27:40Z</time>
      </trkpt>
      <trkpt lat="46.57805" lon="0.40125">
        <ele>115</ele>
        <time>2010-09-26T07:27:45Z</time>
      </trkpt>
      <trkpt lat="46.57832" lon="0.40138">
        <ele>114</ele>
        <time>2010-09-26T07:27:49Z</time>
      </trkpt>
      <trkpt lat="46.57837" lon="0.40141">
        <ele>113.9</ele>
        <time>2010-09-26T07:27:50Z</time>
      </trkpt>
      <trkpt lat="46.57845" lon="0.4015">
        <ele>113.5</ele>
        <time>2010-09-26T07:27:52Z</time>
      </trkpt>
      <trkpt lat="46.57848" lon="0.40155">
        <ele>113.4</ele>
        <time>2010-09-26T07:27:53Z</time>
      </trkpt>
      <trkpt lat="46.57849" lon="0.40163">
        <ele>113.1</ele>
        <time>2010-09-26T07:27:54Z</time>
      </trkpt>
      <trkpt lat="46.57848" lon="0.40173">
        <ele>113.4</ele>
        <time>2010-09-26T07:27:55Z</time>
      </trkpt>
      <trkpt lat="46.57838" lon="0.40248">
        <ele>111.9</ele>
        <time>2010-09-26T07:28:01Z</time>
      </trkpt>
      <trkpt lat="46.57833" lon="0.40261">
        <ele>111.8</ele>
        <time>2010-09-26T07:28:02Z</time>
      </trkpt>
      <trkpt lat="46.57613" lon="0.4081">
        <ele>105.4</ele>
        <time>2010-09-26T07:28:38Z</time>
      </trkpt>
      <trkpt lat="46.57607" lon="0.40822">
        <ele>105.4</ele>
        <time>2010-09-26T07:28:39Z</time>
      </trkpt>
      <trkpt lat="46.57557" lon="0.40917">
        <ele>102</ele>
        <time>2010-09-26T07:28:47Z</time>
      </trkpt>
      <trkpt lat="46.57552" lon="0.40931">
        <ele>101.5</ele>
        <time>2010-09-26T07:28:48Z</time>
      </trkpt>
      <trkpt lat="46.57539" lon="0.4096">
        <ele>100.9</ele>
        <time>2010-09-26T07:28:50Z</time>
      </trkpt>
      <trkpt lat="46.57489" lon="0.41056">
        <ele>98.8</ele>
        <time>2010-09-26T07:29:29Z</time>
      </trkpt>
      <trkpt lat="46.57489" lon="0.41057">
        <ele>98.6</ele>
        <time>2010-09-26T07:29:30Z</time>
      </trkpt>
      <trkpt lat="46.57487" lon="0.41061">
        <ele>98.5</ele>
        <time>2010-09-26T07:29:31Z</time>
      </trkpt>
      <trkpt lat="46.57482" lon="0.41066">
        <ele>98.4</ele>
        <time>2010-09-26T07:29:32Z</time>
      </trkpt>
      <trkpt lat="46.57471" lon="0.41083">
        <ele>97.9</ele>
        <time>2010-09-26T07:29:34Z</time>
      </trkpt>
      <trkpt lat="46.57465" lon="0.41095">
        <ele>98.1</ele>
        <time>2010-09-26T07:29:35Z</time>
      </trkpt>
      <trkpt lat="46.57405" lon="0.41215">
        <ele>98.6</ele>
        <time>2010-09-26T07:29:45Z</time>
      </trkpt>
      <trkpt lat="46.574" lon="0.41221">
        <ele>99.6</ele>
        <time>2010-09-26T07:29:46Z</time>
      </trkpt>
      <trkpt lat="46.57396" lon="0.41229">
        <ele>99.6</ele>
        <time>2010-09-26T07:29:47Z</time>
      </trkpt>
      <trkpt lat="46.57393" lon="0.41237">
        <ele>99.8</ele>
        <time>2010-09-26T07:29:48Z</time>
      </trkpt>
      <trkpt lat="46.5728" lon="0.41584">
        <ele>96.3</ele>
        <time>2010-09-26T07:30:11Z</time>
      </trkpt>
      <trkpt lat="46.57277" lon="0.41601">
        <ele>95.8</ele>
        <time>2010-09-26T07:30:12Z</time>
      </trkpt>
      <trkpt lat="46.57238" lon="0.41804">
        <ele>93.6</ele>
        <time>2010-09-26T07:30:26Z</time>
      </trkpt>
      <trkpt lat="46.57236" lon="0.41818">
        <ele>94</ele>
        <time>2010-09-26T07:30:27Z</time>
      </trkpt>
      <trkpt lat="46.57147" lon="0.42578">
        <ele>96.1</ele>
        <time>2010-09-26T07:31:16Z</time>
      </trkpt>
      <trkpt lat="46.57147" lon="0.42583">
        <ele>96.1</ele>
        <time>2010-09-26T07:31:17Z</time>
      </trkpt>
      <trkpt lat="46.57147" lon="0.42592">
        <ele>95.3</ele>
        <time>2010-09-26T07:31:19Z</time>
      </trkpt>
      <trkpt lat="46.57107" lon="0.43101">
        <ele>103.3</ele>
        <time>2010-09-26T07:32:07Z</time>
      </trkpt>
      <trkpt lat="46.57102" lon="0.4313">
        <ele>103.9</ele>
        <time>2010-09-26T07:32:09Z</time>
      </trkpt>
      <trkpt lat="46.57082" lon="0.43274">
        <ele>109.5</ele>
        <time>2010-09-26T07:32:24Z</time>
      </trkpt>
      <trkpt lat="46.57082" lon="0.4328">
        <ele>109.9</ele>
        <time>2010-09-26T07:32:25Z</time>
      </trkpt>
      <trkpt lat="46.57082" lon="0.43287">
        <ele>110</ele>
        <time>2010-09-26T07:32:26Z</time>
      </trkpt>
      <trkpt lat="46.57083" lon="0.43297">
        <ele>110.5</ele>
        <time>2010-09-26T07:32:27Z</time>
      </trkpt>
      <trkpt lat="46.57091" lon="0.43567">
        <ele>113</ele>
        <time>2010-09-26T07:32:41Z</time>
      </trkpt>
      <trkpt lat="46.57086" lon="0.43631">
        <ele>112.9</ele>
        <time>2010-09-26T07:32:44Z</time>
      </trkpt>
      <trkpt lat="46.57075" lon="0.43715">
        <ele>111.6</ele>
        <time>2010-09-26T07:32:48Z</time>
      </trkpt>
      <trkpt lat="46.57048" lon="0.43904">
        <ele>108</ele>
        <time>2010-09-26T07:32:57Z</time>
      </trkpt>
      <trkpt lat="46.57047" lon="0.43926">
        <ele>107.8</ele>
        <time>2010-09-26T07:32:58Z</time>
      </trkpt>
      <trkpt lat="46.57049" lon="0.44057">
        <ele>104.9</ele>
        <time>2010-09-26T07:33:04Z</time>
      </trkpt>
      <trkpt lat="46.57052" lon="0.44098">
        <ele>103.6</ele>
        <time>2010-09-26T07:33:06Z</time>
      </trkpt>
      <trkpt lat="46.57064" lon="0.44203">
        <ele>100.9</ele>
        <time>2010-09-26T07:33:12Z</time>
      </trkpt>
      <trkpt lat="46.57071" lon="0.44237">
        <ele>99.4</ele>
        <time>2010-09-26T07:33:14Z</time>
      </trkpt>
      <trkpt lat="46.57089" lon="0.44311">
        <ele>96</ele>
        <time>2010-09-26T07:33:18Z</time>
      </trkpt>
      <trkpt lat="46.57162" lon="0.44563">
        <ele>99.5</ele>
        <time>2010-09-26T07:33:32Z</time>
      </trkpt>
      <trkpt lat="46.57162" lon="0.44574">
        <ele>100.3</ele>
        <time>2010-09-26T07:33:33Z</time>
      </trkpt>
      <trkpt lat="46.57159" lon="0.44583">
        <ele>100.9</ele>
        <time>2010-09-26T07:33:34Z</time>
      </trkpt>
      <trkpt lat="46.57154" lon="0.4459">
        <ele>101</ele>
        <time>2010-09-26T07:33:35Z</time>
      </trkpt>
      <trkpt lat="46.5712" lon="0.44629">
        <ele>104.8</ele>
        <time>2010-09-26T07:33:41Z</time>
      </trkpt>
      <trkpt lat="46.57116" lon="0.44636">
        <ele>105.4</ele>
        <time>2010-09-26T07:33:42Z</time>
      </trkpt>
      <trkpt lat="46.57113" lon="0.44644">
        <ele>105.8</ele>
        <time>2010-09-26T07:33:43Z</time>
      </trkpt>
      <trkpt lat="46.57111" lon="0.44652">
        <ele>105.8</ele>
        <time>2010-09-26T07:33:44Z</time>
      </trkpt>
      <trkpt lat="46.5711" lon="0.44661">
        <ele>106.4</ele>
        <time>2010-09-26T07:33:45Z</time>
      </trkpt>
      <trkpt lat="46.5708" lon="0.44803">
        <ele>111.5</ele>
        <time>2010-09-26T07:33:57Z</time>
      </trkpt>
      <trkpt lat="46.57072" lon="0.44826">
        <ele>112.5</ele>
        <time>2010-09-26T07:33:59Z</time>
      </trkpt>
      <trkpt lat="46.57062" lon="0.44848">
        <ele>113.1</ele>
        <time>2010-09-26T07:34:01Z</time>
      </trkpt>
      <trkpt lat="46.57051" lon="0.44868">
        <ele>113.6</ele>
        <time>2010-09-26T07:34:03Z</time>
      </trkpt>
      <trkpt lat="46.57044" lon="0.44877">
        <ele>113.8</ele>
        <time>2010-09-26T07:34:04Z</time>
      </trkpt>
      <trkpt lat="46.56962" lon="0.44988">
        <ele>113.4</ele>
        <time>2010-09-26T07:34:13Z</time>
      </trkpt>
      <trkpt lat="46.56953" lon="0.45006">
        <ele>113.5</ele>
        <time>2010-09-26T07:34:14Z</time>
      </trkpt>
      <trkpt lat="46.56857" lon="0.45192">
        <ele>115.9</ele>
        <time>2010-09-26T07:34:27Z</time>
      </trkpt>
      <trkpt lat="46.5685" lon="0.45202">
        <ele>115.5</ele>
        <time>2010-09-26T07:34:28Z</time>
      </trkpt>
      <trkpt lat="46.56743" lon="0.45321">
        <ele>114.5</ele>
        <time>2010-09-26T07:34:38Z</time>
      </trkpt>
      <trkpt lat="46.5673" lon="0.45332">
        <ele>114.1</ele>
        <time>2010-09-26T07:34:39Z</time>
      </trkpt>
      <trkpt lat="46.56631" lon="0.45406">
        <ele>115.4</ele>
        <time>2010-09-26T07:34:47Z</time>
      </trkpt>
      <trkpt lat="46.56621" lon="0.45418">
        <ele>115.8</ele>
        <time>2010-09-26T07:34:48Z</time>
      </trkpt>
      <trkpt lat="46.56604" lon="0.45444">
        <ele>117.3</ele>
        <time>2010-09-26T07:34:50Z</time>
      </trkpt>
      <trkpt lat="46.56599" lon="0.45457">
        <ele>117.9</ele>
        <time>2010-09-26T07:34:51Z</time>
      </trkpt>
      <trkpt lat="46.56594" lon="0.45469">
        <ele>118.4</ele>
        <time>2010-09-26T07:34:52Z</time>
      </trkpt>
      <trkpt lat="46.56578" lon="0.45509">
        <ele>119.8</ele>
        <time>2010-09-26T07:34:56Z</time>
      </trkpt>
      <trkpt lat="46.5657" lon="0.45522">
        <ele>120</ele>
        <time>2010-09-26T07:34:58Z</time>
      </trkpt>
      <trkpt lat="46.56567" lon="0.4553">
        <ele>120</ele>
        <time>2010-09-26T07:35:00Z</time>
      </trkpt>
      <trkpt lat="46.56566" lon="0.45535">
        <ele>120.5</ele>
        <time>2010-09-26T07:35:01Z</time>
      </trkpt>
      <trkpt lat="46.56567" lon="0.4554">
        <ele>120.1</ele>
        <time>2010-09-26T07:35:02Z</time>
      </trkpt>
      <trkpt lat="46.56569" lon="0.45547">
        <ele>120.1</ele>
        <time>2010-09-26T07:35:03Z</time>
      </trkpt>
      <trkpt lat="46.56574" lon="0.45561">
        <ele>120</ele>
        <time>2010-09-26T07:35:05Z</time>
      </trkpt>
      <trkpt lat="46.56578" lon="0.45569">
        <ele>120.6</ele>
        <time>2010-09-26T07:35:06Z</time>
      </trkpt>
      <trkpt lat="46.56583" lon="0.45575">
        <ele>121</ele>
        <time>2010-09-26T07:35:07Z</time>
      </trkpt>
      <trkpt lat="46.56589" lon="0.4558">
        <ele>121.5</ele>
        <time>2010-09-26T07:35:08Z</time>
      </trkpt>
      <trkpt lat="46.5664" lon="0.45622">
        <ele>121.8</ele>
        <time>2010-09-26T07:35:18Z</time>
      </trkpt>
      <trkpt lat="46.56644" lon="0.45627">
        <ele>121.8</ele>
        <time>2010-09-26T07:35:19Z</time>
      </trkpt>
      <trkpt lat="46.56647" lon="0.45633">
        <ele>122</ele>
        <time>2010-09-26T07:35:20Z</time>
      </trkpt>
      <trkpt lat="46.56651" lon="0.4564">
        <ele>122.4</ele>
        <time>2010-09-26T07:35:21Z</time>
      </trkpt>
      <trkpt lat="46.56671" lon="0.45679">
        <ele>123</ele>
        <time>2010-09-26T07:35:26Z</time>
      </trkpt>
      <trkpt lat="46.56698" lon="0.45729">
        <ele>123.3</ele>
        <time>2010-09-26T07:35:31Z</time>
      </trkpt>
      <trkpt lat="46.56701" lon="0.45742">
        <ele>123.5</ele>
        <time>2010-09-26T07:35:32Z</time>
      </trkpt>
      <trkpt lat="46.56704" lon="0.45756">
        <ele>123.5</ele>
        <time>2010-09-26T07:35:33Z</time>
      </trkpt>
      <trkpt lat="46.56708" lon="0.45785">
        <ele>123.5</ele>
        <time>2010-09-26T07:35:36Z</time>
      </trkpt>
      <trkpt lat="46.56707" lon="0.45793">
        <ele>123.9</ele>
        <time>2010-09-26T07:35:37Z</time>
      </trkpt>
      <trkpt lat="46.56706" lon="0.45802">
        <ele>124</ele>
        <time>2010-09-26T07:35:38Z</time>
      </trkpt>
      <trkpt lat="46.56685" lon="0.45894">
        <ele>125.6</ele>
        <time>2010-09-26T07:35:46Z</time>
      </trkpt>
      <trkpt lat="46.56681" lon="0.45906">
        <ele>125.9</ele>
        <time>2010-09-26T07:35:47Z</time>
      </trkpt>
      <trkpt lat="46.5667" lon="0.45942">
        <ele>126.5</ele>
        <time>2010-09-26T07:35:50Z</time>
      </trkpt>
      <trkpt lat="46.56668" lon="0.45955">
        <ele>126.8</ele>
        <time>2010-09-26T07:35:51Z</time>
      </trkpt>
      <trkpt lat="46.56666" lon="0.45968">
        <ele>127</ele>
        <time>2010-09-26T07:35:52Z</time>
      </trkpt>
      <trkpt lat="46.56667" lon="0.45981">
        <ele>127.4</ele>
        <time>2010-09-26T07:35:53Z</time>
      </trkpt>
      <trkpt lat="46.56668" lon="0.45993">
        <ele>127.5</ele>
        <time>2010-09-26T07:35:54Z</time>
      </trkpt>
      <trkpt lat="46.56671" lon="0.46026">
        <ele>127.9</ele>
        <time>2010-09-26T07:35:57Z</time>
      </trkpt>
      <trkpt lat="46.5667" lon="0.46037">
        <ele>127.6</ele>
        <time>2010-09-26T07:35:58Z</time>
      </trkpt>
      <trkpt lat="46.56668" lon="0.46055">
        <ele>127.5</ele>
        <time>2010-09-26T07:36:00Z</time>
      </trkpt>
      <trkpt lat="46.56663" lon="0.46091">
        <ele>127.4</ele>
        <time>2010-09-26T07:36:04Z</time>
      </trkpt>
      <trkpt lat="46.56663" lon="0.461">
        <ele>127.5</ele>
        <time>2010-09-26T07:36:05Z</time>
      </trkpt>
      <trkpt lat="46.56663" lon="0.46117">
        <ele>128</ele>
        <time>2010-09-26T07:36:07Z</time>
      </trkpt>
      <trkpt lat="46.56661" lon="0.46125">
        <ele>128.1</ele>
        <time>2010-09-26T07:36:08Z</time>
      </trkpt>
      <trkpt lat="46.56658" lon="0.46132">
        <ele>128.1</ele>
        <time>2010-09-26T07:36:09Z</time>
      </trkpt>
      <trkpt lat="46.56654" lon="0.46139">
        <ele>128.6</ele>
        <time>2010-09-26T07:36:10Z</time>
      </trkpt>
      <trkpt lat="46.56638" lon="0.46161">
        <ele>128.6</ele>
        <time>2010-09-26T07:36:13Z</time>
      </trkpt>
      <trkpt lat="46.56633" lon="0.46171">
        <ele>128.3</ele>
        <time>2010-09-26T07:36:14Z</time>
      </trkpt>
      <trkpt lat="46.56594" lon="0.46251">
        <ele>127.4</ele>
        <time>2010-09-26T07:36:22Z</time>
      </trkpt>
      <trkpt lat="46.56575" lon="0.46297">
        <ele>126.5</ele>
        <time>2010-09-26T07:36:29Z</time>
      </trkpt>
      <trkpt lat="46.56574" lon="0.46299">
        <ele>126.5</ele>
        <time>2010-09-26T07:36:30Z</time>
      </trkpt>
      <trkpt lat="46.56574" lon="0.46299">
        <ele>126.5</ele>
        <time>2010-09-26T07:36:35Z</time>
      </trkpt>
      <trkpt lat="46.56574" lon="0.46299">
        <ele>127</ele>
        <time>2010-09-26T07:36:36Z</time>
      </trkpt>
      <trkpt lat="46.56574" lon="0.46299">
        <ele>127</ele>
        <time>2010-09-26T07:36:37Z</time>
      </trkpt>
      <trkpt lat="46.56574" lon="0.46299">
        <ele>127</ele>
        <time>2010-09-26T07:36:38Z</time>
      </trkpt>
      <trkpt lat="46.56574" lon="0.46299">
        <ele>127</ele>
        <time>2010-09-26T07:36:39Z</time>
      </trkpt>
      <trkpt lat="46.56574" lon="0.46299">
        <ele>127</ele>
        <time>2010-09-26T07:36:40Z</time>
      </trkpt>
      <trkpt lat="46.56574" lon="0.46299">
        <ele>127</ele>
        <time>2010-09-26T07:36:41Z</time>
      </trkpt>
      <trkpt lat="46.56575" lon="0.46302">
        <ele>127</ele>
        <time>2010-09-26T07:36:42Z</time>
      </trkpt>
      <trkpt lat="46.56578" lon="0.46307">
        <ele>127</ele>
        <time>2010-09-26T07:36:43Z</time>
      </trkpt>
      <trkpt lat="46.56584" lon="0.46312">
        <ele>127</ele>
        <time>2010-09-26T07:36:44Z</time>
      </trkpt>
      <trkpt lat="46.56621" lon="0.46334">
        <ele>127</ele>
        <time>2010-09-26T07:36:48Z</time>
      </trkpt>
      <trkpt lat="46.56632" lon="0.46339">
        <ele>127.3</ele>
        <time>2010-09-26T07:36:49Z</time>
      </trkpt>
      <trkpt lat="46.56706" lon="0.46377">
        <ele>126.5</ele>
        <time>2010-09-26T07:36:56Z</time>
      </trkpt>
      <trkpt lat="46.56832" lon="0.4646">
        <ele>123.8</ele>
        <time>2010-09-26T07:37:09Z</time>
      </trkpt>
      <trkpt lat="46.56843" lon="0.46463">
        <ele>123.5</ele>
        <time>2010-09-26T07:37:10Z</time>
      </trkpt>
      <trkpt lat="46.56893" lon="0.46471">
        <ele>122.3</ele>
        <time>2010-09-26T07:37:14Z</time>
      </trkpt>
      <trkpt lat="46.56989" lon="0.4648">
        <ele>119.1</ele>
        <time>2010-09-26T07:37:22Z</time>
      </trkpt>
      <trkpt lat="46.56999" lon="0.46487">
        <ele>118.9</ele>
        <time>2010-09-26T07:37:23Z</time>
      </trkpt>
      <trkpt lat="46.57052" lon="0.46534">
        <ele>119.1</ele>
        <time>2010-09-26T07:37:29Z</time>
      </trkpt>
      <trkpt lat="46.57058" lon="0.4654">
        <ele>118.8</ele>
        <time>2010-09-26T07:37:30Z</time>
      </trkpt>
      <trkpt lat="46.57065" lon="0.46551">
        <ele>118.6</ele>
        <time>2010-09-26T07:37:32Z</time>
      </trkpt>
      <trkpt lat="46.57067" lon="0.46555">
        <ele>118.5</ele>
        <time>2010-09-26T07:37:33Z</time>
      </trkpt>
      <trkpt lat="46.57067" lon="0.46559">
        <ele>118.5</ele>
        <time>2010-09-26T07:37:34Z</time>
      </trkpt>
      <trkpt lat="46.57066" lon="0.4657">
        <ele>117.9</ele>
        <time>2010-09-26T07:37:36Z</time>
      </trkpt>
      <trkpt lat="46.57064" lon="0.46577">
        <ele>118</ele>
        <time>2010-09-26T07:37:37Z</time>
      </trkpt>
      <trkpt lat="46.57057" lon="0.46594">
        <ele>118.3</ele>
        <time>2010-09-26T07:37:39Z</time>
      </trkpt>
      <trkpt lat="46.57049" lon="0.46608">
        <ele>118.4</ele>
        <time>2010-09-26T07:37:41Z</time>
      </trkpt>
      <trkpt lat="46.57043" lon="0.46621">
        <ele>118.5</ele>
        <time>2010-09-26T07:37:43Z</time>
      </trkpt>
      <trkpt lat="46.57045" lon="0.46627">
        <ele>118.5</ele>
        <time>2010-09-26T07:37:44Z</time>
      </trkpt>
      <trkpt lat="46.57048" lon="0.46634">
        <ele>118.5</ele>
        <time>2010-09-26T07:37:45Z</time>
      </trkpt>
      <trkpt lat="46.57054" lon="0.46643">
        <ele>118.1</ele>
        <time>2010-09-26T07:37:46Z</time>
      </trkpt>
      <trkpt lat="46.57068" lon="0.46662">
        <ele>117.5</ele>
        <time>2010-09-26T07:37:48Z</time>
      </trkpt>
      <trkpt lat="46.57077" lon="0.46671">
        <ele>117.5</ele>
        <time>2010-09-26T07:37:49Z</time>
      </trkpt>
      <trkpt lat="46.57087" lon="0.46678">
        <ele>117.4</ele>
        <time>2010-09-26T07:37:50Z</time>
      </trkpt>
      <trkpt lat="46.57097" lon="0.46683">
        <ele>117.3</ele>
        <time>2010-09-26T07:37:51Z</time>
      </trkpt>
      <trkpt lat="46.57194" lon="0.46739">
        <ele>116.4</ele>
        <time>2010-09-26T07:38:00Z</time>
      </trkpt>
      <trkpt lat="46.57204" lon="0.46749">
        <ele>116.1</ele>
        <time>2010-09-26T07:38:01Z</time>
      </trkpt>
      <trkpt lat="46.57222" lon="0.46772">
        <ele>116.6</ele>
        <time>2010-09-26T07:38:03Z</time>
      </trkpt>
      <trkpt lat="46.57359" lon="0.46928">
        <ele>116.3</ele>
        <time>2010-09-26T07:38:16Z</time>
      </trkpt>
      <trkpt lat="46.57371" lon="0.46939">
        <ele>116</ele>
        <time>2010-09-26T07:38:17Z</time>
      </trkpt>
      <trkpt lat="46.57427" lon="0.46996">
        <ele>113.6</ele>
        <time>2010-09-26T07:38:22Z</time>
      </trkpt>
      <trkpt lat="46.57436" lon="0.47008">
        <ele>113.5</ele>
        <time>2010-09-26T07:38:23Z</time>
      </trkpt>
      <trkpt lat="46.57456" lon="0.47044">
        <ele>113.4</ele>
        <time>2010-09-26T07:38:26Z</time>
      </trkpt>
      <trkpt lat="46.5747" lon="0.47073">
        <ele>114.3</ele>
        <time>2010-09-26T07:38:29Z</time>
      </trkpt>
      <trkpt lat="46.57472" lon="0.47079">
        <ele>114.1</ele>
        <time>2010-09-26T07:38:30Z</time>
      </trkpt>
      <trkpt lat="46.57472" lon="0.47084">
        <ele>114.5</ele>
        <time>2010-09-26T07:38:31Z</time>
      </trkpt>
      <trkpt lat="46.57471" lon="0.47088">
        <ele>114.5</ele>
        <time>2010-09-26T07:38:32Z</time>
      </trkpt>
      <trkpt lat="46.5746" lon="0.47131">
        <ele>114.9</ele>
        <time>2010-09-26T07:38:38Z</time>
      </trkpt>
      <trkpt lat="46.57429" lon="0.47202">
        <ele>114.4</ele>
        <time>2010-09-26T07:38:43Z</time>
      </trkpt>
      <trkpt lat="46.57388" lon="0.47299">
        <ele>114.5</ele>
        <time>2010-09-26T07:38:48Z</time>
      </trkpt>
      <trkpt lat="46.5738" lon="0.47323">
        <ele>114.5</ele>
        <time>2010-09-26T07:38:49Z</time>
      </trkpt>
      <trkpt lat="46.57199" lon="0.47925">
        <ele>102.6</ele>
        <time>2010-09-26T07:39:20Z</time>
      </trkpt>
      <trkpt lat="46.57194" lon="0.47945">
        <ele>102.1</ele>
        <time>2010-09-26T07:39:21Z</time>
      </trkpt>
      <trkpt lat="46.5718" lon="0.48014">
        <ele>101</ele>
        <time>2010-09-26T07:39:25Z</time>
      </trkpt>
      <trkpt lat="46.57168" lon="0.48096">
        <ele>98.9</ele>
        <time>2010-09-26T07:39:32Z</time>
      </trkpt>
      <trkpt lat="46.57166" lon="0.48107">
        <ele>99.6</ele>
        <time>2010-09-26T07:39:34Z</time>
      </trkpt>
      <trkpt lat="46.57166" lon="0.48113">
        <ele>100</ele>
        <time>2010-09-26T07:39:35Z</time>
      </trkpt>
      <trkpt lat="46.57167" lon="0.48119">
        <ele>99.5</ele>
        <time>2010-09-26T07:39:36Z</time>
      </trkpt>
      <trkpt lat="46.57172" lon="0.48146">
        <ele>98.8</ele>
        <time>2010-09-26T07:39:40Z</time>
      </trkpt>
      <trkpt lat="46.57179" lon="0.48194">
        <ele>98.8</ele>
        <time>2010-09-26T07:39:44Z</time>
      </trkpt>
      <trkpt lat="46.57181" lon="0.48227">
        <ele>98.8</ele>
        <time>2010-09-26T07:39:46Z</time>
      </trkpt>
      <trkpt lat="46.57195" lon="0.48936">
        <ele>112</ele>
        <time>2010-09-26T07:40:40Z</time>
      </trkpt>
      <trkpt lat="46.57194" lon="0.48947">
        <ele>112</ele>
        <time>2010-09-26T07:40:41Z</time>
      </trkpt>
      <trkpt lat="46.57203" lon="0.4908">
        <ele>111</ele>
        <time>2010-09-26T07:40:52Z</time>
      </trkpt>
      <trkpt lat="46.57212" lon="0.4915">
        <ele>109.8</ele>
        <time>2010-09-26T07:40:57Z</time>
      </trkpt>
      <trkpt lat="46.57212" lon="0.49164">
        <ele>109.5</ele>
        <time>2010-09-26T07:40:58Z</time>
      </trkpt>
      <trkpt lat="46.57211" lon="0.49179">
        <ele>108.9</ele>
        <time>2010-09-26T07:40:59Z</time>
      </trkpt>
      <trkpt lat="46.57208" lon="0.49193">
        <ele>108.5</ele>
        <time>2010-09-26T07:41:00Z</time>
      </trkpt>
      <trkpt lat="46.57192" lon="0.49279">
        <ele>108</ele>
        <time>2010-09-26T07:41:07Z</time>
      </trkpt>
      <trkpt lat="46.57193" lon="0.4929">
        <ele>107.8</ele>
        <time>2010-09-26T07:41:08Z</time>
      </trkpt>
      <trkpt lat="46.57195" lon="0.49299">
        <ele>107.9</ele>
        <time>2010-09-26T07:41:09Z</time>
      </trkpt>
      <trkpt lat="46.57199" lon="0.49316">
        <ele>108</ele>
        <time>2010-09-26T07:41:11Z</time>
      </trkpt>
      <trkpt lat="46.57205" lon="0.49337">
        <ele>107.5</ele>
        <time>2010-09-26T07:41:16Z</time>
      </trkpt>
      <trkpt lat="46.57207" lon="0.49339">
        <ele>107.5</ele>
        <time>2010-09-26T07:41:17Z</time>
      </trkpt>
      <trkpt lat="46.57211" lon="0.49345">
        <ele>107.9</ele>
        <time>2010-09-26T07:41:19Z</time>
      </trkpt>
      <trkpt lat="46.57218" lon="0.49358">
        <ele>108.1</ele>
        <time>2010-09-26T07:41:21Z</time>
      </trkpt>
      <trkpt lat="46.57246" lon="0.49405">
        <ele>109</ele>
        <time>2010-09-26T07:41:25Z</time>
      </trkpt>
      <trkpt lat="46.57256" lon="0.49417">
        <ele>109.3</ele>
        <time>2010-09-26T07:41:26Z</time>
      </trkpt>
      <trkpt lat="46.57286" lon="0.49452">
        <ele>110.5</ele>
        <time>2010-09-26T07:41:30Z</time>
      </trkpt>
      <trkpt lat="46.57289" lon="0.49462">
        <ele>110.5</ele>
        <time>2010-09-26T07:41:31Z</time>
      </trkpt>
      <trkpt lat="46.57291" lon="0.49473">
        <ele>110.9</ele>
        <time>2010-09-26T07:41:32Z</time>
      </trkpt>
      <trkpt lat="46.57288" lon="0.49488">
        <ele>110.5</ele>
        <time>2010-09-26T07:41:33Z</time>
      </trkpt>
      <trkpt lat="46.57283" lon="0.49503">
        <ele>110.9</ele>
        <time>2010-09-26T07:41:34Z</time>
      </trkpt>
      <trkpt lat="46.57216" lon="0.49671">
        <ele>111.8</ele>
        <time>2010-09-26T07:41:46Z</time>
      </trkpt>
      <trkpt lat="46.57213" lon="0.49679">
        <ele>112</ele>
        <time>2010-09-26T07:41:47Z</time>
      </trkpt>
      <trkpt lat="46.572" lon="0.49703">
        <ele>113</ele>
        <time>2010-09-26T07:41:53Z</time>
      </trkpt>
      <trkpt lat="46.572" lon="0.49708">
        <ele>113.1</ele>
        <time>2010-09-26T07:41:54Z</time>
      </trkpt>
      <trkpt lat="46.572" lon="0.49714">
        <ele>113</ele>
        <time>2010-09-26T07:41:55Z</time>
      </trkpt>
      <trkpt lat="46.572" lon="0.4972">
        <ele>113</ele>
        <time>2010-09-26T07:41:56Z</time>
      </trkpt>
      <trkpt lat="46.57199" lon="0.49727">
        <ele>113.1</ele>
        <time>2010-09-26T07:41:57Z</time>
      </trkpt>
      <trkpt lat="46.57194" lon="0.49743">
        <ele>113.5</ele>
        <time>2010-09-26T07:41:59Z</time>
      </trkpt>
      <trkpt lat="46.57173" lon="0.49811">
        <ele>114.1</ele>
        <time>2010-09-26T07:42:06Z</time>
      </trkpt>
      <trkpt lat="46.57172" lon="0.49819">
        <ele>113.9</ele>
        <time>2010-09-26T07:42:07Z</time>
      </trkpt>
      <trkpt lat="46.57166" lon="0.4985">
        <ele>113.9</ele>
        <time>2010-09-26T07:42:12Z</time>
      </trkpt>
      <trkpt lat="46.57167" lon="0.49854">
        <ele>113.5</ele>
        <time>2010-09-26T07:42:13Z</time>
      </trkpt>
      <trkpt lat="46.57168" lon="0.49857">
        <ele>113.5</ele>
        <time>2010-09-26T07:42:14Z</time>
      </trkpt>
      <trkpt lat="46.5717" lon="0.49859">
        <ele>113.6</ele>
        <time>2010-09-26T07:42:15Z</time>
      </trkpt>
      <trkpt lat="46.57172" lon="0.4986">
        <ele>113.8</ele>
        <time>2010-09-26T07:42:16Z</time>
      </trkpt>
      <trkpt lat="46.57176" lon="0.49862">
        <ele>113.6</ele>
        <time>2010-09-26T07:42:17Z</time>
      </trkpt>
      <trkpt lat="46.57178" lon="0.49866">
        <ele>113.8</ele>
        <time>2010-09-26T07:42:18Z</time>
      </trkpt>
      <trkpt lat="46.5718" lon="0.4987">
        <ele>114</ele>
        <time>2010-09-26T07:42:19Z</time>
      </trkpt>
      <trkpt lat="46.57181" lon="0.49875">
        <ele>114</ele>
        <time>2010-09-26T07:42:20Z</time>
      </trkpt>
      <trkpt lat="46.57181" lon="0.49879">
        <ele>114.1</ele>
        <time>2010-09-26T07:42:21Z</time>
      </trkpt>
      <trkpt lat="46.57181" lon="0.49884">
        <ele>114</ele>
        <time>2010-09-26T07:42:22Z</time>
      </trkpt>
      <trkpt lat="46.57181" lon="0.49887">
        <ele>114</ele>
        <time>2010-09-26T07:42:23Z</time>
      </trkpt>
      <trkpt lat="46.57181" lon="0.49889">
        <ele>114</ele>
        <time>2010-09-26T07:42:27Z</time>
      </trkpt>
      <trkpt lat="46.57181" lon="0.4989">
        <ele>113.9</ele>
        <time>2010-09-26T07:42:28Z</time>
      </trkpt>
      <trkpt lat="46.57177" lon="0.499">
        <ele>113.9</ele>
        <time>2010-09-26T07:42:30Z</time>
      </trkpt>
      <trkpt lat="46.57173" lon="0.49908">
        <ele>113.9</ele>
        <time>2010-09-26T07:42:31Z</time>
      </trkpt>
      <trkpt lat="46.57169" lon="0.49915">
        <ele>114</ele>
        <time>2010-09-26T07:42:32Z</time>
      </trkpt>
      <trkpt lat="46.5716" lon="0.49931">
        <ele>113.8</ele>
        <time>2010-09-26T07:42:34Z</time>
      </trkpt>
      <trkpt lat="46.57157" lon="0.49942">
        <ele>113.8</ele>
        <time>2010-09-26T07:42:35Z</time>
      </trkpt>
      <trkpt lat="46.57094" lon="0.5021">
        <ele>115.5</ele>
        <time>2010-09-26T07:42:53Z</time>
      </trkpt>
      <trkpt lat="46.57093" lon="0.50217">
        <ele>115.9</ele>
        <time>2010-09-26T07:42:54Z</time>
      </trkpt>
      <trkpt lat="46.57092" lon="0.50222">
        <ele>115.5</ele>
        <time>2010-09-26T07:43:05Z</time>
      </trkpt>
      <trkpt lat="46.5709" lon="0.50225">
        <ele>115.4</ele>
        <time>2010-09-26T07:43:07Z</time>
      </trkpt>
      <trkpt lat="46.57085" lon="0.50226">
        <ele>115.6</ele>
        <time>2010-09-26T07:43:08Z</time>
      </trkpt>
      <trkpt lat="46.57079" lon="0.50224">
        <ele>115.6</ele>
        <time>2010-09-26T07:43:09Z</time>
      </trkpt>
      <trkpt lat="46.5705" lon="0.50222">
        <ele>115.4</ele>
        <time>2010-09-26T07:43:12Z</time>
      </trkpt>
      <trkpt lat="46.5704" lon="0.50223">
        <ele>115.3</ele>
        <time>2010-09-26T07:43:13Z</time>
      </trkpt>
      <trkpt lat="46.57029" lon="0.50225">
        <ele>115.5</ele>
        <time>2010-09-26T07:43:14Z</time>
      </trkpt>
      <trkpt lat="46.57017" lon="0.5023">
        <ele>115.4</ele>
        <time>2010-09-26T07:43:15Z</time>
      </trkpt>
      <trkpt lat="46.57005" lon="0.50236">
        <ele>115.4</ele>
        <time>2010-09-26T07:43:16Z</time>
      </trkpt>
      <trkpt lat="46.56991" lon="0.50246">
        <ele>115.4</ele>
        <time>2010-09-26T07:43:17Z</time>
      </trkpt>
      <trkpt lat="46.56978" lon="0.50258">
        <ele>115.3</ele>
        <time>2010-09-26T07:43:18Z</time>
      </trkpt>
      <trkpt lat="46.56952" lon="0.50286">
        <ele>115.9</ele>
        <time>2010-09-26T07:43:20Z</time>
      </trkpt>
      <trkpt lat="46.56942" lon="0.503">
        <ele>116.1</ele>
        <time>2010-09-26T07:43:21Z</time>
      </trkpt>
      <trkpt lat="46.56818" lon="0.50466">
        <ele>115</ele>
        <time>2010-09-26T07:43:36Z</time>
      </trkpt>
      <trkpt lat="46.56809" lon="0.50473">
        <ele>115</ele>
        <time>2010-09-26T07:43:37Z</time>
      </trkpt>
      <trkpt lat="46.56679" lon="0.50561">
        <ele>114.8</ele>
        <time>2010-09-26T07:45:31Z</time>
      </trkpt>
      <trkpt lat="46.56679" lon="0.50561">
        <ele>115</ele>
        <time>2010-09-26T07:45:32Z</time>
      </trkpt>
      <trkpt lat="46.56679" lon="0.50561">
        <ele>115</ele>
        <time>2010-09-26T07:45:33Z</time>
      </trkpt>
      <trkpt lat="46.56679" lon="0.50561">
        <ele>115</ele>
        <time>2010-09-26T07:45:34Z</time>
      </trkpt>
      <trkpt lat="46.56679" lon="0.50561">
        <ele>115</ele>
        <time>2010-09-26T07:45:35Z</time>
      </trkpt>
      <trkpt lat="46.56679" lon="0.50561">
        <ele>114.9</ele>
        <time>2010-09-26T07:45:36Z</time>
      </trkpt>
      <trkpt lat="46.56679" lon="0.50561">
        <ele>114.9</ele>
        <time>2010-09-26T07:45:37Z</time>
      </trkpt>
      <trkpt lat="46.56679" lon="0.50561">
        <ele>115</ele>
        <time>2010-09-26T07:45:38Z</time>
      </trkpt>
      <trkpt lat="46.56679" lon="0.50561">
        <ele>115</ele>
        <time>2010-09-26T07:45:39Z</time>
      </trkpt>
      <trkpt lat="46.56679" lon="0.50561">
        <ele>115</ele>
        <time>2010-09-26T07:45:40Z</time>
      </trkpt>
      <trkpt lat="46.56679" lon="0.50561">
        <ele>115</ele>
        <time>2010-09-26T07:45:41Z</time>
      </trkpt>
      <trkpt lat="46.56679" lon="0.50561">
        <ele>115</ele>
        <time>2010-09-26T07:45:42Z</time>
      </trkpt>
      <trkpt lat="46.56679" lon="0.50561">
        <ele>115</ele>
        <time>2010-09-26T07:45:43Z</time>
      </trkpt>
      <trkpt lat="46.56679" lon="0.50561">
        <ele>115</ele>
        <time>2010-09-26T07:45:44Z</time>
      </trkpt>
      <trkpt lat="46.56679" lon="0.50561">
        <ele>115</ele>
        <time>2010-09-26T07:45:45Z</time>
      </trkpt>
      <trkpt lat="46.56679" lon="0.50561">
        <ele>115</ele>
        <time>2010-09-26T07:45:46Z</time>
      </trkpt>
      <trkpt lat="46.56679" lon="0.50561">
        <ele>115</ele>
        <time>2010-09-26T07:45:47Z</time>
      </trkpt>
      <trkpt lat="46.56679" lon="0.50561">
        <ele>115</ele>
        <time>2010-09-26T07:45:48Z</time>
      </trkpt>
      <trkpt lat="46.56679" lon="0.50561">
        <ele>115</ele>
        <time>2010-09-26T07:45:49Z</time>
      </trkpt>
      <trkpt lat="46.56679" lon="0.50561">
        <ele>115</ele>
        <time>2010-09-26T07:45:50Z</time>
      </trkpt>
      <trkpt lat="46.56679" lon="0.50561">
        <ele>115</ele>
        <time>2010-09-26T07:45:51Z</time>
      </trkpt>
      <trkpt lat="46.56679" lon="0.50561">
        <ele>115</ele>
        <time>2010-09-26T07:45:52Z</time>
      </trkpt>
      <trkpt lat="46.56679" lon="0.50561">
        <ele>115</ele>
        <time>2010-09-26T07:45:53Z</time>
      </trkpt>
      <trkpt lat="46.56679" lon="0.50561">
        <ele>115</ele>
        <time>2010-09-26T07:45:54Z</time>
      </trkpt>
      <trkpt lat="46.56679" lon="0.50561">
        <ele>115.3</ele>
        <time>2010-09-26T07:45:55Z</time>
      </trkpt>
      <trkpt lat="46.56678" lon="0.50562">
        <ele>114.9</ele>
        <time>2010-09-26T07:48:37Z</time>
      </trkpt>
      <trkpt lat="46.56676" lon="0.50562">
        <ele>114.9</ele>
        <time>2010-09-26T07:48:38Z</time>
      </trkpt>
      <trkpt lat="46.5667" lon="0.50567">
        <ele>115</ele>
        <time>2010-09-26T07:48:41Z</time>
      </trkpt>
      <trkpt lat="46.56671" lon="0.5057">
        <ele>115</ele>
        <time>2010-09-26T07:48:42Z</time>
      </trkpt>
      <trkpt lat="46.56672" lon="0.50571">
        <ele>115</ele>
        <time>2010-09-26T07:48:43Z</time>
      </trkpt>
      <trkpt lat="46.56675" lon="0.50569">
        <ele>115.1</ele>
        <time>2010-09-26T07:48:44Z</time>
      </trkpt>
      <trkpt lat="46.5668" lon="0.50565">
        <ele>115.5</ele>
        <time>2010-09-26T07:48:45Z</time>
      </trkpt>
      <trkpt lat="46.56763" lon="0.50503">
        <ele>115.5</ele>
        <time>2010-09-26T07:48:53Z</time>
      </trkpt>
      <trkpt lat="46.56838" lon="0.50446">
        <ele>115.6</ele>
        <time>2010-09-26T07:48:59Z</time>
      </trkpt>
      <trkpt lat="46.56848" lon="0.50433">
        <ele>115.5</ele>
        <time>2010-09-26T07:49:00Z</time>
      </trkpt>
      <trkpt lat="46.56904" lon="0.50364">
        <ele>115.1</ele>
        <time>2010-09-26T07:49:07Z</time>
      </trkpt>
      <trkpt lat="46.56906" lon="0.50365">
        <ele>115</ele>
        <time>2010-09-26T07:49:08Z</time>
      </trkpt>
      <trkpt lat="46.56906" lon="0.50368">
        <ele>115.1</ele>
        <time>2010-09-26T07:49:09Z</time>
      </trkpt>
      <trkpt lat="46.56906" lon="0.50372">
        <ele>115.1</ele>
        <time>2010-09-26T07:49:10Z</time>
      </trkpt>
      <trkpt lat="46.56905" lon="0.50393">
        <ele>114.5</ele>
        <time>2010-09-26T07:49:13Z</time>
      </trkpt>
      <trkpt lat="46.56907" lon="0.50402">
        <ele>114.4</ele>
        <time>2010-09-26T07:49:14Z</time>
      </trkpt>
      <trkpt lat="46.56911" lon="0.50418">
        <ele>114.6</ele>
        <time>2010-09-26T07:49:16Z</time>
      </trkpt>
      <trkpt lat="46.56919" lon="0.50446">
        <ele>115.1</ele>
        <time>2010-09-26T07:49:19Z</time>
      </trkpt>
      <trkpt lat="46.56923" lon="0.50457">
        <ele>114.8</ele>
        <time>2010-09-26T07:49:20Z</time>
      </trkpt>
      <trkpt lat="46.56963" lon="0.50557">
        <ele>115.6</ele>
        <time>2010-09-26T07:49:29Z</time>
      </trkpt>
      <trkpt lat="46.56965" lon="0.50565">
        <ele>115.5</ele>
        <time>2010-09-26T07:49:30Z</time>
      </trkpt>
      <trkpt lat="46.56966" lon="0.50573">
        <ele>115.4</ele>
        <time>2010-09-26T07:49:31Z</time>
      </trkpt>
      <trkpt lat="46.56968" lon="0.50588">
        <ele>114.6</ele>
        <time>2010-09-26T07:49:33Z</time>
      </trkpt>
      <trkpt lat="46.56971" lon="0.50596">
        <ele>114.6</ele>
        <time>2010-09-26T07:49:34Z</time>
      </trkpt>
      <trkpt lat="46.56974" lon="0.50601">
        <ele>114.6</ele>
        <time>2010-09-26T07:49:35Z</time>
      </trkpt>
      <trkpt lat="46.56979" lon="0.50606">
        <ele>114.5</ele>
        <time>2010-09-26T07:49:36Z</time>
      </trkpt>
      <trkpt lat="46.57065" lon="0.50685">
        <ele>113.8</ele>
        <time>2010-09-26T07:49:45Z</time>
      </trkpt>
      <trkpt lat="46.57075" lon="0.50701">
        <ele>114</ele>
        <time>2010-09-26T07:49:46Z</time>
      </trkpt>
      <trkpt lat="46.57161" lon="0.50866">
        <ele>112.4</ele>
        <time>2010-09-26T07:49:56Z</time>
      </trkpt>
      <trkpt lat="46.57174" lon="0.50899">
        <ele>111.8</ele>
        <time>2010-09-26T07:49:58Z</time>
      </trkpt>
      <trkpt lat="46.57179" lon="0.50918">
        <ele>111.5</ele>
        <time>2010-09-26T07:49:59Z</time>
      </trkpt>
      <trkpt lat="46.57221" lon="0.51161">
        <ele>110.6</ele>
        <time>2010-09-26T07:50:13Z</time>
      </trkpt>
      <trkpt lat="46.57228" lon="0.51226">
        <ele>111.4</ele>
        <time>2010-09-26T07:50:20Z</time>
      </trkpt>
      <trkpt lat="46.57231" lon="0.5125">
        <ele>112</ele>
        <time>2010-09-26T07:50:24Z</time>
      </trkpt>
      <trkpt lat="46.57234" lon="0.51254">
        <ele>112.1</ele>
        <time>2010-09-26T07:50:25Z</time>
      </trkpt>
      <trkpt lat="46.57239" lon="0.51256">
        <ele>112.5</ele>
        <time>2010-09-26T07:50:26Z</time>
      </trkpt>
      <trkpt lat="46.57455" lon="0.51343">
        <ele>115.5</ele>
        <time>2010-09-26T07:50:47Z</time>
      </trkpt>
      <trkpt lat="46.5746" lon="0.51347">
        <ele>115.1</ele>
        <time>2010-09-26T07:50:48Z</time>
      </trkpt>
      <trkpt lat="46.57469" lon="0.5135">
        <ele>115.3</ele>
        <time>2010-09-26T07:50:51Z</time>
      </trkpt>
      <trkpt lat="46.5747" lon="0.51348">
        <ele>115.1</ele>
        <time>2010-09-26T07:50:52Z</time>
      </trkpt>
      <trkpt lat="46.5747" lon="0.51345">
        <ele>115</ele>
        <time>2010-09-26T07:50:53Z</time>
      </trkpt>
      <trkpt lat="46.57468" lon="0.51343">
        <ele>114.6</ele>
        <time>2010-09-26T07:50:54Z</time>
      </trkpt>
      <trkpt lat="46.57464" lon="0.51341">
        <ele>114.8</ele>
        <time>2010-09-26T07:50:55Z</time>
      </trkpt>
      <trkpt lat="46.5743" lon="0.51328">
        <ele>116</ele>
        <time>2010-09-26T07:51:00Z</time>
      </trkpt>
      <trkpt lat="46.57425" lon="0.51327">
        <ele>116</ele>
        <time>2010-09-26T07:51:01Z</time>
      </trkpt>
      <trkpt lat="46.5742" lon="0.5133">
        <ele>116</ele>
        <time>2010-09-26T07:51:02Z</time>
      </trkpt>
      <trkpt lat="46.57417" lon="0.51335">
        <ele>116</ele>
        <time>2010-09-26T07:51:03Z</time>
      </trkpt>
      <trkpt lat="46.57414" lon="0.51344">
        <ele>116</ele>
        <time>2010-09-26T07:51:04Z</time>
      </trkpt>
      <trkpt lat="46.57354" lon="0.51544">
        <ele>114.9</ele>
        <time>2010-09-26T07:51:20Z</time>
      </trkpt>
      <trkpt lat="46.57349" lon="0.51554">
        <ele>114.8</ele>
        <time>2010-09-26T07:51:21Z</time>
      </trkpt>
      <trkpt lat="46.57154" lon="0.52001">
        <ele>117.6</ele>
        <time>2010-09-26T07:52:03Z</time>
      </trkpt>
      <trkpt lat="46.57151" lon="0.5201">
        <ele>117.6</ele>
        <time>2010-09-26T07:52:04Z</time>
      </trkpt>
      <trkpt lat="46.57137" lon="0.52058">
        <ele>117.9</ele>
        <time>2010-09-26T07:52:10Z</time>
      </trkpt>
      <trkpt lat="46.57137" lon="0.52067">
        <ele>118</ele>
        <time>2010-09-26T07:52:11Z</time>
      </trkpt>
      <trkpt lat="46.5714" lon="0.52075">
        <ele>118</ele>
        <time>2010-09-26T07:52:12Z</time>
      </trkpt>
      <trkpt lat="46.57143" lon="0.52083">
        <ele>117.8</ele>
        <time>2010-09-26T07:52:13Z</time>
      </trkpt>
      <trkpt lat="46.57148" lon="0.52092">
        <ele>117.9</ele>
        <time>2010-09-26T07:52:14Z</time>
      </trkpt>
      <trkpt lat="46.5716" lon="0.52107">
        <ele>118</ele>
        <time>2010-09-26T07:52:16Z</time>
      </trkpt>
      <trkpt lat="46.57167" lon="0.52113">
        <ele>118.3</ele>
        <time>2010-09-26T07:52:17Z</time>
      </trkpt>
      <trkpt lat="46.57182" lon="0.52121">
        <ele>118.8</ele>
        <time>2010-09-26T07:52:19Z</time>
      </trkpt>
      <trkpt lat="46.57254" lon="0.52155">
        <ele>121.1</ele>
        <time>2010-09-26T07:52:43Z</time>
      </trkpt>
      <trkpt lat="46.57254" lon="0.52155">
        <ele>121</ele>
        <time>2010-09-26T07:52:44Z</time>
      </trkpt>
      <trkpt lat="46.57255" lon="0.52154">
        <ele>121</ele>
        <time>2010-09-26T07:52:45Z</time>
      </trkpt>
      <trkpt lat="46.57256" lon="0.52151">
        <ele>121.1</ele>
        <time>2010-09-26T07:52:46Z</time>
      </trkpt>
      <trkpt lat="46.57257" lon="0.52145">
        <ele>121.4</ele>
        <time>2010-09-26T07:52:47Z</time>
      </trkpt>
      <trkpt lat="46.57261" lon="0.5213">
        <ele>121.3</ele>
        <time>2010-09-26T07:52:49Z</time>
      </trkpt>
      <trkpt lat="46.57293" lon="0.52027">
        <ele>118.9</ele>
        <time>2010-09-26T07:53:02Z</time>
      </trkpt>
      <trkpt lat="46.57302" lon="0.52001">
        <ele>118.3</ele>
        <time>2010-09-26T07:53:06Z</time>
      </trkpt>
      <trkpt lat="46.57306" lon="0.51999">
        <ele>118.1</ele>
        <time>2010-09-26T07:53:07Z</time>
      </trkpt>
      <trkpt lat="46.57311" lon="0.51999">
        <ele>118.3</ele>
        <time>2010-09-26T07:53:08Z</time>
      </trkpt>
      <trkpt lat="46.57316" lon="0.52004">
        <ele>118.3</ele>
        <time>2010-09-26T07:53:09Z</time>
      </trkpt>
      <trkpt lat="46.57401" lon="0.52091">
        <ele>119.1</ele>
        <time>2010-09-26T07:53:22Z</time>
      </trkpt>
      <trkpt lat="46.5741" lon="0.52096">
        <ele>119.1</ele>
        <time>2010-09-26T07:53:23Z</time>
      </trkpt>
      <trkpt lat="46.57445" lon="0.52116">
        <ele>119.4</ele>
        <time>2010-09-26T07:53:27Z</time>
      </trkpt>
      <trkpt lat="46.57464" lon="0.52123">
        <ele>119.8</ele>
        <time>2010-09-26T07:53:29Z</time>
      </trkpt>
      <trkpt lat="46.57501" lon="0.52133">
        <ele>121</ele>
        <time>2010-09-26T07:53:33Z</time>
      </trkpt>
      <trkpt lat="46.5751" lon="0.52133">
        <ele>121.5</ele>
        <time>2010-09-26T07:53:34Z</time>
      </trkpt>
      <trkpt lat="46.5752" lon="0.52133">
        <ele>121.8</ele>
        <time>2010-09-26T07:53:35Z</time>
      </trkpt>
      <trkpt lat="46.57544" lon="0.5213">
        <ele>120.8</ele>
        <time>2010-09-26T07:53:38Z</time>
      </trkpt>
      <trkpt lat="46.57552" lon="0.52128">
        <ele>120.8</ele>
        <time>2010-09-26T07:53:39Z</time>
      </trkpt>
      <trkpt lat="46.57566" lon="0.52123">
        <ele>119.9</ele>
        <time>2010-09-26T07:53:41Z</time>
      </trkpt>
      <trkpt lat="46.57572" lon="0.52118">
        <ele>119.4</ele>
        <time>2010-09-26T07:53:42Z</time>
      </trkpt>
      <trkpt lat="46.57576" lon="0.52113">
        <ele>118.6</ele>
        <time>2010-09-26T07:53:43Z</time>
      </trkpt>
      <trkpt lat="46.57583" lon="0.52103">
        <ele>118.4</ele>
        <time>2010-09-26T07:53:45Z</time>
      </trkpt>
      <trkpt lat="46.57585" lon="0.52096">
        <ele>118</ele>
        <time>2010-09-26T07:53:46Z</time>
      </trkpt>
      <trkpt lat="46.57587" lon="0.52087">
        <ele>117.9</ele>
        <time>2010-09-26T07:53:47Z</time>
      </trkpt>
      <trkpt lat="46.57594" lon="0.52049">
        <ele>117.5</ele>
        <time>2010-09-26T07:53:54Z</time>
      </trkpt>
      <trkpt lat="46.57594" lon="0.52044">
        <ele>117</ele>
        <time>2010-09-26T07:53:58Z</time>
      </trkpt>
      <trkpt lat="46.57595" lon="0.5204">
        <ele>116.9</ele>
        <time>2010-09-26T07:54:00Z</time>
      </trkpt>
      <trkpt lat="46.57595" lon="0.52034">
        <ele>116.5</ele>
        <time>2010-09-26T07:54:02Z</time>
      </trkpt>
      <trkpt lat="46.57594" lon="0.52033">
        <ele>116.4</ele>
        <time>2010-09-26T07:54:03Z</time>
      </trkpt>
      <trkpt lat="46.57593" lon="0.52034">
        <ele>116.3</ele>
        <time>2010-09-26T07:54:04Z</time>
      </trkpt>
      <trkpt lat="46.57591" lon="0.5204">
        <ele>116.3</ele>
        <time>2010-09-26T07:54:05Z</time>
      </trkpt>
      <trkpt lat="46.57588" lon="0.52057">
        <ele>116.6</ele>
        <time>2010-09-26T07:54:07Z</time>
      </trkpt>
      <trkpt lat="46.57545" lon="0.52368">
        <ele>124.8</ele>
        <time>2010-09-26T07:54:28Z</time>
      </trkpt>
      <trkpt lat="46.57541" lon="0.52381">
        <ele>123.8</ele>
        <time>2010-09-26T07:54:29Z</time>
      </trkpt>
      <trkpt lat="46.57506" lon="0.52502">
        <ele>121.8</ele>
        <time>2010-09-26T07:54:37Z</time>
      </trkpt>
      <trkpt lat="46.57499" lon="0.52517">
        <ele>121.4</ele>
        <time>2010-09-26T07:54:38Z</time>
      </trkpt>
      <trkpt lat="46.57459" lon="0.52618">
        <ele>120</ele>
        <time>2010-09-26T07:54:44Z</time>
      </trkpt>
      <trkpt lat="46.57453" lon="0.52636">
        <ele>119.5</ele>
        <time>2010-09-26T07:54:45Z</time>
      </trkpt>
      <trkpt lat="46.57448" lon="0.52656">
        <ele>119</ele>
        <time>2010-09-26T07:54:46Z</time>
      </trkpt>
      <trkpt lat="46.57431" lon="0.52753">
        <ele>117</ele>
        <time>2010-09-26T07:54:51Z</time>
      </trkpt>
      <trkpt lat="46.57402" lon="0.52892">
        <ele>116.3</ele>
        <time>2010-09-26T07:54:59Z</time>
      </trkpt>
      <trkpt lat="46.57397" lon="0.52905">
        <ele>116</ele>
        <time>2010-09-26T07:55:00Z</time>
      </trkpt>
      <trkpt lat="46.5739" lon="0.52929">
        <ele>114.5</ele>
        <time>2010-09-26T07:55:04Z</time>
      </trkpt>
      <trkpt lat="46.57389" lon="0.52932">
        <ele>113.8</ele>
        <time>2010-09-26T07:55:19Z</time>
      </trkpt>
      <trkpt lat="46.57389" lon="0.52933">
        <ele>113.6</ele>
        <time>2010-09-26T07:55:20Z</time>
      </trkpt>
      <trkpt lat="46.57388" lon="0.52939">
        <ele>113.8</ele>
        <time>2010-09-26T07:55:21Z</time>
      </trkpt>
      <trkpt lat="46.57388" lon="0.52961">
        <ele>113.5</ele>
        <time>2010-09-26T07:55:23Z</time>
      </trkpt>
      <trkpt lat="46.57389" lon="0.52975">
        <ele>113.4</ele>
        <time>2010-09-26T07:55:24Z</time>
      </trkpt>
      <trkpt lat="46.57402" lon="0.53071">
        <ele>113.9</ele>
        <time>2010-09-26T07:55:29Z</time>
      </trkpt>
      <trkpt lat="46.57429" lon="0.53306">
        <ele>111.1</ele>
        <time>2010-09-26T07:55:42Z</time>
      </trkpt>
      <trkpt lat="46.57428" lon="0.53323">
        <ele>111</ele>
        <time>2010-09-26T07:55:43Z</time>
      </trkpt>
      <trkpt lat="46.57425" lon="0.5334">
        <ele>110.5</ele>
        <time>2010-09-26T07:55:44Z</time>
      </trkpt>
      <trkpt lat="46.57419" lon="0.53355">
        <ele>110.4</ele>
        <time>2010-09-26T07:55:45Z</time>
      </trkpt>
      <trkpt lat="46.57413" lon="0.5337">
        <ele>110.6</ele>
        <time>2010-09-26T07:55:46Z</time>
      </trkpt>
      <trkpt lat="46.57346" lon="0.53491">
        <ele>111</ele>
        <time>2010-09-26T07:55:55Z</time>
      </trkpt>
      <trkpt lat="46.57229" lon="0.53696">
        <ele>117.5</ele>
        <time>2010-09-26T07:56:13Z</time>
      </trkpt>
      <trkpt lat="46.57221" lon="0.53715">
        <ele>117.1</ele>
        <time>2010-09-26T07:56:15Z</time>
      </trkpt>
      <trkpt lat="46.57214" lon="0.53731">
        <ele>117.5</ele>
        <time>2010-09-26T07:56:17Z</time>
      </trkpt>
      <trkpt lat="46.57203" lon="0.53756">
        <ele>118</ele>
        <time>2010-09-26T07:56:22Z</time>
      </trkpt>
      <trkpt lat="46.57202" lon="0.53758">
        <ele>118.4</ele>
        <time>2010-09-26T07:56:24Z</time>
      </trkpt>
      <trkpt lat="46.57201" lon="0.5376">
        <ele>117.8</ele>
        <time>2010-09-26T07:56:25Z</time>
      </trkpt>
      <trkpt lat="46.57201" lon="0.53766">
        <ele>118</ele>
        <time>2010-09-26T07:56:27Z</time>
      </trkpt>
      <trkpt lat="46.57201" lon="0.5377">
        <ele>118.1</ele>
        <time>2010-09-26T07:56:28Z</time>
      </trkpt>
      <trkpt lat="46.57204" lon="0.53777">
        <ele>118.5</ele>
        <time>2010-09-26T07:56:29Z</time>
      </trkpt>
      <trkpt lat="46.573" lon="0.54006">
        <ele>120.3</ele>
        <time>2010-09-26T07:56:48Z</time>
      </trkpt>
      <trkpt lat="46.57303" lon="0.54017">
        <ele>120</ele>
        <time>2010-09-26T07:56:49Z</time>
      </trkpt>
      <trkpt lat="46.57404" lon="0.54542">
        <ele>120</ele>
        <time>2010-09-26T07:57:31Z</time>
      </trkpt>
      <trkpt lat="46.57403" lon="0.54547">
        <ele>119.6</ele>
        <time>2010-09-26T07:57:32Z</time>
      </trkpt>
      <trkpt lat="46.574" lon="0.5455">
        <ele>119.1</ele>
        <time>2010-09-26T07:57:33Z</time>
      </trkpt>
      <trkpt lat="46.57395" lon="0.54552">
        <ele>119.3</ele>
        <time>2010-09-26T07:57:34Z</time>
      </trkpt>
      <trkpt lat="46.57388" lon="0.5455">
        <ele>119</ele>
        <time>2010-09-26T07:57:35Z</time>
      </trkpt>
      <trkpt lat="46.5737" lon="0.54548">
        <ele>118.9</ele>
        <time>2010-09-26T07:57:37Z</time>
      </trkpt>
      <trkpt lat="46.57361" lon="0.54548">
        <ele>118.6</ele>
        <time>2010-09-26T07:57:38Z</time>
      </trkpt>
      <trkpt lat="46.57299" lon="0.54551">
        <ele>115.9</ele>
        <time>2010-09-26T07:57:46Z</time>
      </trkpt>
      <trkpt lat="46.57295" lon="0.54552">
        <ele>116.5</ele>
        <time>2010-09-26T07:57:47Z</time>
      </trkpt>
      <trkpt lat="46.57293" lon="0.54554">
        <ele>116.1</ele>
        <time>2010-09-26T07:57:48Z</time>
      </trkpt>
      <trkpt lat="46.57292" lon="0.54558">
        <ele>116.4</ele>
        <time>2010-09-26T07:57:49Z</time>
      </trkpt>
      <trkpt lat="46.57292" lon="0.54564">
        <ele>116</ele>
        <time>2010-09-26T07:57:50Z</time>
      </trkpt>
      <trkpt lat="46.57294" lon="0.54571">
        <ele>116</ele>
        <time>2010-09-26T07:57:51Z</time>
      </trkpt>
      <trkpt lat="46.57299" lon="0.54602">
        <ele>116.5</ele>
        <time>2010-09-26T07:57:54Z</time>
      </trkpt>
      <trkpt lat="46.573" lon="0.54615">
        <ele>117.3</ele>
        <time>2010-09-26T07:57:55Z</time>
      </trkpt>
      <trkpt lat="46.57312" lon="0.55008">
        <ele>117.4</ele>
        <time>2010-09-26T07:58:16Z</time>
      </trkpt>
      <trkpt lat="46.57306" lon="0.55038">
        <ele>117.4</ele>
        <time>2010-09-26T07:58:17Z</time>
      </trkpt>
      <trkpt lat="46.57231" lon="0.55394">
        <ele>119.3</ele>
        <time>2010-09-26T07:58:32Z</time>
      </trkpt>
      <trkpt lat="46.57229" lon="0.55419">
        <ele>119.4</ele>
        <time>2010-09-26T07:58:33Z</time>
      </trkpt>
      <trkpt lat="46.57214" lon="0.55591">
        <ele>122.1</ele>
        <time>2010-09-26T07:58:41Z</time>
      </trkpt>
      <trkpt lat="46.57211" lon="0.55607">
        <ele>122</ele>
        <time>2010-09-26T07:58:42Z</time>
      </trkpt>
      <trkpt lat="46.57143" lon="0.55917">
        <ele>125</ele>
        <time>2010-09-26T07:59:06Z</time>
      </trkpt>
      <trkpt lat="46.57142" lon="0.55931">
        <ele>125.1</ele>
        <time>2010-09-26T07:59:07Z</time>
      </trkpt>
      <trkpt lat="46.57121" lon="0.56113">
        <ele>123.5</ele>
        <time>2010-09-26T07:59:23Z</time>
      </trkpt>
      <trkpt lat="46.57121" lon="0.56117">
        <ele>123.3</ele>
        <time>2010-09-26T07:59:24Z</time>
      </trkpt>
      <trkpt lat="46.57121" lon="0.56117">
        <ele>123.3</ele>
        <time>2010-09-26T07:59:36Z</time>
      </trkpt>
      <trkpt lat="46.57121" lon="0.56117">
        <ele>123.5</ele>
        <time>2010-09-26T07:59:37Z</time>
      </trkpt>
      <trkpt lat="46.57122" lon="0.56119">
        <ele>123.4</ele>
        <time>2010-09-26T07:59:38Z</time>
      </trkpt>
      <trkpt lat="46.57125" lon="0.56121">
        <ele>123.4</ele>
        <time>2010-09-26T07:59:39Z</time>
      </trkpt>
      <trkpt lat="46.57132" lon="0.56122">
        <ele>123.4</ele>
        <time>2010-09-26T07:59:40Z</time>
      </trkpt>
      <trkpt lat="46.5714" lon="0.56122">
        <ele>123.5</ele>
        <time>2010-09-26T07:59:41Z</time>
      </trkpt>
      <trkpt lat="46.57162" lon="0.56124">
        <ele>124.1</ele>
        <time>2010-09-26T07:59:43Z</time>
      </trkpt>
      <trkpt lat="46.57173" lon="0.56128">
        <ele>124.6</ele>
        <time>2010-09-26T07:59:44Z</time>
      </trkpt>
      <trkpt lat="46.57241" lon="0.56148">
        <ele>127.4</ele>
        <time>2010-09-26T07:59:51Z</time>
      </trkpt>
      <trkpt lat="46.57249" lon="0.56148">
        <ele>127</ele>
        <time>2010-09-26T07:59:52Z</time>
      </trkpt>
      <trkpt lat="46.57257" lon="0.56144">
        <ele>127.4</ele>
        <time>2010-09-26T07:59:53Z</time>
      </trkpt>
      <trkpt lat="46.57264" lon="0.56135">
        <ele>127.6</ele>
        <time>2010-09-26T07:59:54Z</time>
      </trkpt>
      <trkpt lat="46.57269" lon="0.56121">
        <ele>127.8</ele>
        <time>2010-09-26T07:59:55Z</time>
      </trkpt>
      <trkpt lat="46.57273" lon="0.56104">
        <ele>127.5</ele>
        <time>2010-09-26T07:59:56Z</time>
      </trkpt>
      <trkpt lat="46.57288" lon="0.56039">
        <ele>129.1</ele>
        <time>2010-09-26T08:00:00Z</time>
      </trkpt>
      <trkpt lat="46.57294" lon="0.56025">
        <ele>129.1</ele>
        <time>2010-09-26T08:00:01Z</time>
      </trkpt>
      <trkpt lat="46.57354" lon="0.55901">
        <ele>128.1</ele>
        <time>2010-09-26T08:00:10Z</time>
      </trkpt>
      <trkpt lat="46.57363" lon="0.55889">
        <ele>127.8</ele>
        <time>2010-09-26T08:00:11Z</time>
      </trkpt>
      <trkpt lat="46.57382" lon="0.55868">
        <ele>127.1</ele>
        <time>2010-09-26T08:00:13Z</time>
      </trkpt>
      <trkpt lat="46.57586" lon="0.55678">
        <ele>124</ele>
        <time>2010-09-26T08:00:30Z</time>
      </trkpt>
      <trkpt lat="46.57598" lon="0.5567">
        <ele>123.6</ele>
        <time>2010-09-26T08:00:31Z</time>
      </trkpt>
      <trkpt lat="46.57611" lon="0.55665">
        <ele>124</ele>
        <time>2010-09-26T08:00:32Z</time>
      </trkpt>
      <trkpt lat="46.57729" lon="0.55633">
        <ele>125.5</ele>
        <time>2010-09-26T08:00:42Z</time>
      </trkpt>
      <trkpt lat="46.57734" lon="0.55634">
        <ele>125.6</ele>
        <time>2010-09-26T08:00:43Z</time>
      </trkpt>
      <trkpt lat="46.57739" lon="0.55641">
        <ele>126.8</ele>
        <time>2010-09-26T08:00:44Z</time>
      </trkpt>
      <trkpt lat="46.5774" lon="0.55654">
        <ele>127</ele>
        <time>2010-09-26T08:00:45Z</time>
      </trkpt>
      <trkpt lat="46.57744" lon="0.55667">
        <ele>127.6</ele>
        <time>2010-09-26T08:00:46Z</time>
      </trkpt>
      <trkpt lat="46.57762" lon="0.55745">
        <ele>129.3</ele>
        <time>2010-09-26T08:00:51Z</time>
      </trkpt>
      <trkpt lat="46.57768" lon="0.5576">
        <ele>129.1</ele>
        <time>2010-09-26T08:00:52Z</time>
      </trkpt>
      <trkpt lat="46.5781" lon="0.55859">
        <ele>132.8</ele>
        <time>2010-09-26T08:00:59Z</time>
      </trkpt>
      <trkpt lat="46.57818" lon="0.55872">
        <ele>133.1</ele>
        <time>2010-09-26T08:01:00Z</time>
      </trkpt>
      <trkpt lat="46.57836" lon="0.55897">
        <ele>133.3</ele>
        <time>2010-09-26T08:01:02Z</time>
      </trkpt>
      <trkpt lat="46.57845" lon="0.55907">
        <ele>133.6</ele>
        <time>2010-09-26T08:01:03Z</time>
      </trkpt>
      <trkpt lat="46.57982" lon="0.56044">
        <ele>136.1</ele>
        <time>2010-09-26T08:01:17Z</time>
      </trkpt>
      <trkpt lat="46.5799" lon="0.56051">
        <ele>136.3</ele>
        <time>2010-09-26T08:01:18Z</time>
      </trkpt>
      <trkpt lat="46.58036" lon="0.56082">
        <ele>135</ele>
        <time>2010-09-26T08:01:24Z</time>
      </trkpt>
      <trkpt lat="46.58142" lon="0.56151">
        <ele>134</ele>
        <time>2010-09-26T08:01:33Z</time>
      </trkpt>
      <trkpt lat="46.58152" lon="0.56161">
        <ele>134.1</ele>
        <time>2010-09-26T08:01:34Z</time>
      </trkpt>
      <trkpt lat="46.58186" lon="0.56201">
        <ele>134.1</ele>
        <time>2010-09-26T08:01:38Z</time>
      </trkpt>
      <trkpt lat="46.582" lon="0.56223">
        <ele>134.6</ele>
        <time>2010-09-26T08:01:40Z</time>
      </trkpt>
      <trkpt lat="46.58214" lon="0.56254">
        <ele>135.8</ele>
        <time>2010-09-26T08:01:43Z</time>
      </trkpt>
      <trkpt lat="46.58221" lon="0.56269">
        <ele>135.6</ele>
        <time>2010-09-26T08:01:45Z</time>
      </trkpt>
      <trkpt lat="46.58224" lon="0.56273">
        <ele>135.6</ele>
        <time>2010-09-26T08:01:46Z</time>
      </trkpt>
      <trkpt lat="46.58228" lon="0.56272">
        <ele>135.3</ele>
        <time>2010-09-26T08:01:47Z</time>
      </trkpt>
      <trkpt lat="46.58231" lon="0.56269">
        <ele>135.3</ele>
        <time>2010-09-26T08:01:48Z</time>
      </trkpt>
      <trkpt lat="46.58236" lon="0.56261">
        <ele>134.8</ele>
        <time>2010-09-26T08:01:49Z</time>
      </trkpt>
      <trkpt lat="46.58277" lon="0.56196">
        <ele>133.1</ele>
        <time>2010-09-26T08:01:54Z</time>
      </trkpt>
      <trkpt lat="46.58289" lon="0.56182">
        <ele>133.1</ele>
        <time>2010-09-26T08:01:55Z</time>
      </trkpt>
      <trkpt lat="46.58315" lon="0.56158">
        <ele>133.5</ele>
        <time>2010-09-26T08:01:57Z</time>
      </trkpt>
      <trkpt lat="46.58351" lon="0.56125">
        <ele>134.1</ele>
        <time>2010-09-26T08:02:00Z</time>
      </trkpt>
      <trkpt lat="46.58362" lon="0.56112">
        <ele>134</ele>
        <time>2010-09-26T08:02:01Z</time>
      </trkpt>
      <trkpt lat="46.58372" lon="0.56097">
        <ele>133.6</ele>
        <time>2010-09-26T08:02:02Z</time>
      </trkpt>
      <trkpt lat="46.58381" lon="0.56082">
        <ele>133.8</ele>
        <time>2010-09-26T08:02:03Z</time>
      </trkpt>
      <trkpt lat="46.58389" lon="0.56066">
        <ele>134</ele>
        <time>2010-09-26T08:02:04Z</time>
      </trkpt>
      <trkpt lat="46.58395" lon="0.56048">
        <ele>134.1</ele>
        <time>2010-09-26T08:02:05Z</time>
      </trkpt>
      <trkpt lat="46.584" lon="0.56028">
        <ele>134.1</ele>
        <time>2010-09-26T08:02:06Z</time>
      </trkpt>
      <trkpt lat="46.58556" lon="0.55285">
        <ele>128.3</ele>
        <time>2010-09-26T08:02:57Z</time>
      </trkpt>
      <trkpt lat="46.58557" lon="0.55279">
        <ele>128.5</ele>
        <time>2010-09-26T08:02:58Z</time>
      </trkpt>
      <trkpt lat="46.58557" lon="0.55274">
        <ele>128</ele>
        <time>2010-09-26T08:04:11Z</time>
      </trkpt>
      <trkpt lat="46.58557" lon="0.55274">
        <ele>128.3</ele>
        <time>2010-09-26T08:04:12Z</time>
      </trkpt>
      <trkpt lat="46.58557" lon="0.55274">
        <ele>128.5</ele>
        <time>2010-09-26T08:04:13Z</time>
      </trkpt>
      <trkpt lat="46.58557" lon="0.55274">
        <ele>128.5</ele>
        <time>2010-09-26T08:04:14Z</time>
      </trkpt>
      <trkpt lat="46.58557" lon="0.55274">
        <ele>128.5</ele>
        <time>2010-09-26T08:04:15Z</time>
      </trkpt>
      <trkpt lat="46.58557" lon="0.55274">
        <ele>128.5</ele>
        <time>2010-09-26T08:04:16Z</time>
      </trkpt>
      <trkpt lat="46.58557" lon="0.55274">
        <ele>128.5</ele>
        <time>2010-09-26T08:04:17Z</time>
      </trkpt>
      <trkpt lat="46.58557" lon="0.55274">
        <ele>128.5</ele>
        <time>2010-09-26T08:04:18Z</time>
      </trkpt>
      <trkpt lat="46.58557" lon="0.55274">
        <ele>128.5</ele>
        <time>2010-09-26T08:04:19Z</time>
      </trkpt>
      <trkpt lat="46.58557" lon="0.55274">
        <ele>128.5</ele>
        <time>2010-09-26T08:04:20Z</time>
      </trkpt>
      <trkpt lat="46.58557" lon="0.55274">
        <ele>128.5</ele>
        <time>2010-09-26T08:04:21Z</time>
      </trkpt>
      <trkpt lat="46.58557" lon="0.55275">
        <ele>128.5</ele>
        <time>2010-09-26T08:04:22Z</time>
      </trkpt>
      <trkpt lat="46.58557" lon="0.55275">
        <ele>128.5</ele>
        <time>2010-09-26T08:04:23Z</time>
      </trkpt>
      <trkpt lat="46.58557" lon="0.55275">
        <ele>128.5</ele>
        <time>2010-09-26T08:04:24Z</time>
      </trkpt>
      <trkpt lat="46.58557" lon="0.55275">
        <ele>128.5</ele>
        <time>2010-09-26T08:04:25Z</time>
      </trkpt>
      <trkpt lat="46.58557" lon="0.55275">
        <ele>128.5</ele>
        <time>2010-09-26T08:04:26Z</time>
      </trkpt>
      <trkpt lat="46.58557" lon="0.55275">
        <ele>128.5</ele>
        <time>2010-09-26T08:04:27Z</time>
      </trkpt>
      <trkpt lat="46.58557" lon="0.55275">
        <ele>128.5</ele>
        <time>2010-09-26T08:04:28Z</time>
      </trkpt>
      <trkpt lat="46.58557" lon="0.55275">
        <ele>128.5</ele>
        <time>2010-09-26T08:04:29Z</time>
      </trkpt>
      <trkpt lat="46.58557" lon="0.55275">
        <ele>128.5</ele>
        <time>2010-09-26T08:04:30Z</time>
      </trkpt>
      <trkpt lat="46.58556" lon="0.55275">
        <ele>128.8</ele>
        <time>2010-09-26T08:04:31Z</time>
      </trkpt>
      <trkpt lat="46.58556" lon="0.55275">
        <ele>128.8</ele>
        <time>2010-09-26T08:04:32Z</time>
      </trkpt>
      <trkpt lat="46.58556" lon="0.55275">
        <ele>128.8</ele>
        <time>2010-09-26T08:04:33Z</time>
      </trkpt>
      <trkpt lat="46.58556" lon="0.55275">
        <ele>128.8</ele>
        <time>2010-09-26T08:04:34Z</time>
      </trkpt>
      <trkpt lat="46.58556" lon="0.55275">
        <ele>128.8</ele>
        <time>2010-09-26T08:04:35Z</time>
      </trkpt>
      <trkpt lat="46.58556" lon="0.55275">
        <ele>128.8</ele>
        <time>2010-09-26T08:04:36Z</time>
      </trkpt>
      <trkpt lat="46.58556" lon="0.55275">
        <ele>128.8</ele>
        <time>2010-09-26T08:04:37Z</time>
      </trkpt>
      <trkpt lat="46.58556" lon="0.55275">
        <ele>128.8</ele>
        <time>2010-09-26T08:04:38Z</time>
      </trkpt>
      <trkpt lat="46.58556" lon="0.55275">
        <ele>129.1</ele>
        <time>2010-09-26T08:04:39Z</time>
      </trkpt>
      <trkpt lat="46.58556" lon="0.55275">
        <ele>129.1</ele>
        <time>2010-09-26T08:04:40Z</time>
      </trkpt>
      <trkpt lat="46.58556" lon="0.55275">
        <ele>129.1</ele>
        <time>2010-09-26T08:04:41Z</time>
      </trkpt>
      <trkpt lat="46.58556" lon="0.55275">
        <ele>129.1</ele>
        <time>2010-09-26T08:04:42Z</time>
      </trkpt>
      <trkpt lat="46.58556" lon="0.55275">
        <ele>129.1</ele>
        <time>2010-09-26T08:04:43Z</time>
      </trkpt>
      <trkpt lat="46.58556" lon="0.55275">
        <ele>129.1</ele>
        <time>2010-09-26T08:04:44Z</time>
      </trkpt>
      <trkpt lat="46.58556" lon="0.55275">
        <ele>129.1</ele>
        <time>2010-09-26T08:04:45Z</time>
      </trkpt>
      <trkpt lat="46.58556" lon="0.55275">
        <ele>129.1</ele>
        <time>2010-09-26T08:04:46Z</time>
      </trkpt>
      <trkpt lat="46.58556" lon="0.55275">
        <ele>129.1</ele>
        <time>2010-09-26T08:04:47Z</time>
      </trkpt>
      <trkpt lat="46.58556" lon="0.55275">
        <ele>129.1</ele>
        <time>2010-09-26T08:04:48Z</time>
      </trkpt>
      <trkpt lat="46.58556" lon="0.55275">
        <ele>129.1</ele>
        <time>2010-09-26T08:04:49Z</time>
      </trkpt>
      <trkpt lat="46.58556" lon="0.55275">
        <ele>129.1</ele>
        <time>2010-09-26T08:04:50Z</time>
      </trkpt>
      <trkpt lat="46.58556" lon="0.55275">
        <ele>129.1</ele>
        <time>2010-09-26T08:04:51Z</time>
      </trkpt>
      <trkpt lat="46.58556" lon="0.55275">
        <ele>129.1</ele>
        <time>2010-09-26T08:04:52Z</time>
      </trkpt>
      <trkpt lat="46.58556" lon="0.55275">
        <ele>129.1</ele>
        <time>2010-09-26T08:04:53Z</time>
      </trkpt>
      <trkpt lat="46.58556" lon="0.55275">
        <ele>129.1</ele>
        <time>2010-09-26T08:04:54Z</time>
      </trkpt>
      <trkpt lat="46.58556" lon="0.55275">
        <ele>129.1</ele>
        <time>2010-09-26T08:04:55Z</time>
      </trkpt>
      <trkpt lat="46.58556" lon="0.55275">
        <ele>129.1</ele>
        <time>2010-09-26T08:04:56Z</time>
      </trkpt>
      <trkpt lat="46.58556" lon="0.55275">
        <ele>129.1</ele>
        <time>2010-09-26T08:04:57Z</time>
      </trkpt>
      <trkpt lat="46.58556" lon="0.55275">
        <ele>129.1</ele>
        <time>2010-09-26T08:04:58Z</time>
      </trkpt>
      <trkpt lat="46.58556" lon="0.55275">
        <ele>129.1</ele>
        <time>2010-09-26T08:04:59Z</time>
      </trkpt>
      <trkpt lat="46.58556" lon="0.55275">
        <ele>129.1</ele>
        <time>2010-09-26T08:05:00Z</time>
      </trkpt>
      <trkpt lat="46.58556" lon="0.55275">
        <ele>129.1</ele>
        <time>2010-09-26T08:05:01Z</time>
      </trkpt>
      <trkpt lat="46.58556" lon="0.55275">
        <ele>129.1</ele>
        <time>2010-09-26T08:05:02Z</time>
      </trkpt>
      <trkpt lat="46.58556" lon="0.55275">
        <ele>129.1</ele>
        <time>2010-09-26T08:05:03Z</time>
      </trkpt>
      <trkpt lat="46.58556" lon="0.55275">
        <ele>129.1</ele>
        <time>2010-09-26T08:05:04Z</time>
      </trkpt>
      <trkpt lat="46.58556" lon="0.55275">
        <ele>129.1</ele>
        <time>2010-09-26T08:05:05Z</time>
      </trkpt>
      <trkpt lat="46.58556" lon="0.55275">
        <ele>129.1</ele>
        <time>2010-09-26T08:05:06Z</time>
      </trkpt>
      <trkpt lat="46.58556" lon="0.55275">
        <ele>129.6</ele>
        <time>2010-09-26T08:05:07Z</time>
      </trkpt>
      <trkpt lat="46.58556" lon="0.55275">
        <ele>129.6</ele>
        <time>2010-09-26T08:05:08Z</time>
      </trkpt>
      <trkpt lat="46.58556" lon="0.55275">
        <ele>129.6</ele>
        <time>2010-09-26T08:05:09Z</time>
      </trkpt>
      <trkpt lat="46.58556" lon="0.55275">
        <ele>129.6</ele>
        <time>2010-09-26T08:05:10Z</time>
      </trkpt>
      <trkpt lat="46.58556" lon="0.55275">
        <ele>129.6</ele>
        <time>2010-09-26T08:05:11Z</time>
      </trkpt>
      <trkpt lat="46.58557" lon="0.55274">
        <ele>129.6</ele>
        <time>2010-09-26T08:05:12Z</time>
      </trkpt>
      <trkpt lat="46.5856" lon="0.55273">
        <ele>129.5</ele>
        <time>2010-09-26T08:05:13Z</time>
      </trkpt>
      <trkpt lat="46.58563" lon="0.55274">
        <ele>129.5</ele>
        <time>2010-09-26T08:05:14Z</time>
      </trkpt>
      <trkpt lat="46.58566" lon="0.55279">
        <ele>129</ele>
        <time>2010-09-26T08:05:15Z</time>
      </trkpt>
      <trkpt lat="46.5857" lon="0.55286">
        <ele>128.8</ele>
        <time>2010-09-26T08:05:16Z</time>
      </trkpt>
      <trkpt lat="46.58591" lon="0.55327">
        <ele>129.8</ele>
        <time>2010-09-26T08:05:20Z</time>
      </trkpt>
      <trkpt lat="46.58598" lon="0.55337">
        <ele>129.6</ele>
        <time>2010-09-26T08:05:21Z</time>
      </trkpt>
      <trkpt lat="46.58605" lon="0.55346">
        <ele>129.3</ele>
        <time>2010-09-26T08:05:22Z</time>
      </trkpt>
      <trkpt lat="46.58613" lon="0.55352">
        <ele>129.6</ele>
        <time>2010-09-26T08:05:23Z</time>
      </trkpt>
      <trkpt lat="46.58622" lon="0.55356">
        <ele>129.3</ele>
        <time>2010-09-26T08:05:24Z</time>
      </trkpt>
      <trkpt lat="46.58631" lon="0.55358">
        <ele>129.5</ele>
        <time>2010-09-26T08:05:25Z</time>
      </trkpt>
      <trkpt lat="46.58641" lon="0.55358">
        <ele>129.3</ele>
        <time>2010-09-26T08:05:26Z</time>
      </trkpt>
      <trkpt lat="46.5865" lon="0.55356">
        <ele>129.3</ele>
        <time>2010-09-26T08:05:27Z</time>
      </trkpt>
      <trkpt lat="46.58684" lon="0.55346">
        <ele>128.3</ele>
        <time>2010-09-26T08:05:31Z</time>
      </trkpt>
      <trkpt lat="46.58692" lon="0.55343">
        <ele>127.9</ele>
        <time>2010-09-26T08:05:32Z</time>
      </trkpt>
      <trkpt lat="46.58705" lon="0.55339">
        <ele>127.8</ele>
        <time>2010-09-26T08:05:34Z</time>
      </trkpt>
      <trkpt lat="46.58713" lon="0.5534">
        <ele>127.5</ele>
        <time>2010-09-26T08:05:35Z</time>
      </trkpt>
      <trkpt lat="46.5872" lon="0.55344">
        <ele>127.4</ele>
        <time>2010-09-26T08:05:36Z</time>
      </trkpt>
      <trkpt lat="46.58751" lon="0.55368">
        <ele>127.3</ele>
        <time>2010-09-26T08:05:40Z</time>
      </trkpt>
      <trkpt lat="46.58853" lon="0.55457">
        <ele>128.6</ele>
        <time>2010-09-26T08:05:50Z</time>
      </trkpt>
      <trkpt lat="46.58867" lon="0.55464">
        <ele>128.3</ele>
        <time>2010-09-26T08:05:51Z</time>
      </trkpt>
      <trkpt lat="46.58903" lon="0.55478">
        <ele>127.9</ele>
        <time>2010-09-26T08:05:54Z</time>
      </trkpt>
      <trkpt lat="46.58928" lon="0.55487">
        <ele>127.9</ele>
        <time>2010-09-26T08:05:58Z</time>
      </trkpt>
      <trkpt lat="46.58929" lon="0.55489">
        <ele>127.6</ele>
        <time>2010-09-26T08:05:59Z</time>
      </trkpt>
      <trkpt lat="46.58929" lon="0.55492">
        <ele>128.1</ele>
        <time>2010-09-26T08:06:00Z</time>
      </trkpt>
      <trkpt lat="46.58929" lon="0.55495">
        <ele>128.5</ele>
        <time>2010-09-26T08:06:01Z</time>
      </trkpt>
      <trkpt lat="46.58927" lon="0.55499">
        <ele>128.8</ele>
        <time>2010-09-26T08:06:02Z</time>
      </trkpt>
      <trkpt lat="46.58924" lon="0.55504">
        <ele>129</ele>
        <time>2010-09-26T08:06:03Z</time>
      </trkpt>
      <trkpt lat="46.58919" lon="0.55508">
        <ele>129.1</ele>
        <time>2010-09-26T08:06:04Z</time>
      </trkpt>
      <trkpt lat="46.58901" lon="0.55523">
        <ele>130.1</ele>
        <time>2010-09-26T08:06:07Z</time>
      </trkpt>
      <trkpt lat="46.58896" lon="0.55531">
        <ele>130.5</ele>
        <time>2010-09-26T08:06:08Z</time>
      </trkpt>
      <trkpt lat="46.58855" lon="0.55604">
        <ele>131.6</ele>
        <time>2010-09-26T08:06:16Z</time>
      </trkpt>
      <trkpt lat="46.58852" lon="0.55614">
        <ele>131.8</ele>
        <time>2010-09-26T08:06:17Z</time>
      </trkpt>
      <trkpt lat="46.58846" lon="0.5564">
        <ele>132.1</ele>
        <time>2010-09-26T08:06:20Z</time>
      </trkpt>
      <trkpt lat="46.58845" lon="0.55649">
        <ele>132.3</ele>
        <time>2010-09-26T08:06:21Z</time>
      </trkpt>
      <trkpt lat="46.5884" lon="0.55684">
        <ele>131.5</ele>
        <time>2010-09-26T08:06:24Z</time>
      </trkpt>
      <trkpt lat="46.5884" lon="0.55696">
        <ele>131.6</ele>
        <time>2010-09-26T08:06:25Z</time>
      </trkpt>
      <trkpt lat="46.58841" lon="0.55709">
        <ele>131.8</ele>
        <time>2010-09-26T08:06:26Z</time>
      </trkpt>
      <trkpt lat="46.58844" lon="0.55735">
        <ele>132.3</ele>
        <time>2010-09-26T08:06:28Z</time>
      </trkpt>
      <trkpt lat="46.58846" lon="0.55747">
        <ele>132.3</ele>
        <time>2010-09-26T08:06:29Z</time>
      </trkpt>
      <trkpt lat="46.58849" lon="0.55758">
        <ele>132.8</ele>
        <time>2010-09-26T08:06:30Z</time>
      </trkpt>
      <trkpt lat="46.58854" lon="0.55767">
        <ele>133.6</ele>
        <time>2010-09-26T08:06:31Z</time>
      </trkpt>
      <trkpt lat="46.58858" lon="0.55776">
        <ele>133.8</ele>
        <time>2010-09-26T08:06:32Z</time>
      </trkpt>
      <trkpt lat="46.5892" lon="0.55895">
        <ele>136.1</ele>
        <time>2010-09-26T08:06:48Z</time>
      </trkpt>
      <trkpt lat="46.58923" lon="0.55902">
        <ele>136.6</ele>
        <time>2010-09-26T08:06:49Z</time>
      </trkpt>
      <trkpt lat="46.58924" lon="0.55919">
        <ele>137.3</ele>
        <time>2010-09-26T08:06:51Z</time>
      </trkpt>
      <trkpt lat="46.58924" lon="0.5593">
        <ele>137.3</ele>
        <time>2010-09-26T08:06:52Z</time>
      </trkpt>
      <trkpt lat="46.58916" lon="0.56">
        <ele>138.3</ele>
        <time>2010-09-26T08:06:59Z</time>
      </trkpt>
      <trkpt lat="46.58914" lon="0.56007">
        <ele>138.5</ele>
        <time>2010-09-26T08:07:00Z</time>
      </trkpt>
      <trkpt lat="46.58911" lon="0.56019">
        <ele>138.8</ele>
        <time>2010-09-26T08:07:02Z</time>
      </trkpt>
      <trkpt lat="46.58911" lon="0.56026">
        <ele>139</ele>
        <time>2010-09-26T08:07:03Z</time>
      </trkpt>
      <trkpt lat="46.58903" lon="0.56135">
        <ele>137.3</ele>
        <time>2010-09-26T08:07:14Z</time>
      </trkpt>
      <trkpt lat="46.58902" lon="0.56151">
        <ele>137.3</ele>
        <time>2010-09-26T08:07:16Z</time>
      </trkpt>
      <trkpt lat="46.589" lon="0.56159">
        <ele>137.5</ele>
        <time>2010-09-26T08:07:17Z</time>
      </trkpt>
      <trkpt lat="46.58885" lon="0.56244">
        <ele>137.8</ele>
        <time>2010-09-26T08:07:27Z</time>
      </trkpt>
      <trkpt lat="46.58884" lon="0.56254">
        <ele>137.8</ele>
        <time>2010-09-26T08:07:28Z</time>
      </trkpt>
      <trkpt lat="46.5888" lon="0.56305">
        <ele>138.1</ele>
        <time>2010-09-26T08:07:34Z</time>
      </trkpt>
      <trkpt lat="46.58881" lon="0.56311">
        <ele>138.3</ele>
        <time>2010-09-26T08:07:35Z</time>
      </trkpt>
      <trkpt lat="46.58883" lon="0.56343">
        <ele>138.6</ele>
        <time>2010-09-26T08:07:40Z</time>
      </trkpt>
      <trkpt lat="46.58884" lon="0.5635">
        <ele>138.8</ele>
        <time>2010-09-26T08:07:41Z</time>
      </trkpt>
      <trkpt lat="46.58886" lon="0.56369">
        <ele>139.8</ele>
        <time>2010-09-26T08:07:45Z</time>
      </trkpt>
      <trkpt lat="46.58894" lon="0.56433">
        <ele>141</ele>
        <time>2010-09-26T08:07:55Z</time>
      </trkpt>
      <trkpt lat="46.58896" lon="0.56442">
        <ele>141.8</ele>
        <time>2010-09-26T08:07:58Z</time>
      </trkpt>
      <trkpt lat="46.58898" lon="0.56448">
        <ele>142.1</ele>
        <time>2010-09-26T08:08:01Z</time>
      </trkpt>
      <trkpt lat="46.58899" lon="0.56452">
        <ele>142.5</ele>
        <time>2010-09-26T08:08:02Z</time>
      </trkpt>
      <trkpt lat="46.58899" lon="0.56454">
        <ele>142.3</ele>
        <time>2010-09-26T08:08:03Z</time>
      </trkpt>
      <trkpt lat="46.58899" lon="0.56456">
        <ele>142.5</ele>
        <time>2010-09-26T08:08:04Z</time>
      </trkpt>
      <trkpt lat="46.58899" lon="0.56458">
        <ele>142.3</ele>
        <time>2010-09-26T08:08:05Z</time>
      </trkpt>
      <trkpt lat="46.589" lon="0.5646">
        <ele>142.1</ele>
        <time>2010-09-26T08:08:06Z</time>
      </trkpt>
      <trkpt lat="46.58901" lon="0.5646">
        <ele>141.8</ele>
        <time>2010-09-26T08:08:07Z</time>
      </trkpt>
      <trkpt lat="46.589" lon="0.5646">
        <ele>142.1</ele>
        <time>2010-09-26T08:08:08Z</time>
      </trkpt>
      <trkpt lat="46.589" lon="0.5646">
        <ele>142.1</ele>
        <time>2010-09-26T08:08:09Z</time>
      </trkpt>
      <trkpt lat="46.589" lon="0.5646">
        <ele>142.1</ele>
        <time>2010-09-26T08:08:10Z</time>
      </trkpt>
      <trkpt lat="46.589" lon="0.5646">
        <ele>142.1</ele>
        <time>2010-09-26T08:08:11Z</time>
      </trkpt>
      <trkpt lat="46.589" lon="0.5646">
        <ele>142.1</ele>
        <time>2010-09-26T08:08:12Z</time>
      </trkpt>
      <trkpt lat="46.589" lon="0.5646">
        <ele>142.1</ele>
        <time>2010-09-26T08:08:13Z</time>
      </trkpt>
      <trkpt lat="46.589" lon="0.5646">
        <ele>142.1</ele>
        <time>2010-09-26T08:08:14Z</time>
      </trkpt>
      <trkpt lat="46.589" lon="0.5646">
        <ele>142.1</ele>
        <time>2010-09-26T08:08:15Z</time>
      </trkpt>
      <trkpt lat="46.589" lon="0.5646">
        <ele>142.1</ele>
        <time>2010-09-26T08:08:16Z</time>
      </trkpt>
      <trkpt lat="46.589" lon="0.5646">
        <ele>142.1</ele>
        <time>2010-09-26T08:08:17Z</time>
      </trkpt>
      <trkpt lat="46.589" lon="0.5646">
        <ele>142.1</ele>
        <time>2010-09-26T08:08:18Z</time>
      </trkpt>
      <trkpt lat="46.589" lon="0.5646">
        <ele>142.1</ele>
        <time>2010-09-26T08:08:19Z</time>
      </trkpt>
      <trkpt lat="46.589" lon="0.5646">
        <ele>142.1</ele>
        <time>2010-09-26T08:08:20Z</time>
      </trkpt>
      <trkpt lat="46.589" lon="0.5646">
        <ele>142.1</ele>
        <time>2010-09-26T08:08:21Z</time>
      </trkpt>
      <trkpt lat="46.589" lon="0.5646">
        <ele>142.1</ele>
        <time>2010-09-26T08:08:22Z</time>
      </trkpt>
      <trkpt lat="46.589" lon="0.5646">
        <ele>142.1</ele>
        <time>2010-09-26T08:08:23Z</time>
      </trkpt>
      <trkpt lat="46.589" lon="0.5646">
        <ele>142.1</ele>
        <time>2010-09-26T08:08:24Z</time>
      </trkpt>
      <trkpt lat="46.589" lon="0.5646">
        <ele>142.1</ele>
        <time>2010-09-26T08:08:25Z</time>
      </trkpt>
      <trkpt lat="46.589" lon="0.5646">
        <ele>142.1</ele>
        <time>2010-09-26T08:08:26Z</time>
      </trkpt>
      <trkpt lat="46.589" lon="0.5646">
        <ele>142.1</ele>
        <time>2010-09-26T08:08:27Z</time>
      </trkpt>
      <trkpt lat="46.589" lon="0.5646">
        <ele>142.1</ele>
        <time>2010-09-26T08:08:28Z</time>
      </trkpt>
      <trkpt lat="46.589" lon="0.5646">
        <ele>142.1</ele>
        <time>2010-09-26T08:08:29Z</time>
      </trkpt>
      <trkpt lat="46.589" lon="0.5646">
        <ele>142.1</ele>
        <time>2010-09-26T08:08:30Z</time>
      </trkpt>
      <trkpt lat="46.589" lon="0.5646">
        <ele>142.1</ele>
        <time>2010-09-26T08:08:31Z</time>
      </trkpt>
      <trkpt lat="46.589" lon="0.5646">
        <ele>142.1</ele>
        <time>2010-09-26T08:08:32Z</time>
      </trkpt>
      <trkpt lat="46.589" lon="0.5646">
        <ele>142.1</ele>
        <time>2010-09-26T08:08:33Z</time>
      </trkpt>
      <trkpt lat="46.589" lon="0.5646">
        <ele>142.1</ele>
        <time>2010-09-26T08:08:34Z</time>
      </trkpt>
      <trkpt lat="46.589" lon="0.5646">
        <ele>142.1</ele>
        <time>2010-09-26T08:08:35Z</time>
      </trkpt>
      <trkpt lat="46.589" lon="0.5646">
        <ele>142.1</ele>
        <time>2010-09-26T08:08:36Z</time>
      </trkpt>
      <trkpt lat="46.589" lon="0.5646">
        <ele>142.1</ele>
        <time>2010-09-26T08:08:37Z</time>
      </trkpt>
      <trkpt lat="46.589" lon="0.5646">
        <ele>142.1</ele>
        <time>2010-09-26T08:08:38Z</time>
      </trkpt>
      <trkpt lat="46.589" lon="0.5646">
        <ele>142.1</ele>
        <time>2010-09-26T08:08:39Z</time>
      </trkpt>
      <trkpt lat="46.58901" lon="0.5646">
        <ele>142.1</ele>
        <time>2010-09-26T08:08:40Z</time>
      </trkpt>
      <trkpt lat="46.58905" lon="0.56459">
        <ele>141.6</ele>
        <time>2010-09-26T08:08:41Z</time>
      </trkpt>
      <trkpt lat="46.58909" lon="0.56457">
        <ele>141.3</ele>
        <time>2010-09-26T08:08:42Z</time>
      </trkpt>
      <trkpt lat="46.58939" lon="0.56437">
        <ele>141.3</ele>
        <time>2010-09-26T08:08:46Z</time>
      </trkpt>
      <trkpt lat="46.58947" lon="0.56431">
        <ele>141</ele>
        <time>2010-09-26T08:08:47Z</time>
      </trkpt>
      <trkpt lat="46.59017" lon="0.56371">
        <ele>140</ele>
        <time>2010-09-26T08:08:57Z</time>
      </trkpt>
      <trkpt lat="46.59026" lon="0.56367">
        <ele>139.8</ele>
        <time>2010-09-26T08:08:58Z</time>
      </trkpt>
      <trkpt lat="46.59048" lon="0.56363">
        <ele>139.3</ele>
        <time>2010-09-26T08:09:00Z</time>
      </trkpt>
      <trkpt lat="46.59148" lon="0.5636">
        <ele>136.3</ele>
        <time>2010-09-26T08:09:11Z</time>
      </trkpt>
      <trkpt lat="46.59169" lon="0.56359">
        <ele>135.3</ele>
        <time>2010-09-26T08:09:17Z</time>
      </trkpt>
      <trkpt lat="46.59176" lon="0.56357">
        <ele>135.3</ele>
        <time>2010-09-26T08:09:18Z</time>
      </trkpt>
      <trkpt lat="46.59257" lon="0.56325">
        <ele>133.1</ele>
        <time>2010-09-26T08:09:27Z</time>
      </trkpt>
      <trkpt lat="46.59265" lon="0.5632">
        <ele>132.8</ele>
        <time>2010-09-26T08:09:28Z</time>
      </trkpt>
      <trkpt lat="46.59272" lon="0.56313">
        <ele>132.6</ele>
        <time>2010-09-26T08:09:29Z</time>
      </trkpt>
      <trkpt lat="46.59373" lon="0.56227">
        <ele>131.3</ele>
        <time>2010-09-26T08:09:39Z</time>
      </trkpt>
      <trkpt lat="46.59384" lon="0.5622">
        <ele>131.3</ele>
        <time>2010-09-26T08:09:40Z</time>
      </trkpt>
      <trkpt lat="46.59397" lon="0.56215">
        <ele>131.6</ele>
        <time>2010-09-26T08:09:41Z</time>
      </trkpt>
      <trkpt lat="46.59469" lon="0.562">
        <ele>133.8</ele>
        <time>2010-09-26T08:09:47Z</time>
      </trkpt>
      <trkpt lat="46.59628" lon="0.56185">
        <ele>134.6</ele>
        <time>2010-09-26T08:10:02Z</time>
      </trkpt>
      <trkpt lat="46.59633" lon="0.56184">
        <ele>134.8</ele>
        <time>2010-09-26T08:10:03Z</time>
      </trkpt>
      <trkpt lat="46.59636" lon="0.56181">
        <ele>134.6</ele>
        <time>2010-09-26T08:10:04Z</time>
      </trkpt>
      <trkpt lat="46.59638" lon="0.56178">
        <ele>134.1</ele>
        <time>2010-09-26T08:10:05Z</time>
      </trkpt>
      <trkpt lat="46.59646" lon="0.56169">
        <ele>134</ele>
        <time>2010-09-26T08:10:07Z</time>
      </trkpt>
      <trkpt lat="46.59652" lon="0.56166">
        <ele>134</ele>
        <time>2010-09-26T08:10:08Z</time>
      </trkpt>
      <trkpt lat="46.59761" lon="0.56125">
        <ele>131.1</ele>
        <time>2010-09-26T08:10:17Z</time>
      </trkpt>
      <trkpt lat="46.59775" lon="0.56124">
        <ele>130.8</ele>
        <time>2010-09-26T08:10:18Z</time>
      </trkpt>
      <trkpt lat="46.59789" lon="0.56126">
        <ele>130.8</ele>
        <time>2010-09-26T08:10:19Z</time>
      </trkpt>
      <trkpt lat="46.59841" lon="0.56132">
        <ele>130.6</ele>
        <time>2010-09-26T08:10:23Z</time>
      </trkpt>
      <trkpt lat="46.59853" lon="0.56132">
        <ele>130.1</ele>
        <time>2010-09-26T08:10:24Z</time>
      </trkpt>
      <trkpt lat="46.59874" lon="0.56129">
        <ele>128.8</ele>
        <time>2010-09-26T08:10:26Z</time>
      </trkpt>
      <trkpt lat="46.59883" lon="0.56126">
        <ele>128.3</ele>
        <time>2010-09-26T08:10:27Z</time>
      </trkpt>
      <trkpt lat="46.5989" lon="0.56121">
        <ele>128</ele>
        <time>2010-09-26T08:10:28Z</time>
      </trkpt>
      <trkpt lat="46.59896" lon="0.56116">
        <ele>128.1</ele>
        <time>2010-09-26T08:10:29Z</time>
      </trkpt>
      <trkpt lat="46.59912" lon="0.56105">
        <ele>126.4</ele>
        <time>2010-09-26T08:10:32Z</time>
      </trkpt>
      <trkpt lat="46.59916" lon="0.56107">
        <ele>126.3</ele>
        <time>2010-09-26T08:10:33Z</time>
      </trkpt>
      <trkpt lat="46.5992" lon="0.56114">
        <ele>126.1</ele>
        <time>2010-09-26T08:10:34Z</time>
      </trkpt>
      <trkpt lat="46.59922" lon="0.56124">
        <ele>125.9</ele>
        <time>2010-09-26T08:10:35Z</time>
      </trkpt>
      <trkpt lat="46.59941" lon="0.56212">
        <ele>124.6</ele>
        <time>2010-09-26T08:10:40Z</time>
      </trkpt>
      <trkpt lat="46.59955" lon="0.56257">
        <ele>125.3</ele>
        <time>2010-09-26T08:10:42Z</time>
      </trkpt>
      <trkpt lat="46.59961" lon="0.56278">
        <ele>125.8</ele>
        <time>2010-09-26T08:10:43Z</time>
      </trkpt>
      <trkpt lat="46.59995" lon="0.56412">
        <ele>125</ele>
        <time>2010-09-26T08:10:51Z</time>
      </trkpt>
      <trkpt lat="46.60015" lon="0.56643">
        <ele>119</ele>
        <time>2010-09-26T08:11:09Z</time>
      </trkpt>
      <trkpt lat="46.60017" lon="0.5665">
        <ele>119.3</ele>
        <time>2010-09-26T08:11:10Z</time>
      </trkpt>
      <trkpt lat="46.60033" lon="0.56689">
        <ele>118.1</ele>
        <time>2010-09-26T08:11:15Z</time>
      </trkpt>
      <trkpt lat="46.60037" lon="0.56698">
        <ele>117.8</ele>
        <time>2010-09-26T08:11:16Z</time>
      </trkpt>
      <trkpt lat="46.60062" lon="0.56744">
        <ele>117.9</ele>
        <time>2010-09-26T08:11:22Z</time>
      </trkpt>
      <trkpt lat="46.60063" lon="0.56749">
        <ele>117.9</ele>
        <time>2010-09-26T08:11:23Z</time>
      </trkpt>
      <trkpt lat="46.60064" lon="0.56754">
        <ele>117.8</ele>
        <time>2010-09-26T08:11:24Z</time>
      </trkpt>
      <trkpt lat="46.60066" lon="0.56771">
        <ele>118.6</ele>
        <time>2010-09-26T08:11:27Z</time>
      </trkpt>
      <trkpt lat="46.60069" lon="0.56776">
        <ele>118.9</ele>
        <time>2010-09-26T08:11:28Z</time>
      </trkpt>
      <trkpt lat="46.6008" lon="0.56793">
        <ele>118.9</ele>
        <time>2010-09-26T08:11:31Z</time>
      </trkpt>
      <trkpt lat="46.60202" lon="0.56996">
        <ele>122.5</ele>
        <time>2010-09-26T08:11:50Z</time>
      </trkpt>
      <trkpt lat="46.60208" lon="0.5701">
        <ele>122.8</ele>
        <time>2010-09-26T08:11:51Z</time>
      </trkpt>
      <trkpt lat="46.60216" lon="0.57038">
        <ele>123.5</ele>
        <time>2010-09-26T08:11:53Z</time>
      </trkpt>
      <trkpt lat="46.6022" lon="0.57066">
        <ele>123.4</ele>
        <time>2010-09-26T08:11:55Z</time>
      </trkpt>
      <trkpt lat="46.60221" lon="0.5709">
        <ele>123.6</ele>
        <time>2010-09-26T08:11:57Z</time>
      </trkpt>
      <trkpt lat="46.6022" lon="0.57129">
        <ele>124.5</ele>
        <time>2010-09-26T08:12:04Z</time>
      </trkpt>
      <trkpt lat="46.60219" lon="0.57133">
        <ele>124.4</ele>
        <time>2010-09-26T08:12:05Z</time>
      </trkpt>
      <trkpt lat="46.60216" lon="0.57136">
        <ele>124.6</ele>
        <time>2010-09-26T08:12:06Z</time>
      </trkpt>
      <trkpt lat="46.60206" lon="0.57146">
        <ele>124.6</ele>
        <time>2010-09-26T08:12:08Z</time>
      </trkpt>
      <trkpt lat="46.59861" lon="0.57476">
        <ele>107.3</ele>
        <time>2010-09-26T08:12:42Z</time>
      </trkpt>
      <trkpt lat="46.59858" lon="0.5748">
        <ele>107</ele>
        <time>2010-09-26T08:12:43Z</time>
      </trkpt>
      <trkpt lat="46.59857" lon="0.57485">
        <ele>106.5</ele>
        <time>2010-09-26T08:12:44Z</time>
      </trkpt>
      <trkpt lat="46.59855" lon="0.57491">
        <ele>106.6</ele>
        <time>2010-09-26T08:12:45Z</time>
      </trkpt>
      <trkpt lat="46.59848" lon="0.57525">
        <ele>106.8</ele>
        <time>2010-09-26T08:12:49Z</time>
      </trkpt>
      <trkpt lat="46.59846" lon="0.5753">
        <ele>106.6</ele>
        <time>2010-09-26T08:12:50Z</time>
      </trkpt>
      <trkpt lat="46.59843" lon="0.57537">
        <ele>106.3</ele>
        <time>2010-09-26T08:12:52Z</time>
      </trkpt>
      <trkpt lat="46.59841" lon="0.5754">
        <ele>105.8</ele>
        <time>2010-09-26T08:12:53Z</time>
      </trkpt>
      <trkpt lat="46.59841" lon="0.57543">
        <ele>105.3</ele>
        <time>2010-09-26T08:12:54Z</time>
      </trkpt>
      <trkpt lat="46.59841" lon="0.57543">
        <ele>105.3</ele>
        <time>2010-09-26T08:12:56Z</time>
      </trkpt>
      <trkpt lat="46.59841" lon="0.57543">
        <ele>105</ele>
        <time>2010-09-26T08:12:57Z</time>
      </trkpt>
      <trkpt lat="46.59841" lon="0.57545">
        <ele>105</ele>
        <time>2010-09-26T08:12:58Z</time>
      </trkpt>
      <trkpt lat="46.59842" lon="0.57546">
        <ele>104.9</ele>
        <time>2010-09-26T08:12:59Z</time>
      </trkpt>
      <trkpt lat="46.59844" lon="0.57548">
        <ele>104.5</ele>
        <time>2010-09-26T08:13:00Z</time>
      </trkpt>
      <trkpt lat="46.59845" lon="0.57546">
        <ele>104.3</ele>
        <time>2010-09-26T08:13:01Z</time>
      </trkpt>
      <trkpt lat="46.59846" lon="0.57541">
        <ele>104.3</ele>
        <time>2010-09-26T08:13:02Z</time>
      </trkpt>
      <trkpt lat="46.59848" lon="0.57533">
        <ele>104.1</ele>
        <time>2010-09-26T08:13:03Z</time>
      </trkpt>
      <trkpt lat="46.59856" lon="0.57495">
        <ele>104</ele>
        <time>2010-09-26T08:13:07Z</time>
      </trkpt>
      <trkpt lat="46.59855" lon="0.57488">
        <ele>104.3</ele>
        <time>2010-09-26T08:13:08Z</time>
      </trkpt>
      <trkpt lat="46.59851" lon="0.57484">
        <ele>104.3</ele>
        <time>2010-09-26T08:13:09Z</time>
      </trkpt>
      <trkpt lat="46.59847" lon="0.57483">
        <ele>104.4</ele>
        <time>2010-09-26T08:13:10Z</time>
      </trkpt>
      <trkpt lat="46.59841" lon="0.57483">
        <ele>104.5</ele>
        <time>2010-09-26T08:13:11Z</time>
      </trkpt>
      <trkpt lat="46.59826" lon="0.57484">
        <ele>104.3</ele>
        <time>2010-09-26T08:13:13Z</time>
      </trkpt>
      <trkpt lat="46.59818" lon="0.57486">
        <ele>104.4</ele>
        <time>2010-09-26T08:13:14Z</time>
      </trkpt>
      <trkpt lat="46.59798" lon="0.57496">
        <ele>104.9</ele>
        <time>2010-09-26T08:13:16Z</time>
      </trkpt>
      <trkpt lat="46.59752" lon="0.57519">
        <ele>107</ele>
        <time>2010-09-26T08:13:20Z</time>
      </trkpt>
      <trkpt lat="46.59742" lon="0.57526">
        <ele>107.5</ele>
        <time>2010-09-26T08:13:21Z</time>
      </trkpt>
      <trkpt lat="46.59658" lon="0.5759">
        <ele>107.9</ele>
        <time>2010-09-26T08:13:30Z</time>
      </trkpt>
      <trkpt lat="46.59651" lon="0.57599">
        <ele>107.4</ele>
        <time>2010-09-26T08:13:31Z</time>
      </trkpt>
      <trkpt lat="46.59647" lon="0.57608">
        <ele>107.1</ele>
        <time>2010-09-26T08:13:32Z</time>
      </trkpt>
      <trkpt lat="46.59638" lon="0.57633">
        <ele>107.3</ele>
        <time>2010-09-26T08:13:35Z</time>
      </trkpt>
      <trkpt lat="46.59638" lon="0.57639">
        <ele>108</ele>
        <time>2010-09-26T08:13:36Z</time>
      </trkpt>
      <trkpt lat="46.5964" lon="0.57646">
        <ele>108</ele>
        <time>2010-09-26T08:13:37Z</time>
      </trkpt>
      <trkpt lat="46.59644" lon="0.57655">
        <ele>107.6</ele>
        <time>2010-09-26T08:13:38Z</time>
      </trkpt>
      <trkpt lat="46.59715" lon="0.57797">
        <ele>109.9</ele>
        <time>2010-09-26T08:13:47Z</time>
      </trkpt>
      <trkpt lat="46.59719" lon="0.57812">
        <ele>108.9</ele>
        <time>2010-09-26T08:13:48Z</time>
      </trkpt>
      <trkpt lat="46.59731" lon="0.57857">
        <ele>108.1</ele>
        <time>2010-09-26T08:13:51Z</time>
      </trkpt>
      <trkpt lat="46.59737" lon="0.57872">
        <ele>107.4</ele>
        <time>2010-09-26T08:13:52Z</time>
      </trkpt>
      <trkpt lat="46.59754" lon="0.57929">
        <ele>105.9</ele>
        <time>2010-09-26T08:13:56Z</time>
      </trkpt>
      <trkpt lat="46.59756" lon="0.57944">
        <ele>105.9</ele>
        <time>2010-09-26T08:13:57Z</time>
      </trkpt>
      <trkpt lat="46.59769" lon="0.58039">
        <ele>106.4</ele>
        <time>2010-09-26T08:14:03Z</time>
      </trkpt>
      <trkpt lat="46.59772" lon="0.58055">
        <ele>107.1</ele>
        <time>2010-09-26T08:14:04Z</time>
      </trkpt>
      <trkpt lat="46.59812" lon="0.58244">
        <ele>112</ele>
        <time>2010-09-26T08:14:17Z</time>
      </trkpt>
      <trkpt lat="46.59812" lon="0.58255">
        <ele>111.6</ele>
        <time>2010-09-26T08:14:18Z</time>
      </trkpt>
      <trkpt lat="46.59814" lon="0.58283">
        <ele>110.3</ele>
        <time>2010-09-26T08:14:21Z</time>
      </trkpt>
      <trkpt lat="46.59815" lon="0.58288">
        <ele>110.4</ele>
        <time>2010-09-26T08:14:22Z</time>
      </trkpt>
      <trkpt lat="46.59816" lon="0.58297">
        <ele>110.4</ele>
        <time>2010-09-26T08:14:24Z</time>
      </trkpt>
      <trkpt lat="46.59816" lon="0.58302">
        <ele>110.1</ele>
        <time>2010-09-26T08:14:25Z</time>
      </trkpt>
      <trkpt lat="46.59816" lon="0.58306">
        <ele>109.4</ele>
        <time>2010-09-26T08:14:26Z</time>
      </trkpt>
      <trkpt lat="46.59817" lon="0.58313">
        <ele>108.1</ele>
        <time>2010-09-26T08:14:28Z</time>
      </trkpt>
      <trkpt lat="46.59818" lon="0.58316">
        <ele>108.1</ele>
        <time>2010-09-26T08:14:29Z</time>
      </trkpt>
      <trkpt lat="46.5982" lon="0.58318">
        <ele>108</ele>
        <time>2010-09-26T08:14:30Z</time>
      </trkpt>
      <trkpt lat="46.59824" lon="0.5832">
        <ele>108.4</ele>
        <time>2010-09-26T08:14:31Z</time>
      </trkpt>
      <trkpt lat="46.59835" lon="0.58328">
        <ele>108.5</ele>
        <time>2010-09-26T08:14:33Z</time>
      </trkpt>
      <trkpt lat="46.59864" lon="0.58357">
        <ele>109.4</ele>
        <time>2010-09-26T08:14:38Z</time>
      </trkpt>
      <trkpt lat="46.59867" lon="0.58358">
        <ele>109.4</ele>
        <time>2010-09-26T08:14:39Z</time>
      </trkpt>
      <trkpt lat="46.5987" lon="0.58359">
        <ele>109.1</ele>
        <time>2010-09-26T08:14:40Z</time>
      </trkpt>
      <trkpt lat="46.59872" lon="0.58357">
        <ele>109</ele>
        <time>2010-09-26T08:14:41Z</time>
      </trkpt>
      <trkpt lat="46.59873" lon="0.58354">
        <ele>109.1</ele>
        <time>2010-09-26T08:14:42Z</time>
      </trkpt>
      <trkpt lat="46.59873" lon="0.5835">
        <ele>109.1</ele>
        <time>2010-09-26T08:14:43Z</time>
      </trkpt>
      <trkpt lat="46.59873" lon="0.58348">
        <ele>108.8</ele>
        <time>2010-09-26T08:14:44Z</time>
      </trkpt>
      <trkpt lat="46.59872" lon="0.58345">
        <ele>108.9</ele>
        <time>2010-09-26T08:14:45Z</time>
      </trkpt>
      <trkpt lat="46.5987" lon="0.58327">
        <ele>109.5</ele>
        <time>2010-09-26T08:14:47Z</time>
      </trkpt>
      <trkpt lat="46.5987" lon="0.58314">
        <ele>109.4</ele>
        <time>2010-09-26T08:14:48Z</time>
      </trkpt>
      <trkpt lat="46.59872" lon="0.58169">
        <ele>101</ele>
        <time>2010-09-26T08:15:01Z</time>
      </trkpt>
      <trkpt lat="46.5987" lon="0.58165">
        <ele>100.6</ele>
        <time>2010-09-26T08:15:02Z</time>
      </trkpt>
      <trkpt lat="46.59868" lon="0.58162">
        <ele>100.3</ele>
        <time>2010-09-26T08:15:03Z</time>
      </trkpt>
      <trkpt lat="46.59864" lon="0.5816">
        <ele>99.9</ele>
        <time>2010-09-26T08:15:04Z</time>
      </trkpt>
      <trkpt lat="46.5986" lon="0.58157">
        <ele>99.5</ele>
        <time>2010-09-26T08:15:05Z</time>
      </trkpt>
      <trkpt lat="46.59854" lon="0.58151">
        <ele>98.6</ele>
        <time>2010-09-26T08:15:07Z</time>
      </trkpt>
      <trkpt lat="46.59852" lon="0.58147">
        <ele>98.3</ele>
        <time>2010-09-26T08:15:08Z</time>
      </trkpt>
      <trkpt lat="46.5985" lon="0.58143">
        <ele>98</ele>
        <time>2010-09-26T08:15:09Z</time>
      </trkpt>
      <trkpt lat="46.59849" lon="0.58139">
        <ele>98</ele>
        <time>2010-09-26T08:15:10Z</time>
      </trkpt>
      <trkpt lat="46.59847" lon="0.58135">
        <ele>97.5</ele>
        <time>2010-09-26T08:15:11Z</time>
      </trkpt>
      <trkpt lat="46.59846" lon="0.58131">
        <ele>97</ele>
        <time>2010-09-26T08:15:12Z</time>
      </trkpt>
      <trkpt lat="46.59846" lon="0.58126">
        <ele>97</ele>
        <time>2010-09-26T08:15:13Z</time>
      </trkpt>
      <trkpt lat="46.59845" lon="0.58121">
        <ele>97</ele>
        <time>2010-09-26T08:15:14Z</time>
      </trkpt>
      <trkpt lat="46.59842" lon="0.58117">
        <ele>96.9</ele>
        <time>2010-09-26T08:15:15Z</time>
      </trkpt>
      <trkpt lat="46.59838" lon="0.58115">
        <ele>96.6</ele>
        <time>2010-09-26T08:15:16Z</time>
      </trkpt>
      <trkpt lat="46.59834" lon="0.5811">
        <ele>96.4</ele>
        <time>2010-09-26T08:15:17Z</time>
      </trkpt>
      <trkpt lat="46.59831" lon="0.58101">
        <ele>96</ele>
        <time>2010-09-26T08:15:18Z</time>
      </trkpt>
      <trkpt lat="46.59821" lon="0.58077">
        <ele>95</ele>
        <time>2010-09-26T08:15:22Z</time>
      </trkpt>
      <trkpt lat="46.59811" lon="0.58056">
        <ele>94.1</ele>
        <time>2010-09-26T08:15:26Z</time>
      </trkpt>
      <trkpt lat="46.59808" lon="0.58053">
        <ele>93.6</ele>
        <time>2010-09-26T08:15:27Z</time>
      </trkpt>
      <trkpt lat="46.59806" lon="0.58051">
        <ele>93.5</ele>
        <time>2010-09-26T08:15:28Z</time>
      </trkpt>
      <trkpt lat="46.59804" lon="0.58047">
        <ele>93.8</ele>
        <time>2010-09-26T08:15:29Z</time>
      </trkpt>
      <trkpt lat="46.59804" lon="0.58042">
        <ele>93.3</ele>
        <time>2010-09-26T08:15:30Z</time>
      </trkpt>
      <trkpt lat="46.59801" lon="0.58029">
        <ele>92.5</ele>
        <time>2010-09-26T08:15:32Z</time>
      </trkpt>
      <trkpt lat="46.59798" lon="0.58023">
        <ele>92.6</ele>
        <time>2010-09-26T08:15:33Z</time>
      </trkpt>
      <trkpt lat="46.59793" lon="0.58009">
        <ele>92.5</ele>
        <time>2010-09-26T08:15:36Z</time>
      </trkpt>
      <trkpt lat="46.59793" lon="0.58005">
        <ele>92.4</ele>
        <time>2010-09-26T08:15:37Z</time>
      </trkpt>
      <trkpt lat="46.59793" lon="0.58005">
        <ele>92.4</ele>
        <time>2010-09-26T08:15:38Z</time>
      </trkpt>
      <trkpt lat="46.59793" lon="0.58005">
        <ele>92.4</ele>
        <time>2010-09-26T08:15:39Z</time>
      </trkpt>
      <trkpt lat="46.59793" lon="0.58005">
        <ele>92.6</ele>
        <time>2010-09-26T08:15:40Z</time>
      </trkpt>
      <trkpt lat="46.59797" lon="0.58001">
        <ele>92.5</ele>
        <time>2010-09-26T08:15:42Z</time>
      </trkpt>
      <trkpt lat="46.59802" lon="0.58002">
        <ele>92.8</ele>
        <time>2010-09-26T08:15:43Z</time>
      </trkpt>
      <trkpt lat="46.59808" lon="0.58007">
        <ele>92.8</ele>
        <time>2010-09-26T08:15:44Z</time>
      </trkpt>
      <trkpt lat="46.59825" lon="0.58025">
        <ele>93.1</ele>
        <time>2010-09-26T08:15:46Z</time>
      </trkpt>
      <trkpt lat="46.59851" lon="0.58052">
        <ele>96</ele>
        <time>2010-09-26T08:15:49Z</time>
      </trkpt>
      <trkpt lat="46.59859" lon="0.58059">
        <ele>96.6</ele>
        <time>2010-09-26T08:15:50Z</time>
      </trkpt>
      <trkpt lat="46.59911" lon="0.58108">
        <ele>100.9</ele>
        <time>2010-09-26T08:15:56Z</time>
      </trkpt>
      <trkpt lat="46.59939" lon="0.58141">
        <ele>103.4</ele>
        <time>2010-09-26T08:16:00Z</time>
      </trkpt>
      <trkpt lat="46.59951" lon="0.58161">
        <ele>103.6</ele>
        <time>2010-09-26T08:16:02Z</time>
      </trkpt>
      <trkpt lat="46.59956" lon="0.58173">
        <ele>102.8</ele>
        <time>2010-09-26T08:16:03Z</time>
      </trkpt>
      <trkpt lat="46.59959" lon="0.58184">
        <ele>102.6</ele>
        <time>2010-09-26T08:16:04Z</time>
      </trkpt>
      <trkpt lat="46.59971" lon="0.58211">
        <ele>103.9</ele>
        <time>2010-09-26T08:16:07Z</time>
      </trkpt>
      <trkpt lat="46.59976" lon="0.58218">
        <ele>104.5</ele>
        <time>2010-09-26T08:16:08Z</time>
      </trkpt>
      <trkpt lat="46.59983" lon="0.58224">
        <ele>105.1</ele>
        <time>2010-09-26T08:16:09Z</time>
      </trkpt>
      <trkpt lat="46.60017" lon="0.58249">
        <ele>107</ele>
        <time>2010-09-26T08:16:13Z</time>
      </trkpt>
      <trkpt lat="46.60027" lon="0.58253">
        <ele>107.5</ele>
        <time>2010-09-26T08:16:14Z</time>
      </trkpt>
      <trkpt lat="46.60036" lon="0.58255">
        <ele>108</ele>
        <time>2010-09-26T08:16:15Z</time>
      </trkpt>
      <trkpt lat="46.60232" lon="0.58286">
        <ele>110.4</ele>
        <time>2010-09-26T08:16:36Z</time>
      </trkpt>
      <trkpt lat="46.60237" lon="0.58294">
        <ele>110.5</ele>
        <time>2010-09-26T08:16:37Z</time>
      </trkpt>
      <trkpt lat="46.60241" lon="0.58303">
        <ele>110.4</ele>
        <time>2010-09-26T08:16:38Z</time>
      </trkpt>
      <trkpt lat="46.60346" lon="0.58515">
        <ele>96.6</ele>
        <time>2010-09-26T08:16:58Z</time>
      </trkpt>
      <trkpt lat="46.60346" lon="0.58515">
        <ele>98.4</ele>
        <time>2010-09-26T08:16:59Z</time>
      </trkpt>
      <trkpt lat="46.60346" lon="0.58515">
        <ele>98.4</ele>
        <time>2010-09-26T08:17:00Z</time>
      </trkpt>
      <trkpt lat="46.60346" lon="0.58515">
        <ele>98.4</ele>
        <time>2010-09-26T08:17:01Z</time>
      </trkpt>
      <trkpt lat="46.60346" lon="0.58515">
        <ele>98.4</ele>
        <time>2010-09-26T08:17:02Z</time>
      </trkpt>
      <trkpt lat="46.60346" lon="0.58515">
        <ele>98.4</ele>
        <time>2010-09-26T08:17:03Z</time>
      </trkpt>
      <trkpt lat="46.60346" lon="0.58515">
        <ele>98.4</ele>
        <time>2010-09-26T08:17:04Z</time>
      </trkpt>
      <trkpt lat="46.60346" lon="0.58515">
        <ele>98.4</ele>
        <time>2010-09-26T08:17:05Z</time>
      </trkpt>
      <trkpt lat="46.60346" lon="0.58515">
        <ele>98.4</ele>
        <time>2010-09-26T08:17:06Z</time>
      </trkpt>
      <trkpt lat="46.60346" lon="0.58515">
        <ele>98.4</ele>
        <time>2010-09-26T08:17:07Z</time>
      </trkpt>
      <trkpt lat="46.60346" lon="0.58515">
        <ele>98.4</ele>
        <time>2010-09-26T08:17:08Z</time>
      </trkpt>
      <trkpt lat="46.60346" lon="0.58515">
        <ele>98.4</ele>
        <time>2010-09-26T08:17:09Z</time>
      </trkpt>
      <trkpt lat="46.60346" lon="0.58515">
        <ele>98.4</ele>
        <time>2010-09-26T08:17:10Z</time>
      </trkpt>
      <trkpt lat="46.60346" lon="0.58515">
        <ele>98.4</ele>
        <time>2010-09-26T08:17:11Z</time>
      </trkpt>
      <trkpt lat="46.60346" lon="0.58515">
        <ele>98.4</ele>
        <time>2010-09-26T08:17:12Z</time>
      </trkpt>
      <trkpt lat="46.60346" lon="0.58515">
        <ele>98.4</ele>
        <time>2010-09-26T08:17:13Z</time>
      </trkpt>
      <trkpt lat="46.60346" lon="0.58515">
        <ele>98.4</ele>
        <time>2010-09-26T08:17:14Z</time>
      </trkpt>
      <trkpt lat="46.60346" lon="0.58515">
        <ele>98.4</ele>
        <time>2010-09-26T08:17:15Z</time>
      </trkpt>
      <trkpt lat="46.60346" lon="0.58515">
        <ele>98.4</ele>
        <time>2010-09-26T08:17:16Z</time>
      </trkpt>
      <trkpt lat="46.60346" lon="0.58515">
        <ele>98.4</ele>
        <time>2010-09-26T08:17:17Z</time>
      </trkpt>
      <trkpt lat="46.60346" lon="0.58515">
        <ele>98.4</ele>
        <time>2010-09-26T08:17:18Z</time>
      </trkpt>
      <trkpt lat="46.60346" lon="0.58515">
        <ele>98.4</ele>
        <time>2010-09-26T08:17:19Z</time>
      </trkpt>
      <trkpt lat="46.60346" lon="0.58515">
        <ele>98.4</ele>
        <time>2010-09-26T08:17:20Z</time>
      </trkpt>
      <trkpt lat="46.60346" lon="0.58515">
        <ele>98.4</ele>
        <time>2010-09-26T08:17:21Z</time>
      </trkpt>
      <trkpt lat="46.60346" lon="0.58515">
        <ele>98.4</ele>
        <time>2010-09-26T08:17:22Z</time>
      </trkpt>
      <trkpt lat="46.60346" lon="0.58515">
        <ele>98.4</ele>
        <time>2010-09-26T08:17:23Z</time>
      </trkpt>
      <trkpt lat="46.60346" lon="0.58515">
        <ele>98.4</ele>
        <time>2010-09-26T08:17:24Z</time>
      </trkpt>
      <trkpt lat="46.60346" lon="0.58515">
        <ele>98.4</ele>
        <time>2010-09-26T08:17:25Z</time>
      </trkpt>
      <trkpt lat="46.60346" lon="0.58515">
        <ele>98.4</ele>
        <time>2010-09-26T08:17:26Z</time>
      </trkpt>
      <trkpt lat="46.60346" lon="0.58515">
        <ele>98.4</ele>
        <time>2010-09-26T08:17:27Z</time>
      </trkpt>
      <trkpt lat="46.60346" lon="0.58515">
        <ele>98.4</ele>
        <time>2010-09-26T08:17:28Z</time>
      </trkpt>
      <trkpt lat="46.60346" lon="0.58515">
        <ele>98.4</ele>
        <time>2010-09-26T08:17:29Z</time>
      </trkpt>
      <trkpt lat="46.60346" lon="0.58515">
        <ele>98.4</ele>
        <time>2010-09-26T08:17:30Z</time>
      </trkpt>
      <trkpt lat="46.60346" lon="0.58515">
        <ele>98.4</ele>
        <time>2010-09-26T08:17:31Z</time>
      </trkpt>
      <trkpt lat="46.60346" lon="0.58515">
        <ele>98.4</ele>
        <time>2010-09-26T08:17:32Z</time>
      </trkpt>
      <trkpt lat="46.60347" lon="0.58515">
        <ele>98.5</ele>
        <time>2010-09-26T08:17:33Z</time>
      </trkpt>
      <trkpt lat="46.60353" lon="0.5852">
        <ele>99</ele>
        <time>2010-09-26T08:17:35Z</time>
      </trkpt>
      <trkpt lat="46.60355" lon="0.58524">
        <ele>99</ele>
        <time>2010-09-26T08:17:36Z</time>
      </trkpt>
      <trkpt lat="46.60356" lon="0.58528">
        <ele>99</ele>
        <time>2010-09-26T08:17:37Z</time>
      </trkpt>
      <trkpt lat="46.60356" lon="0.58534">
        <ele>99</ele>
        <time>2010-09-26T08:17:39Z</time>
      </trkpt>
      <trkpt lat="46.60353" lon="0.58539">
        <ele>99.3</ele>
        <time>2010-09-26T08:17:40Z</time>
      </trkpt>
      <trkpt lat="46.60347" lon="0.58551">
        <ele>99.4</ele>
        <time>2010-09-26T08:17:42Z</time>
      </trkpt>
      <trkpt lat="46.60344" lon="0.58558">
        <ele>99.5</ele>
        <time>2010-09-26T08:17:43Z</time>
      </trkpt>
      <trkpt lat="46.60343" lon="0.58565">
        <ele>99.5</ele>
        <time>2010-09-26T08:17:44Z</time>
      </trkpt>
      <trkpt lat="46.60342" lon="0.58573">
        <ele>100</ele>
        <time>2010-09-26T08:17:45Z</time>
      </trkpt>
      <trkpt lat="46.60342" lon="0.58581">
        <ele>100</ele>
        <time>2010-09-26T08:17:46Z</time>
      </trkpt>
      <trkpt lat="46.60342" lon="0.58597">
        <ele>100.8</ele>
        <time>2010-09-26T08:17:48Z</time>
      </trkpt>
      <trkpt lat="46.60342" lon="0.58611">
        <ele>101.1</ele>
        <time>2010-09-26T08:17:50Z</time>
      </trkpt>
      <trkpt lat="46.60343" lon="0.58626">
        <ele>101.5</ele>
        <time>2010-09-26T08:17:52Z</time>
      </trkpt>
      <trkpt lat="46.60344" lon="0.58632">
        <ele>101.1</ele>
        <time>2010-09-26T08:17:53Z</time>
      </trkpt>
      <trkpt lat="46.60352" lon="0.58701">
        <ele>102.3</ele>
        <time>2010-09-26T08:18:01Z</time>
      </trkpt>
      <trkpt lat="46.60359" lon="0.58763">
        <ele>105.3</ele>
        <time>2010-09-26T08:18:08Z</time>
      </trkpt>
      <trkpt lat="46.6036" lon="0.58769">
        <ele>105.6</ele>
        <time>2010-09-26T08:18:09Z</time>
      </trkpt>
      <trkpt lat="46.60361" lon="0.58773">
        <ele>106.6</ele>
        <time>2010-09-26T08:18:10Z</time>
      </trkpt>
      <trkpt lat="46.60362" lon="0.58777">
        <ele>107.6</ele>
        <time>2010-09-26T08:18:11Z</time>
      </trkpt>
      <trkpt lat="46.60363" lon="0.58781">
        <ele>107.3</ele>
        <time>2010-09-26T08:18:12Z</time>
      </trkpt>
      <trkpt lat="46.60363" lon="0.58785">
        <ele>107.4</ele>
        <time>2010-09-26T08:18:13Z</time>
      </trkpt>
      <trkpt lat="46.60362" lon="0.5879">
        <ele>107.9</ele>
        <time>2010-09-26T08:18:15Z</time>
      </trkpt>
      <trkpt lat="46.60363" lon="0.58793">
        <ele>107.9</ele>
        <time>2010-09-26T08:18:16Z</time>
      </trkpt>
      <trkpt lat="46.60364" lon="0.58798">
        <ele>108.3</ele>
        <time>2010-09-26T08:18:17Z</time>
      </trkpt>
      <trkpt lat="46.60367" lon="0.58818">
        <ele>108.8</ele>
        <time>2010-09-26T08:18:20Z</time>
      </trkpt>
      <trkpt lat="46.60369" lon="0.58828">
        <ele>110.5</ele>
        <time>2010-09-26T08:18:22Z</time>
      </trkpt>
      <trkpt lat="46.60371" lon="0.5883">
        <ele>111.1</ele>
        <time>2010-09-26T08:18:23Z</time>
      </trkpt>
      <trkpt lat="46.60371" lon="0.58834">
        <ele>111.5</ele>
        <time>2010-09-26T08:18:24Z</time>
      </trkpt>
      <trkpt lat="46.60371" lon="0.58839">
        <ele>112.1</ele>
        <time>2010-09-26T08:18:25Z</time>
      </trkpt>
      <trkpt lat="46.60366" lon="0.58844">
        <ele>112.8</ele>
        <time>2010-09-26T08:18:26Z</time>
      </trkpt>
      <trkpt lat="46.60352" lon="0.58855">
        <ele>113.8</ele>
        <time>2010-09-26T08:18:28Z</time>
      </trkpt>
      <trkpt lat="46.60342" lon="0.58857">
        <ele>114.3</ele>
        <time>2010-09-26T08:18:29Z</time>
      </trkpt>
      <trkpt lat="46.60335" lon="0.58857">
        <ele>114</ele>
        <time>2010-09-26T08:18:30Z</time>
      </trkpt>
      <trkpt lat="46.60326" lon="0.58856">
        <ele>114</ele>
        <time>2010-09-26T08:18:31Z</time>
      </trkpt>
      <trkpt lat="46.60316" lon="0.58855">
        <ele>114</ele>
        <time>2010-09-26T08:18:32Z</time>
      </trkpt>
      <trkpt lat="46.60306" lon="0.58852">
        <ele>114.3</ele>
        <time>2010-09-26T08:18:33Z</time>
      </trkpt>
      <trkpt lat="46.60297" lon="0.58848">
        <ele>114.4</ele>
        <time>2010-09-26T08:18:34Z</time>
      </trkpt>
      <trkpt lat="46.60291" lon="0.58843">
        <ele>114.5</ele>
        <time>2010-09-26T08:18:35Z</time>
      </trkpt>
      <trkpt lat="46.60248" lon="0.58811">
        <ele>114.4</ele>
        <time>2010-09-26T08:18:42Z</time>
      </trkpt>
      <trkpt lat="46.60243" lon="0.58805">
        <ele>114.1</ele>
        <time>2010-09-26T08:18:43Z</time>
      </trkpt>
      <trkpt lat="46.60239" lon="0.58798">
        <ele>112.4</ele>
        <time>2010-09-26T08:18:44Z</time>
      </trkpt>
      <trkpt lat="46.60224" lon="0.5878">
        <ele>111.4</ele>
        <time>2010-09-26T08:18:47Z</time>
      </trkpt>
      <trkpt lat="46.60218" lon="0.58775">
        <ele>111.1</ele>
        <time>2010-09-26T08:18:48Z</time>
      </trkpt>
      <trkpt lat="46.60205" lon="0.58769">
        <ele>110</ele>
        <time>2010-09-26T08:18:50Z</time>
      </trkpt>
      <trkpt lat="46.60197" lon="0.58767">
        <ele>109.4</ele>
        <time>2010-09-26T08:18:51Z</time>
      </trkpt>
      <trkpt lat="46.60181" lon="0.58766">
        <ele>108.3</ele>
        <time>2010-09-26T08:18:53Z</time>
      </trkpt>
      <trkpt lat="46.60174" lon="0.58767">
        <ele>108</ele>
        <time>2010-09-26T08:18:54Z</time>
      </trkpt>
      <trkpt lat="46.60159" lon="0.58772">
        <ele>107</ele>
        <time>2010-09-26T08:18:56Z</time>
      </trkpt>
      <trkpt lat="46.60112" lon="0.58793">
        <ele>105.4</ele>
        <time>2010-09-26T08:19:01Z</time>
      </trkpt>
      <trkpt lat="46.60083" lon="0.58806">
        <ele>104.5</ele>
        <time>2010-09-26T08:19:06Z</time>
      </trkpt>
      <trkpt lat="46.60078" lon="0.58809">
        <ele>104.4</ele>
        <time>2010-09-26T08:19:07Z</time>
      </trkpt>
      <trkpt lat="46.60076" lon="0.5881">
        <ele>104.3</ele>
        <time>2010-09-26T08:19:08Z</time>
      </trkpt>
      <trkpt lat="46.60074" lon="0.58812">
        <ele>103.6</ele>
        <time>2010-09-26T08:19:09Z</time>
      </trkpt>
      <trkpt lat="46.60064" lon="0.58825">
        <ele>102.5</ele>
        <time>2010-09-26T08:19:13Z</time>
      </trkpt>
      <trkpt lat="46.60061" lon="0.5883">
        <ele>102</ele>
        <time>2010-09-26T08:19:14Z</time>
      </trkpt>
      <trkpt lat="46.60045" lon="0.58854">
        <ele>102.6</ele>
        <time>2010-09-26T08:19:19Z</time>
      </trkpt>
      <trkpt lat="46.60036" lon="0.58866">
        <ele>102.5</ele>
        <time>2010-09-26T08:19:24Z</time>
      </trkpt>
      <trkpt lat="46.60036" lon="0.58866">
        <ele>102.8</ele>
        <time>2010-09-26T08:19:25Z</time>
      </trkpt>
      <trkpt lat="46.60036" lon="0.58866">
        <ele>102.8</ele>
        <time>2010-09-26T08:19:26Z</time>
      </trkpt>
      <trkpt lat="46.60036" lon="0.58866">
        <ele>102.8</ele>
        <time>2010-09-26T08:19:27Z</time>
      </trkpt>
      <trkpt lat="46.60036" lon="0.58866">
        <ele>102.8</ele>
        <time>2010-09-26T08:19:28Z</time>
      </trkpt>
      <trkpt lat="46.60036" lon="0.58866">
        <ele>102.8</ele>
        <time>2010-09-26T08:19:29Z</time>
      </trkpt>
      <trkpt lat="46.60036" lon="0.58866">
        <ele>102.8</ele>
        <time>2010-09-26T08:19:30Z</time>
      </trkpt>
      <trkpt lat="46.60036" lon="0.58866">
        <ele>102.8</ele>
        <time>2010-09-26T08:19:31Z</time>
      </trkpt>
      <trkpt lat="46.60036" lon="0.58866">
        <ele>102.8</ele>
        <time>2010-09-26T08:19:32Z</time>
      </trkpt>
      <trkpt lat="46.60036" lon="0.58866">
        <ele>102.8</ele>
        <time>2010-09-26T08:19:33Z</time>
      </trkpt>
      <trkpt lat="46.60036" lon="0.58866">
        <ele>102.8</ele>
        <time>2010-09-26T08:19:34Z</time>
      </trkpt>
      <trkpt lat="46.60036" lon="0.58866">
        <ele>102.8</ele>
        <time>2010-09-26T08:19:35Z</time>
      </trkpt>
      <trkpt lat="46.60036" lon="0.58866">
        <ele>102.8</ele>
        <time>2010-09-26T08:19:36Z</time>
      </trkpt>
      <trkpt lat="46.60036" lon="0.58866">
        <ele>102.8</ele>
        <time>2010-09-26T08:19:37Z</time>
      </trkpt>
      <trkpt lat="46.60036" lon="0.58866">
        <ele>102.8</ele>
        <time>2010-09-26T08:19:38Z</time>
      </trkpt>
      <trkpt lat="46.60036" lon="0.58866">
        <ele>102.8</ele>
        <time>2010-09-26T08:19:39Z</time>
      </trkpt>
      <trkpt lat="46.60036" lon="0.58866">
        <ele>102.8</ele>
        <time>2010-09-26T08:19:40Z</time>
      </trkpt>
      <trkpt lat="46.60036" lon="0.58866">
        <ele>102.8</ele>
        <time>2010-09-26T08:19:41Z</time>
      </trkpt>
      <trkpt lat="46.60035" lon="0.58868">
        <ele>102.6</ele>
        <time>2010-09-26T08:19:42Z</time>
      </trkpt>
      <trkpt lat="46.60029" lon="0.58889">
        <ele>103.1</ele>
        <time>2010-09-26T08:19:45Z</time>
      </trkpt>
      <trkpt lat="46.60028" lon="0.58897">
        <ele>103</ele>
        <time>2010-09-26T08:19:46Z</time>
      </trkpt>
      <trkpt lat="46.60026" lon="0.58904">
        <ele>102.5</ele>
        <time>2010-09-26T08:19:47Z</time>
      </trkpt>
      <trkpt lat="46.60023" lon="0.58911">
        <ele>102.3</ele>
        <time>2010-09-26T08:19:48Z</time>
      </trkpt>
      <trkpt lat="46.60018" lon="0.58928">
        <ele>102.5</ele>
        <time>2010-09-26T08:19:50Z</time>
      </trkpt>
      <trkpt lat="46.60017" lon="0.58938">
        <ele>102.3</ele>
        <time>2010-09-26T08:19:51Z</time>
      </trkpt>
      <trkpt lat="46.60013" lon="0.58954">
        <ele>101.6</ele>
        <time>2010-09-26T08:19:53Z</time>
      </trkpt>
      <trkpt lat="46.6001" lon="0.58967">
        <ele>101.1</ele>
        <time>2010-09-26T08:19:55Z</time>
      </trkpt>
      <trkpt lat="46.60009" lon="0.58975">
        <ele>100.8</ele>
        <time>2010-09-26T08:19:56Z</time>
      </trkpt>
      <trkpt lat="46.60007" lon="0.59">
        <ele>99.4</ele>
        <time>2010-09-26T08:19:59Z</time>
      </trkpt>
      <trkpt lat="46.60007" lon="0.59005">
        <ele>99.1</ele>
        <time>2010-09-26T08:20:00Z</time>
      </trkpt>
      <trkpt lat="46.60008" lon="0.59009">
        <ele>99.1</ele>
        <time>2010-09-26T08:20:01Z</time>
      </trkpt>
      <trkpt lat="46.6001" lon="0.59011">
        <ele>99.4</ele>
        <time>2010-09-26T08:20:02Z</time>
      </trkpt>
      <trkpt lat="46.60011" lon="0.59019">
        <ele>98.5</ele>
        <time>2010-09-26T08:20:04Z</time>
      </trkpt>
      <trkpt lat="46.60014" lon="0.59031">
        <ele>98</ele>
        <time>2010-09-26T08:20:06Z</time>
      </trkpt>
      <trkpt lat="46.60016" lon="0.59038">
        <ele>97.5</ele>
        <time>2010-09-26T08:20:07Z</time>
      </trkpt>
      <trkpt lat="46.6002" lon="0.59049">
        <ele>96.4</ele>
        <time>2010-09-26T08:20:09Z</time>
      </trkpt>
      <trkpt lat="46.60023" lon="0.59052">
        <ele>96</ele>
        <time>2010-09-26T08:20:10Z</time>
      </trkpt>
      <trkpt lat="46.60026" lon="0.59056">
        <ele>95.6</ele>
        <time>2010-09-26T08:20:11Z</time>
      </trkpt>
      <trkpt lat="46.60053" lon="0.59102">
        <ele>94.1</ele>
        <time>2010-09-26T08:20:19Z</time>
      </trkpt>
      <trkpt lat="46.60057" lon="0.59108">
        <ele>94</ele>
        <time>2010-09-26T08:20:20Z</time>
      </trkpt>
      <trkpt lat="46.60062" lon="0.59117">
        <ele>93.5</ele>
        <time>2010-09-26T08:20:21Z</time>
      </trkpt>
      <trkpt lat="46.60074" lon="0.59138">
        <ele>92.9</ele>
        <time>2010-09-26T08:20:23Z</time>
      </trkpt>
      <trkpt lat="46.60081" lon="0.59148">
        <ele>92.5</ele>
        <time>2010-09-26T08:20:24Z</time>
      </trkpt>
      <trkpt lat="46.60154" lon="0.5926">
        <ele>91.9</ele>
        <time>2010-09-26T08:20:37Z</time>
      </trkpt>
      <trkpt lat="46.60182" lon="0.59313">
        <ele>91.5</ele>
        <time>2010-09-26T08:20:42Z</time>
      </trkpt>
      <trkpt lat="46.60194" lon="0.59344">
        <ele>92.9</ele>
        <time>2010-09-26T08:20:47Z</time>
      </trkpt>
      <trkpt lat="46.60194" lon="0.59346">
        <ele>95</ele>
        <time>2010-09-26T08:20:49Z</time>
      </trkpt>
      <trkpt lat="46.60195" lon="0.59346">
        <ele>95.5</ele>
        <time>2010-09-26T08:20:50Z</time>
      </trkpt>
      <trkpt lat="46.60195" lon="0.59346">
        <ele>95.5</ele>
        <time>2010-09-26T08:20:51Z</time>
      </trkpt>
      <trkpt lat="46.60195" lon="0.59346">
        <ele>95.5</ele>
        <time>2010-09-26T08:20:52Z</time>
      </trkpt>
      <trkpt lat="46.60195" lon="0.59346">
        <ele>95.5</ele>
        <time>2010-09-26T08:20:53Z</time>
      </trkpt>
      <trkpt lat="46.60195" lon="0.59347">
        <ele>95</ele>
        <time>2010-09-26T08:20:54Z</time>
      </trkpt>
      <trkpt lat="46.60195" lon="0.59349">
        <ele>92.4</ele>
        <time>2010-09-26T08:20:55Z</time>
      </trkpt>
      <trkpt lat="46.60196" lon="0.59356">
        <ele>90.4</ele>
        <time>2010-09-26T08:20:57Z</time>
      </trkpt>
      <trkpt lat="46.60197" lon="0.59359">
        <ele>89.8</ele>
        <time>2010-09-26T08:20:58Z</time>
      </trkpt>
      <trkpt lat="46.60199" lon="0.59361">
        <ele>89.6</ele>
        <time>2010-09-26T08:20:59Z</time>
      </trkpt>
      <trkpt lat="46.60201" lon="0.59361">
        <ele>89</ele>
        <time>2010-09-26T08:21:00Z</time>
      </trkpt>
      <trkpt lat="46.60201" lon="0.59361">
        <ele>89</ele>
        <time>2010-09-26T08:21:01Z</time>
      </trkpt>
      <trkpt lat="46.60201" lon="0.59361">
        <ele>89</ele>
        <time>2010-09-26T08:21:02Z</time>
      </trkpt>
      <trkpt lat="46.60201" lon="0.59361">
        <ele>89</ele>
        <time>2010-09-26T08:21:03Z</time>
      </trkpt>
      <trkpt lat="46.60201" lon="0.59361">
        <ele>89</ele>
        <time>2010-09-26T08:21:04Z</time>
      </trkpt>
      <trkpt lat="46.60201" lon="0.59361">
        <ele>89</ele>
        <time>2010-09-26T08:21:05Z</time>
      </trkpt>
      <trkpt lat="46.60201" lon="0.59361">
        <ele>89</ele>
        <time>2010-09-26T08:21:06Z</time>
      </trkpt>
      <trkpt lat="46.60201" lon="0.59361">
        <ele>89</ele>
        <time>2010-09-26T08:21:07Z</time>
      </trkpt>
      <trkpt lat="46.60201" lon="0.59361">
        <ele>89</ele>
        <time>2010-09-26T08:21:08Z</time>
      </trkpt>
      <trkpt lat="46.60201" lon="0.59361">
        <ele>89</ele>
        <time>2010-09-26T08:21:09Z</time>
      </trkpt>
      <trkpt lat="46.60201" lon="0.59361">
        <ele>89</ele>
        <time>2010-09-26T08:21:10Z</time>
      </trkpt>
      <trkpt lat="46.60201" lon="0.59361">
        <ele>89</ele>
        <time>2010-09-26T08:21:11Z</time>
      </trkpt>
      <trkpt lat="46.60201" lon="0.59361">
        <ele>89</ele>
        <time>2010-09-26T08:21:12Z</time>
      </trkpt>
      <trkpt lat="46.60201" lon="0.59361">
        <ele>89</ele>
        <time>2010-09-26T08:21:13Z</time>
      </trkpt>
      <trkpt lat="46.60201" lon="0.59361">
        <ele>89</ele>
        <time>2010-09-26T08:21:14Z</time>
      </trkpt>
      <trkpt lat="46.60201" lon="0.59361">
        <ele>89</ele>
        <time>2010-09-26T08:21:15Z</time>
      </trkpt>
      <trkpt lat="46.60201" lon="0.59361">
        <ele>89</ele>
        <time>2010-09-26T08:21:16Z</time>
      </trkpt>
      <trkpt lat="46.60201" lon="0.59361">
        <ele>89</ele>
        <time>2010-09-26T08:21:17Z</time>
      </trkpt>
      <trkpt lat="46.60201" lon="0.59361">
        <ele>89</ele>
        <time>2010-09-26T08:21:18Z</time>
      </trkpt>
      <trkpt lat="46.60201" lon="0.59361">
        <ele>89</ele>
        <time>2010-09-26T08:21:19Z</time>
      </trkpt>
      <trkpt lat="46.60201" lon="0.59361">
        <ele>89</ele>
        <time>2010-09-26T08:21:20Z</time>
      </trkpt>
      <trkpt lat="46.60201" lon="0.59361">
        <ele>89</ele>
        <time>2010-09-26T08:21:21Z</time>
      </trkpt>
      <trkpt lat="46.60201" lon="0.59361">
        <ele>89</ele>
        <time>2010-09-26T08:21:22Z</time>
      </trkpt>
      <trkpt lat="46.60201" lon="0.59361">
        <ele>89</ele>
        <time>2010-09-26T08:21:23Z</time>
      </trkpt>
      <trkpt lat="46.60201" lon="0.59361">
        <ele>89</ele>
        <time>2010-09-26T08:21:24Z</time>
      </trkpt>
      <trkpt lat="46.60201" lon="0.59361">
        <ele>89</ele>
        <time>2010-09-26T08:21:25Z</time>
      </trkpt>
      <trkpt lat="46.60201" lon="0.59361">
        <ele>89</ele>
        <time>2010-09-26T08:21:26Z</time>
      </trkpt>
      <trkpt lat="46.60201" lon="0.59361">
        <ele>89</ele>
        <time>2010-09-26T08:21:27Z</time>
      </trkpt>
      <trkpt lat="46.60201" lon="0.59361">
        <ele>89</ele>
        <time>2010-09-26T08:21:28Z</time>
      </trkpt>
      <trkpt lat="46.60201" lon="0.59361">
        <ele>89</ele>
        <time>2010-09-26T08:21:29Z</time>
      </trkpt>
      <trkpt lat="46.60201" lon="0.59361">
        <ele>89</ele>
        <time>2010-09-26T08:21:30Z</time>
      </trkpt>
      <trkpt lat="46.60201" lon="0.59361">
        <ele>89</ele>
        <time>2010-09-26T08:21:31Z</time>
      </trkpt>
      <trkpt lat="46.60201" lon="0.59361">
        <ele>89</ele>
        <time>2010-09-26T08:21:32Z</time>
      </trkpt>
      <trkpt lat="46.60201" lon="0.59361">
        <ele>89</ele>
        <time>2010-09-26T08:21:33Z</time>
      </trkpt>
      <trkpt lat="46.60201" lon="0.59361">
        <ele>89</ele>
        <time>2010-09-26T08:21:34Z</time>
      </trkpt>
      <trkpt lat="46.60201" lon="0.59361">
        <ele>89</ele>
        <time>2010-09-26T08:21:35Z</time>
      </trkpt>
      <trkpt lat="46.60201" lon="0.59361">
        <ele>89</ele>
        <time>2010-09-26T08:21:36Z</time>
      </trkpt>
      <trkpt lat="46.60201" lon="0.59361">
        <ele>89</ele>
        <time>2010-09-26T08:21:37Z</time>
      </trkpt>
      <trkpt lat="46.60201" lon="0.59361">
        <ele>89</ele>
        <time>2010-09-26T08:21:38Z</time>
      </trkpt>
      <trkpt lat="46.60201" lon="0.59361">
        <ele>89</ele>
        <time>2010-09-26T08:21:39Z</time>
      </trkpt>
      <trkpt lat="46.60201" lon="0.59361">
        <ele>89</ele>
        <time>2010-09-26T08:21:40Z</time>
      </trkpt>
      <trkpt lat="46.60201" lon="0.59361">
        <ele>89</ele>
        <time>2010-09-26T08:21:41Z</time>
      </trkpt>
      <trkpt lat="46.60201" lon="0.59361">
        <ele>89</ele>
        <time>2010-09-26T08:21:42Z</time>
      </trkpt>
      <trkpt lat="46.60201" lon="0.59361">
        <ele>89</ele>
        <time>2010-09-26T08:21:43Z</time>
      </trkpt>
      <trkpt lat="46.60201" lon="0.59361">
        <ele>89</ele>
        <time>2010-09-26T08:21:44Z</time>
      </trkpt>
      <trkpt lat="46.60201" lon="0.59361">
        <ele>89</ele>
        <time>2010-09-26T08:21:45Z</time>
      </trkpt>
      <trkpt lat="46.60201" lon="0.59361">
        <ele>89</ele>
        <time>2010-09-26T08:21:46Z</time>
      </trkpt>
      <trkpt lat="46.60201" lon="0.59361">
        <ele>89</ele>
        <time>2010-09-26T08:21:47Z</time>
      </trkpt>
      <trkpt lat="46.60201" lon="0.59361">
        <ele>89</ele>
        <time>2010-09-26T08:21:48Z</time>
      </trkpt>
      <trkpt lat="46.60201" lon="0.59361">
        <ele>89</ele>
        <time>2010-09-26T08:21:49Z</time>
      </trkpt>
      <trkpt lat="46.60201" lon="0.59361">
        <ele>89</ele>
        <time>2010-09-26T08:21:50Z</time>
      </trkpt>
      <trkpt lat="46.60201" lon="0.59361">
        <ele>89</ele>
        <time>2010-09-26T08:21:51Z</time>
      </trkpt>
      <trkpt lat="46.60201" lon="0.59361">
        <ele>89</ele>
        <time>2010-09-26T08:21:52Z</time>
      </trkpt>
      <trkpt lat="46.60201" lon="0.59361">
        <ele>89</ele>
        <time>2010-09-26T08:21:53Z</time>
      </trkpt>
      <trkpt lat="46.60201" lon="0.59361">
        <ele>89</ele>
        <time>2010-09-26T08:21:54Z</time>
      </trkpt>
      <trkpt lat="46.60201" lon="0.59361">
        <ele>89</ele>
        <time>2010-09-26T08:21:55Z</time>
      </trkpt>
      <trkpt lat="46.60201" lon="0.59361">
        <ele>89</ele>
        <time>2010-09-26T08:21:56Z</time>
      </trkpt>
      <trkpt lat="46.60201" lon="0.59361">
        <ele>89</ele>
        <time>2010-09-26T08:21:57Z</time>
      </trkpt>
      <trkpt lat="46.60201" lon="0.59361">
        <ele>89</ele>
        <time>2010-09-26T08:21:58Z</time>
      </trkpt>
      <trkpt lat="46.60201" lon="0.59361">
        <ele>89</ele>
        <time>2010-09-26T08:21:59Z</time>
      </trkpt>
      <trkpt lat="46.60201" lon="0.59361">
        <ele>89</ele>
        <time>2010-09-26T08:22:00Z</time>
      </trkpt>
      <trkpt lat="46.60201" lon="0.59361">
        <ele>89</ele>
        <time>2010-09-26T08:22:01Z</time>
      </trkpt>
      <trkpt lat="46.60201" lon="0.59361">
        <ele>89</ele>
        <time>2010-09-26T08:22:02Z</time>
      </trkpt>
      <trkpt lat="46.60201" lon="0.59361">
        <ele>89</ele>
        <time>2010-09-26T08:22:03Z</time>
      </trkpt>
      <trkpt lat="46.60201" lon="0.59361">
        <ele>89</ele>
        <time>2010-09-26T08:22:04Z</time>
      </trkpt>
      <trkpt lat="46.60201" lon="0.59361">
        <ele>89</ele>
        <time>2010-09-26T08:22:05Z</time>
      </trkpt>
      <trkpt lat="46.60201" lon="0.59361">
        <ele>89</ele>
        <time>2010-09-26T08:22:06Z</time>
      </trkpt>
      <trkpt lat="46.60201" lon="0.59361">
        <ele>89</ele>
        <time>2010-09-26T08:22:07Z</time>
      </trkpt>
      <trkpt lat="46.60201" lon="0.59361">
        <ele>89</ele>
        <time>2010-09-26T08:22:08Z</time>
      </trkpt>
      <trkpt lat="46.60201" lon="0.59361">
        <ele>89</ele>
        <time>2010-09-26T08:22:09Z</time>
      </trkpt>
      <trkpt lat="46.60201" lon="0.59361">
        <ele>89</ele>
        <time>2010-09-26T08:22:10Z</time>
      </trkpt>
      <trkpt lat="46.60201" lon="0.59361">
        <ele>89</ele>
        <time>2010-09-26T08:22:11Z</time>
      </trkpt>
      <trkpt lat="46.60201" lon="0.5936">
        <ele>88.9</ele>
        <time>2010-09-26T08:22:12Z</time>
      </trkpt>
      <trkpt lat="46.60201" lon="0.5936">
        <ele>88.9</ele>
        <time>2010-09-26T08:22:13Z</time>
      </trkpt>
      <trkpt lat="46.60201" lon="0.5936">
        <ele>88.9</ele>
        <time>2010-09-26T08:22:14Z</time>
      </trkpt>
      <trkpt lat="46.60201" lon="0.5936">
        <ele>88.9</ele>
        <time>2010-09-26T08:22:15Z</time>
      </trkpt>
      <trkpt lat="46.60201" lon="0.5936">
        <ele>88.9</ele>
        <time>2010-09-26T08:22:16Z</time>
      </trkpt>
      <trkpt lat="46.60201" lon="0.5936">
        <ele>88.9</ele>
        <time>2010-09-26T08:22:17Z</time>
      </trkpt>
      <trkpt lat="46.60201" lon="0.5936">
        <ele>88.9</ele>
        <time>2010-09-26T08:22:18Z</time>
      </trkpt>
      <trkpt lat="46.60201" lon="0.5936">
        <ele>88.9</ele>
        <time>2010-09-26T08:22:19Z</time>
      </trkpt>
      <trkpt lat="46.60201" lon="0.5936">
        <ele>88.9</ele>
        <time>2010-09-26T08:22:20Z</time>
      </trkpt>
      <trkpt lat="46.60201" lon="0.5936">
        <ele>88.9</ele>
        <time>2010-09-26T08:22:21Z</time>
      </trkpt>
      <trkpt lat="46.60201" lon="0.59361">
        <ele>89</ele>
        <time>2010-09-26T08:22:22Z</time>
      </trkpt>
      <trkpt lat="46.60201" lon="0.59361">
        <ele>89.3</ele>
        <time>2010-09-26T08:22:23Z</time>
      </trkpt>
      <trkpt lat="46.60201" lon="0.59361">
        <ele>89.3</ele>
        <time>2010-09-26T08:22:24Z</time>
      </trkpt>
      <trkpt lat="46.60201" lon="0.59361">
        <ele>89.3</ele>
        <time>2010-09-26T08:22:25Z</time>
      </trkpt>
      <trkpt lat="46.60201" lon="0.59361">
        <ele>89.3</ele>
        <time>2010-09-26T08:22:26Z</time>
      </trkpt>
      <trkpt lat="46.60201" lon="0.59361">
        <ele>89.3</ele>
        <time>2010-09-26T08:22:27Z</time>
      </trkpt>
      <trkpt lat="46.60201" lon="0.59361">
        <ele>89.3</ele>
        <time>2010-09-26T08:22:28Z</time>
      </trkpt>
      <trkpt lat="46.60201" lon="0.59361">
        <ele>89.3</ele>
        <time>2010-09-26T08:22:29Z</time>
      </trkpt>
      <trkpt lat="46.60201" lon="0.59361">
        <ele>89.3</ele>
        <time>2010-09-26T08:22:30Z</time>
      </trkpt>
      <trkpt lat="46.60201" lon="0.59361">
        <ele>89.3</ele>
        <time>2010-09-26T08:22:31Z</time>
      </trkpt>
      <trkpt lat="46.60201" lon="0.59361">
        <ele>89.3</ele>
        <time>2010-09-26T08:22:32Z</time>
      </trkpt>
      <trkpt lat="46.60201" lon="0.59361">
        <ele>89.3</ele>
        <time>2010-09-26T08:22:33Z</time>
      </trkpt>
      <trkpt lat="46.60201" lon="0.59361">
        <ele>89.3</ele>
        <time>2010-09-26T08:22:34Z</time>
      </trkpt>
      <trkpt lat="46.60201" lon="0.59361">
        <ele>89.3</ele>
        <time>2010-09-26T08:22:35Z</time>
      </trkpt>
      <trkpt lat="46.60201" lon="0.59361">
        <ele>89.3</ele>
        <time>2010-09-26T08:22:36Z</time>
      </trkpt>
      <trkpt lat="46.60201" lon="0.59361">
        <ele>89.3</ele>
        <time>2010-09-26T08:22:37Z</time>
      </trkpt>
      <trkpt lat="46.60201" lon="0.59361">
        <ele>89.1</ele>
        <time>2010-09-26T08:22:38Z</time>
      </trkpt>
      <trkpt lat="46.60201" lon="0.59361">
        <ele>89.1</ele>
        <time>2010-09-26T08:22:39Z</time>
      </trkpt>
      <trkpt lat="46.60202" lon="0.5936">
        <ele>89</ele>
        <time>2010-09-26T08:22:40Z</time>
      </trkpt>
      <trkpt lat="46.60202" lon="0.5936">
        <ele>89</ele>
        <time>2010-09-26T08:22:41Z</time>
      </trkpt>
      <trkpt lat="46.60202" lon="0.5936">
        <ele>89</ele>
        <time>2010-09-26T08:22:42Z</time>
      </trkpt>
      <trkpt lat="46.60202" lon="0.5936">
        <ele>89</ele>
        <time>2010-09-26T08:22:43Z</time>
      </trkpt>
      <trkpt lat="46.60202" lon="0.5936">
        <ele>89</ele>
        <time>2010-09-26T08:22:44Z</time>
      </trkpt>
      <trkpt lat="46.60202" lon="0.5936">
        <ele>89</ele>
        <time>2010-09-26T08:22:45Z</time>
      </trkpt>
      <trkpt lat="46.60202" lon="0.5936">
        <ele>89</ele>
        <time>2010-09-26T08:22:46Z</time>
      </trkpt>
      <trkpt lat="46.60202" lon="0.5936">
        <ele>89</ele>
        <time>2010-09-26T08:22:47Z</time>
      </trkpt>
      <trkpt lat="46.60202" lon="0.5936">
        <ele>89</ele>
        <time>2010-09-26T08:22:48Z</time>
      </trkpt>
      <trkpt lat="46.60202" lon="0.5936">
        <ele>89</ele>
        <time>2010-09-26T08:22:49Z</time>
      </trkpt>
      <trkpt lat="46.60202" lon="0.5936">
        <ele>88.9</ele>
        <time>2010-09-26T08:22:50Z</time>
      </trkpt>
      <trkpt lat="46.60202" lon="0.5936">
        <ele>88.9</ele>
        <time>2010-09-26T08:22:51Z</time>
      </trkpt>
      <trkpt lat="46.60202" lon="0.5936">
        <ele>88.9</ele>
        <time>2010-09-26T08:22:52Z</time>
      </trkpt>
      <trkpt lat="46.60202" lon="0.5936">
        <ele>88.9</ele>
        <time>2010-09-26T08:22:53Z</time>
      </trkpt>
      <trkpt lat="46.60202" lon="0.5936">
        <ele>88.9</ele>
        <time>2010-09-26T08:22:54Z</time>
      </trkpt>
      <trkpt lat="46.60202" lon="0.5936">
        <ele>88.9</ele>
        <time>2010-09-26T08:22:55Z</time>
      </trkpt>
      <trkpt lat="46.60202" lon="0.5936">
        <ele>88.9</ele>
        <time>2010-09-26T08:22:56Z</time>
      </trkpt>
      <trkpt lat="46.60202" lon="0.5936">
        <ele>88.9</ele>
        <time>2010-09-26T08:22:57Z</time>
      </trkpt>
      <trkpt lat="46.60202" lon="0.5936">
        <ele>88.9</ele>
        <time>2010-09-26T08:22:58Z</time>
      </trkpt>
      <trkpt lat="46.60202" lon="0.5936">
        <ele>88.9</ele>
        <time>2010-09-26T08:22:59Z</time>
      </trkpt>
      <trkpt lat="46.60202" lon="0.5936">
        <ele>88.9</ele>
        <time>2010-09-26T08:23:00Z</time>
      </trkpt>
      <trkpt lat="46.60202" lon="0.5936">
        <ele>88.9</ele>
        <time>2010-09-26T08:23:01Z</time>
      </trkpt>
      <trkpt lat="46.60202" lon="0.5936">
        <ele>88.9</ele>
        <time>2010-09-26T08:23:02Z</time>
      </trkpt>
      <trkpt lat="46.60202" lon="0.5936">
        <ele>88.9</ele>
        <time>2010-09-26T08:23:03Z</time>
      </trkpt>
      <trkpt lat="46.60202" lon="0.5936">
        <ele>88.9</ele>
        <time>2010-09-26T08:23:04Z</time>
      </trkpt>
      <trkpt lat="46.60202" lon="0.5936">
        <ele>88.9</ele>
        <time>2010-09-26T08:23:05Z</time>
      </trkpt>
      <trkpt lat="46.60202" lon="0.5936">
        <ele>88.9</ele>
        <time>2010-09-26T08:23:06Z</time>
      </trkpt>
      <trkpt lat="46.60202" lon="0.5936">
        <ele>88.9</ele>
        <time>2010-09-26T08:23:07Z</time>
      </trkpt>
      <trkpt lat="46.60202" lon="0.5936">
        <ele>88.9</ele>
        <time>2010-09-26T08:23:08Z</time>
      </trkpt>
      <trkpt lat="46.60202" lon="0.5936">
        <ele>88.9</ele>
        <time>2010-09-26T08:23:09Z</time>
      </trkpt>
      <trkpt lat="46.60202" lon="0.5936">
        <ele>88.9</ele>
        <time>2010-09-26T08:23:10Z</time>
      </trkpt>
      <trkpt lat="46.60202" lon="0.5936">
        <ele>88.9</ele>
        <time>2010-09-26T08:23:11Z</time>
      </trkpt>
      <trkpt lat="46.60202" lon="0.5936">
        <ele>88.9</ele>
        <time>2010-09-26T08:23:12Z</time>
      </trkpt>
      <trkpt lat="46.60202" lon="0.5936">
        <ele>88.9</ele>
        <time>2010-09-26T08:23:13Z</time>
      </trkpt>
      <trkpt lat="46.60202" lon="0.5936">
        <ele>88.9</ele>
        <time>2010-09-26T08:23:14Z</time>
      </trkpt>
      <trkpt lat="46.60202" lon="0.5936">
        <ele>88.9</ele>
        <time>2010-09-26T08:23:15Z</time>
      </trkpt>
      <trkpt lat="46.60202" lon="0.5936">
        <ele>88.9</ele>
        <time>2010-09-26T08:23:16Z</time>
      </trkpt>
      <trkpt lat="46.60202" lon="0.5936">
        <ele>88.9</ele>
        <time>2010-09-26T08:23:17Z</time>
      </trkpt>
      <trkpt lat="46.60202" lon="0.5936">
        <ele>88.9</ele>
        <time>2010-09-26T08:23:18Z</time>
      </trkpt>
      <trkpt lat="46.60202" lon="0.5936">
        <ele>88.9</ele>
        <time>2010-09-26T08:23:19Z</time>
      </trkpt>
      <trkpt lat="46.60202" lon="0.5936">
        <ele>88.9</ele>
        <time>2010-09-26T08:23:20Z</time>
      </trkpt>
      <trkpt lat="46.60202" lon="0.5936">
        <ele>88.9</ele>
        <time>2010-09-26T08:23:21Z</time>
      </trkpt>
      <trkpt lat="46.60202" lon="0.5936">
        <ele>88.9</ele>
        <time>2010-09-26T08:23:22Z</time>
      </trkpt>
      <trkpt lat="46.60202" lon="0.5936">
        <ele>88.9</ele>
        <time>2010-09-26T08:23:23Z</time>
      </trkpt>
      <trkpt lat="46.60202" lon="0.5936">
        <ele>88.9</ele>
        <time>2010-09-26T08:23:24Z</time>
      </trkpt>
      <trkpt lat="46.60202" lon="0.5936">
        <ele>88.9</ele>
        <time>2010-09-26T08:23:25Z</time>
      </trkpt>
      <trkpt lat="46.60202" lon="0.5936">
        <ele>88.9</ele>
        <time>2010-09-26T08:23:26Z</time>
      </trkpt>
      <trkpt lat="46.60202" lon="0.5936">
        <ele>88.9</ele>
        <time>2010-09-26T08:23:27Z</time>
      </trkpt>
      <trkpt lat="46.60202" lon="0.5936">
        <ele>88.9</ele>
        <time>2010-09-26T08:23:28Z</time>
      </trkpt>
      <trkpt lat="46.60202" lon="0.5936">
        <ele>88.9</ele>
        <time>2010-09-26T08:23:29Z</time>
      </trkpt>
      <trkpt lat="46.60202" lon="0.5936">
        <ele>88.9</ele>
        <time>2010-09-26T08:23:30Z</time>
      </trkpt>
      <trkpt lat="46.60202" lon="0.5936">
        <ele>88.9</ele>
        <time>2010-09-26T08:23:31Z</time>
      </trkpt>
      <trkpt lat="46.60202" lon="0.5936">
        <ele>88.9</ele>
        <time>2010-09-26T08:23:32Z</time>
      </trkpt>
      <trkpt lat="46.60202" lon="0.5936">
        <ele>88.9</ele>
        <time>2010-09-26T08:23:33Z</time>
      </trkpt>
      <trkpt lat="46.60202" lon="0.5936">
        <ele>88.9</ele>
        <time>2010-09-26T08:23:34Z</time>
      </trkpt>
      <trkpt lat="46.60202" lon="0.5936">
        <ele>88.9</ele>
        <time>2010-09-26T08:23:35Z</time>
      </trkpt>
      <trkpt lat="46.60202" lon="0.5936">
        <ele>88.9</ele>
        <time>2010-09-26T08:23:36Z</time>
      </trkpt>
      <trkpt lat="46.60202" lon="0.5936">
        <ele>88.9</ele>
        <time>2010-09-26T08:23:37Z</time>
      </trkpt>
      <trkpt lat="46.60202" lon="0.5936">
        <ele>88.9</ele>
        <time>2010-09-26T08:23:38Z</time>
      </trkpt>
      <trkpt lat="46.60202" lon="0.5936">
        <ele>88.9</ele>
        <time>2010-09-26T08:23:39Z</time>
      </trkpt>
      <trkpt lat="46.60202" lon="0.5936">
        <ele>88.9</ele>
        <time>2010-09-26T08:23:40Z</time>
      </trkpt>
      <trkpt lat="46.60202" lon="0.5936">
        <ele>88.9</ele>
        <time>2010-09-26T08:23:41Z</time>
      </trkpt>
      <trkpt lat="46.60202" lon="0.59359">
        <ele>89</ele>
        <time>2010-09-26T08:23:42Z</time>
      </trkpt>
      <trkpt lat="46.60202" lon="0.59359">
        <ele>89</ele>
        <time>2010-09-26T08:23:43Z</time>
      </trkpt>
      <trkpt lat="46.60202" lon="0.59359">
        <ele>89</ele>
        <time>2010-09-26T08:23:44Z</time>
      </trkpt>
      <trkpt lat="46.60202" lon="0.59359">
        <ele>89</ele>
        <time>2010-09-26T08:23:45Z</time>
      </trkpt>
      <trkpt lat="46.60202" lon="0.59359">
        <ele>89</ele>
        <time>2010-09-26T08:23:46Z</time>
      </trkpt>
      <trkpt lat="46.60202" lon="0.59359">
        <ele>89</ele>
        <time>2010-09-26T08:23:47Z</time>
      </trkpt>
      <trkpt lat="46.60202" lon="0.59359">
        <ele>89</ele>
        <time>2010-09-26T08:23:48Z</time>
      </trkpt>
      <trkpt lat="46.60202" lon="0.59359">
        <ele>89</ele>
        <time>2010-09-26T08:23:49Z</time>
      </trkpt>
      <trkpt lat="46.60202" lon="0.59359">
        <ele>89</ele>
        <time>2010-09-26T08:23:50Z</time>
      </trkpt>
      <trkpt lat="46.60202" lon="0.59359">
        <ele>89</ele>
        <time>2010-09-26T08:23:51Z</time>
      </trkpt>
      <trkpt lat="46.60202" lon="0.59359">
        <ele>89</ele>
        <time>2010-09-26T08:23:52Z</time>
      </trkpt>
      <trkpt lat="46.60202" lon="0.59359">
        <ele>89</ele>
        <time>2010-09-26T08:23:53Z</time>
      </trkpt>
      <trkpt lat="46.60202" lon="0.59359">
        <ele>89</ele>
        <time>2010-09-26T08:23:54Z</time>
      </trkpt>
      <trkpt lat="46.60202" lon="0.59359">
        <ele>89</ele>
        <time>2010-09-26T08:23:55Z</time>
      </trkpt>
      <trkpt lat="46.60202" lon="0.59359">
        <ele>89</ele>
        <time>2010-09-26T08:23:56Z</time>
      </trkpt>
      <trkpt lat="46.60202" lon="0.59359">
        <ele>89</ele>
        <time>2010-09-26T08:23:57Z</time>
      </trkpt>
      <trkpt lat="46.60202" lon="0.59359">
        <ele>89</ele>
        <time>2010-09-26T08:23:58Z</time>
      </trkpt>
      <trkpt lat="46.60202" lon="0.59359">
        <ele>89</ele>
        <time>2010-09-26T08:23:59Z</time>
      </trkpt>
      <trkpt lat="46.60202" lon="0.59359">
        <ele>89</ele>
        <time>2010-09-26T08:24:00Z</time>
      </trkpt>
      <trkpt lat="46.60202" lon="0.59359">
        <ele>89</ele>
        <time>2010-09-26T08:24:01Z</time>
      </trkpt>
      <trkpt lat="46.60202" lon="0.59359">
        <ele>89</ele>
        <time>2010-09-26T08:24:02Z</time>
      </trkpt>
      <trkpt lat="46.60202" lon="0.59359">
        <ele>89</ele>
        <time>2010-09-26T08:24:03Z</time>
      </trkpt>
      <trkpt lat="46.60202" lon="0.59359">
        <ele>89</ele>
        <time>2010-09-26T08:24:04Z</time>
      </trkpt>
      <trkpt lat="46.60202" lon="0.59359">
        <ele>89</ele>
        <time>2010-09-26T08:24:05Z</time>
      </trkpt>
      <trkpt lat="46.60202" lon="0.59359">
        <ele>89</ele>
        <time>2010-09-26T08:24:06Z</time>
      </trkpt>
      <trkpt lat="46.60202" lon="0.59359">
        <ele>89</ele>
        <time>2010-09-26T08:24:07Z</time>
      </trkpt>
      <trkpt lat="46.60202" lon="0.59359">
        <ele>89</ele>
        <time>2010-09-26T08:24:08Z</time>
      </trkpt>
      <trkpt lat="46.60202" lon="0.59359">
        <ele>89</ele>
        <time>2010-09-26T08:24:09Z</time>
      </trkpt>
      <trkpt lat="46.60202" lon="0.59359">
        <ele>89</ele>
        <time>2010-09-26T08:24:10Z</time>
      </trkpt>
      <trkpt lat="46.60202" lon="0.59359">
        <ele>89</ele>
        <time>2010-09-26T08:24:11Z</time>
      </trkpt>
      <trkpt lat="46.60202" lon="0.59359">
        <ele>89</ele>
        <time>2010-09-26T08:24:12Z</time>
      </trkpt>
      <trkpt lat="46.60202" lon="0.59359">
        <ele>89</ele>
        <time>2010-09-26T08:24:13Z</time>
      </trkpt>
      <trkpt lat="46.60202" lon="0.59359">
        <ele>89</ele>
        <time>2010-09-26T08:24:14Z</time>
      </trkpt>
      <trkpt lat="46.60202" lon="0.59359">
        <ele>89</ele>
        <time>2010-09-26T08:24:15Z</time>
      </trkpt>
      <trkpt lat="46.60202" lon="0.59359">
        <ele>89</ele>
        <time>2010-09-26T08:24:16Z</time>
      </trkpt>
      <trkpt lat="46.60202" lon="0.59359">
        <ele>89</ele>
        <time>2010-09-26T08:24:17Z</time>
      </trkpt>
      <trkpt lat="46.60202" lon="0.59359">
        <ele>89</ele>
        <time>2010-09-26T08:24:18Z</time>
      </trkpt>
      <trkpt lat="46.60202" lon="0.59359">
        <ele>89</ele>
        <time>2010-09-26T08:24:19Z</time>
      </trkpt>
      <trkpt lat="46.60202" lon="0.59359">
        <ele>89</ele>
        <time>2010-09-26T08:24:20Z</time>
      </trkpt>
      <trkpt lat="46.60202" lon="0.59359">
        <ele>89</ele>
        <time>2010-09-26T08:24:21Z</time>
      </trkpt>
      <trkpt lat="46.60202" lon="0.59359">
        <ele>89</ele>
        <time>2010-09-26T08:24:22Z</time>
      </trkpt>
      <trkpt lat="46.60202" lon="0.59359">
        <ele>89</ele>
        <time>2010-09-26T08:24:23Z</time>
      </trkpt>
      <trkpt lat="46.60202" lon="0.59359">
        <ele>89</ele>
        <time>2010-09-26T08:24:24Z</time>
      </trkpt>
      <trkpt lat="46.60202" lon="0.59359">
        <ele>89</ele>
        <time>2010-09-26T08:24:25Z</time>
      </trkpt>
      <trkpt lat="46.60202" lon="0.59359">
        <ele>89</ele>
        <time>2010-09-26T08:24:26Z</time>
      </trkpt>
      <trkpt lat="46.60202" lon="0.59359">
        <ele>89</ele>
        <time>2010-09-26T08:24:27Z</time>
      </trkpt>
      <trkpt lat="46.60202" lon="0.59359">
        <ele>89</ele>
        <time>2010-09-26T08:24:28Z</time>
      </trkpt>
      <trkpt lat="46.60202" lon="0.59359">
        <ele>89</ele>
        <time>2010-09-26T08:24:29Z</time>
      </trkpt>
      <trkpt lat="46.60202" lon="0.59359">
        <ele>89</ele>
        <time>2010-09-26T08:24:30Z</time>
      </trkpt>
      <trkpt lat="46.60202" lon="0.59359">
        <ele>89</ele>
        <time>2010-09-26T08:24:31Z</time>
      </trkpt>
      <trkpt lat="46.60202" lon="0.59359">
        <ele>89</ele>
        <time>2010-09-26T08:24:32Z</time>
      </trkpt>
      <trkpt lat="46.60202" lon="0.59359">
        <ele>89</ele>
        <time>2010-09-26T08:24:33Z</time>
      </trkpt>
      <trkpt lat="46.60202" lon="0.59359">
        <ele>89</ele>
        <time>2010-09-26T08:24:34Z</time>
      </trkpt>
      <trkpt lat="46.60202" lon="0.59359">
        <ele>89</ele>
        <time>2010-09-26T08:24:35Z</time>
      </trkpt>
      <trkpt lat="46.60202" lon="0.59359">
        <ele>89</ele>
        <time>2010-09-26T08:24:36Z</time>
      </trkpt>
      <trkpt lat="46.60202" lon="0.59359">
        <ele>89</ele>
        <time>2010-09-26T08:24:37Z</time>
      </trkpt>
      <trkpt lat="46.60202" lon="0.59359">
        <ele>89</ele>
        <time>2010-09-26T08:24:38Z</time>
      </trkpt>
      <trkpt lat="46.60202" lon="0.59359">
        <ele>89</ele>
        <time>2010-09-26T08:24:39Z</time>
      </trkpt>
      <trkpt lat="46.60202" lon="0.59359">
        <ele>89</ele>
        <time>2010-09-26T08:24:40Z</time>
      </trkpt>
      <trkpt lat="46.60202" lon="0.59359">
        <ele>89</ele>
        <time>2010-09-26T08:24:41Z</time>
      </trkpt>
      <trkpt lat="46.60202" lon="0.59359">
        <ele>89</ele>
        <time>2010-09-26T08:24:42Z</time>
      </trkpt>
      <trkpt lat="46.60202" lon="0.59359">
        <ele>89</ele>
        <time>2010-09-26T08:24:43Z</time>
      </trkpt>
      <trkpt lat="46.60202" lon="0.59359">
        <ele>89</ele>
        <time>2010-09-26T08:24:44Z</time>
      </trkpt>
      <trkpt lat="46.60202" lon="0.59359">
        <ele>89</ele>
        <time>2010-09-26T08:24:45Z</time>
      </trkpt>
      <trkpt lat="46.60202" lon="0.59359">
        <ele>89</ele>
        <time>2010-09-26T08:24:46Z</time>
      </trkpt>
      <trkpt lat="46.60202" lon="0.59359">
        <ele>89</ele>
        <time>2010-09-26T08:24:47Z</time>
      </trkpt>
      <trkpt lat="46.60202" lon="0.59359">
        <ele>89</ele>
        <time>2010-09-26T08:24:48Z</time>
      </trkpt>
      <trkpt lat="46.60202" lon="0.59359">
        <ele>89</ele>
        <time>2010-09-26T08:24:49Z</time>
      </trkpt>
      <trkpt lat="46.60202" lon="0.59359">
        <ele>89</ele>
        <time>2010-09-26T08:24:50Z</time>
      </trkpt>
      <trkpt lat="46.60202" lon="0.59359">
        <ele>89</ele>
        <time>2010-09-26T08:24:51Z</time>
      </trkpt>
      <trkpt lat="46.60202" lon="0.59359">
        <ele>89</ele>
        <time>2010-09-26T08:24:52Z</time>
      </trkpt>
      <trkpt lat="46.60202" lon="0.59359">
        <ele>89</ele>
        <time>2010-09-26T08:24:53Z</time>
      </trkpt>
      <trkpt lat="46.60202" lon="0.59359">
        <ele>89</ele>
        <time>2010-09-26T08:24:54Z</time>
      </trkpt>
      <trkpt lat="46.60202" lon="0.59359">
        <ele>89</ele>
        <time>2010-09-26T08:24:55Z</time>
      </trkpt>
      <trkpt lat="46.60202" lon="0.59359">
        <ele>89</ele>
        <time>2010-09-26T08:24:56Z</time>
      </trkpt>
      <trkpt lat="46.60202" lon="0.59359">
        <ele>89</ele>
        <time>2010-09-26T08:24:57Z</time>
      </trkpt>
      <trkpt lat="46.60202" lon="0.59359">
        <ele>89</ele>
        <time>2010-09-26T08:24:58Z</time>
      </trkpt>
      <trkpt lat="46.60202" lon="0.59359">
        <ele>89</ele>
        <time>2010-09-26T08:24:59Z</time>
      </trkpt>
      <trkpt lat="46.60202" lon="0.59359">
        <ele>89</ele>
        <time>2010-09-26T08:25:00Z</time>
      </trkpt>
      <trkpt lat="46.60202" lon="0.59359">
        <ele>89</ele>
        <time>2010-09-26T08:25:01Z</time>
      </trkpt>
      <trkpt lat="46.60202" lon="0.59359">
        <ele>89</ele>
        <time>2010-09-26T08:25:02Z</time>
      </trkpt>
      <trkpt lat="46.60202" lon="0.59359">
        <ele>89</ele>
        <time>2010-09-26T08:25:03Z</time>
      </trkpt>
      <trkpt lat="46.60202" lon="0.59359">
        <ele>89</ele>
        <time>2010-09-26T08:25:04Z</time>
      </trkpt>
      <trkpt lat="46.60202" lon="0.59359">
        <ele>89</ele>
        <time>2010-09-26T08:25:05Z</time>
      </trkpt>
      <trkpt lat="46.60202" lon="0.59359">
        <ele>89</ele>
        <time>2010-09-26T08:25:06Z</time>
      </trkpt>
      <trkpt lat="46.60202" lon="0.59359">
        <ele>89</ele>
        <time>2010-09-26T08:25:07Z</time>
      </trkpt>
      <trkpt lat="46.60202" lon="0.59359">
        <ele>89</ele>
        <time>2010-09-26T08:25:08Z</time>
      </trkpt>
      <trkpt lat="46.60202" lon="0.59359">
        <ele>89</ele>
        <time>2010-09-26T08:25:09Z</time>
      </trkpt>
      <trkpt lat="46.60202" lon="0.59359">
        <ele>89</ele>
        <time>2010-09-26T08:25:10Z</time>
      </trkpt>
      <trkpt lat="46.60201" lon="0.59359">
        <ele>88.6</ele>
        <time>2010-09-26T08:25:11Z</time>
      </trkpt>
      <trkpt lat="46.60201" lon="0.59359">
        <ele>88.6</ele>
        <time>2010-09-26T08:25:12Z</time>
      </trkpt>
      <trkpt lat="46.60201" lon="0.59359">
        <ele>88.6</ele>
        <time>2010-09-26T08:25:13Z</time>
      </trkpt>
      <trkpt lat="46.60201" lon="0.59359">
        <ele>88.6</ele>
        <time>2010-09-26T08:25:14Z</time>
      </trkpt>
      <trkpt lat="46.60201" lon="0.59359">
        <ele>88.6</ele>
        <time>2010-09-26T08:25:15Z</time>
      </trkpt>
      <trkpt lat="46.60201" lon="0.59359">
        <ele>88.6</ele>
        <time>2010-09-26T08:25:16Z</time>
      </trkpt>
      <trkpt lat="46.60201" lon="0.59359">
        <ele>88.6</ele>
        <time>2010-09-26T08:25:17Z</time>
      </trkpt>
      <trkpt lat="46.60201" lon="0.59359">
        <ele>88.6</ele>
        <time>2010-09-26T08:25:18Z</time>
      </trkpt>
      <trkpt lat="46.60201" lon="0.59359">
        <ele>88.6</ele>
        <time>2010-09-26T08:25:19Z</time>
      </trkpt>
      <trkpt lat="46.60201" lon="0.59359">
        <ele>88.6</ele>
        <time>2010-09-26T08:25:20Z</time>
      </trkpt>
      <trkpt lat="46.60201" lon="0.59359">
        <ele>88.6</ele>
        <time>2010-09-26T08:25:21Z</time>
      </trkpt>
      <trkpt lat="46.60201" lon="0.59359">
        <ele>88.6</ele>
        <time>2010-09-26T08:25:22Z</time>
      </trkpt>
      <trkpt lat="46.60201" lon="0.59359">
        <ele>88.6</ele>
        <time>2010-09-26T08:25:23Z</time>
      </trkpt>
      <trkpt lat="46.60201" lon="0.59359">
        <ele>88.6</ele>
        <time>2010-09-26T08:25:24Z</time>
      </trkpt>
      <trkpt lat="46.60201" lon="0.59359">
        <ele>88.6</ele>
        <time>2010-09-26T08:25:25Z</time>
      </trkpt>
      <trkpt lat="46.60201" lon="0.59359">
        <ele>88.6</ele>
        <time>2010-09-26T08:25:26Z</time>
      </trkpt>
      <trkpt lat="46.60201" lon="0.59359">
        <ele>88.6</ele>
        <time>2010-09-26T08:25:27Z</time>
      </trkpt>
      <trkpt lat="46.60201" lon="0.59359">
        <ele>88.6</ele>
        <time>2010-09-26T08:25:28Z</time>
      </trkpt>
      <trkpt lat="46.60201" lon="0.59359">
        <ele>88.6</ele>
        <time>2010-09-26T08:25:29Z</time>
      </trkpt>
      <trkpt lat="46.60201" lon="0.59359">
        <ele>88.6</ele>
        <time>2010-09-26T08:25:30Z</time>
      </trkpt>
      <trkpt lat="46.60201" lon="0.59359">
        <ele>88.6</ele>
        <time>2010-09-26T08:25:31Z</time>
      </trkpt>
      <trkpt lat="46.60201" lon="0.59359">
        <ele>88.6</ele>
        <time>2010-09-26T08:25:32Z</time>
      </trkpt>
      <trkpt lat="46.60201" lon="0.59359">
        <ele>88.6</ele>
        <time>2010-09-26T08:25:33Z</time>
      </trkpt>
      <trkpt lat="46.60201" lon="0.59359">
        <ele>88.6</ele>
        <time>2010-09-26T08:25:34Z</time>
      </trkpt>
      <trkpt lat="46.60201" lon="0.59359">
        <ele>88.6</ele>
        <time>2010-09-26T08:25:35Z</time>
      </trkpt>
      <trkpt lat="46.60201" lon="0.59359">
        <ele>88.6</ele>
        <time>2010-09-26T08:25:36Z</time>
      </trkpt>
      <trkpt lat="46.60201" lon="0.59359">
        <ele>88.6</ele>
        <time>2010-09-26T08:25:37Z</time>
      </trkpt>
      <trkpt lat="46.60201" lon="0.59359">
        <ele>88.6</ele>
        <time>2010-09-26T08:25:38Z</time>
      </trkpt>
      <trkpt lat="46.60201" lon="0.59359">
        <ele>88.6</ele>
        <time>2010-09-26T08:25:39Z</time>
      </trkpt>
      <trkpt lat="46.60201" lon="0.59359">
        <ele>88.6</ele>
        <time>2010-09-26T08:25:40Z</time>
      </trkpt>
      <trkpt lat="46.60201" lon="0.59359">
        <ele>88.6</ele>
        <time>2010-09-26T08:25:41Z</time>
      </trkpt>
      <trkpt lat="46.60201" lon="0.59359">
        <ele>88.6</ele>
        <time>2010-09-26T08:25:42Z</time>
      </trkpt>
      <trkpt lat="46.60201" lon="0.59359">
        <ele>88.6</ele>
        <time>2010-09-26T08:25:43Z</time>
      </trkpt>
      <trkpt lat="46.60201" lon="0.59359">
        <ele>88.6</ele>
        <time>2010-09-26T08:25:44Z</time>
      </trkpt>
      <trkpt lat="46.60201" lon="0.59359">
        <ele>88.6</ele>
        <time>2010-09-26T08:25:45Z</time>
      </trkpt>
      <trkpt lat="46.60201" lon="0.59359">
        <ele>88.6</ele>
        <time>2010-09-26T08:25:46Z</time>
      </trkpt>
      <trkpt lat="46.60201" lon="0.59359">
        <ele>88.6</ele>
        <time>2010-09-26T08:25:47Z</time>
      </trkpt>
      <trkpt lat="46.60201" lon="0.59359">
        <ele>88.6</ele>
        <time>2010-09-26T08:25:48Z</time>
      </trkpt>
      <trkpt lat="46.60201" lon="0.59359">
        <ele>88.6</ele>
        <time>2010-09-26T08:25:49Z</time>
      </trkpt>
      <trkpt lat="46.60201" lon="0.59359">
        <ele>88.6</ele>
        <time>2010-09-26T08:25:50Z</time>
      </trkpt>
      <trkpt lat="46.60201" lon="0.59359">
        <ele>88.6</ele>
        <time>2010-09-26T08:25:51Z</time>
      </trkpt>
      <trkpt lat="46.60201" lon="0.59359">
        <ele>88.6</ele>
        <time>2010-09-26T08:25:52Z</time>
      </trkpt>
      <trkpt lat="46.60201" lon="0.59359">
        <ele>88.6</ele>
        <time>2010-09-26T08:25:53Z</time>
      </trkpt>
      <trkpt lat="46.60201" lon="0.59359">
        <ele>88.6</ele>
        <time>2010-09-26T08:25:54Z</time>
      </trkpt>
      <trkpt lat="46.60201" lon="0.59359">
        <ele>88.6</ele>
        <time>2010-09-26T08:25:55Z</time>
      </trkpt>
      <trkpt lat="46.60201" lon="0.59359">
        <ele>88.6</ele>
        <time>2010-09-26T08:25:56Z</time>
      </trkpt>
      <trkpt lat="46.60201" lon="0.59359">
        <ele>88.6</ele>
        <time>2010-09-26T08:25:57Z</time>
      </trkpt>
      <trkpt lat="46.60201" lon="0.59359">
        <ele>88.6</ele>
        <time>2010-09-26T08:25:58Z</time>
      </trkpt>
      <trkpt lat="46.60201" lon="0.59359">
        <ele>88.6</ele>
        <time>2010-09-26T08:25:59Z</time>
      </trkpt>
      <trkpt lat="46.60201" lon="0.5936">
        <ele>88.5</ele>
        <time>2010-09-26T08:26:00Z</time>
      </trkpt>
      <trkpt lat="46.60201" lon="0.5936">
        <ele>88</ele>
        <time>2010-09-26T08:26:01Z</time>
      </trkpt>
      <trkpt lat="46.60202" lon="0.59362">
        <ele>87.6</ele>
        <time>2010-09-26T08:26:02Z</time>
      </trkpt>
      <trkpt lat="46.60254" lon="0.59488">
        <ele>87</ele>
        <time>2010-09-26T08:26:13Z</time>
      </trkpt>
      <trkpt lat="46.60324" lon="0.59672">
        <ele>77.8</ele>
        <time>2010-09-26T08:26:34Z</time>
      </trkpt>
      <trkpt lat="46.60324" lon="0.59673">
        <ele>78</ele>
        <time>2010-09-26T08:26:35Z</time>
      </trkpt>
      <trkpt lat="46.60325" lon="0.59674">
        <ele>78</ele>
        <time>2010-09-26T08:26:36Z</time>
      </trkpt>
      <trkpt lat="46.60327" lon="0.59675">
        <ele>77.9</ele>
        <time>2010-09-26T08:26:37Z</time>
      </trkpt>
      <trkpt lat="46.60332" lon="0.59677">
        <ele>77.6</ele>
        <time>2010-09-26T08:26:38Z</time>
      </trkpt>
      <trkpt lat="46.60337" lon="0.59678">
        <ele>77.9</ele>
        <time>2010-09-26T08:26:39Z</time>
      </trkpt>
      <trkpt lat="46.60342" lon="0.59677">
        <ele>78</ele>
        <time>2010-09-26T08:26:40Z</time>
      </trkpt>
      <trkpt lat="46.60347" lon="0.59675">
        <ele>78.1</ele>
        <time>2010-09-26T08:26:41Z</time>
      </trkpt>
      <trkpt lat="46.60352" lon="0.59672">
        <ele>78.5</ele>
        <time>2010-09-26T08:26:42Z</time>
      </trkpt>
      <trkpt lat="46.60356" lon="0.59668">
        <ele>78.6</ele>
        <time>2010-09-26T08:26:43Z</time>
      </trkpt>
      <trkpt lat="46.60363" lon="0.59661">
        <ele>78.4</ele>
        <time>2010-09-26T08:26:45Z</time>
      </trkpt>
      <trkpt lat="46.60366" lon="0.59657">
        <ele>78.3</ele>
        <time>2010-09-26T08:26:46Z</time>
      </trkpt>
      <trkpt lat="46.60369" lon="0.59652">
        <ele>78.1</ele>
        <time>2010-09-26T08:26:47Z</time>
      </trkpt>
      <trkpt lat="46.60379" lon="0.59638">
        <ele>78.5</ele>
        <time>2010-09-26T08:26:49Z</time>
      </trkpt>
      <trkpt lat="46.6045" lon="0.59533">
        <ele>81.1</ele>
        <time>2010-09-26T08:27:02Z</time>
      </trkpt>
      <trkpt lat="46.60453" lon="0.5953">
        <ele>80.6</ele>
        <time>2010-09-26T08:27:03Z</time>
      </trkpt>
      <trkpt lat="46.60455" lon="0.59529">
        <ele>80.6</ele>
        <time>2010-09-26T08:27:04Z</time>
      </trkpt>
      <trkpt lat="46.60457" lon="0.5953">
        <ele>80.4</ele>
        <time>2010-09-26T08:27:05Z</time>
      </trkpt>
      <trkpt lat="46.60462" lon="0.59532">
        <ele>79.4</ele>
        <time>2010-09-26T08:27:06Z</time>
      </trkpt>
      <trkpt lat="46.60467" lon="0.59538">
        <ele>79.3</ele>
        <time>2010-09-26T08:27:07Z</time>
      </trkpt>
      <trkpt lat="46.60495" lon="0.59574">
        <ele>78.4</ele>
        <time>2010-09-26T08:27:12Z</time>
      </trkpt>
      <trkpt lat="46.60533" lon="0.59624">
        <ele>78.1</ele>
        <time>2010-09-26T08:27:19Z</time>
      </trkpt>
      <trkpt lat="46.60537" lon="0.59635">
        <ele>78.5</ele>
        <time>2010-09-26T08:27:20Z</time>
      </trkpt>
      <trkpt lat="46.6054" lon="0.59649">
        <ele>78.5</ele>
        <time>2010-09-26T08:27:21Z</time>
      </trkpt>
      <trkpt lat="46.60632" lon="0.60022">
        <ele>78.3</ele>
        <time>2010-09-26T08:27:47Z</time>
      </trkpt>
      <trkpt lat="46.60631" lon="0.6003">
        <ele>78.1</ele>
        <time>2010-09-26T08:27:48Z</time>
      </trkpt>
      <trkpt lat="46.60627" lon="0.60036">
        <ele>78.1</ele>
        <time>2010-09-26T08:27:49Z</time>
      </trkpt>
      <trkpt lat="46.60618" lon="0.60042">
        <ele>77.8</ele>
        <time>2010-09-26T08:27:50Z</time>
      </trkpt>
      <trkpt lat="46.60506" lon="0.60122">
        <ele>78.6</ele>
        <time>2010-09-26T08:28:01Z</time>
      </trkpt>
      <trkpt lat="46.60284" lon="0.6029">
        <ele>78</ele>
        <time>2010-09-26T08:28:18Z</time>
      </trkpt>
      <trkpt lat="46.60274" lon="0.60301">
        <ele>77.9</ele>
        <time>2010-09-26T08:28:19Z</time>
      </trkpt>
      <trkpt lat="46.60263" lon="0.60315">
        <ele>77.6</ele>
        <time>2010-09-26T08:28:20Z</time>
      </trkpt>
      <trkpt lat="46.60244" lon="0.60344">
        <ele>77.9</ele>
        <time>2010-09-26T08:28:22Z</time>
      </trkpt>
      <trkpt lat="46.60219" lon="0.60391">
        <ele>77.3</ele>
        <time>2010-09-26T08:28:25Z</time>
      </trkpt>
      <trkpt lat="46.60139" lon="0.60525">
        <ele>77.5</ele>
        <time>2010-09-26T08:28:34Z</time>
      </trkpt>
      <trkpt lat="46.60128" lon="0.60538">
        <ele>77.9</ele>
        <time>2010-09-26T08:28:35Z</time>
      </trkpt>
      <trkpt lat="46.60069" lon="0.60608">
        <ele>77.3</ele>
        <time>2010-09-26T08:28:42Z</time>
      </trkpt>
      <trkpt lat="46.60065" lon="0.60616">
        <ele>77.5</ele>
        <time>2010-09-26T08:28:43Z</time>
      </trkpt>
      <trkpt lat="46.60062" lon="0.60625">
        <ele>77.4</ele>
        <time>2010-09-26T08:28:44Z</time>
      </trkpt>
      <trkpt lat="46.60059" lon="0.60636">
        <ele>77.3</ele>
        <time>2010-09-26T08:28:45Z</time>
      </trkpt>
      <trkpt lat="46.6004" lon="0.60709">
        <ele>76.9</ele>
        <time>2010-09-26T08:28:54Z</time>
      </trkpt>
      <trkpt lat="46.60039" lon="0.6071">
        <ele>76.5</ele>
        <time>2010-09-26T08:28:55Z</time>
      </trkpt>
      <trkpt lat="46.60039" lon="0.6071">
        <ele>76.5</ele>
        <time>2010-09-26T08:29:11Z</time>
      </trkpt>
      <trkpt lat="46.60038" lon="0.60711">
        <ele>76.5</ele>
        <time>2010-09-26T08:29:12Z</time>
      </trkpt>
      <trkpt lat="46.60037" lon="0.60711">
        <ele>76.9</ele>
        <time>2010-09-26T08:29:13Z</time>
      </trkpt>
      <trkpt lat="46.60035" lon="0.6071">
        <ele>76.1</ele>
        <time>2010-09-26T08:29:15Z</time>
      </trkpt>
      <trkpt lat="46.60034" lon="0.60708">
        <ele>76</ele>
        <time>2010-09-26T08:29:16Z</time>
      </trkpt>
      <trkpt lat="46.60033" lon="0.60704">
        <ele>75.9</ele>
        <time>2010-09-26T08:29:17Z</time>
      </trkpt>
      <trkpt lat="46.6003" lon="0.60701">
        <ele>75.5</ele>
        <time>2010-09-26T08:29:18Z</time>
      </trkpt>
      <trkpt lat="46.60029" lon="0.60701">
        <ele>75.1</ele>
        <time>2010-09-26T08:29:19Z</time>
      </trkpt>
      <trkpt lat="46.60025" lon="0.60706">
        <ele>75</ele>
        <time>2010-09-26T08:29:20Z</time>
      </trkpt>
      <trkpt lat="46.60024" lon="0.60711">
        <ele>75</ele>
        <time>2010-09-26T08:29:21Z</time>
      </trkpt>
      <trkpt lat="46.60023" lon="0.60715">
        <ele>74.5</ele>
        <time>2010-09-26T08:29:22Z</time>
      </trkpt>
      <trkpt lat="46.60021" lon="0.60721">
        <ele>75</ele>
        <time>2010-09-26T08:29:24Z</time>
      </trkpt>
      <trkpt lat="46.60021" lon="0.60722">
        <ele>75.3</ele>
        <time>2010-09-26T08:29:25Z</time>
      </trkpt>
      <trkpt lat="46.60021" lon="0.60722">
        <ele>75.3</ele>
        <time>2010-09-26T08:29:26Z</time>
      </trkpt>
      <trkpt lat="46.60021" lon="0.60722">
        <ele>75.3</ele>
        <time>2010-09-26T08:29:27Z</time>
      </trkpt>
      <trkpt lat="46.60021" lon="0.60722">
        <ele>75.3</ele>
        <time>2010-09-26T08:29:28Z</time>
      </trkpt>
      <trkpt lat="46.60021" lon="0.60722">
        <ele>75.3</ele>
        <time>2010-09-26T08:29:29Z</time>
      </trkpt>
      <trkpt lat="46.60021" lon="0.60722">
        <ele>75.3</ele>
        <time>2010-09-26T08:29:30Z</time>
      </trkpt>
      <trkpt lat="46.60021" lon="0.60722">
        <ele>75.3</ele>
        <time>2010-09-26T08:29:31Z</time>
      </trkpt>
      <trkpt lat="46.60021" lon="0.60724">
        <ele>74.9</ele>
        <time>2010-09-26T08:29:32Z</time>
      </trkpt>
      <trkpt lat="46.60021" lon="0.60726">
        <ele>74.8</ele>
        <time>2010-09-26T08:29:33Z</time>
      </trkpt>
      <trkpt lat="46.60018" lon="0.6073">
        <ele>75.5</ele>
        <time>2010-09-26T08:29:34Z</time>
      </trkpt>
      <trkpt lat="46.60013" lon="0.60733">
        <ele>75.5</ele>
        <time>2010-09-26T08:29:35Z</time>
      </trkpt>
      <trkpt lat="46.60008" lon="0.60736">
        <ele>75</ele>
        <time>2010-09-26T08:29:36Z</time>
      </trkpt>
      <trkpt lat="46.59996" lon="0.6074">
        <ele>74.4</ele>
        <time>2010-09-26T08:29:40Z</time>
      </trkpt>
      <trkpt lat="46.59994" lon="0.60741">
        <ele>73.8</ele>
        <time>2010-09-26T08:29:42Z</time>
      </trkpt>
      <trkpt lat="46.5999" lon="0.60743">
        <ele>73.4</ele>
        <time>2010-09-26T08:29:43Z</time>
      </trkpt>
      <trkpt lat="46.59953" lon="0.60761">
        <ele>72.5</ele>
        <time>2010-09-26T08:29:48Z</time>
      </trkpt>
      <trkpt lat="46.5995" lon="0.60764">
        <ele>72.6</ele>
        <time>2010-09-26T08:29:49Z</time>
      </trkpt>
      <trkpt lat="46.59948" lon="0.60768">
        <ele>72.4</ele>
        <time>2010-09-26T08:29:50Z</time>
      </trkpt>
      <trkpt lat="46.59949" lon="0.60773">
        <ele>71.8</ele>
        <time>2010-09-26T08:29:51Z</time>
      </trkpt>
      <trkpt lat="46.60001" lon="0.60981">
        <ele>73.1</ele>
        <time>2010-09-26T08:30:04Z</time>
      </trkpt>
      <trkpt lat="46.60002" lon="0.60989">
        <ele>73.3</ele>
        <time>2010-09-26T08:30:05Z</time>
      </trkpt>
      <trkpt lat="46.60003" lon="0.61001">
        <ele>74.1</ele>
        <time>2010-09-26T08:30:09Z</time>
      </trkpt>
      <trkpt lat="46.60003" lon="0.61001">
        <ele>74</ele>
        <time>2010-09-26T08:30:10Z</time>
      </trkpt>
      <trkpt lat="46.60003" lon="0.61005">
        <ele>73.6</ele>
        <time>2010-09-26T08:30:11Z</time>
      </trkpt>
      <trkpt lat="46.6001" lon="0.61153">
        <ele>72.3</ele>
        <time>2010-09-26T08:30:20Z</time>
      </trkpt>
      <trkpt lat="46.60006" lon="0.6129">
        <ele>73</ele>
        <time>2010-09-26T08:30:27Z</time>
      </trkpt>
      <trkpt lat="46.60004" lon="0.61311">
        <ele>74</ele>
        <time>2010-09-26T08:30:29Z</time>
      </trkpt>
      <trkpt lat="46.60002" lon="0.61318">
        <ele>74.1</ele>
        <time>2010-09-26T08:30:30Z</time>
      </trkpt>
      <trkpt lat="46.59999" lon="0.61323">
        <ele>74.6</ele>
        <time>2010-09-26T08:30:31Z</time>
      </trkpt>
      <trkpt lat="46.59996" lon="0.61325">
        <ele>75</ele>
        <time>2010-09-26T08:30:32Z</time>
      </trkpt>
      <trkpt lat="46.59995" lon="0.61327">
        <ele>75.5</ele>
        <time>2010-09-26T08:30:33Z</time>
      </trkpt>
      <trkpt lat="46.59994" lon="0.6133">
        <ele>75.9</ele>
        <time>2010-09-26T08:30:34Z</time>
      </trkpt>
      <trkpt lat="46.59994" lon="0.6133">
        <ele>75.9</ele>
        <time>2010-09-26T08:30:50Z</time>
      </trkpt>
      <trkpt lat="46.59994" lon="0.61329">
        <ele>76.3</ele>
        <time>2010-09-26T08:30:51Z</time>
      </trkpt>
      <trkpt lat="46.59994" lon="0.61329">
        <ele>76.5</ele>
        <time>2010-09-26T08:30:52Z</time>
      </trkpt>
      <trkpt lat="46.59994" lon="0.61329">
        <ele>76.5</ele>
        <time>2010-09-26T08:30:53Z</time>
      </trkpt>
      <trkpt lat="46.59994" lon="0.61329">
        <ele>76.5</ele>
        <time>2010-09-26T08:30:54Z</time>
      </trkpt>
      <trkpt lat="46.59994" lon="0.61329">
        <ele>76.5</ele>
        <time>2010-09-26T08:30:55Z</time>
      </trkpt>
      <trkpt lat="46.59994" lon="0.61329">
        <ele>76.5</ele>
        <time>2010-09-26T08:30:56Z</time>
      </trkpt>
      <trkpt lat="46.59994" lon="0.61329">
        <ele>76.5</ele>
        <time>2010-09-26T08:30:57Z</time>
      </trkpt>
      <trkpt lat="46.59994" lon="0.61329">
        <ele>76.5</ele>
        <time>2010-09-26T08:30:58Z</time>
      </trkpt>
      <trkpt lat="46.59994" lon="0.61329">
        <ele>76.5</ele>
        <time>2010-09-26T08:30:59Z</time>
      </trkpt>
      <trkpt lat="46.59994" lon="0.61329">
        <ele>76.5</ele>
        <time>2010-09-26T08:31:00Z</time>
      </trkpt>
      <trkpt lat="46.59994" lon="0.61329">
        <ele>76.5</ele>
        <time>2010-09-26T08:31:01Z</time>
      </trkpt>
      <trkpt lat="46.59994" lon="0.61329">
        <ele>76.5</ele>
        <time>2010-09-26T08:31:02Z</time>
      </trkpt>
      <trkpt lat="46.59994" lon="0.61329">
        <ele>76.5</ele>
        <time>2010-09-26T08:31:03Z</time>
      </trkpt>
      <trkpt lat="46.59994" lon="0.61329">
        <ele>76.5</ele>
        <time>2010-09-26T08:31:04Z</time>
      </trkpt>
      <trkpt lat="46.59994" lon="0.61329">
        <ele>76.5</ele>
        <time>2010-09-26T08:31:05Z</time>
      </trkpt>
      <trkpt lat="46.59994" lon="0.61329">
        <ele>76.5</ele>
        <time>2010-09-26T08:31:06Z</time>
      </trkpt>
      <trkpt lat="46.59994" lon="0.61329">
        <ele>76.5</ele>
        <time>2010-09-26T08:31:07Z</time>
      </trkpt>
      <trkpt lat="46.59994" lon="0.61329">
        <ele>76.5</ele>
        <time>2010-09-26T08:31:08Z</time>
      </trkpt>
      <trkpt lat="46.59994" lon="0.61329">
        <ele>76.5</ele>
        <time>2010-09-26T08:31:09Z</time>
      </trkpt>
      <trkpt lat="46.59994" lon="0.61329">
        <ele>76.5</ele>
        <time>2010-09-26T08:31:10Z</time>
      </trkpt>
      <trkpt lat="46.59995" lon="0.61328">
        <ele>76.6</ele>
        <time>2010-09-26T08:31:11Z</time>
      </trkpt>
      <trkpt lat="46.59997" lon="0.61326">
        <ele>76.9</ele>
        <time>2010-09-26T08:31:13Z</time>
      </trkpt>
      <trkpt lat="46.59999" lon="0.61324">
        <ele>76.6</ele>
        <time>2010-09-26T08:31:16Z</time>
      </trkpt>
      <trkpt lat="46.59999" lon="0.61323">
        <ele>77</ele>
        <time>2010-09-26T08:31:17Z</time>
      </trkpt>
      <trkpt lat="46.59999" lon="0.61323">
        <ele>77</ele>
        <time>2010-09-26T08:31:18Z</time>
      </trkpt>
      <trkpt lat="46.59999" lon="0.61323">
        <ele>77</ele>
        <time>2010-09-26T08:31:19Z</time>
      </trkpt>
      <trkpt lat="46.59999" lon="0.61323">
        <ele>77</ele>
        <time>2010-09-26T08:31:20Z</time>
      </trkpt>
      <trkpt lat="46.59999" lon="0.61323">
        <ele>77</ele>
        <time>2010-09-26T08:31:21Z</time>
      </trkpt>
      <trkpt lat="46.59999" lon="0.61323">
        <ele>77</ele>
        <time>2010-09-26T08:31:22Z</time>
      </trkpt>
      <trkpt lat="46.59999" lon="0.61323">
        <ele>77</ele>
        <time>2010-09-26T08:31:23Z</time>
      </trkpt>
      <trkpt lat="46.59999" lon="0.61323">
        <ele>77</ele>
        <time>2010-09-26T08:31:24Z</time>
      </trkpt>
      <trkpt lat="46.59999" lon="0.61323">
        <ele>77</ele>
        <time>2010-09-26T08:31:25Z</time>
      </trkpt>
      <trkpt lat="46.59999" lon="0.61323">
        <ele>77</ele>
        <time>2010-09-26T08:31:26Z</time>
      </trkpt>
      <trkpt lat="46.59999" lon="0.61323">
        <ele>77</ele>
        <time>2010-09-26T08:31:27Z</time>
      </trkpt>
      <trkpt lat="46.59999" lon="0.61323">
        <ele>77</ele>
        <time>2010-09-26T08:31:28Z</time>
      </trkpt>
      <trkpt lat="46.59999" lon="0.61323">
        <ele>77</ele>
        <time>2010-09-26T08:31:29Z</time>
      </trkpt>
      <trkpt lat="46.59999" lon="0.61323">
        <ele>77</ele>
        <time>2010-09-26T08:31:30Z</time>
      </trkpt>
      <trkpt lat="46.59999" lon="0.61323">
        <ele>77</ele>
        <time>2010-09-26T08:31:31Z</time>
      </trkpt>
      <trkpt lat="46.59999" lon="0.61323">
        <ele>77</ele>
        <time>2010-09-26T08:31:32Z</time>
      </trkpt>
      <trkpt lat="46.59999" lon="0.61323">
        <ele>77</ele>
        <time>2010-09-26T08:31:33Z</time>
      </trkpt>
      <trkpt lat="46.59999" lon="0.61323">
        <ele>77</ele>
        <time>2010-09-26T08:31:34Z</time>
      </trkpt>
      <trkpt lat="46.59999" lon="0.61323">
        <ele>77</ele>
        <time>2010-09-26T08:31:35Z</time>
      </trkpt>
      <trkpt lat="46.59999" lon="0.61323">
        <ele>77</ele>
        <time>2010-09-26T08:31:36Z</time>
      </trkpt>
      <trkpt lat="46.59999" lon="0.61323">
        <ele>77</ele>
        <time>2010-09-26T08:31:37Z</time>
      </trkpt>
      <trkpt lat="46.59999" lon="0.61323">
        <ele>77</ele>
        <time>2010-09-26T08:31:38Z</time>
      </trkpt>
      <trkpt lat="46.59999" lon="0.61323">
        <ele>77</ele>
        <time>2010-09-26T08:31:39Z</time>
      </trkpt>
      <trkpt lat="46.59999" lon="0.61323">
        <ele>77</ele>
        <time>2010-09-26T08:31:40Z</time>
      </trkpt>
      <trkpt lat="46.59999" lon="0.61323">
        <ele>77</ele>
        <time>2010-09-26T08:31:41Z</time>
      </trkpt>
      <trkpt lat="46.59999" lon="0.61323">
        <ele>77</ele>
        <time>2010-09-26T08:31:42Z</time>
      </trkpt>
      <trkpt lat="46.59999" lon="0.61323">
        <ele>77</ele>
        <time>2010-09-26T08:31:43Z</time>
      </trkpt>
      <trkpt lat="46.59999" lon="0.61323">
        <ele>77</ele>
        <time>2010-09-26T08:31:44Z</time>
      </trkpt>
      <trkpt lat="46.59999" lon="0.61323">
        <ele>77</ele>
        <time>2010-09-26T08:31:45Z</time>
      </trkpt>
      <trkpt lat="46.59999" lon="0.61323">
        <ele>77</ele>
        <time>2010-09-26T08:31:46Z</time>
      </trkpt>
      <trkpt lat="46.59999" lon="0.61323">
        <ele>77</ele>
        <time>2010-09-26T08:31:47Z</time>
      </trkpt>
      <trkpt lat="46.59999" lon="0.61323">
        <ele>77</ele>
        <time>2010-09-26T08:31:48Z</time>
      </trkpt>
      <trkpt lat="46.59999" lon="0.61323">
        <ele>77</ele>
        <time>2010-09-26T08:31:49Z</time>
      </trkpt>
      <trkpt lat="46.59999" lon="0.61323">
        <ele>77</ele>
        <time>2010-09-26T08:31:50Z</time>
      </trkpt>
      <trkpt lat="46.59999" lon="0.61323">
        <ele>77</ele>
        <time>2010-09-26T08:31:51Z</time>
      </trkpt>
      <trkpt lat="46.59999" lon="0.61323">
        <ele>77</ele>
        <time>2010-09-26T08:31:52Z</time>
      </trkpt>
      <trkpt lat="46.59999" lon="0.61323">
        <ele>77</ele>
        <time>2010-09-26T08:31:53Z</time>
      </trkpt>
      <trkpt lat="46.59999" lon="0.61323">
        <ele>77</ele>
        <time>2010-09-26T08:31:54Z</time>
      </trkpt>
      <trkpt lat="46.59999" lon="0.61323">
        <ele>77</ele>
        <time>2010-09-26T08:31:55Z</time>
      </trkpt>
      <trkpt lat="46.59999" lon="0.61323">
        <ele>77</ele>
        <time>2010-09-26T08:31:56Z</time>
      </trkpt>
      <trkpt lat="46.59999" lon="0.61323">
        <ele>77</ele>
        <time>2010-09-26T08:31:57Z</time>
      </trkpt>
      <trkpt lat="46.59999" lon="0.61323">
        <ele>77</ele>
        <time>2010-09-26T08:31:58Z</time>
      </trkpt>
      <trkpt lat="46.59999" lon="0.61323">
        <ele>77</ele>
        <time>2010-09-26T08:31:59Z</time>
      </trkpt>
      <trkpt lat="46.59999" lon="0.61323">
        <ele>77</ele>
        <time>2010-09-26T08:32:00Z</time>
      </trkpt>
      <trkpt lat="46.59999" lon="0.61323">
        <ele>77</ele>
        <time>2010-09-26T08:32:01Z</time>
      </trkpt>
      <trkpt lat="46.59999" lon="0.61323">
        <ele>77</ele>
        <time>2010-09-26T08:32:02Z</time>
      </trkpt>
      <trkpt lat="46.59999" lon="0.61323">
        <ele>77</ele>
        <time>2010-09-26T08:32:03Z</time>
      </trkpt>
      <trkpt lat="46.59999" lon="0.61323">
        <ele>77</ele>
        <time>2010-09-26T08:32:04Z</time>
      </trkpt>
      <trkpt lat="46.59999" lon="0.61323">
        <ele>77</ele>
        <time>2010-09-26T08:32:05Z</time>
      </trkpt>
      <trkpt lat="46.59999" lon="0.61323">
        <ele>77</ele>
        <time>2010-09-26T08:32:06Z</time>
      </trkpt>
      <trkpt lat="46.59999" lon="0.61323">
        <ele>77</ele>
        <time>2010-09-26T08:32:07Z</time>
      </trkpt>
      <trkpt lat="46.59999" lon="0.61323">
        <ele>77</ele>
        <time>2010-09-26T08:32:08Z</time>
      </trkpt>
      <trkpt lat="46.59999" lon="0.61323">
        <ele>77</ele>
        <time>2010-09-26T08:32:09Z</time>
      </trkpt>
      <trkpt lat="46.59999" lon="0.61323">
        <ele>77</ele>
        <time>2010-09-26T08:32:10Z</time>
      </trkpt>
      <trkpt lat="46.59999" lon="0.61323">
        <ele>77</ele>
        <time>2010-09-26T08:32:11Z</time>
      </trkpt>
      <trkpt lat="46.59999" lon="0.61323">
        <ele>77</ele>
        <time>2010-09-26T08:32:12Z</time>
      </trkpt>
      <trkpt lat="46.59999" lon="0.61323">
        <ele>77</ele>
        <time>2010-09-26T08:32:13Z</time>
      </trkpt>
      <trkpt lat="46.59999" lon="0.61323">
        <ele>77.5</ele>
        <time>2010-09-26T08:32:14Z</time>
      </trkpt>
      <trkpt lat="46.59999" lon="0.61323">
        <ele>77.5</ele>
        <time>2010-09-26T08:32:15Z</time>
      </trkpt>
      <trkpt lat="46.59999" lon="0.61323">
        <ele>77.5</ele>
        <time>2010-09-26T08:32:16Z</time>
      </trkpt>
      <trkpt lat="46.59999" lon="0.61323">
        <ele>77.5</ele>
        <time>2010-09-26T08:32:17Z</time>
      </trkpt>
      <trkpt lat="46.59999" lon="0.61323">
        <ele>77.5</ele>
        <time>2010-09-26T08:32:18Z</time>
      </trkpt>
      <trkpt lat="46.59999" lon="0.61323">
        <ele>77.5</ele>
        <time>2010-09-26T08:32:19Z</time>
      </trkpt>
      <trkpt lat="46.59999" lon="0.61323">
        <ele>77.5</ele>
        <time>2010-09-26T08:32:20Z</time>
      </trkpt>
      <trkpt lat="46.59999" lon="0.61323">
        <ele>77.5</ele>
        <time>2010-09-26T08:32:21Z</time>
      </trkpt>
      <trkpt lat="46.59999" lon="0.61323">
        <ele>77.5</ele>
        <time>2010-09-26T08:32:22Z</time>
      </trkpt>
      <trkpt lat="46.59999" lon="0.61323">
        <ele>77.5</ele>
        <time>2010-09-26T08:32:23Z</time>
      </trkpt>
      <trkpt lat="46.59999" lon="0.61323">
        <ele>77.5</ele>
        <time>2010-09-26T08:32:24Z</time>
      </trkpt>
      <trkpt lat="46.59999" lon="0.61323">
        <ele>77.5</ele>
        <time>2010-09-26T08:32:25Z</time>
      </trkpt>
      <trkpt lat="46.59999" lon="0.61323">
        <ele>77.5</ele>
        <time>2010-09-26T08:32:26Z</time>
      </trkpt>
      <trkpt lat="46.59999" lon="0.61323">
        <ele>77.5</ele>
        <time>2010-09-26T08:32:27Z</time>
      </trkpt>
      <trkpt lat="46.59999" lon="0.61323">
        <ele>77.5</ele>
        <time>2010-09-26T08:32:28Z</time>
      </trkpt>
      <trkpt lat="46.59999" lon="0.61323">
        <ele>77.5</ele>
        <time>2010-09-26T08:32:29Z</time>
      </trkpt>
      <trkpt lat="46.59999" lon="0.61323">
        <ele>77.5</ele>
        <time>2010-09-26T08:32:30Z</time>
      </trkpt>
      <trkpt lat="46.59999" lon="0.61323">
        <ele>77.5</ele>
        <time>2010-09-26T08:32:31Z</time>
      </trkpt>
      <trkpt lat="46.59999" lon="0.61323">
        <ele>77.5</ele>
        <time>2010-09-26T08:32:32Z</time>
      </trkpt>
      <trkpt lat="46.59999" lon="0.61323">
        <ele>77.5</ele>
        <time>2010-09-26T08:32:33Z</time>
      </trkpt>
      <trkpt lat="46.59999" lon="0.61323">
        <ele>77.5</ele>
        <time>2010-09-26T08:32:34Z</time>
      </trkpt>
      <trkpt lat="46.59999" lon="0.61323">
        <ele>77.5</ele>
        <time>2010-09-26T08:32:35Z</time>
      </trkpt>
      <trkpt lat="46.59999" lon="0.61323">
        <ele>77.5</ele>
        <time>2010-09-26T08:32:36Z</time>
      </trkpt>
      <trkpt lat="46.59999" lon="0.61323">
        <ele>77.5</ele>
        <time>2010-09-26T08:32:37Z</time>
      </trkpt>
      <trkpt lat="46.59999" lon="0.61323">
        <ele>77.5</ele>
        <time>2010-09-26T08:32:38Z</time>
      </trkpt>
      <trkpt lat="46.59999" lon="0.61323">
        <ele>77.5</ele>
        <time>2010-09-26T08:32:39Z</time>
      </trkpt>
      <trkpt lat="46.59999" lon="0.61323">
        <ele>77.5</ele>
        <time>2010-09-26T08:32:40Z</time>
      </trkpt>
      <trkpt lat="46.59999" lon="0.61323">
        <ele>77.5</ele>
        <time>2010-09-26T08:32:41Z</time>
      </trkpt>
      <trkpt lat="46.59999" lon="0.61323">
        <ele>77.5</ele>
        <time>2010-09-26T08:32:42Z</time>
      </trkpt>
      <trkpt lat="46.59999" lon="0.61323">
        <ele>77.5</ele>
        <time>2010-09-26T08:32:43Z</time>
      </trkpt>
      <trkpt lat="46.59999" lon="0.61323">
        <ele>77.5</ele>
        <time>2010-09-26T08:32:44Z</time>
      </trkpt>
      <trkpt lat="46.59999" lon="0.61323">
        <ele>77.5</ele>
        <time>2010-09-26T08:32:45Z</time>
      </trkpt>
      <trkpt lat="46.59999" lon="0.61323">
        <ele>77.5</ele>
        <time>2010-09-26T08:32:46Z</time>
      </trkpt>
      <trkpt lat="46.59999" lon="0.61323">
        <ele>77.5</ele>
        <time>2010-09-26T08:32:47Z</time>
      </trkpt>
      <trkpt lat="46.59999" lon="0.61323">
        <ele>77.5</ele>
        <time>2010-09-26T08:32:48Z</time>
      </trkpt>
      <trkpt lat="46.59999" lon="0.61323">
        <ele>77.5</ele>
        <time>2010-09-26T08:32:49Z</time>
      </trkpt>
      <trkpt lat="46.59999" lon="0.61323">
        <ele>77.5</ele>
        <time>2010-09-26T08:32:50Z</time>
      </trkpt>
      <trkpt lat="46.59999" lon="0.61323">
        <ele>77.5</ele>
        <time>2010-09-26T08:32:51Z</time>
      </trkpt>
      <trkpt lat="46.59999" lon="0.61323">
        <ele>77.5</ele>
        <time>2010-09-26T08:32:52Z</time>
      </trkpt>
      <trkpt lat="46.59999" lon="0.61323">
        <ele>77.5</ele>
        <time>2010-09-26T08:32:53Z</time>
      </trkpt>
      <trkpt lat="46.59999" lon="0.61323">
        <ele>77.5</ele>
        <time>2010-09-26T08:32:54Z</time>
      </trkpt>
      <trkpt lat="46.59999" lon="0.61323">
        <ele>77.5</ele>
        <time>2010-09-26T08:32:55Z</time>
      </trkpt>
      <trkpt lat="46.59999" lon="0.61323">
        <ele>77.5</ele>
        <time>2010-09-26T08:32:56Z</time>
      </trkpt>
      <trkpt lat="46.59999" lon="0.61323">
        <ele>77.5</ele>
        <time>2010-09-26T08:32:57Z</time>
      </trkpt>
      <trkpt lat="46.59999" lon="0.61323">
        <ele>77.5</ele>
        <time>2010-09-26T08:32:58Z</time>
      </trkpt>
      <trkpt lat="46.59999" lon="0.61323">
        <ele>77.5</ele>
        <time>2010-09-26T08:32:59Z</time>
      </trkpt>
      <trkpt lat="46.59999" lon="0.61323">
        <ele>77.5</ele>
        <time>2010-09-26T08:33:00Z</time>
      </trkpt>
      <trkpt lat="46.59999" lon="0.61323">
        <ele>77.5</ele>
        <time>2010-09-26T08:33:01Z</time>
      </trkpt>
      <trkpt lat="46.59999" lon="0.61323">
        <ele>77.5</ele>
        <time>2010-09-26T08:33:02Z</time>
      </trkpt>
      <trkpt lat="46.59999" lon="0.61323">
        <ele>77.5</ele>
        <time>2010-09-26T08:33:03Z</time>
      </trkpt>
      <trkpt lat="46.59999" lon="0.61323">
        <ele>77.5</ele>
        <time>2010-09-26T08:33:04Z</time>
      </trkpt>
      <trkpt lat="46.59999" lon="0.61323">
        <ele>77.5</ele>
        <time>2010-09-26T08:33:05Z</time>
      </trkpt>
      <trkpt lat="46.59999" lon="0.61323">
        <ele>77.5</ele>
        <time>2010-09-26T08:33:06Z</time>
      </trkpt>
      <trkpt lat="46.59999" lon="0.61323">
        <ele>77.5</ele>
        <time>2010-09-26T08:33:07Z</time>
      </trkpt>
      <trkpt lat="46.59999" lon="0.61323">
        <ele>77.5</ele>
        <time>2010-09-26T08:33:08Z</time>
      </trkpt>
      <trkpt lat="46.59999" lon="0.61323">
        <ele>77.5</ele>
        <time>2010-09-26T08:33:09Z</time>
      </trkpt>
      <trkpt lat="46.59999" lon="0.61323">
        <ele>77.5</ele>
        <time>2010-09-26T08:33:10Z</time>
      </trkpt>
      <trkpt lat="46.59999" lon="0.61323">
        <ele>77.5</ele>
        <time>2010-09-26T08:33:11Z</time>
      </trkpt>
      <trkpt lat="46.59999" lon="0.61323">
        <ele>77.5</ele>
        <time>2010-09-26T08:33:12Z</time>
      </trkpt>
      <trkpt lat="46.59999" lon="0.61323">
        <ele>77.5</ele>
        <time>2010-09-26T08:33:13Z</time>
      </trkpt>
      <trkpt lat="46.59999" lon="0.61323">
        <ele>77.5</ele>
        <time>2010-09-26T08:33:14Z</time>
      </trkpt>
      <trkpt lat="46.59999" lon="0.61323">
        <ele>77.5</ele>
        <time>2010-09-26T08:33:15Z</time>
      </trkpt>
      <trkpt lat="46.59999" lon="0.61323">
        <ele>77.5</ele>
        <time>2010-09-26T08:33:16Z</time>
      </trkpt>
      <trkpt lat="46.59999" lon="0.61323">
        <ele>77.5</ele>
        <time>2010-09-26T08:33:17Z</time>
      </trkpt>
      <trkpt lat="46.59999" lon="0.61323">
        <ele>77.5</ele>
        <time>2010-09-26T08:33:18Z</time>
      </trkpt>
      <trkpt lat="46.59999" lon="0.61323">
        <ele>77.5</ele>
        <time>2010-09-26T08:33:19Z</time>
      </trkpt>
      <trkpt lat="46.59999" lon="0.61323">
        <ele>77.5</ele>
        <time>2010-09-26T08:33:20Z</time>
      </trkpt>
      <trkpt lat="46.59999" lon="0.61323">
        <ele>77.5</ele>
        <time>2010-09-26T08:33:21Z</time>
      </trkpt>
      <trkpt lat="46.59999" lon="0.61323">
        <ele>77.5</ele>
        <time>2010-09-26T08:33:22Z</time>
      </trkpt>
      <trkpt lat="46.59999" lon="0.61323">
        <ele>77.5</ele>
        <time>2010-09-26T08:33:23Z</time>
      </trkpt>
      <trkpt lat="46.59999" lon="0.61323">
        <ele>77.5</ele>
        <time>2010-09-26T08:33:24Z</time>
      </trkpt>
      <trkpt lat="46.59999" lon="0.61323">
        <ele>77.5</ele>
        <time>2010-09-26T08:33:25Z</time>
      </trkpt>
      <trkpt lat="46.59999" lon="0.61323">
        <ele>77.5</ele>
        <time>2010-09-26T08:33:26Z</time>
      </trkpt>
      <trkpt lat="46.59999" lon="0.61323">
        <ele>77.5</ele>
        <time>2010-09-26T08:33:27Z</time>
      </trkpt>
      <trkpt lat="46.59999" lon="0.61323">
        <ele>77.5</ele>
        <time>2010-09-26T08:33:28Z</time>
      </trkpt>
      <trkpt lat="46.59999" lon="0.61323">
        <ele>77.5</ele>
        <time>2010-09-26T08:33:29Z</time>
      </trkpt>
      <trkpt lat="46.59999" lon="0.61323">
        <ele>77.5</ele>
        <time>2010-09-26T08:33:30Z</time>
      </trkpt>
      <trkpt lat="46.59999" lon="0.61323">
        <ele>77.5</ele>
        <time>2010-09-26T08:33:31Z</time>
      </trkpt>
      <trkpt lat="46.59999" lon="0.61323">
        <ele>77.5</ele>
        <time>2010-09-26T08:33:32Z</time>
      </trkpt>
      <trkpt lat="46.59999" lon="0.61323">
        <ele>77.5</ele>
        <time>2010-09-26T08:33:33Z</time>
      </trkpt>
      <trkpt lat="46.59999" lon="0.61323">
        <ele>77.5</ele>
        <time>2010-09-26T08:33:34Z</time>
      </trkpt>
      <trkpt lat="46.59999" lon="0.61323">
        <ele>77.5</ele>
        <time>2010-09-26T08:33:35Z</time>
      </trkpt>
      <trkpt lat="46.59999" lon="0.61323">
        <ele>77.5</ele>
        <time>2010-09-26T08:33:36Z</time>
      </trkpt>
      <trkpt lat="46.59999" lon="0.61323">
        <ele>77.5</ele>
        <time>2010-09-26T08:33:37Z</time>
      </trkpt>
      <trkpt lat="46.59999" lon="0.61323">
        <ele>77.5</ele>
        <time>2010-09-26T08:33:38Z</time>
      </trkpt>
      <trkpt lat="46.59999" lon="0.61323">
        <ele>77.5</ele>
        <time>2010-09-26T08:33:39Z</time>
      </trkpt>
      <trkpt lat="46.59999" lon="0.61323">
        <ele>77.5</ele>
        <time>2010-09-26T08:33:40Z</time>
      </trkpt>
      <trkpt lat="46.59999" lon="0.61323">
        <ele>77.5</ele>
        <time>2010-09-26T08:33:41Z</time>
      </trkpt>
      <trkpt lat="46.59999" lon="0.61323">
        <ele>77.5</ele>
        <time>2010-09-26T08:33:42Z</time>
      </trkpt>
      <trkpt lat="46.59999" lon="0.61323">
        <ele>77.5</ele>
        <time>2010-09-26T08:33:43Z</time>
      </trkpt>
      <trkpt lat="46.59999" lon="0.61323">
        <ele>77.5</ele>
        <time>2010-09-26T08:33:44Z</time>
      </trkpt>
      <trkpt lat="46.59999" lon="0.61323">
        <ele>77.5</ele>
        <time>2010-09-26T08:33:45Z</time>
      </trkpt>
      <trkpt lat="46.59999" lon="0.61323">
        <ele>77.5</ele>
        <time>2010-09-26T08:33:46Z</time>
      </trkpt>
      <trkpt lat="46.59999" lon="0.61323">
        <ele>77.5</ele>
        <time>2010-09-26T08:33:47Z</time>
      </trkpt>
      <trkpt lat="46.59999" lon="0.61323">
        <ele>77.5</ele>
        <time>2010-09-26T08:33:48Z</time>
      </trkpt>
      <trkpt lat="46.59999" lon="0.61323">
        <ele>77.5</ele>
        <time>2010-09-26T08:33:49Z</time>
      </trkpt>
      <trkpt lat="46.59999" lon="0.61323">
        <ele>77.5</ele>
        <time>2010-09-26T08:33:50Z</time>
      </trkpt>
      <trkpt lat="46.59999" lon="0.61323">
        <ele>77.5</ele>
        <time>2010-09-26T08:33:51Z</time>
      </trkpt>
      <trkpt lat="46.59999" lon="0.61323">
        <ele>77.5</ele>
        <time>2010-09-26T08:33:52Z</time>
      </trkpt>
      <trkpt lat="46.59999" lon="0.61323">
        <ele>77.5</ele>
        <time>2010-09-26T08:33:53Z</time>
      </trkpt>
      <trkpt lat="46.59999" lon="0.61323">
        <ele>77.5</ele>
        <time>2010-09-26T08:33:54Z</time>
      </trkpt>
      <trkpt lat="46.59999" lon="0.61323">
        <ele>77.5</ele>
        <time>2010-09-26T08:33:55Z</time>
      </trkpt>
      <trkpt lat="46.59999" lon="0.61323">
        <ele>77.5</ele>
        <time>2010-09-26T08:33:56Z</time>
      </trkpt>
      <trkpt lat="46.59999" lon="0.61323">
        <ele>77.5</ele>
        <time>2010-09-26T08:33:57Z</time>
      </trkpt>
      <trkpt lat="46.59999" lon="0.61323">
        <ele>77.5</ele>
        <time>2010-09-26T08:33:58Z</time>
      </trkpt>
      <trkpt lat="46.59999" lon="0.61323">
        <ele>77.5</ele>
        <time>2010-09-26T08:33:59Z</time>
      </trkpt>
      <trkpt lat="46.59999" lon="0.61323">
        <ele>77.5</ele>
        <time>2010-09-26T08:34:00Z</time>
      </trkpt>
      <trkpt lat="46.59999" lon="0.61323">
        <ele>77.5</ele>
        <time>2010-09-26T08:34:01Z</time>
      </trkpt>
      <trkpt lat="46.59999" lon="0.61323">
        <ele>77.5</ele>
        <time>2010-09-26T08:34:02Z</time>
      </trkpt>
      <trkpt lat="46.59999" lon="0.61323">
        <ele>77.5</ele>
        <time>2010-09-26T08:34:03Z</time>
      </trkpt>
      <trkpt lat="46.59999" lon="0.61323">
        <ele>77.5</ele>
        <time>2010-09-26T08:34:04Z</time>
      </trkpt>
      <trkpt lat="46.59999" lon="0.61323">
        <ele>77.5</ele>
        <time>2010-09-26T08:34:05Z</time>
      </trkpt>
      <trkpt lat="46.59999" lon="0.61323">
        <ele>77.5</ele>
        <time>2010-09-26T08:34:06Z</time>
      </trkpt>
      <trkpt lat="46.59999" lon="0.61323">
        <ele>77.5</ele>
        <time>2010-09-26T08:34:07Z</time>
      </trkpt>
      <trkpt lat="46.59999" lon="0.61323">
        <ele>77.5</ele>
        <time>2010-09-26T08:34:08Z</time>
      </trkpt>
      <trkpt lat="46.59999" lon="0.61323">
        <ele>77.5</ele>
        <time>2010-09-26T08:34:09Z</time>
      </trkpt>
      <trkpt lat="46.59999" lon="0.61323">
        <ele>77.5</ele>
        <time>2010-09-26T08:34:10Z</time>
      </trkpt>
      <trkpt lat="46.59999" lon="0.61323">
        <ele>77.5</ele>
        <time>2010-09-26T08:34:11Z</time>
      </trkpt>
      <trkpt lat="46.59999" lon="0.61323">
        <ele>77.5</ele>
        <time>2010-09-26T08:34:12Z</time>
      </trkpt>
      <trkpt lat="46.59999" lon="0.61323">
        <ele>77.5</ele>
        <time>2010-09-26T08:34:13Z</time>
      </trkpt>
      <trkpt lat="46.59999" lon="0.61323">
        <ele>77.5</ele>
        <time>2010-09-26T08:34:14Z</time>
      </trkpt>
      <trkpt lat="46.59999" lon="0.61323">
        <ele>77.5</ele>
        <time>2010-09-26T08:34:15Z</time>
      </trkpt>
      <trkpt lat="46.59999" lon="0.61323">
        <ele>77.5</ele>
        <time>2010-09-26T08:34:16Z</time>
      </trkpt>
      <trkpt lat="46.59999" lon="0.61323">
        <ele>77.5</ele>
        <time>2010-09-26T08:34:17Z</time>
      </trkpt>
      <trkpt lat="46.59999" lon="0.61323">
        <ele>77.5</ele>
        <time>2010-09-26T08:34:18Z</time>
      </trkpt>
      <trkpt lat="46.59999" lon="0.61323">
        <ele>77.5</ele>
        <time>2010-09-26T08:34:19Z</time>
      </trkpt>
      <trkpt lat="46.59999" lon="0.61323">
        <ele>77.5</ele>
        <time>2010-09-26T08:34:20Z</time>
      </trkpt>
      <trkpt lat="46.59999" lon="0.61323">
        <ele>77.5</ele>
        <time>2010-09-26T08:34:21Z</time>
      </trkpt>
      <trkpt lat="46.59999" lon="0.61323">
        <ele>77.5</ele>
        <time>2010-09-26T08:34:22Z</time>
      </trkpt>
      <trkpt lat="46.59999" lon="0.61323">
        <ele>77.5</ele>
        <time>2010-09-26T08:34:23Z</time>
      </trkpt>
      <trkpt lat="46.59999" lon="0.61323">
        <ele>77.5</ele>
        <time>2010-09-26T08:34:24Z</time>
      </trkpt>
      <trkpt lat="46.59999" lon="0.61323">
        <ele>77.5</ele>
        <time>2010-09-26T08:34:25Z</time>
      </trkpt>
      <trkpt lat="46.59999" lon="0.61323">
        <ele>77.5</ele>
        <time>2010-09-26T08:34:26Z</time>
      </trkpt>
      <trkpt lat="46.59999" lon="0.61323">
        <ele>77.5</ele>
        <time>2010-09-26T08:34:27Z</time>
      </trkpt>
      <trkpt lat="46.59999" lon="0.61323">
        <ele>77.5</ele>
        <time>2010-09-26T08:34:28Z</time>
      </trkpt>
      <trkpt lat="46.59999" lon="0.61323">
        <ele>77.5</ele>
        <time>2010-09-26T08:34:29Z</time>
      </trkpt>
      <trkpt lat="46.59999" lon="0.61323">
        <ele>77.5</ele>
        <time>2010-09-26T08:34:30Z</time>
      </trkpt>
      <trkpt lat="46.59999" lon="0.61323">
        <ele>77.5</ele>
        <time>2010-09-26T08:34:31Z</time>
      </trkpt>
      <trkpt lat="46.59999" lon="0.61323">
        <ele>77.5</ele>
        <time>2010-09-26T08:34:32Z</time>
      </trkpt>
      <trkpt lat="46.59999" lon="0.61323">
        <ele>77.5</ele>
        <time>2010-09-26T08:34:33Z</time>
      </trkpt>
      <trkpt lat="46.59999" lon="0.61323">
        <ele>77.5</ele>
        <time>2010-09-26T08:34:34Z</time>
      </trkpt>
      <trkpt lat="46.59999" lon="0.61323">
        <ele>77.5</ele>
        <time>2010-09-26T08:34:35Z</time>
      </trkpt>
      <trkpt lat="46.59999" lon="0.61323">
        <ele>77.5</ele>
        <time>2010-09-26T08:34:36Z</time>
      </trkpt>
      <trkpt lat="46.59999" lon="0.61323">
        <ele>77.5</ele>
        <time>2010-09-26T08:34:37Z</time>
      </trkpt>
      <trkpt lat="46.59999" lon="0.61323">
        <ele>77.5</ele>
        <time>2010-09-26T08:34:38Z</time>
      </trkpt>
      <trkpt lat="46.59999" lon="0.61323">
        <ele>77.5</ele>
        <time>2010-09-26T08:34:39Z</time>
      </trkpt>
      <trkpt lat="46.59999" lon="0.61323">
        <ele>77.5</ele>
        <time>2010-09-26T08:34:40Z</time>
      </trkpt>
      <trkpt lat="46.59999" lon="0.61323">
        <ele>77.5</ele>
        <time>2010-09-26T08:34:41Z</time>
      </trkpt>
      <trkpt lat="46.59999" lon="0.61323">
        <ele>77.5</ele>
        <time>2010-09-26T08:34:42Z</time>
      </trkpt>
      <trkpt lat="46.59999" lon="0.61323">
        <ele>77.5</ele>
        <time>2010-09-26T08:34:43Z</time>
      </trkpt>
      <trkpt lat="46.59999" lon="0.61323">
        <ele>77.5</ele>
        <time>2010-09-26T08:34:44Z</time>
      </trkpt>
      <trkpt lat="46.59999" lon="0.61323">
        <ele>77.5</ele>
        <time>2010-09-26T08:34:45Z</time>
      </trkpt>
      <trkpt lat="46.59999" lon="0.61323">
        <ele>77.5</ele>
        <time>2010-09-26T08:34:46Z</time>
      </trkpt>
      <trkpt lat="46.59999" lon="0.61323">
        <ele>77.5</ele>
        <time>2010-09-26T08:34:47Z</time>
      </trkpt>
      <trkpt lat="46.59999" lon="0.61323">
        <ele>77.5</ele>
        <time>2010-09-26T08:34:48Z</time>
      </trkpt>
      <trkpt lat="46.59999" lon="0.61323">
        <ele>77.5</ele>
        <time>2010-09-26T08:34:49Z</time>
      </trkpt>
      <trkpt lat="46.59999" lon="0.61323">
        <ele>77.5</ele>
        <time>2010-09-26T08:34:50Z</time>
      </trkpt>
      <trkpt lat="46.59999" lon="0.61323">
        <ele>77.5</ele>
        <time>2010-09-26T08:34:51Z</time>
      </trkpt>
      <trkpt lat="46.59999" lon="0.61323">
        <ele>77.5</ele>
        <time>2010-09-26T08:34:52Z</time>
      </trkpt>
      <trkpt lat="46.59999" lon="0.61323">
        <ele>77.5</ele>
        <time>2010-09-26T08:34:53Z</time>
      </trkpt>
      <trkpt lat="46.59999" lon="0.61323">
        <ele>77.5</ele>
        <time>2010-09-26T08:34:54Z</time>
      </trkpt>
      <trkpt lat="46.59999" lon="0.61323">
        <ele>77.5</ele>
        <time>2010-09-26T08:34:55Z</time>
      </trkpt>
      <trkpt lat="46.59999" lon="0.61323">
        <ele>77.5</ele>
        <time>2010-09-26T08:34:56Z</time>
      </trkpt>
      <trkpt lat="46.59999" lon="0.61323">
        <ele>77.5</ele>
        <time>2010-09-26T08:34:57Z</time>
      </trkpt>
      <trkpt lat="46.59999" lon="0.61323">
        <ele>77.5</ele>
        <time>2010-09-26T08:34:58Z</time>
      </trkpt>
      <trkpt lat="46.59999" lon="0.61323">
        <ele>77.5</ele>
        <time>2010-09-26T08:34:59Z</time>
      </trkpt>
      <trkpt lat="46.59999" lon="0.61323">
        <ele>77.5</ele>
        <time>2010-09-26T08:35:00Z</time>
      </trkpt>
      <trkpt lat="46.59999" lon="0.61323">
        <ele>77.5</ele>
        <time>2010-09-26T08:35:01Z</time>
      </trkpt>
      <trkpt lat="46.59999" lon="0.61323">
        <ele>77.5</ele>
        <time>2010-09-26T08:35:02Z</time>
      </trkpt>
      <trkpt lat="46.59999" lon="0.61322">
        <ele>78</ele>
        <time>2010-09-26T08:35:03Z</time>
      </trkpt>
      <trkpt lat="46.59999" lon="0.61318">
        <ele>78.6</ele>
        <time>2010-09-26T08:35:05Z</time>
      </trkpt>
      <trkpt lat="46.59999" lon="0.61317">
        <ele>78.5</ele>
        <time>2010-09-26T08:35:06Z</time>
      </trkpt>
      <trkpt lat="46.59997" lon="0.61319">
        <ele>78.8</ele>
        <time>2010-09-26T08:35:07Z</time>
      </trkpt>
      <trkpt lat="46.59995" lon="0.61321">
        <ele>79.5</ele>
        <time>2010-09-26T08:35:08Z</time>
      </trkpt>
      <trkpt lat="46.59993" lon="0.61324">
        <ele>79.5</ele>
        <time>2010-09-26T08:35:09Z</time>
      </trkpt>
      <trkpt lat="46.59992" lon="0.61328">
        <ele>79.4</ele>
        <time>2010-09-26T08:35:10Z</time>
      </trkpt>
      <trkpt lat="46.59993" lon="0.61331">
        <ele>79.5</ele>
        <time>2010-09-26T08:35:11Z</time>
      </trkpt>
      <trkpt lat="46.59995" lon="0.61336">
        <ele>79.1</ele>
        <time>2010-09-26T08:35:12Z</time>
      </trkpt>
      <trkpt lat="46.6" lon="0.61348">
        <ele>78.5</ele>
        <time>2010-09-26T08:35:14Z</time>
      </trkpt>
      <trkpt lat="46.60002" lon="0.61358">
        <ele>78.5</ele>
        <time>2010-09-26T08:35:15Z</time>
      </trkpt>
      <trkpt lat="46.60002" lon="0.61372">
        <ele>78.8</ele>
        <time>2010-09-26T08:35:16Z</time>
      </trkpt>
      <trkpt lat="46.60003" lon="0.61397">
        <ele>78.9</ele>
        <time>2010-09-26T08:35:18Z</time>
      </trkpt>
      <trkpt lat="46.60004" lon="0.61407">
        <ele>79.3</ele>
        <time>2010-09-26T08:35:19Z</time>
      </trkpt>
      <trkpt lat="46.60009" lon="0.61421">
        <ele>79.3</ele>
        <time>2010-09-26T08:35:21Z</time>
      </trkpt>
      <trkpt lat="46.60013" lon="0.61431">
        <ele>79.6</ele>
        <time>2010-09-26T08:35:28Z</time>
      </trkpt>
      <trkpt lat="46.60014" lon="0.6143">
        <ele>80.1</ele>
        <time>2010-09-26T08:35:29Z</time>
      </trkpt>
      <trkpt lat="46.60014" lon="0.6143">
        <ele>80.1</ele>
        <time>2010-09-26T08:35:30Z</time>
      </trkpt>
      <trkpt lat="46.60014" lon="0.6143">
        <ele>80.1</ele>
        <time>2010-09-26T08:35:31Z</time>
      </trkpt>
      <trkpt lat="46.60014" lon="0.6143">
        <ele>80.1</ele>
        <time>2010-09-26T08:35:32Z</time>
      </trkpt>
      <trkpt lat="46.60014" lon="0.6143">
        <ele>80.1</ele>
        <time>2010-09-26T08:35:33Z</time>
      </trkpt>
      <trkpt lat="46.60014" lon="0.6143">
        <ele>80.1</ele>
        <time>2010-09-26T08:35:34Z</time>
      </trkpt>
      <trkpt lat="46.60014" lon="0.6143">
        <ele>80.1</ele>
        <time>2010-09-26T08:35:35Z</time>
      </trkpt>
      <trkpt lat="46.60014" lon="0.6143">
        <ele>80.1</ele>
        <time>2010-09-26T08:35:36Z</time>
      </trkpt>
      <trkpt lat="46.60014" lon="0.6143">
        <ele>80.1</ele>
        <time>2010-09-26T08:35:37Z</time>
      </trkpt>
      <trkpt lat="46.60014" lon="0.6143">
        <ele>80.1</ele>
        <time>2010-09-26T08:35:38Z</time>
      </trkpt>
      <trkpt lat="46.60014" lon="0.6143">
        <ele>80.1</ele>
        <time>2010-09-26T08:35:39Z</time>
      </trkpt>
      <trkpt lat="46.60014" lon="0.6143">
        <ele>80.1</ele>
        <time>2010-09-26T08:35:40Z</time>
      </trkpt>
      <trkpt lat="46.60014" lon="0.6143">
        <ele>80.1</ele>
        <time>2010-09-26T08:35:41Z</time>
      </trkpt>
      <trkpt lat="46.60014" lon="0.6143">
        <ele>80.1</ele>
        <time>2010-09-26T08:35:42Z</time>
      </trkpt>
      <trkpt lat="46.60014" lon="0.6143">
        <ele>80.1</ele>
        <time>2010-09-26T08:35:43Z</time>
      </trkpt>
      <trkpt lat="46.60014" lon="0.6143">
        <ele>80.1</ele>
        <time>2010-09-26T08:35:44Z</time>
      </trkpt>
      <trkpt lat="46.60014" lon="0.6143">
        <ele>80.1</ele>
        <time>2010-09-26T08:35:45Z</time>
      </trkpt>
      <trkpt lat="46.60014" lon="0.6143">
        <ele>80.1</ele>
        <time>2010-09-26T08:35:46Z</time>
      </trkpt>
      <trkpt lat="46.60014" lon="0.6143">
        <ele>80.1</ele>
        <time>2010-09-26T08:35:47Z</time>
      </trkpt>
      <trkpt lat="46.60014" lon="0.6143">
        <ele>80.1</ele>
        <time>2010-09-26T08:35:48Z</time>
      </trkpt>
      <trkpt lat="46.60014" lon="0.6143">
        <ele>80.1</ele>
        <time>2010-09-26T08:35:49Z</time>
      </trkpt>
      <trkpt lat="46.60014" lon="0.6143">
        <ele>80.1</ele>
        <time>2010-09-26T08:35:50Z</time>
      </trkpt>
      <trkpt lat="46.60014" lon="0.6143">
        <ele>80.1</ele>
        <time>2010-09-26T08:35:51Z</time>
      </trkpt>
      <trkpt lat="46.60014" lon="0.6143">
        <ele>80.1</ele>
        <time>2010-09-26T08:35:52Z</time>
      </trkpt>
      <trkpt lat="46.60014" lon="0.6143">
        <ele>80.1</ele>
        <time>2010-09-26T08:35:53Z</time>
      </trkpt>
      <trkpt lat="46.60014" lon="0.61431">
        <ele>80</ele>
        <time>2010-09-26T08:35:54Z</time>
      </trkpt>
      <trkpt lat="46.60014" lon="0.61432">
        <ele>79.5</ele>
        <time>2010-09-26T08:35:58Z</time>
      </trkpt>
      <trkpt lat="46.60014" lon="0.61432">
        <ele>79.4</ele>
        <time>2010-09-26T08:35:59Z</time>
      </trkpt>
      <trkpt lat="46.60013" lon="0.61437">
        <ele>79.1</ele>
        <time>2010-09-26T08:36:01Z</time>
      </trkpt>
      <trkpt lat="46.60013" lon="0.61439">
        <ele>79.4</ele>
        <time>2010-09-26T08:36:02Z</time>
      </trkpt>
      <trkpt lat="46.60009" lon="0.61448">
        <ele>80.1</ele>
        <time>2010-09-26T08:36:05Z</time>
      </trkpt>
      <trkpt lat="46.60006" lon="0.6145">
        <ele>80.6</ele>
        <time>2010-09-26T08:36:06Z</time>
      </trkpt>
      <trkpt lat="46.59991" lon="0.61458">
        <ele>81.1</ele>
        <time>2010-09-26T08:36:09Z</time>
      </trkpt>
      <trkpt lat="46.59992" lon="0.61464">
        <ele>81.4</ele>
        <time>2010-09-26T08:36:12Z</time>
      </trkpt>
      <trkpt lat="46.59989" lon="0.61466">
        <ele>81.5</ele>
        <time>2010-09-26T08:36:14Z</time>
      </trkpt>
      <trkpt lat="46.59986" lon="0.6147">
        <ele>81.4</ele>
        <time>2010-09-26T08:36:15Z</time>
      </trkpt>
      <trkpt lat="46.59967" lon="0.61491">
        <ele>82.5</ele>
        <time>2010-09-26T08:36:20Z</time>
      </trkpt>
      <trkpt lat="46.59965" lon="0.61497">
        <ele>83</ele>
        <time>2010-09-26T08:36:21Z</time>
      </trkpt>
      <trkpt lat="46.59963" lon="0.61508">
        <ele>85.4</ele>
        <time>2010-09-26T08:36:24Z</time>
      </trkpt>
      <trkpt lat="46.59963" lon="0.61507">
        <ele>85.5</ele>
        <time>2010-09-26T08:36:25Z</time>
      </trkpt>
      <trkpt lat="46.59962" lon="0.61506">
        <ele>85.3</ele>
        <time>2010-09-26T08:36:26Z</time>
      </trkpt>
      <trkpt lat="46.59961" lon="0.61505">
        <ele>85.3</ele>
        <time>2010-09-26T08:36:27Z</time>
      </trkpt>
      <trkpt lat="46.5996" lon="0.61502">
        <ele>85.5</ele>
        <time>2010-09-26T08:36:28Z</time>
      </trkpt>
      <trkpt lat="46.5996" lon="0.61499">
        <ele>85.9</ele>
        <time>2010-09-26T08:36:29Z</time>
      </trkpt>
      <trkpt lat="46.59961" lon="0.61495">
        <ele>86.1</ele>
        <time>2010-09-26T08:36:30Z</time>
      </trkpt>
      <trkpt lat="46.59964" lon="0.61486">
        <ele>86.6</ele>
        <time>2010-09-26T08:36:32Z</time>
      </trkpt>
      <trkpt lat="46.59967" lon="0.6148">
        <ele>87.1</ele>
        <time>2010-09-26T08:36:34Z</time>
      </trkpt>
      <trkpt lat="46.59972" lon="0.61472">
        <ele>88.5</ele>
        <time>2010-09-26T08:36:37Z</time>
      </trkpt>
      <trkpt lat="46.59973" lon="0.61472">
        <ele>88.9</ele>
        <time>2010-09-26T08:36:38Z</time>
      </trkpt>
      <trkpt lat="46.59975" lon="0.61471">
        <ele>89.5</ele>
        <time>2010-09-26T08:36:39Z</time>
      </trkpt>
      <trkpt lat="46.59976" lon="0.6147">
        <ele>89.5</ele>
        <time>2010-09-26T08:36:40Z</time>
      </trkpt>
      <trkpt lat="46.59974" lon="0.61468">
        <ele>89.9</ele>
        <time>2010-09-26T08:36:41Z</time>
      </trkpt>
      <trkpt lat="46.59973" lon="0.61466">
        <ele>89.9</ele>
        <time>2010-09-26T08:36:42Z</time>
      </trkpt>
      <trkpt lat="46.59973" lon="0.61466">
        <ele>89.9</ele>
        <time>2010-09-26T08:36:43Z</time>
      </trkpt>
      <trkpt lat="46.59973" lon="0.61466">
        <ele>89.9</ele>
        <time>2010-09-26T08:36:44Z</time>
      </trkpt>
      <trkpt lat="46.59973" lon="0.61466">
        <ele>89.9</ele>
        <time>2010-09-26T08:36:45Z</time>
      </trkpt>
      <trkpt lat="46.59973" lon="0.61466">
        <ele>89.9</ele>
        <time>2010-09-26T08:36:46Z</time>
      </trkpt>
      <trkpt lat="46.59973" lon="0.61466">
        <ele>89.9</ele>
        <time>2010-09-26T08:36:47Z</time>
      </trkpt>
      <trkpt lat="46.59973" lon="0.61466">
        <ele>89.9</ele>
        <time>2010-09-26T08:36:48Z</time>
      </trkpt>
      <trkpt lat="46.59973" lon="0.61466">
        <ele>89.9</ele>
        <time>2010-09-26T08:36:49Z</time>
      </trkpt>
      <trkpt lat="46.59973" lon="0.61466">
        <ele>89.9</ele>
        <time>2010-09-26T08:36:50Z</time>
      </trkpt>
      <trkpt lat="46.59973" lon="0.61466">
        <ele>89.9</ele>
        <time>2010-09-26T08:36:51Z</time>
      </trkpt>
      <trkpt lat="46.59973" lon="0.61466">
        <ele>89.9</ele>
        <time>2010-09-26T08:36:52Z</time>
      </trkpt>
      <trkpt lat="46.59973" lon="0.61466">
        <ele>89.9</ele>
        <time>2010-09-26T08:36:53Z</time>
      </trkpt>
      <trkpt lat="46.59973" lon="0.61466">
        <ele>89.9</ele>
        <time>2010-09-26T08:36:54Z</time>
      </trkpt>
      <trkpt lat="46.59973" lon="0.61466">
        <ele>89.9</ele>
        <time>2010-09-26T08:36:55Z</time>
      </trkpt>
      <trkpt lat="46.59973" lon="0.61466">
        <ele>89.9</ele>
        <time>2010-09-26T08:36:56Z</time>
      </trkpt>
      <trkpt lat="46.59972" lon="0.61465">
        <ele>89.6</ele>
        <time>2010-09-26T08:36:57Z</time>
      </trkpt>
      <trkpt lat="46.59972" lon="0.61458">
        <ele>89</ele>
        <time>2010-09-26T08:36:59Z</time>
      </trkpt>
      <trkpt lat="46.59973" lon="0.61446">
        <ele>88.1</ele>
        <time>2010-09-26T08:37:02Z</time>
      </trkpt>
      <trkpt lat="46.5998" lon="0.61431">
        <ele>87.1</ele>
        <time>2010-09-26T08:37:06Z</time>
      </trkpt>
      <trkpt lat="46.59983" lon="0.61429">
        <ele>86.9</ele>
        <time>2010-09-26T08:37:07Z</time>
      </trkpt>
      <trkpt lat="46.59986" lon="0.61429">
        <ele>86.5</ele>
        <time>2010-09-26T08:37:08Z</time>
      </trkpt>
      <trkpt lat="46.59988" lon="0.61431">
        <ele>85.8</ele>
        <time>2010-09-26T08:37:09Z</time>
      </trkpt>
      <trkpt lat="46.5999" lon="0.61432">
        <ele>85.6</ele>
        <time>2010-09-26T08:37:10Z</time>
      </trkpt>
      <trkpt lat="46.59992" lon="0.61433">
        <ele>85.1</ele>
        <time>2010-09-26T08:37:11Z</time>
      </trkpt>
      <trkpt lat="46.59992" lon="0.61433">
        <ele>85.1</ele>
        <time>2010-09-26T08:37:12Z</time>
      </trkpt>
      <trkpt lat="46.59992" lon="0.61433">
        <ele>85.1</ele>
        <time>2010-09-26T08:37:13Z</time>
      </trkpt>
      <trkpt lat="46.59992" lon="0.61433">
        <ele>85.1</ele>
        <time>2010-09-26T08:37:14Z</time>
      </trkpt>
      <trkpt lat="46.59992" lon="0.61433">
        <ele>85.1</ele>
        <time>2010-09-26T08:37:15Z</time>
      </trkpt>
      <trkpt lat="46.59992" lon="0.61433">
        <ele>85.1</ele>
        <time>2010-09-26T08:37:16Z</time>
      </trkpt>
      <trkpt lat="46.59992" lon="0.61433">
        <ele>85.1</ele>
        <time>2010-09-26T08:37:17Z</time>
      </trkpt>
      <trkpt lat="46.59993" lon="0.61433">
        <ele>85.3</ele>
        <time>2010-09-26T08:37:18Z</time>
      </trkpt>
      <trkpt lat="46.59993" lon="0.61433">
        <ele>86.3</ele>
        <time>2010-09-26T08:37:19Z</time>
      </trkpt>
      <trkpt lat="46.59993" lon="0.61433">
        <ele>86.3</ele>
        <time>2010-09-26T08:37:20Z</time>
      </trkpt>
      <trkpt lat="46.59993" lon="0.61433">
        <ele>86.3</ele>
        <time>2010-09-26T08:37:21Z</time>
      </trkpt>
      <trkpt lat="46.59993" lon="0.61433">
        <ele>86.3</ele>
        <time>2010-09-26T08:37:22Z</time>
      </trkpt>
      <trkpt lat="46.59993" lon="0.61433">
        <ele>86.3</ele>
        <time>2010-09-26T08:37:23Z</time>
      </trkpt>
      <trkpt lat="46.59993" lon="0.61433">
        <ele>86.3</ele>
        <time>2010-09-26T08:37:24Z</time>
      </trkpt>
      <trkpt lat="46.59993" lon="0.61433">
        <ele>86.3</ele>
        <time>2010-09-26T08:37:25Z</time>
      </trkpt>
      <trkpt lat="46.59993" lon="0.61433">
        <ele>86.3</ele>
        <time>2010-09-26T08:37:26Z</time>
      </trkpt>
      <trkpt lat="46.59993" lon="0.61433">
        <ele>86.3</ele>
        <time>2010-09-26T08:37:27Z</time>
      </trkpt>
      <trkpt lat="46.59993" lon="0.61433">
        <ele>86.3</ele>
        <time>2010-09-26T08:37:28Z</time>
      </trkpt>
      <trkpt lat="46.59993" lon="0.61433">
        <ele>86.3</ele>
        <time>2010-09-26T08:37:29Z</time>
      </trkpt>
      <trkpt lat="46.59993" lon="0.61433">
        <ele>86.3</ele>
        <time>2010-09-26T08:37:30Z</time>
      </trkpt>
      <trkpt lat="46.59993" lon="0.61433">
        <ele>86.3</ele>
        <time>2010-09-26T08:37:31Z</time>
      </trkpt>
      <trkpt lat="46.59993" lon="0.61433">
        <ele>86.3</ele>
        <time>2010-09-26T08:37:32Z</time>
      </trkpt>
      <trkpt lat="46.59993" lon="0.61433">
        <ele>86.3</ele>
        <time>2010-09-26T08:37:33Z</time>
      </trkpt>
      <trkpt lat="46.59993" lon="0.61433">
        <ele>86.3</ele>
        <time>2010-09-26T08:37:34Z</time>
      </trkpt>
      <trkpt lat="46.59993" lon="0.61433">
        <ele>86.3</ele>
        <time>2010-09-26T08:37:35Z</time>
      </trkpt>
      <trkpt lat="46.59994" lon="0.61433">
        <ele>86.3</ele>
        <time>2010-09-26T08:37:36Z</time>
      </trkpt>
      <trkpt lat="46.59994" lon="0.61433">
        <ele>86.3</ele>
        <time>2010-09-26T08:37:37Z</time>
      </trkpt>
      <trkpt lat="46.59994" lon="0.61433">
        <ele>86.3</ele>
        <time>2010-09-26T08:37:38Z</time>
      </trkpt>
      <trkpt lat="46.59994" lon="0.61433">
        <ele>86.3</ele>
        <time>2010-09-26T08:37:39Z</time>
      </trkpt>
      <trkpt lat="46.59994" lon="0.61433">
        <ele>86.3</ele>
        <time>2010-09-26T08:37:40Z</time>
      </trkpt>
      <trkpt lat="46.59994" lon="0.61433">
        <ele>86.3</ele>
        <time>2010-09-26T08:37:41Z</time>
      </trkpt>
      <trkpt lat="46.59994" lon="0.61433">
        <ele>86.3</ele>
        <time>2010-09-26T08:37:42Z</time>
      </trkpt>
      <trkpt lat="46.59994" lon="0.61433">
        <ele>86.3</ele>
        <time>2010-09-26T08:37:43Z</time>
      </trkpt>
      <trkpt lat="46.59994" lon="0.61433">
        <ele>86.3</ele>
        <time>2010-09-26T08:37:44Z</time>
      </trkpt>
      <trkpt lat="46.59994" lon="0.61433">
        <ele>86.3</ele>
        <time>2010-09-26T08:37:45Z</time>
      </trkpt>
      <trkpt lat="46.59994" lon="0.61433">
        <ele>86.3</ele>
        <time>2010-09-26T08:37:46Z</time>
      </trkpt>
      <trkpt lat="46.59994" lon="0.61433">
        <ele>86.3</ele>
        <time>2010-09-26T08:37:47Z</time>
      </trkpt>
      <trkpt lat="46.59994" lon="0.61433">
        <ele>86.3</ele>
        <time>2010-09-26T08:37:48Z</time>
      </trkpt>
      <trkpt lat="46.59994" lon="0.61433">
        <ele>86.3</ele>
        <time>2010-09-26T08:37:49Z</time>
      </trkpt>
      <trkpt lat="46.59994" lon="0.61433">
        <ele>86.3</ele>
        <time>2010-09-26T08:37:50Z</time>
      </trkpt>
      <trkpt lat="46.59994" lon="0.61433">
        <ele>86.3</ele>
        <time>2010-09-26T08:37:51Z</time>
      </trkpt>
      <trkpt lat="46.59994" lon="0.61433">
        <ele>86.3</ele>
        <time>2010-09-26T08:37:52Z</time>
      </trkpt>
      <trkpt lat="46.59994" lon="0.61433">
        <ele>86.3</ele>
        <time>2010-09-26T08:37:53Z</time>
      </trkpt>
      <trkpt lat="46.59994" lon="0.61433">
        <ele>86.3</ele>
        <time>2010-09-26T08:37:54Z</time>
      </trkpt>
      <trkpt lat="46.59994" lon="0.61433">
        <ele>86.3</ele>
        <time>2010-09-26T08:37:55Z</time>
      </trkpt>
      <trkpt lat="46.59994" lon="0.61433">
        <ele>86.3</ele>
        <time>2010-09-26T08:37:56Z</time>
      </trkpt>
      <trkpt lat="46.59994" lon="0.61433">
        <ele>86.3</ele>
        <time>2010-09-26T08:37:57Z</time>
      </trkpt>
      <trkpt lat="46.59994" lon="0.61433">
        <ele>86.3</ele>
        <time>2010-09-26T08:37:58Z</time>
      </trkpt>
      <trkpt lat="46.59994" lon="0.61433">
        <ele>86.3</ele>
        <time>2010-09-26T08:37:59Z</time>
      </trkpt>
      <trkpt lat="46.59994" lon="0.61433">
        <ele>86.3</ele>
        <time>2010-09-26T08:38:00Z</time>
      </trkpt>
      <trkpt lat="46.59994" lon="0.61433">
        <ele>86.3</ele>
        <time>2010-09-26T08:38:01Z</time>
      </trkpt>
      <trkpt lat="46.59994" lon="0.61433">
        <ele>86.3</ele>
        <time>2010-09-26T08:38:02Z</time>
      </trkpt>
      <trkpt lat="46.59994" lon="0.61433">
        <ele>86.3</ele>
        <time>2010-09-26T08:38:03Z</time>
      </trkpt>
      <trkpt lat="46.59994" lon="0.61433">
        <ele>86.3</ele>
        <time>2010-09-26T08:38:04Z</time>
      </trkpt>
      <trkpt lat="46.59994" lon="0.61433">
        <ele>86.3</ele>
        <time>2010-09-26T08:38:05Z</time>
      </trkpt>
      <trkpt lat="46.59994" lon="0.61433">
        <ele>86.3</ele>
        <time>2010-09-26T08:38:06Z</time>
      </trkpt>
      <trkpt lat="46.59994" lon="0.61433">
        <ele>86.3</ele>
        <time>2010-09-26T08:38:07Z</time>
      </trkpt>
      <trkpt lat="46.59994" lon="0.61433">
        <ele>86.3</ele>
        <time>2010-09-26T08:38:08Z</time>
      </trkpt>
      <trkpt lat="46.59994" lon="0.61432">
        <ele>86.5</ele>
        <time>2010-09-26T08:38:09Z</time>
      </trkpt>
      <trkpt lat="46.59994" lon="0.61432">
        <ele>86.5</ele>
        <time>2010-09-26T08:38:10Z</time>
      </trkpt>
      <trkpt lat="46.59994" lon="0.61432">
        <ele>86.4</ele>
        <time>2010-09-26T08:38:11Z</time>
      </trkpt>
      <trkpt lat="46.59994" lon="0.61432">
        <ele>86.4</ele>
        <time>2010-09-26T08:38:12Z</time>
      </trkpt>
      <trkpt lat="46.59994" lon="0.61432">
        <ele>86.4</ele>
        <time>2010-09-26T08:38:13Z</time>
      </trkpt>
      <trkpt lat="46.59994" lon="0.61432">
        <ele>86.4</ele>
        <time>2010-09-26T08:38:14Z</time>
      </trkpt>
      <trkpt lat="46.59994" lon="0.61432">
        <ele>86.4</ele>
        <time>2010-09-26T08:38:15Z</time>
      </trkpt>
      <trkpt lat="46.59994" lon="0.61432">
        <ele>86.4</ele>
        <time>2010-09-26T08:38:16Z</time>
      </trkpt>
      <trkpt lat="46.59994" lon="0.61432">
        <ele>86.4</ele>
        <time>2010-09-26T08:38:17Z</time>
      </trkpt>
      <trkpt lat="46.59994" lon="0.61432">
        <ele>86.4</ele>
        <time>2010-09-26T08:38:18Z</time>
      </trkpt>
      <trkpt lat="46.59994" lon="0.61432">
        <ele>86.4</ele>
        <time>2010-09-26T08:38:19Z</time>
      </trkpt>
      <trkpt lat="46.59994" lon="0.61432">
        <ele>86.4</ele>
        <time>2010-09-26T08:38:20Z</time>
      </trkpt>
      <trkpt lat="46.59994" lon="0.61432">
        <ele>86.4</ele>
        <time>2010-09-26T08:38:21Z</time>
      </trkpt>
      <trkpt lat="46.59994" lon="0.61432">
        <ele>86.4</ele>
        <time>2010-09-26T08:38:22Z</time>
      </trkpt>
      <trkpt lat="46.59994" lon="0.61432">
        <ele>86.4</ele>
        <time>2010-09-26T08:38:23Z</time>
      </trkpt>
      <trkpt lat="46.59994" lon="0.61432">
        <ele>86.4</ele>
        <time>2010-09-26T08:38:24Z</time>
      </trkpt>
      <trkpt lat="46.59994" lon="0.61432">
        <ele>86.4</ele>
        <time>2010-09-26T08:38:25Z</time>
      </trkpt>
      <trkpt lat="46.59994" lon="0.61432">
        <ele>86.4</ele>
        <time>2010-09-26T08:38:26Z</time>
      </trkpt>
      <trkpt lat="46.59994" lon="0.61432">
        <ele>86.4</ele>
        <time>2010-09-26T08:38:27Z</time>
      </trkpt>
      <trkpt lat="46.59994" lon="0.61432">
        <ele>86.4</ele>
        <time>2010-09-26T08:38:28Z</time>
      </trkpt>
      <trkpt lat="46.59994" lon="0.61432">
        <ele>86.9</ele>
        <time>2010-09-26T08:38:29Z</time>
      </trkpt>
      <trkpt lat="46.59995" lon="0.61433">
        <ele>86.8</ele>
        <time>2010-09-26T08:41:11Z</time>
      </trkpt>
      <trkpt lat="46.59996" lon="0.61433">
        <ele>87</ele>
        <time>2010-09-26T08:41:12Z</time>
      </trkpt>
      <trkpt lat="46.59997" lon="0.61434">
        <ele>87</ele>
        <time>2010-09-26T08:41:21Z</time>
      </trkpt>
      <trkpt lat="46.59998" lon="0.61434">
        <ele>87</ele>
        <time>2010-09-26T08:41:22Z</time>
      </trkpt>
      <trkpt lat="46.59999" lon="0.61435">
        <ele>87</ele>
        <time>2010-09-26T08:41:23Z</time>
      </trkpt>
      <trkpt lat="46.6" lon="0.61436">
        <ele>87.6</ele>
        <time>2010-09-26T08:41:24Z</time>
      </trkpt>
      <trkpt lat="46.60002" lon="0.61437">
        <ele>88.1</ele>
        <time>2010-09-26T08:41:25Z</time>
      </trkpt>
      <trkpt lat="46.60007" lon="0.61441">
        <ele>87.9</ele>
        <time>2010-09-26T08:41:28Z</time>
      </trkpt>
      <trkpt lat="46.60008" lon="0.61443">
        <ele>88</ele>
        <time>2010-09-26T08:41:29Z</time>
      </trkpt>
      <trkpt lat="46.6001" lon="0.61446">
        <ele>88</ele>
        <time>2010-09-26T08:41:30Z</time>
      </trkpt>
      <trkpt lat="46.60049" lon="0.61494">
        <ele>87.6</ele>
        <time>2010-09-26T08:41:39Z</time>
      </trkpt>
      <trkpt lat="46.60052" lon="0.61502">
        <ele>87.9</ele>
        <time>2010-09-26T08:41:40Z</time>
      </trkpt>
      <trkpt lat="46.60055" lon="0.61512">
        <ele>87.9</ele>
        <time>2010-09-26T08:41:41Z</time>
      </trkpt>
      <trkpt lat="46.60059" lon="0.61534">
        <ele>88.1</ele>
        <time>2010-09-26T08:41:43Z</time>
      </trkpt>
      <trkpt lat="46.60062" lon="0.61556">
        <ele>88.5</ele>
        <time>2010-09-26T08:41:45Z</time>
      </trkpt>
      <trkpt lat="46.60064" lon="0.6159">
        <ele>89</ele>
        <time>2010-09-26T08:41:48Z</time>
      </trkpt>
      <trkpt lat="46.60063" lon="0.61602">
        <ele>88.6</ele>
        <time>2010-09-26T08:41:49Z</time>
      </trkpt>
      <trkpt lat="46.60063" lon="0.61667">
        <ele>90</ele>
        <time>2010-09-26T08:41:54Z</time>
      </trkpt>
      <trkpt lat="46.60064" lon="0.61679">
        <ele>90.3</ele>
        <time>2010-09-26T08:41:55Z</time>
      </trkpt>
      <trkpt lat="46.60064" lon="0.61691">
        <ele>90.5</ele>
        <time>2010-09-26T08:41:56Z</time>
      </trkpt>
      <trkpt lat="46.60064" lon="0.61869">
        <ele>96.8</ele>
        <time>2010-09-26T08:42:13Z</time>
      </trkpt>
      <trkpt lat="46.60063" lon="0.61874">
        <ele>97.1</ele>
        <time>2010-09-26T08:42:14Z</time>
      </trkpt>
      <trkpt lat="46.60064" lon="0.61879">
        <ele>97.5</ele>
        <time>2010-09-26T08:42:15Z</time>
      </trkpt>
      <trkpt lat="46.60065" lon="0.61884">
        <ele>97.9</ele>
        <time>2010-09-26T08:42:16Z</time>
      </trkpt>
      <trkpt lat="46.60067" lon="0.61906">
        <ele>97.3</ele>
        <time>2010-09-26T08:42:19Z</time>
      </trkpt>
      <trkpt lat="46.60071" lon="0.61947">
        <ele>98.9</ele>
        <time>2010-09-26T08:42:23Z</time>
      </trkpt>
      <trkpt lat="46.60074" lon="0.61956">
        <ele>99.9</ele>
        <time>2010-09-26T08:42:24Z</time>
      </trkpt>
      <trkpt lat="46.601" lon="0.62021">
        <ele>102.6</ele>
        <time>2010-09-26T08:42:32Z</time>
      </trkpt>
      <trkpt lat="46.60113" lon="0.62045">
        <ele>104.5</ele>
        <time>2010-09-26T08:42:36Z</time>
      </trkpt>
      <trkpt lat="46.60118" lon="0.6205">
        <ele>105</ele>
        <time>2010-09-26T08:42:37Z</time>
      </trkpt>
      <trkpt lat="46.60125" lon="0.62061">
        <ele>104.8</ele>
        <time>2010-09-26T08:42:39Z</time>
      </trkpt>
      <trkpt lat="46.60127" lon="0.62066">
        <ele>105</ele>
        <time>2010-09-26T08:42:40Z</time>
      </trkpt>
      <trkpt lat="46.60131" lon="0.62075">
        <ele>105</ele>
        <time>2010-09-26T08:42:42Z</time>
      </trkpt>
      <trkpt lat="46.60133" lon="0.62078">
        <ele>105</ele>
        <time>2010-09-26T08:42:43Z</time>
      </trkpt>
      <trkpt lat="46.60136" lon="0.62083">
        <ele>105.1</ele>
        <time>2010-09-26T08:42:44Z</time>
      </trkpt>
      <trkpt lat="46.60147" lon="0.62104">
        <ele>106</ele>
        <time>2010-09-26T08:42:47Z</time>
      </trkpt>
      <trkpt lat="46.60158" lon="0.62118">
        <ele>107.3</ele>
        <time>2010-09-26T08:42:49Z</time>
      </trkpt>
      <trkpt lat="46.60184" lon="0.62153">
        <ele>108</ele>
        <time>2010-09-26T08:42:53Z</time>
      </trkpt>
      <trkpt lat="46.6019" lon="0.62165">
        <ele>108</ele>
        <time>2010-09-26T08:42:54Z</time>
      </trkpt>
      <trkpt lat="46.60198" lon="0.62189">
        <ele>108.5</ele>
        <time>2010-09-26T08:42:56Z</time>
      </trkpt>
      <trkpt lat="46.602" lon="0.622">
        <ele>108.1</ele>
        <time>2010-09-26T08:42:57Z</time>
      </trkpt>
      <trkpt lat="46.60202" lon="0.62211">
        <ele>107.5</ele>
        <time>2010-09-26T08:42:58Z</time>
      </trkpt>
      <trkpt lat="46.60202" lon="0.62222">
        <ele>108.1</ele>
        <time>2010-09-26T08:42:59Z</time>
      </trkpt>
      <trkpt lat="46.60201" lon="0.62232">
        <ele>107.8</ele>
        <time>2010-09-26T08:43:00Z</time>
      </trkpt>
      <trkpt lat="46.602" lon="0.62243">
        <ele>106.6</ele>
        <time>2010-09-26T08:43:01Z</time>
      </trkpt>
      <trkpt lat="46.60198" lon="0.62253">
        <ele>107.3</ele>
        <time>2010-09-26T08:43:02Z</time>
      </trkpt>
      <trkpt lat="46.60192" lon="0.62282">
        <ele>107.6</ele>
        <time>2010-09-26T08:43:05Z</time>
      </trkpt>
      <trkpt lat="46.60192" lon="0.62288">
        <ele>107.8</ele>
        <time>2010-09-26T08:43:06Z</time>
      </trkpt>
      <trkpt lat="46.60192" lon="0.62288">
        <ele>107.8</ele>
        <time>2010-09-26T08:43:07Z</time>
      </trkpt>
      <trkpt lat="46.60192" lon="0.62289">
        <ele>107.9</ele>
        <time>2010-09-26T08:43:08Z</time>
      </trkpt>
      <trkpt lat="46.60192" lon="0.62289">
        <ele>107</ele>
        <time>2010-09-26T08:43:39Z</time>
      </trkpt>
      <trkpt lat="46.60191" lon="0.62289">
        <ele>106.9</ele>
        <time>2010-09-26T08:43:40Z</time>
      </trkpt>
      <trkpt lat="46.60191" lon="0.62289">
        <ele>106.9</ele>
        <time>2010-09-26T08:43:41Z</time>
      </trkpt>
      <trkpt lat="46.60191" lon="0.62289">
        <ele>106.9</ele>
        <time>2010-09-26T08:43:42Z</time>
      </trkpt>
      <trkpt lat="46.60191" lon="0.62289">
        <ele>106.9</ele>
        <time>2010-09-26T08:43:43Z</time>
      </trkpt>
      <trkpt lat="46.60191" lon="0.62289">
        <ele>106.9</ele>
        <time>2010-09-26T08:43:44Z</time>
      </trkpt>
      <trkpt lat="46.60191" lon="0.62289">
        <ele>106.9</ele>
        <time>2010-09-26T08:43:45Z</time>
      </trkpt>
      <trkpt lat="46.60191" lon="0.62289">
        <ele>106.9</ele>
        <time>2010-09-26T08:43:46Z</time>
      </trkpt>
      <trkpt lat="46.60191" lon="0.62289">
        <ele>106.9</ele>
        <time>2010-09-26T08:43:47Z</time>
      </trkpt>
      <trkpt lat="46.60191" lon="0.62289">
        <ele>106.9</ele>
        <time>2010-09-26T08:43:48Z</time>
      </trkpt>
      <trkpt lat="46.60191" lon="0.62289">
        <ele>106.9</ele>
        <time>2010-09-26T08:43:49Z</time>
      </trkpt>
      <trkpt lat="46.60191" lon="0.62289">
        <ele>106.9</ele>
        <time>2010-09-26T08:43:50Z</time>
      </trkpt>
      <trkpt lat="46.60191" lon="0.62289">
        <ele>106.9</ele>
        <time>2010-09-26T08:43:51Z</time>
      </trkpt>
      <trkpt lat="46.60191" lon="0.62289">
        <ele>106.9</ele>
        <time>2010-09-26T08:43:52Z</time>
      </trkpt>
      <trkpt lat="46.60191" lon="0.62289">
        <ele>106.9</ele>
        <time>2010-09-26T08:43:53Z</time>
      </trkpt>
      <trkpt lat="46.60191" lon="0.62289">
        <ele>106.9</ele>
        <time>2010-09-26T08:43:54Z</time>
      </trkpt>
      <trkpt lat="46.60191" lon="0.62289">
        <ele>106.9</ele>
        <time>2010-09-26T08:43:55Z</time>
      </trkpt>
      <trkpt lat="46.60191" lon="0.62289">
        <ele>106.9</ele>
        <time>2010-09-26T08:43:56Z</time>
      </trkpt>
      <trkpt lat="46.60191" lon="0.62289">
        <ele>106.9</ele>
        <time>2010-09-26T08:43:57Z</time>
      </trkpt>
      <trkpt lat="46.60191" lon="0.62289">
        <ele>106.9</ele>
        <time>2010-09-26T08:43:58Z</time>
      </trkpt>
      <trkpt lat="46.60191" lon="0.62289">
        <ele>106.9</ele>
        <time>2010-09-26T08:43:59Z</time>
      </trkpt>
      <trkpt lat="46.60191" lon="0.62289">
        <ele>106.9</ele>
        <time>2010-09-26T08:44:00Z</time>
      </trkpt>
      <trkpt lat="46.60191" lon="0.62289">
        <ele>106.9</ele>
        <time>2010-09-26T08:44:01Z</time>
      </trkpt>
      <trkpt lat="46.60191" lon="0.62289">
        <ele>106.9</ele>
        <time>2010-09-26T08:44:02Z</time>
      </trkpt>
      <trkpt lat="46.60191" lon="0.62289">
        <ele>106.9</ele>
        <time>2010-09-26T08:44:03Z</time>
      </trkpt>
      <trkpt lat="46.60191" lon="0.62289">
        <ele>106.9</ele>
        <time>2010-09-26T08:44:04Z</time>
      </trkpt>
      <trkpt lat="46.60191" lon="0.62289">
        <ele>106.9</ele>
        <time>2010-09-26T08:44:05Z</time>
      </trkpt>
      <trkpt lat="46.60191" lon="0.62289">
        <ele>106.9</ele>
        <time>2010-09-26T08:44:06Z</time>
      </trkpt>
      <trkpt lat="46.60191" lon="0.62289">
        <ele>106.9</ele>
        <time>2010-09-26T08:44:07Z</time>
      </trkpt>
      <trkpt lat="46.60191" lon="0.62289">
        <ele>106.9</ele>
        <time>2010-09-26T08:44:08Z</time>
      </trkpt>
      <trkpt lat="46.60191" lon="0.62289">
        <ele>106.9</ele>
        <time>2010-09-26T08:44:09Z</time>
      </trkpt>
      <trkpt lat="46.60191" lon="0.62289">
        <ele>106.9</ele>
        <time>2010-09-26T08:44:10Z</time>
      </trkpt>
      <trkpt lat="46.60191" lon="0.62289">
        <ele>106.9</ele>
        <time>2010-09-26T08:44:11Z</time>
      </trkpt>
      <trkpt lat="46.60191" lon="0.62289">
        <ele>106.9</ele>
        <time>2010-09-26T08:44:12Z</time>
      </trkpt>
      <trkpt lat="46.60191" lon="0.62289">
        <ele>106.9</ele>
        <time>2010-09-26T08:44:13Z</time>
      </trkpt>
      <trkpt lat="46.60191" lon="0.62289">
        <ele>106.9</ele>
        <time>2010-09-26T08:44:14Z</time>
      </trkpt>
      <trkpt lat="46.60191" lon="0.62289">
        <ele>106.9</ele>
        <time>2010-09-26T08:44:15Z</time>
      </trkpt>
      <trkpt lat="46.60191" lon="0.62289">
        <ele>106.9</ele>
        <time>2010-09-26T08:44:16Z</time>
      </trkpt>
      <trkpt lat="46.60191" lon="0.62289">
        <ele>106.9</ele>
        <time>2010-09-26T08:44:17Z</time>
      </trkpt>
      <trkpt lat="46.60191" lon="0.62289">
        <ele>106.9</ele>
        <time>2010-09-26T08:44:18Z</time>
      </trkpt>
      <trkpt lat="46.60191" lon="0.62289">
        <ele>106.9</ele>
        <time>2010-09-26T08:44:19Z</time>
      </trkpt>
      <trkpt lat="46.60191" lon="0.62289">
        <ele>106.1</ele>
        <time>2010-09-26T08:44:20Z</time>
      </trkpt>
      <trkpt lat="46.60191" lon="0.62288">
        <ele>105.9</ele>
        <time>2010-09-26T08:44:21Z</time>
      </trkpt>
      <trkpt lat="46.60191" lon="0.62288">
        <ele>105.9</ele>
        <time>2010-09-26T08:44:22Z</time>
      </trkpt>
      <trkpt lat="46.60191" lon="0.62288">
        <ele>105.6</ele>
        <time>2010-09-26T08:44:23Z</time>
      </trkpt>
      <trkpt lat="46.60191" lon="0.62288">
        <ele>105.6</ele>
        <time>2010-09-26T08:44:24Z</time>
      </trkpt>
      <trkpt lat="46.60191" lon="0.62288">
        <ele>105.6</ele>
        <time>2010-09-26T08:44:25Z</time>
      </trkpt>
      <trkpt lat="46.60191" lon="0.62288">
        <ele>105.6</ele>
        <time>2010-09-26T08:44:26Z</time>
      </trkpt>
      <trkpt lat="46.60191" lon="0.62288">
        <ele>105.6</ele>
        <time>2010-09-26T08:44:27Z</time>
      </trkpt>
      <trkpt lat="46.60191" lon="0.62288">
        <ele>105.6</ele>
        <time>2010-09-26T08:44:28Z</time>
      </trkpt>
      <trkpt lat="46.60191" lon="0.62288">
        <ele>105.6</ele>
        <time>2010-09-26T08:44:29Z</time>
      </trkpt>
      <trkpt lat="46.60191" lon="0.62288">
        <ele>105.6</ele>
        <time>2010-09-26T08:44:30Z</time>
      </trkpt>
      <trkpt lat="46.60191" lon="0.62288">
        <ele>105.6</ele>
        <time>2010-09-26T08:44:31Z</time>
      </trkpt>
      <trkpt lat="46.60191" lon="0.62288">
        <ele>105.6</ele>
        <time>2010-09-26T08:44:32Z</time>
      </trkpt>
      <trkpt lat="46.60191" lon="0.62288">
        <ele>105.6</ele>
        <time>2010-09-26T08:44:33Z</time>
      </trkpt>
      <trkpt lat="46.60191" lon="0.62288">
        <ele>105.6</ele>
        <time>2010-09-26T08:44:34Z</time>
      </trkpt>
      <trkpt lat="46.60191" lon="0.62288">
        <ele>105.6</ele>
        <time>2010-09-26T08:44:35Z</time>
      </trkpt>
      <trkpt lat="46.60191" lon="0.62288">
        <ele>105.6</ele>
        <time>2010-09-26T08:44:36Z</time>
      </trkpt>
      <trkpt lat="46.60191" lon="0.62288">
        <ele>105.6</ele>
        <time>2010-09-26T08:44:37Z</time>
      </trkpt>
      <trkpt lat="46.60191" lon="0.62288">
        <ele>105.6</ele>
        <time>2010-09-26T08:44:38Z</time>
      </trkpt>
      <trkpt lat="46.60191" lon="0.62288">
        <ele>105.6</ele>
        <time>2010-09-26T08:44:39Z</time>
      </trkpt>
      <trkpt lat="46.60191" lon="0.62288">
        <ele>105.6</ele>
        <time>2010-09-26T08:44:40Z</time>
      </trkpt>
      <trkpt lat="46.60191" lon="0.62288">
        <ele>105.6</ele>
        <time>2010-09-26T08:44:41Z</time>
      </trkpt>
      <trkpt lat="46.60191" lon="0.62288">
        <ele>105.6</ele>
        <time>2010-09-26T08:44:42Z</time>
      </trkpt>
      <trkpt lat="46.60191" lon="0.62288">
        <ele>105.6</ele>
        <time>2010-09-26T08:44:43Z</time>
      </trkpt>
      <trkpt lat="46.60191" lon="0.62288">
        <ele>105.6</ele>
        <time>2010-09-26T08:44:44Z</time>
      </trkpt>
      <trkpt lat="46.60191" lon="0.62288">
        <ele>105.6</ele>
        <time>2010-09-26T08:44:45Z</time>
      </trkpt>
      <trkpt lat="46.60191" lon="0.62288">
        <ele>105.6</ele>
        <time>2010-09-26T08:44:46Z</time>
      </trkpt>
      <trkpt lat="46.60191" lon="0.62288">
        <ele>105.6</ele>
        <time>2010-09-26T08:44:47Z</time>
      </trkpt>
      <trkpt lat="46.60191" lon="0.62288">
        <ele>105.6</ele>
        <time>2010-09-26T08:44:48Z</time>
      </trkpt>
      <trkpt lat="46.60191" lon="0.62288">
        <ele>105.6</ele>
        <time>2010-09-26T08:44:49Z</time>
      </trkpt>
      <trkpt lat="46.60191" lon="0.62288">
        <ele>105.6</ele>
        <time>2010-09-26T08:44:50Z</time>
      </trkpt>
      <trkpt lat="46.60191" lon="0.62288">
        <ele>105.6</ele>
        <time>2010-09-26T08:44:51Z</time>
      </trkpt>
      <trkpt lat="46.60191" lon="0.62288">
        <ele>105.6</ele>
        <time>2010-09-26T08:44:52Z</time>
      </trkpt>
      <trkpt lat="46.60191" lon="0.62288">
        <ele>105.6</ele>
        <time>2010-09-26T08:44:53Z</time>
      </trkpt>
      <trkpt lat="46.60191" lon="0.62288">
        <ele>105.6</ele>
        <time>2010-09-26T08:44:54Z</time>
      </trkpt>
      <trkpt lat="46.60191" lon="0.62288">
        <ele>105.6</ele>
        <time>2010-09-26T08:44:55Z</time>
      </trkpt>
      <trkpt lat="46.60191" lon="0.62288">
        <ele>105.6</ele>
        <time>2010-09-26T08:44:56Z</time>
      </trkpt>
      <trkpt lat="46.60191" lon="0.62288">
        <ele>105.6</ele>
        <time>2010-09-26T08:44:57Z</time>
      </trkpt>
      <trkpt lat="46.60191" lon="0.62288">
        <ele>105.6</ele>
        <time>2010-09-26T08:44:58Z</time>
      </trkpt>
      <trkpt lat="46.60191" lon="0.62288">
        <ele>105.6</ele>
        <time>2010-09-26T08:44:59Z</time>
      </trkpt>
      <trkpt lat="46.60191" lon="0.62288">
        <ele>105.6</ele>
        <time>2010-09-26T08:45:00Z</time>
      </trkpt>
      <trkpt lat="46.60191" lon="0.62288">
        <ele>105.6</ele>
        <time>2010-09-26T08:45:01Z</time>
      </trkpt>
      <trkpt lat="46.60191" lon="0.62288">
        <ele>105.6</ele>
        <time>2010-09-26T08:45:02Z</time>
      </trkpt>
      <trkpt lat="46.60191" lon="0.62288">
        <ele>105.6</ele>
        <time>2010-09-26T08:45:03Z</time>
      </trkpt>
      <trkpt lat="46.60191" lon="0.62288">
        <ele>105.6</ele>
        <time>2010-09-26T08:45:04Z</time>
      </trkpt>
      <trkpt lat="46.60191" lon="0.62288">
        <ele>105.6</ele>
        <time>2010-09-26T08:45:05Z</time>
      </trkpt>
      <trkpt lat="46.60191" lon="0.62288">
        <ele>105.6</ele>
        <time>2010-09-26T08:45:06Z</time>
      </trkpt>
      <trkpt lat="46.60191" lon="0.62288">
        <ele>105.6</ele>
        <time>2010-09-26T08:45:07Z</time>
      </trkpt>
      <trkpt lat="46.60191" lon="0.62288">
        <ele>105.6</ele>
        <time>2010-09-26T08:45:08Z</time>
      </trkpt>
      <trkpt lat="46.60191" lon="0.62288">
        <ele>105.6</ele>
        <time>2010-09-26T08:45:09Z</time>
      </trkpt>
      <trkpt lat="46.60191" lon="0.62288">
        <ele>105.6</ele>
        <time>2010-09-26T08:45:10Z</time>
      </trkpt>
      <trkpt lat="46.60191" lon="0.62288">
        <ele>105.6</ele>
        <time>2010-09-26T08:45:11Z</time>
      </trkpt>
      <trkpt lat="46.60191" lon="0.62288">
        <ele>105.6</ele>
        <time>2010-09-26T08:45:12Z</time>
      </trkpt>
      <trkpt lat="46.60191" lon="0.62288">
        <ele>105.6</ele>
        <time>2010-09-26T08:45:13Z</time>
      </trkpt>
      <trkpt lat="46.60191" lon="0.62288">
        <ele>105.6</ele>
        <time>2010-09-26T08:45:14Z</time>
      </trkpt>
      <trkpt lat="46.60191" lon="0.62288">
        <ele>105.6</ele>
        <time>2010-09-26T08:45:15Z</time>
      </trkpt>
      <trkpt lat="46.60191" lon="0.62288">
        <ele>105.6</ele>
        <time>2010-09-26T08:45:16Z</time>
      </trkpt>
      <trkpt lat="46.60191" lon="0.62288">
        <ele>105.6</ele>
        <time>2010-09-26T08:45:17Z</time>
      </trkpt>
      <trkpt lat="46.60191" lon="0.62288">
        <ele>105.6</ele>
        <time>2010-09-26T08:45:18Z</time>
      </trkpt>
      <trkpt lat="46.60191" lon="0.62288">
        <ele>105.6</ele>
        <time>2010-09-26T08:45:19Z</time>
      </trkpt>
      <trkpt lat="46.60191" lon="0.62288">
        <ele>106.3</ele>
        <time>2010-09-26T08:45:20Z</time>
      </trkpt>
      <trkpt lat="46.60191" lon="0.62288">
        <ele>106.3</ele>
        <time>2010-09-26T08:45:21Z</time>
      </trkpt>
      <trkpt lat="46.60191" lon="0.62288">
        <ele>106.3</ele>
        <time>2010-09-26T08:45:22Z</time>
      </trkpt>
      <trkpt lat="46.60191" lon="0.62288">
        <ele>106.3</ele>
        <time>2010-09-26T08:45:23Z</time>
      </trkpt>
      <trkpt lat="46.60191" lon="0.62288">
        <ele>106.3</ele>
        <time>2010-09-26T08:45:24Z</time>
      </trkpt>
      <trkpt lat="46.60191" lon="0.62288">
        <ele>106.3</ele>
        <time>2010-09-26T08:45:25Z</time>
      </trkpt>
      <trkpt lat="46.60191" lon="0.62288">
        <ele>106.3</ele>
        <time>2010-09-26T08:45:26Z</time>
      </trkpt>
      <trkpt lat="46.60191" lon="0.62288">
        <ele>106.3</ele>
        <time>2010-09-26T08:45:27Z</time>
      </trkpt>
      <trkpt lat="46.60191" lon="0.62288">
        <ele>106.3</ele>
        <time>2010-09-26T08:45:28Z</time>
      </trkpt>
      <trkpt lat="46.60191" lon="0.62288">
        <ele>106.3</ele>
        <time>2010-09-26T08:45:29Z</time>
      </trkpt>
      <trkpt lat="46.60191" lon="0.62288">
        <ele>106.3</ele>
        <time>2010-09-26T08:45:30Z</time>
      </trkpt>
      <trkpt lat="46.60191" lon="0.62288">
        <ele>106.3</ele>
        <time>2010-09-26T08:45:31Z</time>
      </trkpt>
      <trkpt lat="46.60191" lon="0.62288">
        <ele>106.3</ele>
        <time>2010-09-26T08:45:32Z</time>
      </trkpt>
      <trkpt lat="46.60192" lon="0.62288">
        <ele>106.5</ele>
        <time>2010-09-26T08:45:33Z</time>
      </trkpt>
      <trkpt lat="46.60193" lon="0.6229">
        <ele>106.3</ele>
        <time>2010-09-26T08:45:34Z</time>
      </trkpt>
      <trkpt lat="46.60205" lon="0.62298">
        <ele>107.3</ele>
        <time>2010-09-26T08:45:38Z</time>
      </trkpt>
      <trkpt lat="46.60214" lon="0.62306">
        <ele>107.5</ele>
        <time>2010-09-26T08:45:40Z</time>
      </trkpt>
      <trkpt lat="46.60218" lon="0.62313">
        <ele>107.5</ele>
        <time>2010-09-26T08:45:41Z</time>
      </trkpt>
      <trkpt lat="46.60222" lon="0.62335">
        <ele>107.5</ele>
        <time>2010-09-26T08:45:43Z</time>
      </trkpt>
      <trkpt lat="46.60225" lon="0.62345">
        <ele>107.9</ele>
        <time>2010-09-26T08:45:44Z</time>
      </trkpt>
      <trkpt lat="46.60226" lon="0.62353">
        <ele>108</ele>
        <time>2010-09-26T08:45:45Z</time>
      </trkpt>
      <trkpt lat="46.60227" lon="0.62358">
        <ele>108.8</ele>
        <time>2010-09-26T08:45:46Z</time>
      </trkpt>
      <trkpt lat="46.60225" lon="0.62363">
        <ele>109.3</ele>
        <time>2010-09-26T08:45:47Z</time>
      </trkpt>
      <trkpt lat="46.60212" lon="0.62398">
        <ele>108.5</ele>
        <time>2010-09-26T08:45:51Z</time>
      </trkpt>
      <trkpt lat="46.6021" lon="0.62412">
        <ele>109</ele>
        <time>2010-09-26T08:45:52Z</time>
      </trkpt>
      <trkpt lat="46.60201" lon="0.62462">
        <ele>108.4</ele>
        <time>2010-09-26T08:45:57Z</time>
      </trkpt>
      <trkpt lat="46.60198" lon="0.62481">
        <ele>108.1</ele>
        <time>2010-09-26T08:46:00Z</time>
      </trkpt>
      <trkpt lat="46.60197" lon="0.62485">
        <ele>107.5</ele>
        <time>2010-09-26T08:46:01Z</time>
      </trkpt>
      <trkpt lat="46.60197" lon="0.62488">
        <ele>107.4</ele>
        <time>2010-09-26T08:46:02Z</time>
      </trkpt>
      <trkpt lat="46.60197" lon="0.62491">
        <ele>106.3</ele>
        <time>2010-09-26T08:46:04Z</time>
      </trkpt>
      <trkpt lat="46.60197" lon="0.62495">
        <ele>105.5</ele>
        <time>2010-09-26T08:46:05Z</time>
      </trkpt>
      <trkpt lat="46.60195" lon="0.62498">
        <ele>105.8</ele>
        <time>2010-09-26T08:46:06Z</time>
      </trkpt>
      <trkpt lat="46.60194" lon="0.62502">
        <ele>105.1</ele>
        <time>2010-09-26T08:46:07Z</time>
      </trkpt>
      <trkpt lat="46.60192" lon="0.62507">
        <ele>105</ele>
        <time>2010-09-26T08:46:08Z</time>
      </trkpt>
      <trkpt lat="46.6019" lon="0.62511">
        <ele>105</ele>
        <time>2010-09-26T08:46:09Z</time>
      </trkpt>
      <trkpt lat="46.6019" lon="0.62516">
        <ele>105.5</ele>
        <time>2010-09-26T08:46:10Z</time>
      </trkpt>
      <trkpt lat="46.6019" lon="0.62521">
        <ele>105.6</ele>
        <time>2010-09-26T08:46:11Z</time>
      </trkpt>
      <trkpt lat="46.60192" lon="0.62541">
        <ele>105.8</ele>
        <time>2010-09-26T08:46:14Z</time>
      </trkpt>
      <trkpt lat="46.60194" lon="0.62549">
        <ele>105.8</ele>
        <time>2010-09-26T08:46:15Z</time>
      </trkpt>
      <trkpt lat="46.60204" lon="0.62573">
        <ele>105.5</ele>
        <time>2010-09-26T08:46:17Z</time>
      </trkpt>
      <trkpt lat="46.60216" lon="0.62607">
        <ele>105.5</ele>
        <time>2010-09-26T08:46:20Z</time>
      </trkpt>
      <trkpt lat="46.60218" lon="0.62621">
        <ele>105.4</ele>
        <time>2010-09-26T08:46:21Z</time>
      </trkpt>
      <trkpt lat="46.60213" lon="0.6265">
        <ele>105.5</ele>
        <time>2010-09-26T08:46:23Z</time>
      </trkpt>
      <trkpt lat="46.60208" lon="0.62662">
        <ele>106.9</ele>
        <time>2010-09-26T08:46:24Z</time>
      </trkpt>
      <trkpt lat="46.60204" lon="0.62675">
        <ele>107</ele>
        <time>2010-09-26T08:46:25Z</time>
      </trkpt>
      <trkpt lat="46.60201" lon="0.62688">
        <ele>108.5</ele>
        <time>2010-09-26T08:46:26Z</time>
      </trkpt>
      <trkpt lat="46.60184" lon="0.62749">
        <ele>110.6</ele>
        <time>2010-09-26T08:46:31Z</time>
      </trkpt>
      <trkpt lat="46.60179" lon="0.62759">
        <ele>110.9</ele>
        <time>2010-09-26T08:46:32Z</time>
      </trkpt>
      <trkpt lat="46.60171" lon="0.62767">
        <ele>110.8</ele>
        <time>2010-09-26T08:46:33Z</time>
      </trkpt>
      <trkpt lat="46.60119" lon="0.62818">
        <ele>114.3</ele>
        <time>2010-09-26T08:46:41Z</time>
      </trkpt>
      <trkpt lat="46.60118" lon="0.62819">
        <ele>113.4</ele>
        <time>2010-09-26T08:46:42Z</time>
      </trkpt>
      <trkpt lat="46.60118" lon="0.62819">
        <ele>113.4</ele>
        <time>2010-09-26T08:46:43Z</time>
      </trkpt>
      <trkpt lat="46.60118" lon="0.62819">
        <ele>113.4</ele>
        <time>2010-09-26T08:46:44Z</time>
      </trkpt>
      <trkpt lat="46.60118" lon="0.62819">
        <ele>113.4</ele>
        <time>2010-09-26T08:46:45Z</time>
      </trkpt>
      <trkpt lat="46.60117" lon="0.62819">
        <ele>113.1</ele>
        <time>2010-09-26T08:46:46Z</time>
      </trkpt>
      <trkpt lat="46.60116" lon="0.62819">
        <ele>113.1</ele>
        <time>2010-09-26T08:46:47Z</time>
      </trkpt>
      <trkpt lat="46.60113" lon="0.62815">
        <ele>113.1</ele>
        <time>2010-09-26T08:46:48Z</time>
      </trkpt>
      <trkpt lat="46.60111" lon="0.6281">
        <ele>113.1</ele>
        <time>2010-09-26T08:46:49Z</time>
      </trkpt>
      <trkpt lat="46.6011" lon="0.62805">
        <ele>113.3</ele>
        <time>2010-09-26T08:46:50Z</time>
      </trkpt>
      <trkpt lat="46.60107" lon="0.62798">
        <ele>113.6</ele>
        <time>2010-09-26T08:46:52Z</time>
      </trkpt>
      <trkpt lat="46.60105" lon="0.62796">
        <ele>114</ele>
        <time>2010-09-26T08:46:53Z</time>
      </trkpt>
      <trkpt lat="46.60103" lon="0.62795">
        <ele>114</ele>
        <time>2010-09-26T08:46:54Z</time>
      </trkpt>
      <trkpt lat="46.60093" lon="0.62786">
        <ele>114.4</ele>
        <time>2010-09-26T08:46:57Z</time>
      </trkpt>
      <trkpt lat="46.60089" lon="0.62783">
        <ele>114.3</ele>
        <time>2010-09-26T08:46:58Z</time>
      </trkpt>
      <trkpt lat="46.60074" lon="0.6277">
        <ele>114.5</ele>
        <time>2010-09-26T08:47:01Z</time>
      </trkpt>
      <trkpt lat="46.60071" lon="0.62764">
        <ele>114.4</ele>
        <time>2010-09-26T08:47:02Z</time>
      </trkpt>
      <trkpt lat="46.60049" lon="0.6272">
        <ele>116.1</ele>
        <time>2010-09-26T08:47:09Z</time>
      </trkpt>
      <trkpt lat="46.60048" lon="0.62713">
        <ele>116.6</ele>
        <time>2010-09-26T08:47:10Z</time>
      </trkpt>
      <trkpt lat="46.60047" lon="0.62707">
        <ele>116.8</ele>
        <time>2010-09-26T08:47:11Z</time>
      </trkpt>
      <trkpt lat="46.60046" lon="0.62702">
        <ele>117.5</ele>
        <time>2010-09-26T08:47:14Z</time>
      </trkpt>
      <trkpt lat="46.6004" lon="0.62701">
        <ele>117.9</ele>
        <time>2010-09-26T08:47:15Z</time>
      </trkpt>
      <trkpt lat="46.60034" lon="0.627">
        <ele>118.5</ele>
        <time>2010-09-26T08:47:17Z</time>
      </trkpt>
      <trkpt lat="46.60032" lon="0.62696">
        <ele>118.5</ele>
        <time>2010-09-26T08:47:18Z</time>
      </trkpt>
      <trkpt lat="46.60015" lon="0.62679">
        <ele>119.4</ele>
        <time>2010-09-26T08:47:20Z</time>
      </trkpt>
      <trkpt lat="46.60008" lon="0.62669">
        <ele>120.3</ele>
        <time>2010-09-26T08:47:21Z</time>
      </trkpt>
      <trkpt lat="46.59997" lon="0.62648">
        <ele>120.5</ele>
        <time>2010-09-26T08:47:23Z</time>
      </trkpt>
      <trkpt lat="46.59986" lon="0.62628">
        <ele>121</ele>
        <time>2010-09-26T08:47:25Z</time>
      </trkpt>
      <trkpt lat="46.59979" lon="0.6262">
        <ele>121.6</ele>
        <time>2010-09-26T08:47:26Z</time>
      </trkpt>
      <trkpt lat="46.59931" lon="0.62565">
        <ele>123.9</ele>
        <time>2010-09-26T08:47:32Z</time>
      </trkpt>
      <trkpt lat="46.59921" lon="0.62558">
        <ele>124.3</ele>
        <time>2010-09-26T08:47:33Z</time>
      </trkpt>
      <trkpt lat="46.59853" lon="0.62513">
        <ele>128.5</ele>
        <time>2010-09-26T08:47:40Z</time>
      </trkpt>
      <trkpt lat="46.59845" lon="0.62511">
        <ele>129.3</ele>
        <time>2010-09-26T08:47:41Z</time>
      </trkpt>
      <trkpt lat="46.59837" lon="0.62512">
        <ele>129.8</ele>
        <time>2010-09-26T08:47:42Z</time>
      </trkpt>
      <trkpt lat="46.5983" lon="0.62514">
        <ele>130.5</ele>
        <time>2010-09-26T08:47:43Z</time>
      </trkpt>
      <trkpt lat="46.59822" lon="0.62518">
        <ele>130.1</ele>
        <time>2010-09-26T08:47:44Z</time>
      </trkpt>
      <trkpt lat="46.59806" lon="0.62528">
        <ele>129.5</ele>
        <time>2010-09-26T08:47:46Z</time>
      </trkpt>
      <trkpt lat="46.59789" lon="0.62536">
        <ele>128.6</ele>
        <time>2010-09-26T08:47:49Z</time>
      </trkpt>
      <trkpt lat="46.59785" lon="0.62535">
        <ele>129.1</ele>
        <time>2010-09-26T08:47:50Z</time>
      </trkpt>
      <trkpt lat="46.59782" lon="0.62533">
        <ele>128.6</ele>
        <time>2010-09-26T08:47:51Z</time>
      </trkpt>
      <trkpt lat="46.59778" lon="0.62531">
        <ele>127.8</ele>
        <time>2010-09-26T08:47:52Z</time>
      </trkpt>
      <trkpt lat="46.59775" lon="0.62529">
        <ele>126.5</ele>
        <time>2010-09-26T08:47:53Z</time>
      </trkpt>
      <trkpt lat="46.59773" lon="0.62526">
        <ele>126</ele>
        <time>2010-09-26T08:47:54Z</time>
      </trkpt>
      <trkpt lat="46.5977" lon="0.6252">
        <ele>126</ele>
        <time>2010-09-26T08:47:55Z</time>
      </trkpt>
      <trkpt lat="46.59768" lon="0.62513">
        <ele>126.5</ele>
        <time>2010-09-26T08:47:56Z</time>
      </trkpt>
      <trkpt lat="46.59733" lon="0.62416">
        <ele>124.4</ele>
        <time>2010-09-26T08:48:05Z</time>
      </trkpt>
      <trkpt lat="46.59726" lon="0.62406">
        <ele>123.6</ele>
        <time>2010-09-26T08:48:06Z</time>
      </trkpt>
      <trkpt lat="46.59719" lon="0.62398">
        <ele>123.4</ele>
        <time>2010-09-26T08:48:07Z</time>
      </trkpt>
      <trkpt lat="46.59712" lon="0.62391">
        <ele>123.1</ele>
        <time>2010-09-26T08:48:08Z</time>
      </trkpt>
      <trkpt lat="46.59704" lon="0.62385">
        <ele>122.4</ele>
        <time>2010-09-26T08:48:09Z</time>
      </trkpt>
      <trkpt lat="46.59695" lon="0.62379">
        <ele>122.5</ele>
        <time>2010-09-26T08:48:10Z</time>
      </trkpt>
      <trkpt lat="46.59684" lon="0.62376">
        <ele>123</ele>
        <time>2010-09-26T08:48:11Z</time>
      </trkpt>
      <trkpt lat="46.59555" lon="0.62333">
        <ele>121.9</ele>
        <time>2010-09-26T08:48:21Z</time>
      </trkpt>
      <trkpt lat="46.59544" lon="0.62325">
        <ele>121.4</ele>
        <time>2010-09-26T08:48:22Z</time>
      </trkpt>
      <trkpt lat="46.59401" lon="0.62217">
        <ele>114</ele>
        <time>2010-09-26T08:48:39Z</time>
      </trkpt>
      <trkpt lat="46.59393" lon="0.62214">
        <ele>113.9</ele>
        <time>2010-09-26T08:48:40Z</time>
      </trkpt>
      <trkpt lat="46.59353" lon="0.62204">
        <ele>112.3</ele>
        <time>2010-09-26T08:48:45Z</time>
      </trkpt>
      <trkpt lat="46.59344" lon="0.62205">
        <ele>112</ele>
        <time>2010-09-26T08:48:46Z</time>
      </trkpt>
      <trkpt lat="46.59258" lon="0.62217">
        <ele>108.1</ele>
        <time>2010-09-26T08:48:56Z</time>
      </trkpt>
      <trkpt lat="46.59254" lon="0.62214">
        <ele>107.8</ele>
        <time>2010-09-26T08:48:57Z</time>
      </trkpt>
      <trkpt lat="46.5925" lon="0.62209">
        <ele>107.6</ele>
        <time>2010-09-26T08:48:58Z</time>
      </trkpt>
      <trkpt lat="46.59246" lon="0.62203">
        <ele>107.1</ele>
        <time>2010-09-26T08:48:59Z</time>
      </trkpt>
      <trkpt lat="46.59243" lon="0.62195">
        <ele>107</ele>
        <time>2010-09-26T08:49:00Z</time>
      </trkpt>
      <trkpt lat="46.59156" lon="0.61909">
        <ele>85.5</ele>
        <time>2010-09-26T08:49:25Z</time>
      </trkpt>
      <trkpt lat="46.59153" lon="0.61904">
        <ele>85.1</ele>
        <time>2010-09-26T08:49:26Z</time>
      </trkpt>
      <trkpt lat="46.59151" lon="0.619">
        <ele>84.9</ele>
        <time>2010-09-26T08:49:27Z</time>
      </trkpt>
      <trkpt lat="46.59149" lon="0.61896">
        <ele>84.5</ele>
        <time>2010-09-26T08:49:28Z</time>
      </trkpt>
      <trkpt lat="46.59148" lon="0.61893">
        <ele>84</ele>
        <time>2010-09-26T08:49:29Z</time>
      </trkpt>
      <trkpt lat="46.59146" lon="0.61892">
        <ele>83.5</ele>
        <time>2010-09-26T08:49:30Z</time>
      </trkpt>
      <trkpt lat="46.59145" lon="0.61893">
        <ele>83</ele>
        <time>2010-09-26T08:49:31Z</time>
      </trkpt>
      <trkpt lat="46.59143" lon="0.61895">
        <ele>82.3</ele>
        <time>2010-09-26T08:49:32Z</time>
      </trkpt>
      <trkpt lat="46.59143" lon="0.61898">
        <ele>81.3</ele>
        <time>2010-09-26T08:49:33Z</time>
      </trkpt>
      <trkpt lat="46.59145" lon="0.61902">
        <ele>80.5</ele>
        <time>2010-09-26T08:49:34Z</time>
      </trkpt>
      <trkpt lat="46.59163" lon="0.61937">
        <ele>78.9</ele>
        <time>2010-09-26T08:49:38Z</time>
      </trkpt>
      <trkpt lat="46.59167" lon="0.61951">
        <ele>78.8</ele>
        <time>2010-09-26T08:49:39Z</time>
      </trkpt>
      <trkpt lat="46.59251" lon="0.62215">
        <ele>96</ele>
        <time>2010-09-26T08:49:54Z</time>
      </trkpt>
      <trkpt lat="46.59259" lon="0.62223">
        <ele>97.1</ele>
        <time>2010-09-26T08:49:55Z</time>
      </trkpt>
      <trkpt lat="46.59269" lon="0.62227">
        <ele>98.5</ele>
        <time>2010-09-26T08:49:56Z</time>
      </trkpt>
      <trkpt lat="46.59281" lon="0.62225">
        <ele>99.4</ele>
        <time>2010-09-26T08:49:57Z</time>
      </trkpt>
      <trkpt lat="46.59367" lon="0.62209">
        <ele>106.1</ele>
        <time>2010-09-26T08:50:04Z</time>
      </trkpt>
      <trkpt lat="46.59378" lon="0.62211">
        <ele>106.9</ele>
        <time>2010-09-26T08:50:05Z</time>
      </trkpt>
      <trkpt lat="46.59416" lon="0.62224">
        <ele>110.5</ele>
        <time>2010-09-26T08:50:09Z</time>
      </trkpt>
      <trkpt lat="46.59425" lon="0.62231">
        <ele>111.5</ele>
        <time>2010-09-26T08:50:10Z</time>
      </trkpt>
      <trkpt lat="46.59588" lon="0.6235">
        <ele>119.6</ele>
        <time>2010-09-26T08:50:22Z</time>
      </trkpt>
      <trkpt lat="46.59604" lon="0.62356">
        <ele>120</ele>
        <time>2010-09-26T08:50:23Z</time>
      </trkpt>
      <trkpt lat="46.5972" lon="0.62394">
        <ele>121.8</ele>
        <time>2010-09-26T08:50:32Z</time>
      </trkpt>
      <trkpt lat="46.59728" lon="0.62403">
        <ele>121.9</ele>
        <time>2010-09-26T08:50:33Z</time>
      </trkpt>
      <trkpt lat="46.59736" lon="0.62415">
        <ele>121.5</ele>
        <time>2010-09-26T08:50:34Z</time>
      </trkpt>
      <trkpt lat="46.59744" lon="0.62429">
        <ele>121.5</ele>
        <time>2010-09-26T08:50:35Z</time>
      </trkpt>
      <trkpt lat="46.5975" lon="0.62445">
        <ele>121.4</ele>
        <time>2010-09-26T08:50:36Z</time>
      </trkpt>
      <trkpt lat="46.59775" lon="0.62527">
        <ele>123.1</ele>
        <time>2010-09-26T08:50:41Z</time>
      </trkpt>
      <trkpt lat="46.59779" lon="0.62534">
        <ele>124</ele>
        <time>2010-09-26T08:50:42Z</time>
      </trkpt>
      <trkpt lat="46.59781" lon="0.62537">
        <ele>124.3</ele>
        <time>2010-09-26T08:50:43Z</time>
      </trkpt>
      <trkpt lat="46.59783" lon="0.62538">
        <ele>124.8</ele>
        <time>2010-09-26T08:50:44Z</time>
      </trkpt>
      <trkpt lat="46.59784" lon="0.62537">
        <ele>125.8</ele>
        <time>2010-09-26T08:50:45Z</time>
      </trkpt>
      <trkpt lat="46.59797" lon="0.62524">
        <ele>126.9</ele>
        <time>2010-09-26T08:50:49Z</time>
      </trkpt>
      <trkpt lat="46.59809" lon="0.62515">
        <ele>126.8</ele>
        <time>2010-09-26T08:50:51Z</time>
      </trkpt>
      <trkpt lat="46.59813" lon="0.62513">
        <ele>127.5</ele>
        <time>2010-09-26T08:50:52Z</time>
      </trkpt>
      <trkpt lat="46.59817" lon="0.62512">
        <ele>128.3</ele>
        <time>2010-09-26T08:50:53Z</time>
      </trkpt>
      <trkpt lat="46.59821" lon="0.62514">
        <ele>129.5</ele>
        <time>2010-09-26T08:50:54Z</time>
      </trkpt>
      <trkpt lat="46.59825" lon="0.6252">
        <ele>129.8</ele>
        <time>2010-09-26T08:50:55Z</time>
      </trkpt>
      <trkpt lat="46.59829" lon="0.62531">
        <ele>129.8</ele>
        <time>2010-09-26T08:50:56Z</time>
      </trkpt>
      <trkpt lat="46.59834" lon="0.6254">
        <ele>130</ele>
        <time>2010-09-26T08:50:57Z</time>
      </trkpt>
      <trkpt lat="46.59845" lon="0.62556">
        <ele>128.8</ele>
        <time>2010-09-26T08:50:59Z</time>
      </trkpt>
      <trkpt lat="46.5985" lon="0.62565">
        <ele>128.8</ele>
        <time>2010-09-26T08:51:00Z</time>
      </trkpt>
      <trkpt lat="46.59853" lon="0.62574">
        <ele>129.1</ele>
        <time>2010-09-26T08:51:01Z</time>
      </trkpt>
      <trkpt lat="46.59855" lon="0.62585">
        <ele>129.1</ele>
        <time>2010-09-26T08:51:02Z</time>
      </trkpt>
      <trkpt lat="46.5986" lon="0.62619">
        <ele>128.1</ele>
        <time>2010-09-26T08:51:05Z</time>
      </trkpt>
      <trkpt lat="46.59864" lon="0.62632">
        <ele>128.1</ele>
        <time>2010-09-26T08:51:06Z</time>
      </trkpt>
      <trkpt lat="46.59869" lon="0.62645">
        <ele>128.1</ele>
        <time>2010-09-26T08:51:07Z</time>
      </trkpt>
      <trkpt lat="46.59896" lon="0.62725">
        <ele>128.3</ele>
        <time>2010-09-26T08:51:14Z</time>
      </trkpt>
      <trkpt lat="46.59925" lon="0.62826">
        <ele>127.1</ele>
        <time>2010-09-26T08:51:24Z</time>
      </trkpt>
      <trkpt lat="46.59926" lon="0.62833">
        <ele>127.3</ele>
        <time>2010-09-26T08:51:25Z</time>
      </trkpt>
      <trkpt lat="46.59927" lon="0.62859">
        <ele>127.6</ele>
        <time>2010-09-26T08:51:28Z</time>
      </trkpt>
      <trkpt lat="46.59931" lon="0.62904">
        <ele>128.1</ele>
        <time>2010-09-26T08:51:34Z</time>
      </trkpt>
      <trkpt lat="46.5993" lon="0.62909">
        <ele>127.9</ele>
        <time>2010-09-26T08:51:35Z</time>
      </trkpt>
      <trkpt lat="46.59929" lon="0.62913">
        <ele>127.5</ele>
        <time>2010-09-26T08:51:36Z</time>
      </trkpt>
      <trkpt lat="46.59927" lon="0.6292">
        <ele>128.1</ele>
        <time>2010-09-26T08:51:38Z</time>
      </trkpt>
      <trkpt lat="46.59928" lon="0.62923">
        <ele>128.6</ele>
        <time>2010-09-26T08:51:39Z</time>
      </trkpt>
      <trkpt lat="46.5993" lon="0.62924">
        <ele>129.3</ele>
        <time>2010-09-26T08:51:40Z</time>
      </trkpt>
      <trkpt lat="46.59931" lon="0.62924">
        <ele>129.5</ele>
        <time>2010-09-26T08:51:41Z</time>
      </trkpt>
      <trkpt lat="46.59933" lon="0.62923">
        <ele>129.3</ele>
        <time>2010-09-26T08:51:42Z</time>
      </trkpt>
      <trkpt lat="46.59932" lon="0.62918">
        <ele>129.1</ele>
        <time>2010-09-26T08:51:43Z</time>
      </trkpt>
      <trkpt lat="46.59932" lon="0.62904">
        <ele>128.3</ele>
        <time>2010-09-26T08:51:45Z</time>
      </trkpt>
      <trkpt lat="46.5993" lon="0.62877">
        <ele>127.8</ele>
        <time>2010-09-26T08:51:48Z</time>
      </trkpt>
      <trkpt lat="46.5993" lon="0.62846">
        <ele>126.5</ele>
        <time>2010-09-26T08:51:53Z</time>
      </trkpt>
      <trkpt lat="46.59933" lon="0.62844">
        <ele>126.8</ele>
        <time>2010-09-26T08:51:54Z</time>
      </trkpt>
      <trkpt lat="46.59937" lon="0.62843">
        <ele>126.1</ele>
        <time>2010-09-26T08:51:55Z</time>
      </trkpt>
      <trkpt lat="46.59959" lon="0.62838">
        <ele>125.4</ele>
        <time>2010-09-26T08:51:59Z</time>
      </trkpt>
      <trkpt lat="46.59963" lon="0.62835">
        <ele>125.6</ele>
        <time>2010-09-26T08:52:00Z</time>
      </trkpt>
      <trkpt lat="46.59967" lon="0.6283">
        <ele>125.5</ele>
        <time>2010-09-26T08:52:01Z</time>
      </trkpt>
      <trkpt lat="46.60003" lon="0.62795">
        <ele>125.3</ele>
        <time>2010-09-26T08:52:09Z</time>
      </trkpt>
      <trkpt lat="46.60007" lon="0.62793">
        <ele>125.5</ele>
        <time>2010-09-26T08:52:10Z</time>
      </trkpt>
      <trkpt lat="46.60024" lon="0.62785">
        <ele>126.8</ele>
        <time>2010-09-26T08:52:15Z</time>
      </trkpt>
      <trkpt lat="46.60026" lon="0.62782">
        <ele>127</ele>
        <time>2010-09-26T08:52:16Z</time>
      </trkpt>
      <trkpt lat="46.60028" lon="0.62779">
        <ele>127</ele>
        <time>2010-09-26T08:52:17Z</time>
      </trkpt>
      <trkpt lat="46.60034" lon="0.62768">
        <ele>126.9</ele>
        <time>2010-09-26T08:52:20Z</time>
      </trkpt>
      <trkpt lat="46.60038" lon="0.62763">
        <ele>126.6</ele>
        <time>2010-09-26T08:52:22Z</time>
      </trkpt>
      <trkpt lat="46.60041" lon="0.62762">
        <ele>126.9</ele>
        <time>2010-09-26T08:52:23Z</time>
      </trkpt>
      <trkpt lat="46.60049" lon="0.62761">
        <ele>126.8</ele>
        <time>2010-09-26T08:52:25Z</time>
      </trkpt>
      <trkpt lat="46.60052" lon="0.6276">
        <ele>126.9</ele>
        <time>2010-09-26T08:52:26Z</time>
      </trkpt>
      <trkpt lat="46.60058" lon="0.62758">
        <ele>126.6</ele>
        <time>2010-09-26T08:52:28Z</time>
      </trkpt>
      <trkpt lat="46.60062" lon="0.62759">
        <ele>126.5</ele>
        <time>2010-09-26T08:52:29Z</time>
      </trkpt>
      <trkpt lat="46.60066" lon="0.62761">
        <ele>126.6</ele>
        <time>2010-09-26T08:52:30Z</time>
      </trkpt>
      <trkpt lat="46.60075" lon="0.62767">
        <ele>126.9</ele>
        <time>2010-09-26T08:52:32Z</time>
      </trkpt>
      <trkpt lat="46.60091" lon="0.62782">
        <ele>126.4</ele>
        <time>2010-09-26T08:52:36Z</time>
      </trkpt>
      <trkpt lat="46.60094" lon="0.62784">
        <ele>126</ele>
        <time>2010-09-26T08:52:37Z</time>
      </trkpt>
      <trkpt lat="46.60102" lon="0.62789">
        <ele>126.3</ele>
        <time>2010-09-26T08:52:39Z</time>
      </trkpt>
      <trkpt lat="46.60105" lon="0.62792">
        <ele>126</ele>
        <time>2010-09-26T08:52:40Z</time>
      </trkpt>
      <trkpt lat="46.60108" lon="0.62797">
        <ele>125.6</ele>
        <time>2010-09-26T08:52:41Z</time>
      </trkpt>
      <trkpt lat="46.6011" lon="0.62803">
        <ele>125.3</ele>
        <time>2010-09-26T08:52:42Z</time>
      </trkpt>
      <trkpt lat="46.60125" lon="0.62845">
        <ele>125</ele>
        <time>2010-09-26T08:52:47Z</time>
      </trkpt>
      <trkpt lat="46.60127" lon="0.62855">
        <ele>125</ele>
        <time>2010-09-26T08:52:48Z</time>
      </trkpt>
      <trkpt lat="46.60131" lon="0.62874">
        <ele>125</ele>
        <time>2010-09-26T08:52:50Z</time>
      </trkpt>
      <trkpt lat="46.60143" lon="0.62924">
        <ele>125</ele>
        <time>2010-09-26T08:52:55Z</time>
      </trkpt>
      <trkpt lat="46.60147" lon="0.62934">
        <ele>125</ele>
        <time>2010-09-26T08:52:56Z</time>
      </trkpt>
      <trkpt lat="46.60161" lon="0.62963">
        <ele>125</ele>
        <time>2010-09-26T08:52:59Z</time>
      </trkpt>
      <trkpt lat="46.6017" lon="0.62986">
        <ele>125</ele>
        <time>2010-09-26T08:53:01Z</time>
      </trkpt>
      <trkpt lat="46.60173" lon="0.62998">
        <ele>125</ele>
        <time>2010-09-26T08:53:02Z</time>
      </trkpt>
      <trkpt lat="46.60188" lon="0.63044">
        <ele>125.6</ele>
        <time>2010-09-26T08:53:06Z</time>
      </trkpt>
      <trkpt lat="46.60218" lon="0.63122">
        <ele>125.5</ele>
        <time>2010-09-26T08:53:12Z</time>
      </trkpt>
      <trkpt lat="46.60223" lon="0.63133">
        <ele>125.4</ele>
        <time>2010-09-26T08:53:13Z</time>
      </trkpt>
      <trkpt lat="46.60248" lon="0.63181">
        <ele>127.3</ele>
        <time>2010-09-26T08:53:18Z</time>
      </trkpt>
      <trkpt lat="46.60255" lon="0.63191">
        <ele>127.3</ele>
        <time>2010-09-26T08:53:19Z</time>
      </trkpt>
      <trkpt lat="46.60283" lon="0.63232">
        <ele>129.1</ele>
        <time>2010-09-26T08:53:23Z</time>
      </trkpt>
      <trkpt lat="46.60287" lon="0.63243">
        <ele>128.6</ele>
        <time>2010-09-26T08:53:24Z</time>
      </trkpt>
      <trkpt lat="46.60292" lon="0.63252">
        <ele>128.3</ele>
        <time>2010-09-26T08:53:25Z</time>
      </trkpt>
      <trkpt lat="46.60298" lon="0.63261">
        <ele>127.5</ele>
        <time>2010-09-26T08:53:26Z</time>
      </trkpt>
      <trkpt lat="46.60305" lon="0.63269">
        <ele>126.5</ele>
        <time>2010-09-26T08:53:27Z</time>
      </trkpt>
      <trkpt lat="46.60317" lon="0.63287">
        <ele>124.4</ele>
        <time>2010-09-26T08:53:29Z</time>
      </trkpt>
      <trkpt lat="46.60322" lon="0.63298">
        <ele>123.4</ele>
        <time>2010-09-26T08:53:30Z</time>
      </trkpt>
      <trkpt lat="46.60349" lon="0.63369">
        <ele>120.8</ele>
        <time>2010-09-26T08:53:37Z</time>
      </trkpt>
      <trkpt lat="46.60354" lon="0.63373">
        <ele>120.5</ele>
        <time>2010-09-26T08:53:38Z</time>
      </trkpt>
      <trkpt lat="46.60362" lon="0.63374">
        <ele>120.8</ele>
        <time>2010-09-26T08:53:39Z</time>
      </trkpt>
      <trkpt lat="46.60376" lon="0.63378">
        <ele>119.9</ele>
        <time>2010-09-26T08:53:41Z</time>
      </trkpt>
      <trkpt lat="46.60382" lon="0.63382">
        <ele>119.5</ele>
        <time>2010-09-26T08:53:42Z</time>
      </trkpt>
      <trkpt lat="46.60389" lon="0.63385">
        <ele>119.5</ele>
        <time>2010-09-26T08:53:43Z</time>
      </trkpt>
      <trkpt lat="46.60421" lon="0.63396">
        <ele>119.5</ele>
        <time>2010-09-26T08:53:47Z</time>
      </trkpt>
      <trkpt lat="46.60427" lon="0.63397">
        <ele>119.1</ele>
        <time>2010-09-26T08:53:48Z</time>
      </trkpt>
      <trkpt lat="46.60433" lon="0.63396">
        <ele>118.9</ele>
        <time>2010-09-26T08:53:49Z</time>
      </trkpt>
      <trkpt lat="46.6044" lon="0.63392">
        <ele>118.8</ele>
        <time>2010-09-26T08:53:50Z</time>
      </trkpt>
      <trkpt lat="46.60455" lon="0.63382">
        <ele>118.8</ele>
        <time>2010-09-26T08:53:52Z</time>
      </trkpt>
      <trkpt lat="46.60491" lon="0.63356">
        <ele>121.8</ele>
        <time>2010-09-26T08:53:56Z</time>
      </trkpt>
      <trkpt lat="46.60527" lon="0.63322">
        <ele>124.5</ele>
        <time>2010-09-26T08:54:00Z</time>
      </trkpt>
      <trkpt lat="46.60576" lon="0.63277">
        <ele>128.3</ele>
        <time>2010-09-26T08:54:09Z</time>
      </trkpt>
      <trkpt lat="46.60582" lon="0.63272">
        <ele>128.3</ele>
        <time>2010-09-26T08:54:12Z</time>
      </trkpt>
      <trkpt lat="46.60584" lon="0.63269">
        <ele>128.6</ele>
        <time>2010-09-26T08:54:13Z</time>
      </trkpt>
      <trkpt lat="46.60585" lon="0.63266">
        <ele>128.8</ele>
        <time>2010-09-26T08:54:14Z</time>
      </trkpt>
      <trkpt lat="46.60586" lon="0.63261">
        <ele>129.1</ele>
        <time>2010-09-26T08:54:15Z</time>
      </trkpt>
      <trkpt lat="46.60591" lon="0.63226">
        <ele>128.6</ele>
        <time>2010-09-26T08:54:20Z</time>
      </trkpt>
      <trkpt lat="46.60593" lon="0.63219">
        <ele>128.6</ele>
        <time>2010-09-26T08:54:21Z</time>
      </trkpt>
      <trkpt lat="46.60641" lon="0.63067">
        <ele>128.5</ele>
        <time>2010-09-26T08:54:39Z</time>
      </trkpt>
      <trkpt lat="46.60645" lon="0.6306">
        <ele>128.6</ele>
        <time>2010-09-26T08:54:40Z</time>
      </trkpt>
      <trkpt lat="46.6065" lon="0.63057">
        <ele>128.8</ele>
        <time>2010-09-26T08:54:41Z</time>
      </trkpt>
      <trkpt lat="46.60657" lon="0.63059">
        <ele>129.3</ele>
        <time>2010-09-26T08:54:42Z</time>
      </trkpt>
      <trkpt lat="46.60674" lon="0.63066">
        <ele>129.3</ele>
        <time>2010-09-26T08:55:07Z</time>
      </trkpt>
      <trkpt lat="46.60674" lon="0.63066">
        <ele>129.1</ele>
        <time>2010-09-26T08:55:08Z</time>
      </trkpt>
      <trkpt lat="46.60674" lon="0.63066">
        <ele>129.1</ele>
        <time>2010-09-26T08:55:09Z</time>
      </trkpt>
      <trkpt lat="46.60674" lon="0.63066">
        <ele>129.1</ele>
        <time>2010-09-26T08:55:10Z</time>
      </trkpt>
      <trkpt lat="46.60674" lon="0.63066">
        <ele>129.1</ele>
        <time>2010-09-26T08:55:11Z</time>
      </trkpt>
      <trkpt lat="46.60674" lon="0.63066">
        <ele>129.1</ele>
        <time>2010-09-26T08:55:12Z</time>
      </trkpt>
      <trkpt lat="46.60674" lon="0.63066">
        <ele>129.1</ele>
        <time>2010-09-26T08:55:13Z</time>
      </trkpt>
      <trkpt lat="46.60674" lon="0.63066">
        <ele>129.1</ele>
        <time>2010-09-26T08:55:14Z</time>
      </trkpt>
      <trkpt lat="46.60674" lon="0.63066">
        <ele>129.1</ele>
        <time>2010-09-26T08:55:15Z</time>
      </trkpt>
      <trkpt lat="46.60674" lon="0.63066">
        <ele>129.1</ele>
        <time>2010-09-26T08:55:16Z</time>
      </trkpt>
      <trkpt lat="46.60674" lon="0.63066">
        <ele>129.1</ele>
        <time>2010-09-26T08:55:17Z</time>
      </trkpt>
      <trkpt lat="46.60674" lon="0.63066">
        <ele>129.1</ele>
        <time>2010-09-26T08:55:18Z</time>
      </trkpt>
      <trkpt lat="46.60674" lon="0.63066">
        <ele>129.1</ele>
        <time>2010-09-26T08:55:19Z</time>
      </trkpt>
      <trkpt lat="46.60674" lon="0.63066">
        <ele>129.1</ele>
        <time>2010-09-26T08:55:20Z</time>
      </trkpt>
      <trkpt lat="46.60674" lon="0.63066">
        <ele>129.1</ele>
        <time>2010-09-26T08:55:21Z</time>
      </trkpt>
      <trkpt lat="46.60674" lon="0.63066">
        <ele>129.1</ele>
        <time>2010-09-26T08:55:22Z</time>
      </trkpt>
      <trkpt lat="46.60674" lon="0.63066">
        <ele>129.1</ele>
        <time>2010-09-26T08:55:23Z</time>
      </trkpt>
      <trkpt lat="46.60674" lon="0.63066">
        <ele>129.1</ele>
        <time>2010-09-26T08:55:24Z</time>
      </trkpt>
      <trkpt lat="46.60674" lon="0.63066">
        <ele>129.1</ele>
        <time>2010-09-26T08:55:25Z</time>
      </trkpt>
      <trkpt lat="46.60674" lon="0.63066">
        <ele>129.1</ele>
        <time>2010-09-26T08:55:26Z</time>
      </trkpt>
      <trkpt lat="46.60674" lon="0.63066">
        <ele>129.1</ele>
        <time>2010-09-26T08:55:27Z</time>
      </trkpt>
      <trkpt lat="46.60674" lon="0.63066">
        <ele>129.1</ele>
        <time>2010-09-26T08:55:28Z</time>
      </trkpt>
      <trkpt lat="46.60674" lon="0.63066">
        <ele>129.1</ele>
        <time>2010-09-26T08:55:29Z</time>
      </trkpt>
      <trkpt lat="46.60675" lon="0.63066">
        <ele>129</ele>
        <time>2010-09-26T08:55:30Z</time>
      </trkpt>
      <trkpt lat="46.60675" lon="0.63066">
        <ele>129</ele>
        <time>2010-09-26T08:55:31Z</time>
      </trkpt>
      <trkpt lat="46.60675" lon="0.63066">
        <ele>129</ele>
        <time>2010-09-26T08:55:32Z</time>
      </trkpt>
      <trkpt lat="46.60675" lon="0.63066">
        <ele>129</ele>
        <time>2010-09-26T08:55:33Z</time>
      </trkpt>
      <trkpt lat="46.60675" lon="0.63066">
        <ele>129</ele>
        <time>2010-09-26T08:55:34Z</time>
      </trkpt>
      <trkpt lat="46.60675" lon="0.63066">
        <ele>129</ele>
        <time>2010-09-26T08:55:35Z</time>
      </trkpt>
      <trkpt lat="46.60675" lon="0.63066">
        <ele>129</ele>
        <time>2010-09-26T08:55:36Z</time>
      </trkpt>
      <trkpt lat="46.60675" lon="0.63066">
        <ele>129</ele>
        <time>2010-09-26T08:55:37Z</time>
      </trkpt>
      <trkpt lat="46.60675" lon="0.63066">
        <ele>129</ele>
        <time>2010-09-26T08:55:38Z</time>
      </trkpt>
      <trkpt lat="46.60675" lon="0.63066">
        <ele>128.6</ele>
        <time>2010-09-26T08:55:39Z</time>
      </trkpt>
      <trkpt lat="46.60675" lon="0.63066">
        <ele>128.6</ele>
        <time>2010-09-26T08:55:40Z</time>
      </trkpt>
      <trkpt lat="46.60675" lon="0.63066">
        <ele>128.6</ele>
        <time>2010-09-26T08:55:41Z</time>
      </trkpt>
      <trkpt lat="46.60675" lon="0.63066">
        <ele>128.6</ele>
        <time>2010-09-26T08:55:42Z</time>
      </trkpt>
      <trkpt lat="46.60675" lon="0.63066">
        <ele>128.6</ele>
        <time>2010-09-26T08:55:43Z</time>
      </trkpt>
      <trkpt lat="46.60675" lon="0.63066">
        <ele>128.6</ele>
        <time>2010-09-26T08:55:44Z</time>
      </trkpt>
      <trkpt lat="46.60675" lon="0.63066">
        <ele>128.6</ele>
        <time>2010-09-26T08:55:45Z</time>
      </trkpt>
      <trkpt lat="46.60675" lon="0.63066">
        <ele>128.6</ele>
        <time>2010-09-26T08:55:46Z</time>
      </trkpt>
      <trkpt lat="46.60675" lon="0.63066">
        <ele>128.6</ele>
        <time>2010-09-26T08:55:47Z</time>
      </trkpt>
      <trkpt lat="46.60675" lon="0.63066">
        <ele>128.6</ele>
        <time>2010-09-26T08:55:48Z</time>
      </trkpt>
      <trkpt lat="46.60675" lon="0.63066">
        <ele>128.6</ele>
        <time>2010-09-26T08:55:49Z</time>
      </trkpt>
      <trkpt lat="46.60675" lon="0.63066">
        <ele>128.6</ele>
        <time>2010-09-26T08:55:50Z</time>
      </trkpt>
      <trkpt lat="46.60675" lon="0.63066">
        <ele>128.6</ele>
        <time>2010-09-26T08:55:51Z</time>
      </trkpt>
      <trkpt lat="46.60675" lon="0.63066">
        <ele>128.6</ele>
        <time>2010-09-26T08:55:52Z</time>
      </trkpt>
      <trkpt lat="46.60675" lon="0.63066">
        <ele>128.6</ele>
        <time>2010-09-26T08:55:53Z</time>
      </trkpt>
      <trkpt lat="46.60675" lon="0.63066">
        <ele>128.6</ele>
        <time>2010-09-26T08:55:54Z</time>
      </trkpt>
      <trkpt lat="46.60675" lon="0.63066">
        <ele>128.6</ele>
        <time>2010-09-26T08:55:55Z</time>
      </trkpt>
      <trkpt lat="46.60675" lon="0.63066">
        <ele>128.6</ele>
        <time>2010-09-26T08:55:56Z</time>
      </trkpt>
      <trkpt lat="46.60675" lon="0.63066">
        <ele>128.6</ele>
        <time>2010-09-26T08:55:57Z</time>
      </trkpt>
      <trkpt lat="46.60675" lon="0.63066">
        <ele>128.6</ele>
        <time>2010-09-26T08:55:58Z</time>
      </trkpt>
      <trkpt lat="46.60675" lon="0.63066">
        <ele>128.6</ele>
        <time>2010-09-26T08:55:59Z</time>
      </trkpt>
      <trkpt lat="46.60675" lon="0.63066">
        <ele>128.6</ele>
        <time>2010-09-26T08:56:00Z</time>
      </trkpt>
      <trkpt lat="46.60675" lon="0.63066">
        <ele>128.6</ele>
        <time>2010-09-26T08:56:01Z</time>
      </trkpt>
      <trkpt lat="46.60675" lon="0.63066">
        <ele>128.6</ele>
        <time>2010-09-26T08:56:02Z</time>
      </trkpt>
      <trkpt lat="46.60675" lon="0.63066">
        <ele>128.6</ele>
        <time>2010-09-26T08:56:03Z</time>
      </trkpt>
      <trkpt lat="46.60675" lon="0.63066">
        <ele>128.6</ele>
        <time>2010-09-26T08:56:04Z</time>
      </trkpt>
      <trkpt lat="46.60675" lon="0.63066">
        <ele>128.6</ele>
        <time>2010-09-26T08:56:05Z</time>
      </trkpt>
      <trkpt lat="46.60675" lon="0.63066">
        <ele>128.6</ele>
        <time>2010-09-26T08:56:06Z</time>
      </trkpt>
      <trkpt lat="46.60675" lon="0.63066">
        <ele>128.6</ele>
        <time>2010-09-26T08:56:07Z</time>
      </trkpt>
      <trkpt lat="46.60675" lon="0.63066">
        <ele>128.6</ele>
        <time>2010-09-26T08:56:08Z</time>
      </trkpt>
      <trkpt lat="46.60675" lon="0.63066">
        <ele>128.6</ele>
        <time>2010-09-26T08:56:09Z</time>
      </trkpt>
      <trkpt lat="46.60675" lon="0.63066">
        <ele>128.6</ele>
        <time>2010-09-26T08:56:10Z</time>
      </trkpt>
      <trkpt lat="46.60675" lon="0.63066">
        <ele>128.6</ele>
        <time>2010-09-26T08:56:11Z</time>
      </trkpt>
      <trkpt lat="46.60675" lon="0.63066">
        <ele>128.6</ele>
        <time>2010-09-26T08:56:12Z</time>
      </trkpt>
      <trkpt lat="46.60675" lon="0.63066">
        <ele>128.6</ele>
        <time>2010-09-26T08:56:13Z</time>
      </trkpt>
      <trkpt lat="46.60675" lon="0.63066">
        <ele>128.6</ele>
        <time>2010-09-26T08:56:14Z</time>
      </trkpt>
      <trkpt lat="46.60675" lon="0.63066">
        <ele>128.6</ele>
        <time>2010-09-26T08:56:15Z</time>
      </trkpt>
      <trkpt lat="46.60675" lon="0.63066">
        <ele>128.6</ele>
        <time>2010-09-26T08:56:16Z</time>
      </trkpt>
      <trkpt lat="46.60675" lon="0.63066">
        <ele>128.6</ele>
        <time>2010-09-26T08:56:17Z</time>
      </trkpt>
      <trkpt lat="46.60675" lon="0.63066">
        <ele>128.6</ele>
        <time>2010-09-26T08:56:18Z</time>
      </trkpt>
      <trkpt lat="46.60675" lon="0.63066">
        <ele>128.6</ele>
        <time>2010-09-26T08:56:19Z</time>
      </trkpt>
      <trkpt lat="46.60675" lon="0.63066">
        <ele>128.6</ele>
        <time>2010-09-26T08:56:20Z</time>
      </trkpt>
      <trkpt lat="46.60675" lon="0.63066">
        <ele>128.6</ele>
        <time>2010-09-26T08:56:21Z</time>
      </trkpt>
      <trkpt lat="46.60675" lon="0.63066">
        <ele>128.6</ele>
        <time>2010-09-26T08:56:22Z</time>
      </trkpt>
      <trkpt lat="46.60675" lon="0.63066">
        <ele>128.6</ele>
        <time>2010-09-26T08:56:23Z</time>
      </trkpt>
      <trkpt lat="46.60675" lon="0.63066">
        <ele>128.6</ele>
        <time>2010-09-26T08:56:24Z</time>
      </trkpt>
      <trkpt lat="46.60675" lon="0.63066">
        <ele>128.6</ele>
        <time>2010-09-26T08:56:25Z</time>
      </trkpt>
      <trkpt lat="46.60675" lon="0.63066">
        <ele>128.6</ele>
        <time>2010-09-26T08:56:26Z</time>
      </trkpt>
      <trkpt lat="46.60675" lon="0.63066">
        <ele>128.6</ele>
        <time>2010-09-26T08:56:27Z</time>
      </trkpt>
      <trkpt lat="46.60675" lon="0.63066">
        <ele>128.6</ele>
        <time>2010-09-26T08:56:28Z</time>
      </trkpt>
      <trkpt lat="46.60675" lon="0.63066">
        <ele>128.6</ele>
        <time>2010-09-26T08:56:29Z</time>
      </trkpt>
      <trkpt lat="46.60675" lon="0.63066">
        <ele>128.6</ele>
        <time>2010-09-26T08:56:30Z</time>
      </trkpt>
      <trkpt lat="46.60675" lon="0.63066">
        <ele>128.6</ele>
        <time>2010-09-26T08:56:31Z</time>
      </trkpt>
      <trkpt lat="46.60675" lon="0.63066">
        <ele>128.6</ele>
        <time>2010-09-26T08:56:32Z</time>
      </trkpt>
      <trkpt lat="46.60675" lon="0.63066">
        <ele>128.6</ele>
        <time>2010-09-26T08:56:33Z</time>
      </trkpt>
      <trkpt lat="46.60675" lon="0.63066">
        <ele>128.6</ele>
        <time>2010-09-26T08:56:34Z</time>
      </trkpt>
      <trkpt lat="46.60675" lon="0.63066">
        <ele>128.6</ele>
        <time>2010-09-26T08:56:35Z</time>
      </trkpt>
      <trkpt lat="46.60675" lon="0.63066">
        <ele>128.6</ele>
        <time>2010-09-26T08:56:36Z</time>
      </trkpt>
      <trkpt lat="46.60675" lon="0.63066">
        <ele>128.6</ele>
        <time>2010-09-26T08:56:37Z</time>
      </trkpt>
      <trkpt lat="46.60675" lon="0.63067">
        <ele>128.3</ele>
        <time>2010-09-26T08:56:38Z</time>
      </trkpt>
      <trkpt lat="46.60675" lon="0.63067">
        <ele>128.3</ele>
        <time>2010-09-26T08:56:39Z</time>
      </trkpt>
      <trkpt lat="46.60675" lon="0.63067">
        <ele>128.3</ele>
        <time>2010-09-26T08:56:40Z</time>
      </trkpt>
      <trkpt lat="46.60675" lon="0.63067">
        <ele>128.3</ele>
        <time>2010-09-26T08:56:41Z</time>
      </trkpt>
      <trkpt lat="46.60675" lon="0.63067">
        <ele>128.1</ele>
        <time>2010-09-26T08:56:42Z</time>
      </trkpt>
      <trkpt lat="46.60675" lon="0.63067">
        <ele>128.1</ele>
        <time>2010-09-26T08:56:43Z</time>
      </trkpt>
      <trkpt lat="46.60675" lon="0.63067">
        <ele>128.1</ele>
        <time>2010-09-26T08:56:44Z</time>
      </trkpt>
      <trkpt lat="46.60675" lon="0.63067">
        <ele>128.3</ele>
        <time>2010-09-26T08:56:45Z</time>
      </trkpt>
      <trkpt lat="46.60675" lon="0.63067">
        <ele>128.3</ele>
        <time>2010-09-26T08:56:46Z</time>
      </trkpt>
      <trkpt lat="46.60675" lon="0.63067">
        <ele>128.3</ele>
        <time>2010-09-26T08:56:47Z</time>
      </trkpt>
      <trkpt lat="46.60675" lon="0.63067">
        <ele>128.6</ele>
        <time>2010-09-26T08:56:48Z</time>
      </trkpt>
      <trkpt lat="46.60675" lon="0.63067">
        <ele>128.6</ele>
        <time>2010-09-26T08:56:49Z</time>
      </trkpt>
      <trkpt lat="46.60675" lon="0.63067">
        <ele>128.6</ele>
        <time>2010-09-26T08:56:50Z</time>
      </trkpt>
      <trkpt lat="46.60675" lon="0.63067">
        <ele>128.6</ele>
        <time>2010-09-26T08:56:51Z</time>
      </trkpt>
      <trkpt lat="46.60675" lon="0.63067">
        <ele>128.6</ele>
        <time>2010-09-26T08:56:52Z</time>
      </trkpt>
      <trkpt lat="46.60675" lon="0.63067">
        <ele>128.6</ele>
        <time>2010-09-26T08:56:53Z</time>
      </trkpt>
      <trkpt lat="46.60675" lon="0.63067">
        <ele>128.6</ele>
        <time>2010-09-26T08:56:54Z</time>
      </trkpt>
      <trkpt lat="46.60675" lon="0.63067">
        <ele>128.6</ele>
        <time>2010-09-26T08:56:55Z</time>
      </trkpt>
      <trkpt lat="46.60675" lon="0.63067">
        <ele>128.6</ele>
        <time>2010-09-26T08:56:56Z</time>
      </trkpt>
      <trkpt lat="46.60675" lon="0.63068">
        <ele>128.5</ele>
        <time>2010-09-26T08:57:00Z</time>
      </trkpt>
      <trkpt lat="46.60675" lon="0.63068">
        <ele>128.6</ele>
        <time>2010-09-26T08:57:01Z</time>
      </trkpt>
      <trkpt lat="46.60675" lon="0.63068">
        <ele>128.3</ele>
        <time>2010-09-26T08:57:02Z</time>
      </trkpt>
      <trkpt lat="46.60675" lon="0.63068">
        <ele>128.3</ele>
        <time>2010-09-26T08:57:03Z</time>
      </trkpt>
      <trkpt lat="46.60675" lon="0.63068">
        <ele>128.3</ele>
        <time>2010-09-26T08:57:04Z</time>
      </trkpt>
      <trkpt lat="46.60675" lon="0.63068">
        <ele>128.3</ele>
        <time>2010-09-26T08:57:05Z</time>
      </trkpt>
      <trkpt lat="46.60675" lon="0.63068">
        <ele>128.3</ele>
        <time>2010-09-26T08:57:06Z</time>
      </trkpt>
      <trkpt lat="46.60675" lon="0.63068">
        <ele>128.3</ele>
        <time>2010-09-26T08:57:07Z</time>
      </trkpt>
      <trkpt lat="46.60675" lon="0.63068">
        <ele>128.3</ele>
        <time>2010-09-26T08:57:08Z</time>
      </trkpt>
      <trkpt lat="46.60675" lon="0.63068">
        <ele>128.3</ele>
        <time>2010-09-26T08:57:09Z</time>
      </trkpt>
      <trkpt lat="46.60675" lon="0.63068">
        <ele>128.3</ele>
        <time>2010-09-26T08:57:10Z</time>
      </trkpt>
      <trkpt lat="46.60675" lon="0.63068">
        <ele>128.3</ele>
        <time>2010-09-26T08:57:11Z</time>
      </trkpt>
      <trkpt lat="46.60675" lon="0.63068">
        <ele>128.3</ele>
        <time>2010-09-26T08:57:12Z</time>
      </trkpt>
      <trkpt lat="46.60675" lon="0.63068">
        <ele>128.3</ele>
        <time>2010-09-26T08:57:13Z</time>
      </trkpt>
      <trkpt lat="46.60675" lon="0.63068">
        <ele>128.3</ele>
        <time>2010-09-26T08:57:14Z</time>
      </trkpt>
      <trkpt lat="46.60675" lon="0.63068">
        <ele>128.3</ele>
        <time>2010-09-26T08:57:15Z</time>
      </trkpt>
      <trkpt lat="46.60675" lon="0.63068">
        <ele>128.3</ele>
        <time>2010-09-26T08:57:16Z</time>
      </trkpt>
      <trkpt lat="46.60675" lon="0.63068">
        <ele>128.3</ele>
        <time>2010-09-26T08:57:17Z</time>
      </trkpt>
      <trkpt lat="46.60675" lon="0.63068">
        <ele>128.3</ele>
        <time>2010-09-26T08:57:18Z</time>
      </trkpt>
      <trkpt lat="46.60675" lon="0.63068">
        <ele>128.3</ele>
        <time>2010-09-26T08:57:19Z</time>
      </trkpt>
      <trkpt lat="46.60675" lon="0.63068">
        <ele>128.3</ele>
        <time>2010-09-26T08:57:20Z</time>
      </trkpt>
      <trkpt lat="46.60675" lon="0.63068">
        <ele>128.3</ele>
        <time>2010-09-26T08:57:21Z</time>
      </trkpt>
      <trkpt lat="46.60675" lon="0.63068">
        <ele>128.3</ele>
        <time>2010-09-26T08:57:22Z</time>
      </trkpt>
      <trkpt lat="46.60675" lon="0.63068">
        <ele>128.3</ele>
        <time>2010-09-26T08:57:23Z</time>
      </trkpt>
      <trkpt lat="46.60675" lon="0.63068">
        <ele>128.3</ele>
        <time>2010-09-26T08:57:24Z</time>
      </trkpt>
      <trkpt lat="46.60675" lon="0.63068">
        <ele>128.3</ele>
        <time>2010-09-26T08:57:25Z</time>
      </trkpt>
      <trkpt lat="46.60675" lon="0.63068">
        <ele>128.3</ele>
        <time>2010-09-26T08:57:26Z</time>
      </trkpt>
      <trkpt lat="46.60675" lon="0.63068">
        <ele>128.3</ele>
        <time>2010-09-26T08:57:27Z</time>
      </trkpt>
      <trkpt lat="46.60675" lon="0.63068">
        <ele>128.3</ele>
        <time>2010-09-26T08:57:28Z</time>
      </trkpt>
      <trkpt lat="46.60675" lon="0.63068">
        <ele>128.3</ele>
        <time>2010-09-26T08:57:29Z</time>
      </trkpt>
      <trkpt lat="46.60675" lon="0.63068">
        <ele>128.3</ele>
        <time>2010-09-26T08:57:30Z</time>
      </trkpt>
      <trkpt lat="46.60675" lon="0.63068">
        <ele>128.3</ele>
        <time>2010-09-26T08:57:31Z</time>
      </trkpt>
      <trkpt lat="46.60676" lon="0.63067">
        <ele>128.1</ele>
        <time>2010-09-26T08:57:32Z</time>
      </trkpt>
      <trkpt lat="46.60678" lon="0.63066">
        <ele>128</ele>
        <time>2010-09-26T08:57:33Z</time>
      </trkpt>
      <trkpt lat="46.60679" lon="0.63063">
        <ele>127.9</ele>
        <time>2010-09-26T08:57:34Z</time>
      </trkpt>
      <trkpt lat="46.60685" lon="0.63053">
        <ele>128</ele>
        <time>2010-09-26T08:57:36Z</time>
      </trkpt>
      <trkpt lat="46.60689" lon="0.63049">
        <ele>128</ele>
        <time>2010-09-26T08:57:37Z</time>
      </trkpt>
      <trkpt lat="46.60695" lon="0.63045">
        <ele>127.8</ele>
        <time>2010-09-26T08:57:38Z</time>
      </trkpt>
      <trkpt lat="46.60909" lon="0.62882">
        <ele>130.6</ele>
        <time>2010-09-26T08:58:02Z</time>
      </trkpt>
      <trkpt lat="46.60912" lon="0.62883">
        <ele>131.1</ele>
        <time>2010-09-26T08:58:03Z</time>
      </trkpt>
      <trkpt lat="46.60914" lon="0.62885">
        <ele>131</ele>
        <time>2010-09-26T08:58:04Z</time>
      </trkpt>
      <trkpt lat="46.60915" lon="0.62888">
        <ele>131.5</ele>
        <time>2010-09-26T08:58:05Z</time>
      </trkpt>
      <trkpt lat="46.60945" lon="0.62979">
        <ele>133.6</ele>
        <time>2010-09-26T08:58:14Z</time>
      </trkpt>
      <trkpt lat="46.60951" lon="0.62988">
        <ele>133.8</ele>
        <time>2010-09-26T08:58:15Z</time>
      </trkpt>
      <trkpt lat="46.60959" lon="0.62997">
        <ele>133.8</ele>
        <time>2010-09-26T08:58:16Z</time>
      </trkpt>
      <trkpt lat="46.6098" lon="0.6302">
        <ele>134.1</ele>
        <time>2010-09-26T08:58:19Z</time>
      </trkpt>
      <trkpt lat="46.61065" lon="0.63107">
        <ele>136</ele>
        <time>2010-09-26T08:58:35Z</time>
      </trkpt>
      <trkpt lat="46.6107" lon="0.6311">
        <ele>136.3</ele>
        <time>2010-09-26T08:58:36Z</time>
      </trkpt>
      <trkpt lat="46.61075" lon="0.63111">
        <ele>136.5</ele>
        <time>2010-09-26T08:58:37Z</time>
      </trkpt>
      <trkpt lat="46.61081" lon="0.63109">
        <ele>136.6</ele>
        <time>2010-09-26T08:58:38Z</time>
      </trkpt>
      <trkpt lat="46.61089" lon="0.63105">
        <ele>136.8</ele>
        <time>2010-09-26T08:58:39Z</time>
      </trkpt>
      <trkpt lat="46.61113" lon="0.63087">
        <ele>137.1</ele>
        <time>2010-09-26T08:58:42Z</time>
      </trkpt>
      <trkpt lat="46.61121" lon="0.6308">
        <ele>136.6</ele>
        <time>2010-09-26T08:58:43Z</time>
      </trkpt>
      <trkpt lat="46.61197" lon="0.63013">
        <ele>133.1</ele>
        <time>2010-09-26T08:58:55Z</time>
      </trkpt>
      <trkpt lat="46.61199" lon="0.63012">
        <ele>133.1</ele>
        <time>2010-09-26T08:58:56Z</time>
      </trkpt>
      <trkpt lat="46.61201" lon="0.63013">
        <ele>133</ele>
        <time>2010-09-26T08:58:57Z</time>
      </trkpt>
      <trkpt lat="46.61204" lon="0.63017">
        <ele>132.6</ele>
        <time>2010-09-26T08:58:58Z</time>
      </trkpt>
      <trkpt lat="46.61207" lon="0.63023">
        <ele>132.3</ele>
        <time>2010-09-26T08:58:59Z</time>
      </trkpt>
      <trkpt lat="46.6121" lon="0.63033">
        <ele>132.3</ele>
        <time>2010-09-26T08:59:00Z</time>
      </trkpt>
      <trkpt lat="46.61233" lon="0.63101">
        <ele>133.1</ele>
        <time>2010-09-26T08:59:05Z</time>
      </trkpt>
      <trkpt lat="46.61394" lon="0.63545">
        <ele>133.6</ele>
        <time>2010-09-26T08:59:33Z</time>
      </trkpt>
      <trkpt lat="46.61391" lon="0.6355">
        <ele>133.8</ele>
        <time>2010-09-26T08:59:34Z</time>
      </trkpt>
      <trkpt lat="46.61386" lon="0.63555">
        <ele>133.6</ele>
        <time>2010-09-26T08:59:35Z</time>
      </trkpt>
      <trkpt lat="46.61379" lon="0.63558">
        <ele>133.3</ele>
        <time>2010-09-26T08:59:36Z</time>
      </trkpt>
      <trkpt lat="46.61176" lon="0.63654">
        <ele>125.5</ele>
        <time>2010-09-26T08:59:53Z</time>
      </trkpt>
      <trkpt lat="46.61166" lon="0.63663">
        <ele>125.3</ele>
        <time>2010-09-26T08:59:54Z</time>
      </trkpt>
      <trkpt lat="46.61156" lon="0.63674">
        <ele>124.6</ele>
        <time>2010-09-26T08:59:55Z</time>
      </trkpt>
      <trkpt lat="46.61001" lon="0.63837">
        <ele>117.4</ele>
        <time>2010-09-26T09:00:13Z</time>
      </trkpt>
      <trkpt lat="46.60995" lon="0.63842">
        <ele>117</ele>
        <time>2010-09-26T09:00:16Z</time>
      </trkpt>
      <trkpt lat="46.60995" lon="0.63844">
        <ele>117</ele>
        <time>2010-09-26T09:00:17Z</time>
      </trkpt>
      <trkpt lat="46.60995" lon="0.63846">
        <ele>117</ele>
        <time>2010-09-26T09:00:18Z</time>
      </trkpt>
      <trkpt lat="46.60997" lon="0.63846">
        <ele>117.1</ele>
        <time>2010-09-26T09:00:19Z</time>
      </trkpt>
      <trkpt lat="46.60999" lon="0.63843">
        <ele>117.3</ele>
        <time>2010-09-26T09:00:20Z</time>
      </trkpt>
      <trkpt lat="46.61001" lon="0.6384">
        <ele>117.4</ele>
        <time>2010-09-26T09:00:21Z</time>
      </trkpt>
      <trkpt lat="46.61009" lon="0.63827">
        <ele>117</ele>
        <time>2010-09-26T09:00:23Z</time>
      </trkpt>
      <trkpt lat="46.61025" lon="0.63809">
        <ele>116.9</ele>
        <time>2010-09-26T09:00:25Z</time>
      </trkpt>
      <trkpt lat="46.61185" lon="0.63644">
        <ele>120.6</ele>
        <time>2010-09-26T09:00:37Z</time>
      </trkpt>
      <trkpt lat="46.61198" lon="0.63636">
        <ele>121.4</ele>
        <time>2010-09-26T09:00:38Z</time>
      </trkpt>
      <trkpt lat="46.61397" lon="0.6354">
        <ele>128.3</ele>
        <time>2010-09-26T09:01:05Z</time>
      </trkpt>
      <trkpt lat="46.61397" lon="0.6354">
        <ele>128.6</ele>
        <time>2010-09-26T09:01:06Z</time>
      </trkpt>
      <trkpt lat="46.61398" lon="0.63541">
        <ele>128.8</ele>
        <time>2010-09-26T09:01:07Z</time>
      </trkpt>
      <trkpt lat="46.61401" lon="0.63545">
        <ele>129</ele>
        <time>2010-09-26T09:01:08Z</time>
      </trkpt>
      <trkpt lat="46.61404" lon="0.63553">
        <ele>129.1</ele>
        <time>2010-09-26T09:01:09Z</time>
      </trkpt>
      <trkpt lat="46.61462" lon="0.63721">
        <ele>133.3</ele>
        <time>2010-09-26T09:01:22Z</time>
      </trkpt>
      <trkpt lat="46.61476" lon="0.63774">
        <ele>133.3</ele>
        <time>2010-09-26T09:01:27Z</time>
      </trkpt>
      <trkpt lat="46.61476" lon="0.63782">
        <ele>133.1</ele>
        <time>2010-09-26T09:01:28Z</time>
      </trkpt>
      <trkpt lat="46.61471" lon="0.63789">
        <ele>133.3</ele>
        <time>2010-09-26T09:01:29Z</time>
      </trkpt>
      <trkpt lat="46.61464" lon="0.63795">
        <ele>133.5</ele>
        <time>2010-09-26T09:01:30Z</time>
      </trkpt>
      <trkpt lat="46.6137" lon="0.63864">
        <ele>129</ele>
        <time>2010-09-26T09:01:40Z</time>
      </trkpt>
      <trkpt lat="46.61358" lon="0.63869">
        <ele>128.1</ele>
        <time>2010-09-26T09:01:42Z</time>
      </trkpt>
      <trkpt lat="46.61352" lon="0.63869">
        <ele>127.9</ele>
        <time>2010-09-26T09:01:43Z</time>
      </trkpt>
      <trkpt lat="46.61348" lon="0.63868">
        <ele>127.5</ele>
        <time>2010-09-26T09:01:44Z</time>
      </trkpt>
      <trkpt lat="46.61343" lon="0.63864">
        <ele>127</ele>
        <time>2010-09-26T09:01:45Z</time>
      </trkpt>
      <trkpt lat="46.61339" lon="0.63859">
        <ele>127</ele>
        <time>2010-09-26T09:01:46Z</time>
      </trkpt>
      <trkpt lat="46.61321" lon="0.63832">
        <ele>125.8</ele>
        <time>2010-09-26T09:01:51Z</time>
      </trkpt>
      <trkpt lat="46.61318" lon="0.6383">
        <ele>125.4</ele>
        <time>2010-09-26T09:01:52Z</time>
      </trkpt>
      <trkpt lat="46.61314" lon="0.6383">
        <ele>125.1</ele>
        <time>2010-09-26T09:01:53Z</time>
      </trkpt>
      <trkpt lat="46.61311" lon="0.6383">
        <ele>125.1</ele>
        <time>2010-09-26T09:01:54Z</time>
      </trkpt>
      <trkpt lat="46.61308" lon="0.63828">
        <ele>124.9</ele>
        <time>2010-09-26T09:01:55Z</time>
      </trkpt>
      <trkpt lat="46.61303" lon="0.63826">
        <ele>124.4</ele>
        <time>2010-09-26T09:01:57Z</time>
      </trkpt>
      <trkpt lat="46.61301" lon="0.63827">
        <ele>124.1</ele>
        <time>2010-09-26T09:01:58Z</time>
      </trkpt>
      <trkpt lat="46.61303" lon="0.6383">
        <ele>123.9</ele>
        <time>2010-09-26T09:01:59Z</time>
      </trkpt>
      <trkpt lat="46.61305" lon="0.63831">
        <ele>124.4</ele>
        <time>2010-09-26T09:02:00Z</time>
      </trkpt>
      <trkpt lat="46.61308" lon="0.63831">
        <ele>124.5</ele>
        <time>2010-09-26T09:02:01Z</time>
      </trkpt>
      <trkpt lat="46.61312" lon="0.63831">
        <ele>124.5</ele>
        <time>2010-09-26T09:02:02Z</time>
      </trkpt>
      <trkpt lat="46.61317" lon="0.63831">
        <ele>124.8</ele>
        <time>2010-09-26T09:02:03Z</time>
      </trkpt>
      <trkpt lat="46.61322" lon="0.63833">
        <ele>124.8</ele>
        <time>2010-09-26T09:02:04Z</time>
      </trkpt>
      <trkpt lat="46.61327" lon="0.63838">
        <ele>124.8</ele>
        <time>2010-09-26T09:02:05Z</time>
      </trkpt>
      <trkpt lat="46.61332" lon="0.63845">
        <ele>124.8</ele>
        <time>2010-09-26T09:02:06Z</time>
      </trkpt>
      <trkpt lat="46.61343" lon="0.63859">
        <ele>124.5</ele>
        <time>2010-09-26T09:02:08Z</time>
      </trkpt>
      <trkpt lat="46.61348" lon="0.63864">
        <ele>124.5</ele>
        <time>2010-09-26T09:02:09Z</time>
      </trkpt>
      <trkpt lat="46.61355" lon="0.63867">
        <ele>124.8</ele>
        <time>2010-09-26T09:02:10Z</time>
      </trkpt>
      <trkpt lat="46.61363" lon="0.63867">
        <ele>124.6</ele>
        <time>2010-09-26T09:02:11Z</time>
      </trkpt>
      <trkpt lat="46.61371" lon="0.63865">
        <ele>124.4</ele>
        <time>2010-09-26T09:02:12Z</time>
      </trkpt>
      <trkpt lat="46.61379" lon="0.63859">
        <ele>125.5</ele>
        <time>2010-09-26T09:02:13Z</time>
      </trkpt>
      <trkpt lat="46.61477" lon="0.63789">
        <ele>131</ele>
        <time>2010-09-26T09:02:28Z</time>
      </trkpt>
      <trkpt lat="46.61479" lon="0.63788">
        <ele>130.8</ele>
        <time>2010-09-26T09:02:29Z</time>
      </trkpt>
      <trkpt lat="46.61479" lon="0.63788">
        <ele>130.8</ele>
        <time>2010-09-26T09:02:43Z</time>
      </trkpt>
      <trkpt lat="46.61479" lon="0.63788">
        <ele>130.8</ele>
        <time>2010-09-26T09:02:44Z</time>
      </trkpt>
      <trkpt lat="46.6148" lon="0.63789">
        <ele>130.3</ele>
        <time>2010-09-26T09:02:45Z</time>
      </trkpt>
      <trkpt lat="46.61483" lon="0.63791">
        <ele>130.1</ele>
        <time>2010-09-26T09:02:46Z</time>
      </trkpt>
      <trkpt lat="46.61486" lon="0.63796">
        <ele>129.8</ele>
        <time>2010-09-26T09:02:47Z</time>
      </trkpt>
      <trkpt lat="46.6149" lon="0.63807">
        <ele>129.8</ele>
        <time>2010-09-26T09:02:48Z</time>
      </trkpt>
      <trkpt lat="46.61859" lon="0.64803">
        <ele>139.1</ele>
        <time>2010-09-26T09:03:38Z</time>
      </trkpt>
      <trkpt lat="46.6186" lon="0.64808">
        <ele>139.3</ele>
        <time>2010-09-26T09:03:39Z</time>
      </trkpt>
      <trkpt lat="46.61859" lon="0.64813">
        <ele>138.8</ele>
        <time>2010-09-26T09:03:40Z</time>
      </trkpt>
      <trkpt lat="46.61857" lon="0.64817">
        <ele>138.8</ele>
        <time>2010-09-26T09:03:41Z</time>
      </trkpt>
      <trkpt lat="46.61853" lon="0.6482">
        <ele>139</ele>
        <time>2010-09-26T09:03:42Z</time>
      </trkpt>
      <trkpt lat="46.61849" lon="0.64822">
        <ele>139</ele>
        <time>2010-09-26T09:03:43Z</time>
      </trkpt>
      <trkpt lat="46.61472" lon="0.65027">
        <ele>141.8</ele>
        <time>2010-09-26T09:04:11Z</time>
      </trkpt>
      <trkpt lat="46.61455" lon="0.65031">
        <ele>142</ele>
        <time>2010-09-26T09:04:12Z</time>
      </trkpt>
      <trkpt lat="46.61375" lon="0.65037">
        <ele>141.6</ele>
        <time>2010-09-26T09:04:17Z</time>
      </trkpt>
      <trkpt lat="46.60875" lon="0.65025">
        <ele>130</ele>
        <time>2010-09-26T09:04:54Z</time>
      </trkpt>
      <trkpt lat="46.60861" lon="0.65022">
        <ele>129.5</ele>
        <time>2010-09-26T09:04:55Z</time>
      </trkpt>
      <trkpt lat="46.60832" lon="0.6501">
        <ele>128.3</ele>
        <time>2010-09-26T09:04:57Z</time>
      </trkpt>
      <trkpt lat="46.60394" lon="0.64777">
        <ele>128</ele>
        <time>2010-09-26T09:05:31Z</time>
      </trkpt>
      <trkpt lat="46.60391" lon="0.64783">
        <ele>128.3</ele>
        <time>2010-09-26T09:05:32Z</time>
      </trkpt>
      <trkpt lat="46.6039" lon="0.64794">
        <ele>128.5</ele>
        <time>2010-09-26T09:05:33Z</time>
      </trkpt>
      <trkpt lat="46.60392" lon="0.64808">
        <ele>129</ele>
        <time>2010-09-26T09:05:34Z</time>
      </trkpt>
      <trkpt lat="46.60428" lon="0.65106">
        <ele>134.6</ele>
        <time>2010-09-26T09:05:47Z</time>
      </trkpt>
      <trkpt lat="46.60433" lon="0.65126">
        <ele>134.5</ele>
        <time>2010-09-26T09:05:48Z</time>
      </trkpt>
      <trkpt lat="46.6044" lon="0.65144">
        <ele>134.8</ele>
        <time>2010-09-26T09:05:49Z</time>
      </trkpt>
      <trkpt lat="46.6049" lon="0.65277">
        <ele>137.1</ele>
        <time>2010-09-26T09:05:56Z</time>
      </trkpt>
      <trkpt lat="46.60494" lon="0.65299">
        <ele>137.5</ele>
        <time>2010-09-26T09:05:57Z</time>
      </trkpt>
      <trkpt lat="46.60502" lon="0.6536">
        <ele>138.5</ele>
        <time>2010-09-26T09:06:00Z</time>
      </trkpt>
      <trkpt lat="46.60505" lon="0.65411">
        <ele>138.5</ele>
        <time>2010-09-26T09:06:03Z</time>
      </trkpt>
      <trkpt lat="46.60504" lon="0.65424">
        <ele>138.6</ele>
        <time>2010-09-26T09:06:04Z</time>
      </trkpt>
      <trkpt lat="46.60503" lon="0.65436">
        <ele>138.5</ele>
        <time>2010-09-26T09:06:05Z</time>
      </trkpt>
      <trkpt lat="46.605" lon="0.65445">
        <ele>138.5</ele>
        <time>2010-09-26T09:06:06Z</time>
      </trkpt>
      <trkpt lat="46.60495" lon="0.65453">
        <ele>138.6</ele>
        <time>2010-09-26T09:06:07Z</time>
      </trkpt>
      <trkpt lat="46.60489" lon="0.65461">
        <ele>138.3</ele>
        <time>2010-09-26T09:06:08Z</time>
      </trkpt>
      <trkpt lat="46.60387" lon="0.65579">
        <ele>140.6</ele>
        <time>2010-09-26T09:06:20Z</time>
      </trkpt>
      <trkpt lat="46.60381" lon="0.65584">
        <ele>140.8</ele>
        <time>2010-09-26T09:06:21Z</time>
      </trkpt>
      <trkpt lat="46.60374" lon="0.65587">
        <ele>141.3</ele>
        <time>2010-09-26T09:06:22Z</time>
      </trkpt>
      <trkpt lat="46.60366" lon="0.6559">
        <ele>141.5</ele>
        <time>2010-09-26T09:06:23Z</time>
      </trkpt>
      <trkpt lat="46.60358" lon="0.65591">
        <ele>141.1</ele>
        <time>2010-09-26T09:06:24Z</time>
      </trkpt>
      <trkpt lat="46.60307" lon="0.65595">
        <ele>141.8</ele>
        <time>2010-09-26T09:06:30Z</time>
      </trkpt>
      <trkpt lat="46.603" lon="0.65597">
        <ele>142.3</ele>
        <time>2010-09-26T09:06:31Z</time>
      </trkpt>
      <trkpt lat="46.60295" lon="0.656">
        <ele>142.6</ele>
        <time>2010-09-26T09:06:32Z</time>
      </trkpt>
      <trkpt lat="46.60293" lon="0.65606">
        <ele>142.8</ele>
        <time>2010-09-26T09:06:33Z</time>
      </trkpt>
      <trkpt lat="46.60292" lon="0.65612">
        <ele>142.8</ele>
        <time>2010-09-26T09:06:34Z</time>
      </trkpt>
      <trkpt lat="46.60289" lon="0.65629">
        <ele>143.1</ele>
        <time>2010-09-26T09:06:37Z</time>
      </trkpt>
      <trkpt lat="46.60286" lon="0.65633">
        <ele>143.1</ele>
        <time>2010-09-26T09:06:38Z</time>
      </trkpt>
      <trkpt lat="46.60282" lon="0.65636">
        <ele>143</ele>
        <time>2010-09-26T09:06:39Z</time>
      </trkpt>
      <trkpt lat="46.60214" lon="0.65675">
        <ele>142.8</ele>
        <time>2010-09-26T09:06:50Z</time>
      </trkpt>
      <trkpt lat="46.60206" lon="0.65682">
        <ele>142.6</ele>
        <time>2010-09-26T09:06:51Z</time>
      </trkpt>
      <trkpt lat="46.60199" lon="0.65691">
        <ele>142.5</ele>
        <time>2010-09-26T09:06:52Z</time>
      </trkpt>
      <trkpt lat="46.60029" lon="0.65881">
        <ele>143.6</ele>
        <time>2010-09-26T09:07:12Z</time>
      </trkpt>
      <trkpt lat="46.60024" lon="0.65892">
        <ele>143.8</ele>
        <time>2010-09-26T09:07:13Z</time>
      </trkpt>
      <trkpt lat="46.60021" lon="0.65905">
        <ele>144.1</ele>
        <time>2010-09-26T09:07:14Z</time>
      </trkpt>
      <trkpt lat="46.60012" lon="0.65931">
        <ele>144.3</ele>
        <time>2010-09-26T09:07:16Z</time>
      </trkpt>
      <trkpt lat="46.60006" lon="0.65941">
        <ele>144.8</ele>
        <time>2010-09-26T09:07:17Z</time>
      </trkpt>
      <trkpt lat="46.59986" lon="0.65965">
        <ele>145.8</ele>
        <time>2010-09-26T09:07:20Z</time>
      </trkpt>
      <trkpt lat="46.5992" lon="0.66042">
        <ele>147.1</ele>
        <time>2010-09-26T09:07:33Z</time>
      </trkpt>
      <trkpt lat="46.5992" lon="0.66044">
        <ele>147.3</ele>
        <time>2010-09-26T09:07:34Z</time>
      </trkpt>
      <trkpt lat="46.5992" lon="0.66044">
        <ele>147.3</ele>
        <time>2010-09-26T09:07:35Z</time>
      </trkpt>
      <trkpt lat="46.5992" lon="0.66044">
        <ele>147.3</ele>
        <time>2010-09-26T09:07:36Z</time>
      </trkpt>
      <trkpt lat="46.5992" lon="0.66044">
        <ele>147.3</ele>
        <time>2010-09-26T09:07:37Z</time>
      </trkpt>
      <trkpt lat="46.5992" lon="0.66044">
        <ele>147.3</ele>
        <time>2010-09-26T09:07:38Z</time>
      </trkpt>
      <trkpt lat="46.5992" lon="0.66044">
        <ele>147.3</ele>
        <time>2010-09-26T09:07:39Z</time>
      </trkpt>
      <trkpt lat="46.5992" lon="0.66044">
        <ele>147.3</ele>
        <time>2010-09-26T09:07:40Z</time>
      </trkpt>
      <trkpt lat="46.5992" lon="0.66044">
        <ele>147.3</ele>
        <time>2010-09-26T09:07:41Z</time>
      </trkpt>
      <trkpt lat="46.59919" lon="0.66044">
        <ele>147.1</ele>
        <time>2010-09-26T09:07:42Z</time>
      </trkpt>
      <trkpt lat="46.59919" lon="0.66044">
        <ele>146.8</ele>
        <time>2010-09-26T09:07:43Z</time>
      </trkpt>
      <trkpt lat="46.59917" lon="0.66044">
        <ele>146.6</ele>
        <time>2010-09-26T09:07:44Z</time>
      </trkpt>
      <trkpt lat="46.59914" lon="0.66043">
        <ele>146.5</ele>
        <time>2010-09-26T09:07:45Z</time>
      </trkpt>
      <trkpt lat="46.59909" lon="0.66039">
        <ele>146.6</ele>
        <time>2010-09-26T09:07:46Z</time>
      </trkpt>
      <trkpt lat="46.59905" lon="0.66034">
        <ele>146.6</ele>
        <time>2010-09-26T09:07:47Z</time>
      </trkpt>
      <trkpt lat="46.59814" lon="0.65937">
        <ele>146.5</ele>
        <time>2010-09-26T09:07:58Z</time>
      </trkpt>
      <trkpt lat="46.59806" lon="0.65925">
        <ele>146.1</ele>
        <time>2010-09-26T09:07:59Z</time>
      </trkpt>
      <trkpt lat="46.59776" lon="0.65878">
        <ele>145.5</ele>
        <time>2010-09-26T09:08:03Z</time>
      </trkpt>
      <trkpt lat="46.59767" lon="0.65868">
        <ele>145.1</ele>
        <time>2010-09-26T09:08:04Z</time>
      </trkpt>
      <trkpt lat="46.59759" lon="0.65859">
        <ele>145.1</ele>
        <time>2010-09-26T09:08:05Z</time>
      </trkpt>
      <trkpt lat="46.5974" lon="0.65842">
        <ele>145.3</ele>
        <time>2010-09-26T09:08:07Z</time>
      </trkpt>
      <trkpt lat="46.59669" lon="0.6579">
        <ele>144.3</ele>
        <time>2010-09-26T09:08:14Z</time>
      </trkpt>
      <trkpt lat="46.59659" lon="0.65784">
        <ele>144.1</ele>
        <time>2010-09-26T09:08:15Z</time>
      </trkpt>
      <trkpt lat="46.59522" lon="0.65707">
        <ele>140.6</ele>
        <time>2010-09-26T09:08:29Z</time>
      </trkpt>
      <trkpt lat="46.59496" lon="0.657">
        <ele>140.1</ele>
        <time>2010-09-26T09:08:31Z</time>
      </trkpt>
      <trkpt lat="46.59425" lon="0.6568">
        <ele>139.6</ele>
        <time>2010-09-26T09:08:38Z</time>
      </trkpt>
      <trkpt lat="46.59421" lon="0.65676">
        <ele>139.1</ele>
        <time>2010-09-26T09:08:39Z</time>
      </trkpt>
      <trkpt lat="46.59419" lon="0.65674">
        <ele>139.1</ele>
        <time>2010-09-26T09:08:40Z</time>
      </trkpt>
      <trkpt lat="46.59418" lon="0.65672">
        <ele>138.8</ele>
        <time>2010-09-26T09:09:11Z</time>
      </trkpt>
      <trkpt lat="46.59418" lon="0.65673">
        <ele>138.8</ele>
        <time>2010-09-26T09:09:12Z</time>
      </trkpt>
      <trkpt lat="46.59418" lon="0.65673">
        <ele>138.8</ele>
        <time>2010-09-26T09:09:13Z</time>
      </trkpt>
      <trkpt lat="46.59418" lon="0.65672">
        <ele>138.8</ele>
        <time>2010-09-26T09:09:14Z</time>
      </trkpt>
      <trkpt lat="46.59418" lon="0.65672">
        <ele>138.8</ele>
        <time>2010-09-26T09:09:15Z</time>
      </trkpt>
      <trkpt lat="46.59418" lon="0.65672">
        <ele>138.8</ele>
        <time>2010-09-26T09:09:16Z</time>
      </trkpt>
      <trkpt lat="46.59418" lon="0.65672">
        <ele>138.8</ele>
        <time>2010-09-26T09:09:17Z</time>
      </trkpt>
      <trkpt lat="46.59418" lon="0.65672">
        <ele>138.8</ele>
        <time>2010-09-26T09:09:18Z</time>
      </trkpt>
      <trkpt lat="46.59418" lon="0.65672">
        <ele>138.8</ele>
        <time>2010-09-26T09:09:19Z</time>
      </trkpt>
      <trkpt lat="46.59418" lon="0.65672">
        <ele>138.8</ele>
        <time>2010-09-26T09:09:20Z</time>
      </trkpt>
      <trkpt lat="46.59418" lon="0.65672">
        <ele>138.8</ele>
        <time>2010-09-26T09:09:21Z</time>
      </trkpt>
      <trkpt lat="46.59418" lon="0.65672">
        <ele>138.8</ele>
        <time>2010-09-26T09:09:22Z</time>
      </trkpt>
      <trkpt lat="46.59418" lon="0.65672">
        <ele>138.8</ele>
        <time>2010-09-26T09:09:23Z</time>
      </trkpt>
      <trkpt lat="46.59418" lon="0.65672">
        <ele>138.8</ele>
        <time>2010-09-26T09:09:24Z</time>
      </trkpt>
      <trkpt lat="46.59418" lon="0.65672">
        <ele>138.8</ele>
        <time>2010-09-26T09:09:25Z</time>
      </trkpt>
      <trkpt lat="46.59418" lon="0.65672">
        <ele>138.8</ele>
        <time>2010-09-26T09:09:26Z</time>
      </trkpt>
      <trkpt lat="46.59418" lon="0.65672">
        <ele>138.8</ele>
        <time>2010-09-26T09:09:27Z</time>
      </trkpt>
      <trkpt lat="46.59418" lon="0.65672">
        <ele>138.8</ele>
        <time>2010-09-26T09:09:28Z</time>
      </trkpt>
      <trkpt lat="46.59418" lon="0.65672">
        <ele>138.8</ele>
        <time>2010-09-26T09:09:29Z</time>
      </trkpt>
      <trkpt lat="46.59418" lon="0.65672">
        <ele>138.6</ele>
        <time>2010-09-26T09:09:30Z</time>
      </trkpt>
      <trkpt lat="46.59419" lon="0.65673">
        <ele>138.5</ele>
        <time>2010-09-26T09:11:12Z</time>
      </trkpt>
      <trkpt lat="46.59419" lon="0.65673">
        <ele>138.3</ele>
        <time>2010-09-26T09:11:13Z</time>
      </trkpt>
      <trkpt lat="46.59419" lon="0.65673">
        <ele>138.3</ele>
        <time>2010-09-26T09:11:14Z</time>
      </trkpt>
      <trkpt lat="46.59419" lon="0.65673">
        <ele>138.3</ele>
        <time>2010-09-26T09:11:15Z</time>
      </trkpt>
      <trkpt lat="46.59419" lon="0.65673">
        <ele>138.5</ele>
        <time>2010-09-26T09:11:16Z</time>
      </trkpt>
      <trkpt lat="46.59419" lon="0.65673">
        <ele>138.5</ele>
        <time>2010-09-26T09:11:17Z</time>
      </trkpt>
      <trkpt lat="46.59419" lon="0.65673">
        <ele>138.5</ele>
        <time>2010-09-26T09:11:18Z</time>
      </trkpt>
      <trkpt lat="46.59419" lon="0.65673">
        <ele>138.5</ele>
        <time>2010-09-26T09:11:19Z</time>
      </trkpt>
      <trkpt lat="46.59419" lon="0.65673">
        <ele>138.5</ele>
        <time>2010-09-26T09:11:20Z</time>
      </trkpt>
      <trkpt lat="46.59419" lon="0.65673">
        <ele>138.5</ele>
        <time>2010-09-26T09:11:21Z</time>
      </trkpt>
      <trkpt lat="46.59419" lon="0.65673">
        <ele>138.5</ele>
        <time>2010-09-26T09:11:22Z</time>
      </trkpt>
      <trkpt lat="46.59419" lon="0.65673">
        <ele>138.5</ele>
        <time>2010-09-26T09:11:23Z</time>
      </trkpt>
      <trkpt lat="46.59419" lon="0.65673">
        <ele>138.5</ele>
        <time>2010-09-26T09:11:24Z</time>
      </trkpt>
      <trkpt lat="46.59419" lon="0.65673">
        <ele>138.5</ele>
        <time>2010-09-26T09:11:25Z</time>
      </trkpt>
      <trkpt lat="46.59419" lon="0.65673">
        <ele>138.5</ele>
        <time>2010-09-26T09:11:26Z</time>
      </trkpt>
      <trkpt lat="46.59419" lon="0.65673">
        <ele>138.5</ele>
        <time>2010-09-26T09:11:27Z</time>
      </trkpt>
      <trkpt lat="46.59419" lon="0.65673">
        <ele>138.5</ele>
        <time>2010-09-26T09:11:28Z</time>
      </trkpt>
      <trkpt lat="46.59419" lon="0.65673">
        <ele>138.5</ele>
        <time>2010-09-26T09:11:29Z</time>
      </trkpt>
      <trkpt lat="46.59419" lon="0.65673">
        <ele>138.5</ele>
        <time>2010-09-26T09:11:30Z</time>
      </trkpt>
      <trkpt lat="46.59419" lon="0.65673">
        <ele>138.5</ele>
        <time>2010-09-26T09:11:31Z</time>
      </trkpt>
      <trkpt lat="46.59419" lon="0.65673">
        <ele>138.5</ele>
        <time>2010-09-26T09:11:32Z</time>
      </trkpt>
      <trkpt lat="46.59419" lon="0.65673">
        <ele>138.5</ele>
        <time>2010-09-26T09:11:33Z</time>
      </trkpt>
      <trkpt lat="46.59419" lon="0.65673">
        <ele>138.5</ele>
        <time>2010-09-26T09:11:34Z</time>
      </trkpt>
      <trkpt lat="46.59419" lon="0.65673">
        <ele>138.5</ele>
        <time>2010-09-26T09:11:35Z</time>
      </trkpt>
      <trkpt lat="46.59419" lon="0.65673">
        <ele>138.5</ele>
        <time>2010-09-26T09:11:36Z</time>
      </trkpt>
      <trkpt lat="46.59419" lon="0.65673">
        <ele>138.5</ele>
        <time>2010-09-26T09:11:37Z</time>
      </trkpt>
      <trkpt lat="46.59419" lon="0.65673">
        <ele>138.5</ele>
        <time>2010-09-26T09:11:38Z</time>
      </trkpt>
      <trkpt lat="46.59419" lon="0.65673">
        <ele>138.5</ele>
        <time>2010-09-26T09:11:39Z</time>
      </trkpt>
      <trkpt lat="46.59419" lon="0.65673">
        <ele>138.5</ele>
        <time>2010-09-26T09:11:40Z</time>
      </trkpt>
      <trkpt lat="46.59419" lon="0.65673">
        <ele>138.5</ele>
        <time>2010-09-26T09:11:41Z</time>
      </trkpt>
      <trkpt lat="46.59419" lon="0.65673">
        <ele>138.5</ele>
        <time>2010-09-26T09:11:42Z</time>
      </trkpt>
      <trkpt lat="46.59419" lon="0.65673">
        <ele>138.5</ele>
        <time>2010-09-26T09:11:43Z</time>
      </trkpt>
      <trkpt lat="46.59419" lon="0.65673">
        <ele>138.5</ele>
        <time>2010-09-26T09:11:44Z</time>
      </trkpt>
      <trkpt lat="46.59418" lon="0.65673">
        <ele>138.3</ele>
        <time>2010-09-26T09:11:45Z</time>
      </trkpt>
      <trkpt lat="46.59417" lon="0.65671">
        <ele>138</ele>
        <time>2010-09-26T09:11:46Z</time>
      </trkpt>
      <trkpt lat="46.59413" lon="0.65668">
        <ele>137.6</ele>
        <time>2010-09-26T09:11:47Z</time>
      </trkpt>
      <trkpt lat="46.59408" lon="0.65665">
        <ele>137.6</ele>
        <time>2010-09-26T09:11:48Z</time>
      </trkpt>
      <trkpt lat="46.59058" lon="0.65448">
        <ele>138.6</ele>
        <time>2010-09-26T09:12:15Z</time>
      </trkpt>
      <trkpt lat="46.59045" lon="0.65447">
        <ele>138.6</ele>
        <time>2010-09-26T09:12:16Z</time>
      </trkpt>
      <trkpt lat="46.59033" lon="0.65448">
        <ele>138.5</ele>
        <time>2010-09-26T09:12:17Z</time>
      </trkpt>
      <trkpt lat="46.59022" lon="0.65452">
        <ele>137.8</ele>
        <time>2010-09-26T09:12:18Z</time>
      </trkpt>
      <trkpt lat="46.59011" lon="0.65457">
        <ele>137.6</ele>
        <time>2010-09-26T09:12:19Z</time>
      </trkpt>
      <trkpt lat="46.59001" lon="0.65464">
        <ele>137.5</ele>
        <time>2010-09-26T09:12:20Z</time>
      </trkpt>
      <trkpt lat="46.58991" lon="0.65473">
        <ele>137.3</ele>
        <time>2010-09-26T09:12:21Z</time>
      </trkpt>
      <trkpt lat="46.5897" lon="0.65496">
        <ele>137.3</ele>
        <time>2010-09-26T09:12:23Z</time>
      </trkpt>
      <trkpt lat="46.58778" lon="0.65684">
        <ele>138.1</ele>
        <time>2010-09-26T09:12:39Z</time>
      </trkpt>
      <trkpt lat="46.58767" lon="0.65693">
        <ele>138</ele>
        <time>2010-09-26T09:12:40Z</time>
      </trkpt>
      <trkpt lat="46.58692" lon="0.65744">
        <ele>137.6</ele>
        <time>2010-09-26T09:12:47Z</time>
      </trkpt>
      <trkpt lat="46.58683" lon="0.65752">
        <ele>137.6</ele>
        <time>2010-09-26T09:12:48Z</time>
      </trkpt>
      <trkpt lat="46.58643" lon="0.65791">
        <ele>138.1</ele>
        <time>2010-09-26T09:13:02Z</time>
      </trkpt>
      <trkpt lat="46.58642" lon="0.65792">
        <ele>138.1</ele>
        <time>2010-09-26T09:13:03Z</time>
      </trkpt>
      <trkpt lat="46.58638" lon="0.65797">
        <ele>138</ele>
        <time>2010-09-26T09:13:04Z</time>
      </trkpt>
      <trkpt lat="46.58634" lon="0.65803">
        <ele>137.8</ele>
        <time>2010-09-26T09:13:05Z</time>
      </trkpt>
      <trkpt lat="46.58619" lon="0.6582">
        <ele>137.6</ele>
        <time>2010-09-26T09:13:07Z</time>
      </trkpt>
      <trkpt lat="46.58608" lon="0.65828">
        <ele>137.5</ele>
        <time>2010-09-26T09:13:08Z</time>
      </trkpt>
      <trkpt lat="46.58584" lon="0.6584">
        <ele>137.1</ele>
        <time>2010-09-26T09:13:10Z</time>
      </trkpt>
      <trkpt lat="46.58569" lon="0.65842">
        <ele>136.6</ele>
        <time>2010-09-26T09:13:11Z</time>
      </trkpt>
      <trkpt lat="46.58491" lon="0.65851">
        <ele>136</ele>
        <time>2010-09-26T09:13:16Z</time>
      </trkpt>
      <trkpt lat="46.58476" lon="0.65857">
        <ele>135.8</ele>
        <time>2010-09-26T09:13:17Z</time>
      </trkpt>
      <trkpt lat="46.58463" lon="0.65863">
        <ele>135.6</ele>
        <time>2010-09-26T09:13:18Z</time>
      </trkpt>
      <trkpt lat="46.58351" lon="0.65898">
        <ele>134.1</ele>
        <time>2010-09-26T09:13:29Z</time>
      </trkpt>
      <trkpt lat="46.58344" lon="0.65896">
        <ele>134.6</ele>
        <time>2010-09-26T09:13:30Z</time>
      </trkpt>
      <trkpt lat="46.58309" lon="0.65884">
        <ele>133.5</ele>
        <time>2010-09-26T09:13:34Z</time>
      </trkpt>
      <trkpt lat="46.58201" lon="0.65827">
        <ele>131.1</ele>
        <time>2010-09-26T09:13:45Z</time>
      </trkpt>
      <trkpt lat="46.58175" lon="0.65814">
        <ele>130.1</ele>
        <time>2010-09-26T09:13:48Z</time>
      </trkpt>
      <trkpt lat="46.58167" lon="0.65813">
        <ele>129.6</ele>
        <time>2010-09-26T09:13:49Z</time>
      </trkpt>
      <trkpt lat="46.5816" lon="0.65813">
        <ele>129.1</ele>
        <time>2010-09-26T09:13:50Z</time>
      </trkpt>
      <trkpt lat="46.58149" lon="0.65815">
        <ele>128.6</ele>
        <time>2010-09-26T09:13:52Z</time>
      </trkpt>
      <trkpt lat="46.58136" lon="0.65817">
        <ele>128.6</ele>
        <time>2010-09-26T09:13:55Z</time>
      </trkpt>
      <trkpt lat="46.58131" lon="0.65815">
        <ele>128.6</ele>
        <time>2010-09-26T09:13:56Z</time>
      </trkpt>
      <trkpt lat="46.58036" lon="0.65784">
        <ele>126.4</ele>
        <time>2010-09-26T09:14:04Z</time>
      </trkpt>
      <trkpt lat="46.57951" lon="0.65752">
        <ele>127.4</ele>
        <time>2010-09-26T09:14:10Z</time>
      </trkpt>
      <trkpt lat="46.57938" lon="0.65742">
        <ele>127.4</ele>
        <time>2010-09-26T09:14:11Z</time>
      </trkpt>
      <trkpt lat="46.57819" lon="0.65644">
        <ele>125</ele>
        <time>2010-09-26T09:14:21Z</time>
      </trkpt>
      <trkpt lat="46.57807" lon="0.65639">
        <ele>124.5</ele>
        <time>2010-09-26T09:14:22Z</time>
      </trkpt>
      <trkpt lat="46.57774" lon="0.65625">
        <ele>122.6</ele>
        <time>2010-09-26T09:14:26Z</time>
      </trkpt>
      <trkpt lat="46.57768" lon="0.6562">
        <ele>121.9</ele>
        <time>2010-09-26T09:14:27Z</time>
      </trkpt>
      <trkpt lat="46.57756" lon="0.6561">
        <ele>120.5</ele>
        <time>2010-09-26T09:14:29Z</time>
      </trkpt>
      <trkpt lat="46.57752" lon="0.65605">
        <ele>119.8</ele>
        <time>2010-09-26T09:14:30Z</time>
      </trkpt>
      <trkpt lat="46.57746" lon="0.65598">
        <ele>119.3</ele>
        <time>2010-09-26T09:14:33Z</time>
      </trkpt>
      <trkpt lat="46.57744" lon="0.65598">
        <ele>118.5</ele>
        <time>2010-09-26T09:14:34Z</time>
      </trkpt>
      <trkpt lat="46.57743" lon="0.65599">
        <ele>118.1</ele>
        <time>2010-09-26T09:14:35Z</time>
      </trkpt>
      <trkpt lat="46.57745" lon="0.65601">
        <ele>117.8</ele>
        <time>2010-09-26T09:14:36Z</time>
      </trkpt>
      <trkpt lat="46.57747" lon="0.65603">
        <ele>117.5</ele>
        <time>2010-09-26T09:14:37Z</time>
      </trkpt>
      <trkpt lat="46.57758" lon="0.6561">
        <ele>117.3</ele>
        <time>2010-09-26T09:14:39Z</time>
      </trkpt>
      <trkpt lat="46.57772" lon="0.65624">
        <ele>116.5</ele>
        <time>2010-09-26T09:14:41Z</time>
      </trkpt>
      <trkpt lat="46.57782" lon="0.65639">
        <ele>117.4</ele>
        <time>2010-09-26T09:14:43Z</time>
      </trkpt>
      <trkpt lat="46.57784" lon="0.65648">
        <ele>116.9</ele>
        <time>2010-09-26T09:14:44Z</time>
      </trkpt>
      <trkpt lat="46.57785" lon="0.65657">
        <ele>116.6</ele>
        <time>2010-09-26T09:14:45Z</time>
      </trkpt>
      <trkpt lat="46.57783" lon="0.65669">
        <ele>116.5</ele>
        <time>2010-09-26T09:14:46Z</time>
      </trkpt>
      <trkpt lat="46.57779" lon="0.65685">
        <ele>116.5</ele>
        <time>2010-09-26T09:14:47Z</time>
      </trkpt>
      <trkpt lat="46.57683" lon="0.66055">
        <ele>115.9</ele>
        <time>2010-09-26T09:15:06Z</time>
      </trkpt>
      <trkpt lat="46.57683" lon="0.66063">
        <ele>115.5</ele>
        <time>2010-09-26T09:15:07Z</time>
      </trkpt>
      <trkpt lat="46.57686" lon="0.6607">
        <ele>115.4</ele>
        <time>2010-09-26T09:15:08Z</time>
      </trkpt>
      <trkpt lat="46.57691" lon="0.66074">
        <ele>115</ele>
        <time>2010-09-26T09:15:09Z</time>
      </trkpt>
      <trkpt lat="46.57696" lon="0.66077">
        <ele>115</ele>
        <time>2010-09-26T09:15:10Z</time>
      </trkpt>
      <trkpt lat="46.57707" lon="0.66085">
        <ele>115.5</ele>
        <time>2010-09-26T09:15:13Z</time>
      </trkpt>
      <trkpt lat="46.57709" lon="0.66088">
        <ele>115</ele>
        <time>2010-09-26T09:15:14Z</time>
      </trkpt>
      <trkpt lat="46.57708" lon="0.66092">
        <ele>114.6</ele>
        <time>2010-09-26T09:15:15Z</time>
      </trkpt>
      <trkpt lat="46.57706" lon="0.66096">
        <ele>114.6</ele>
        <time>2010-09-26T09:15:16Z</time>
      </trkpt>
      <trkpt lat="46.57703" lon="0.66101">
        <ele>114.8</ele>
        <time>2010-09-26T09:15:17Z</time>
      </trkpt>
      <trkpt lat="46.577" lon="0.66108">
        <ele>114.8</ele>
        <time>2010-09-26T09:15:18Z</time>
      </trkpt>
      <trkpt lat="46.57678" lon="0.66182">
        <ele>110.5</ele>
        <time>2010-09-26T09:15:26Z</time>
      </trkpt>
      <trkpt lat="46.57676" lon="0.66191">
        <ele>110.4</ele>
        <time>2010-09-26T09:15:27Z</time>
      </trkpt>
      <trkpt lat="46.57674" lon="0.66208">
        <ele>109</ele>
        <time>2010-09-26T09:15:29Z</time>
      </trkpt>
      <trkpt lat="46.57672" lon="0.66214">
        <ele>108.4</ele>
        <time>2010-09-26T09:15:30Z</time>
      </trkpt>
      <trkpt lat="46.57669" lon="0.66218">
        <ele>108</ele>
        <time>2010-09-26T09:15:31Z</time>
      </trkpt>
      <trkpt lat="46.57667" lon="0.66219">
        <ele>107.6</ele>
        <time>2010-09-26T09:15:32Z</time>
      </trkpt>
      <trkpt lat="46.57663" lon="0.66218">
        <ele>107</ele>
        <time>2010-09-26T09:15:33Z</time>
      </trkpt>
      <trkpt lat="46.5766" lon="0.6622">
        <ele>106.1</ele>
        <time>2010-09-26T09:15:34Z</time>
      </trkpt>
      <trkpt lat="46.57657" lon="0.66224">
        <ele>105.9</ele>
        <time>2010-09-26T09:15:35Z</time>
      </trkpt>
      <trkpt lat="46.57652" lon="0.66225">
        <ele>105.5</ele>
        <time>2010-09-26T09:15:36Z</time>
      </trkpt>
      <trkpt lat="46.57647" lon="0.66224">
        <ele>105</ele>
        <time>2010-09-26T09:15:37Z</time>
      </trkpt>
      <trkpt lat="46.57634" lon="0.66223">
        <ele>102.9</ele>
        <time>2010-09-26T09:15:39Z</time>
      </trkpt>
      <trkpt lat="46.57627" lon="0.66225">
        <ele>101.9</ele>
        <time>2010-09-26T09:15:40Z</time>
      </trkpt>
      <trkpt lat="46.57617" lon="0.66228">
        <ele>99.6</ele>
        <time>2010-09-26T09:15:42Z</time>
      </trkpt>
      <trkpt lat="46.57613" lon="0.66232">
        <ele>98.8</ele>
        <time>2010-09-26T09:15:43Z</time>
      </trkpt>
      <trkpt lat="46.57611" lon="0.66238">
        <ele>98.3</ele>
        <time>2010-09-26T09:15:44Z</time>
      </trkpt>
      <trkpt lat="46.57603" lon="0.66255">
        <ele>96</ele>
        <time>2010-09-26T09:15:47Z</time>
      </trkpt>
      <trkpt lat="46.57603" lon="0.66262">
        <ele>95.6</ele>
        <time>2010-09-26T09:15:48Z</time>
      </trkpt>
      <trkpt lat="46.57603" lon="0.66267">
        <ele>95.4</ele>
        <time>2010-09-26T09:15:49Z</time>
      </trkpt>
      <trkpt lat="46.57604" lon="0.66272">
        <ele>94.9</ele>
        <time>2010-09-26T09:15:50Z</time>
      </trkpt>
      <trkpt lat="46.57606" lon="0.66278">
        <ele>94</ele>
        <time>2010-09-26T09:15:51Z</time>
      </trkpt>
      <trkpt lat="46.57607" lon="0.66284">
        <ele>93.3</ele>
        <time>2010-09-26T09:15:52Z</time>
      </trkpt>
      <trkpt lat="46.57612" lon="0.66305">
        <ele>92</ele>
        <time>2010-09-26T09:15:55Z</time>
      </trkpt>
      <trkpt lat="46.57614" lon="0.66311">
        <ele>91.6</ele>
        <time>2010-09-26T09:15:56Z</time>
      </trkpt>
      <trkpt lat="46.57616" lon="0.66322">
        <ele>91</ele>
        <time>2010-09-26T09:15:58Z</time>
      </trkpt>
      <trkpt lat="46.57617" lon="0.66327">
        <ele>90.8</ele>
        <time>2010-09-26T09:15:59Z</time>
      </trkpt>
      <trkpt lat="46.57619" lon="0.66331">
        <ele>90.5</ele>
        <time>2010-09-26T09:16:00Z</time>
      </trkpt>
      <trkpt lat="46.57622" lon="0.66336">
        <ele>90.4</ele>
        <time>2010-09-26T09:16:01Z</time>
      </trkpt>
      <trkpt lat="46.57625" lon="0.66339">
        <ele>89.5</ele>
        <time>2010-09-26T09:16:03Z</time>
      </trkpt>
      <trkpt lat="46.57625" lon="0.66339">
        <ele>89.3</ele>
        <time>2010-09-26T09:16:04Z</time>
      </trkpt>
      <trkpt lat="46.57625" lon="0.66339">
        <ele>89.3</ele>
        <time>2010-09-26T09:16:05Z</time>
      </trkpt>
      <trkpt lat="46.57625" lon="0.66338">
        <ele>89.1</ele>
        <time>2010-09-26T09:16:06Z</time>
      </trkpt>
      <trkpt lat="46.57625" lon="0.66338">
        <ele>89.1</ele>
        <time>2010-09-26T09:16:07Z</time>
      </trkpt>
      <trkpt lat="46.57625" lon="0.66338">
        <ele>89.1</ele>
        <time>2010-09-26T09:16:08Z</time>
      </trkpt>
      <trkpt lat="46.57625" lon="0.66338">
        <ele>89.1</ele>
        <time>2010-09-26T09:16:09Z</time>
      </trkpt>
      <trkpt lat="46.57625" lon="0.66338">
        <ele>89.1</ele>
        <time>2010-09-26T09:16:10Z</time>
      </trkpt>
      <trkpt lat="46.57625" lon="0.66338">
        <ele>89.1</ele>
        <time>2010-09-26T09:16:11Z</time>
      </trkpt>
      <trkpt lat="46.57625" lon="0.66338">
        <ele>89.1</ele>
        <time>2010-09-26T09:16:12Z</time>
      </trkpt>
      <trkpt lat="46.57625" lon="0.66338">
        <ele>89.1</ele>
        <time>2010-09-26T09:16:13Z</time>
      </trkpt>
      <trkpt lat="46.57625" lon="0.66338">
        <ele>89.1</ele>
        <time>2010-09-26T09:16:14Z</time>
      </trkpt>
      <trkpt lat="46.57625" lon="0.66338">
        <ele>89.1</ele>
        <time>2010-09-26T09:16:15Z</time>
      </trkpt>
      <trkpt lat="46.57625" lon="0.66338">
        <ele>89.1</ele>
        <time>2010-09-26T09:16:16Z</time>
      </trkpt>
      <trkpt lat="46.57625" lon="0.66338">
        <ele>89.1</ele>
        <time>2010-09-26T09:16:17Z</time>
      </trkpt>
      <trkpt lat="46.57625" lon="0.66338">
        <ele>89.3</ele>
        <time>2010-09-26T09:16:18Z</time>
      </trkpt>
      <trkpt lat="46.57624" lon="0.6634">
        <ele>89.3</ele>
        <time>2010-09-26T09:16:19Z</time>
      </trkpt>
      <trkpt lat="46.57623" lon="0.66342">
        <ele>89.8</ele>
        <time>2010-09-26T09:16:20Z</time>
      </trkpt>
      <trkpt lat="46.57622" lon="0.66345">
        <ele>90.5</ele>
        <time>2010-09-26T09:16:22Z</time>
      </trkpt>
      <trkpt lat="46.57622" lon="0.66346">
        <ele>90.8</ele>
        <time>2010-09-26T09:16:23Z</time>
      </trkpt>
      <trkpt lat="46.57627" lon="0.66352">
        <ele>91</ele>
        <time>2010-09-26T09:16:25Z</time>
      </trkpt>
      <trkpt lat="46.57628" lon="0.66357">
        <ele>91.3</ele>
        <time>2010-09-26T09:16:26Z</time>
      </trkpt>
      <trkpt lat="46.5763" lon="0.66363">
        <ele>91.5</ele>
        <time>2010-09-26T09:16:27Z</time>
      </trkpt>
      <trkpt lat="46.57632" lon="0.66367">
        <ele>92.4</ele>
        <time>2010-09-26T09:16:28Z</time>
      </trkpt>
      <trkpt lat="46.57635" lon="0.6637">
        <ele>92.5</ele>
        <time>2010-09-26T09:16:29Z</time>
      </trkpt>
      <trkpt lat="46.57638" lon="0.66379">
        <ele>93.6</ele>
        <time>2010-09-26T09:16:31Z</time>
      </trkpt>
      <trkpt lat="46.57636" lon="0.66384">
        <ele>93.9</ele>
        <time>2010-09-26T09:16:32Z</time>
      </trkpt>
      <trkpt lat="46.57634" lon="0.66388">
        <ele>93.6</ele>
        <time>2010-09-26T09:16:33Z</time>
      </trkpt>
      <trkpt lat="46.57631" lon="0.6639">
        <ele>93.1</ele>
        <time>2010-09-26T09:16:34Z</time>
      </trkpt>
      <trkpt lat="46.57628" lon="0.66393">
        <ele>93.5</ele>
        <time>2010-09-26T09:16:35Z</time>
      </trkpt>
      <trkpt lat="46.57627" lon="0.66396">
        <ele>93.5</ele>
        <time>2010-09-26T09:16:36Z</time>
      </trkpt>
      <trkpt lat="46.57627" lon="0.66398">
        <ele>93.9</ele>
        <time>2010-09-26T09:16:37Z</time>
      </trkpt>
      <trkpt lat="46.57627" lon="0.664">
        <ele>94.3</ele>
        <time>2010-09-26T09:16:42Z</time>
      </trkpt>
      <trkpt lat="46.57627" lon="0.664">
        <ele>94.4</ele>
        <time>2010-09-26T09:16:43Z</time>
      </trkpt>
      <trkpt lat="46.57627" lon="0.66401">
        <ele>94.4</ele>
        <time>2010-09-26T09:16:44Z</time>
      </trkpt>
      <trkpt lat="46.57627" lon="0.66402">
        <ele>94.5</ele>
        <time>2010-09-26T09:16:45Z</time>
      </trkpt>
      <trkpt lat="46.57623" lon="0.66407">
        <ele>94.4</ele>
        <time>2010-09-26T09:16:48Z</time>
      </trkpt>
      <trkpt lat="46.5762" lon="0.6641">
        <ele>93.6</ele>
        <time>2010-09-26T09:16:50Z</time>
      </trkpt>
      <trkpt lat="46.57619" lon="0.6641">
        <ele>93.5</ele>
        <time>2010-09-26T09:16:51Z</time>
      </trkpt>
      <trkpt lat="46.57617" lon="0.6641">
        <ele>93</ele>
        <time>2010-09-26T09:16:52Z</time>
      </trkpt>
      <trkpt lat="46.57614" lon="0.66408">
        <ele>93</ele>
        <time>2010-09-26T09:16:53Z</time>
      </trkpt>
      <trkpt lat="46.57612" lon="0.66407">
        <ele>92.9</ele>
        <time>2010-09-26T09:16:54Z</time>
      </trkpt>
      <trkpt lat="46.57607" lon="0.66405">
        <ele>92.5</ele>
        <time>2010-09-26T09:16:56Z</time>
      </trkpt>
      <trkpt lat="46.57606" lon="0.66405">
        <ele>92.6</ele>
        <time>2010-09-26T09:16:57Z</time>
      </trkpt>
      <trkpt lat="46.57604" lon="0.66405">
        <ele>92.3</ele>
        <time>2010-09-26T09:16:58Z</time>
      </trkpt>
      <trkpt lat="46.57601" lon="0.66408">
        <ele>92.5</ele>
        <time>2010-09-26T09:17:00Z</time>
      </trkpt>
      <trkpt lat="46.576" lon="0.66409">
        <ele>92.5</ele>
        <time>2010-09-26T09:17:01Z</time>
      </trkpt>
      <trkpt lat="46.57596" lon="0.66413">
        <ele>92.5</ele>
        <time>2010-09-26T09:17:03Z</time>
      </trkpt>
      <trkpt lat="46.57594" lon="0.66415">
        <ele>92.3</ele>
        <time>2010-09-26T09:17:04Z</time>
      </trkpt>
      <trkpt lat="46.57591" lon="0.66416">
        <ele>92.1</ele>
        <time>2010-09-26T09:17:05Z</time>
      </trkpt>
      <trkpt lat="46.57556" lon="0.66429">
        <ele>93.1</ele>
        <time>2010-09-26T09:17:27Z</time>
      </trkpt>
      <trkpt lat="46.57554" lon="0.66428">
        <ele>93.4</ele>
        <time>2010-09-26T09:17:28Z</time>
      </trkpt>
      <trkpt lat="46.57551" lon="0.66426">
        <ele>93.3</ele>
        <time>2010-09-26T09:17:29Z</time>
      </trkpt>
      <trkpt lat="46.57549" lon="0.66424">
        <ele>93.5</ele>
        <time>2010-09-26T09:17:31Z</time>
      </trkpt>
      <trkpt lat="46.57548" lon="0.66424">
        <ele>94</ele>
        <time>2010-09-26T09:17:32Z</time>
      </trkpt>
      <trkpt lat="46.57547" lon="0.66425">
        <ele>94.4</ele>
        <time>2010-09-26T09:17:33Z</time>
      </trkpt>
      <trkpt lat="46.57544" lon="0.66429">
        <ele>95.5</ele>
        <time>2010-09-26T09:17:35Z</time>
      </trkpt>
      <trkpt lat="46.57544" lon="0.66434">
        <ele>95.6</ele>
        <time>2010-09-26T09:17:36Z</time>
      </trkpt>
      <trkpt lat="46.57546" lon="0.66439">
        <ele>95.5</ele>
        <time>2010-09-26T09:17:37Z</time>
      </trkpt>
      <trkpt lat="46.57556" lon="0.66483">
        <ele>95.5</ele>
        <time>2010-09-26T09:17:42Z</time>
      </trkpt>
      <trkpt lat="46.57557" lon="0.66494">
        <ele>95.9</ele>
        <time>2010-09-26T09:17:43Z</time>
      </trkpt>
      <trkpt lat="46.57557" lon="0.66506">
        <ele>96</ele>
        <time>2010-09-26T09:17:44Z</time>
      </trkpt>
      <trkpt lat="46.57556" lon="0.66518">
        <ele>96.5</ele>
        <time>2010-09-26T09:17:45Z</time>
      </trkpt>
      <trkpt lat="46.57554" lon="0.66531">
        <ele>97</ele>
        <time>2010-09-26T09:17:46Z</time>
      </trkpt>
      <trkpt lat="46.57545" lon="0.66559">
        <ele>98.5</ele>
        <time>2010-09-26T09:17:48Z</time>
      </trkpt>
      <trkpt lat="46.57538" lon="0.66574">
        <ele>99.5</ele>
        <time>2010-09-26T09:17:49Z</time>
      </trkpt>
      <trkpt lat="46.5753" lon="0.66588">
        <ele>100.4</ele>
        <time>2010-09-26T09:17:50Z</time>
      </trkpt>
      <trkpt lat="46.57306" lon="0.66894">
        <ele>122.9</ele>
        <time>2010-09-26T09:18:23Z</time>
      </trkpt>
      <trkpt lat="46.57282" lon="0.66925">
        <ele>119.5</ele>
        <time>2010-09-26T09:18:27Z</time>
      </trkpt>
      <trkpt lat="46.57278" lon="0.66934">
        <ele>119</ele>
        <time>2010-09-26T09:18:28Z</time>
      </trkpt>
      <trkpt lat="46.57276" lon="0.66944">
        <ele>119.4</ele>
        <time>2010-09-26T09:18:29Z</time>
      </trkpt>
      <trkpt lat="46.57276" lon="0.66954">
        <ele>119.1</ele>
        <time>2010-09-26T09:18:30Z</time>
      </trkpt>
      <trkpt lat="46.57278" lon="0.66964">
        <ele>119.3</ele>
        <time>2010-09-26T09:18:31Z</time>
      </trkpt>
      <trkpt lat="46.57283" lon="0.66982">
        <ele>119.1</ele>
        <time>2010-09-26T09:18:33Z</time>
      </trkpt>
      <trkpt lat="46.57284" lon="0.66991">
        <ele>118.8</ele>
        <time>2010-09-26T09:18:34Z</time>
      </trkpt>
      <trkpt lat="46.57283" lon="0.67001">
        <ele>118.3</ele>
        <time>2010-09-26T09:18:35Z</time>
      </trkpt>
      <trkpt lat="46.57277" lon="0.67037">
        <ele>117</ele>
        <time>2010-09-26T09:18:39Z</time>
      </trkpt>
      <trkpt lat="46.57274" lon="0.67051">
        <ele>116.6</ele>
        <time>2010-09-26T09:18:41Z</time>
      </trkpt>
      <trkpt lat="46.57272" lon="0.67057">
        <ele>116</ele>
        <time>2010-09-26T09:18:43Z</time>
      </trkpt>
      <trkpt lat="46.57271" lon="0.67059">
        <ele>115.8</ele>
        <time>2010-09-26T09:18:44Z</time>
      </trkpt>
      <trkpt lat="46.57271" lon="0.67059">
        <ele>115.8</ele>
        <time>2010-09-26T09:18:45Z</time>
      </trkpt>
      <trkpt lat="46.57271" lon="0.67059">
        <ele>115.8</ele>
        <time>2010-09-26T09:18:46Z</time>
      </trkpt>
      <trkpt lat="46.57271" lon="0.67059">
        <ele>115.8</ele>
        <time>2010-09-26T09:18:47Z</time>
      </trkpt>
      <trkpt lat="46.57271" lon="0.67059">
        <ele>115.8</ele>
        <time>2010-09-26T09:18:48Z</time>
      </trkpt>
      <trkpt lat="46.57271" lon="0.67059">
        <ele>115.8</ele>
        <time>2010-09-26T09:18:49Z</time>
      </trkpt>
      <trkpt lat="46.57271" lon="0.67059">
        <ele>115.8</ele>
        <time>2010-09-26T09:18:50Z</time>
      </trkpt>
      <trkpt lat="46.57271" lon="0.67059">
        <ele>115.8</ele>
        <time>2010-09-26T09:18:51Z</time>
      </trkpt>
      <trkpt lat="46.57271" lon="0.67059">
        <ele>115.8</ele>
        <time>2010-09-26T09:18:52Z</time>
      </trkpt>
      <trkpt lat="46.57271" lon="0.67059">
        <ele>115.8</ele>
        <time>2010-09-26T09:18:53Z</time>
      </trkpt>
      <trkpt lat="46.57271" lon="0.67059">
        <ele>115.8</ele>
        <time>2010-09-26T09:18:54Z</time>
      </trkpt>
      <trkpt lat="46.57271" lon="0.67059">
        <ele>115.8</ele>
        <time>2010-09-26T09:18:55Z</time>
      </trkpt>
      <trkpt lat="46.57271" lon="0.67059">
        <ele>115.8</ele>
        <time>2010-09-26T09:18:56Z</time>
      </trkpt>
      <trkpt lat="46.57271" lon="0.67059">
        <ele>115.8</ele>
        <time>2010-09-26T09:18:57Z</time>
      </trkpt>
      <trkpt lat="46.57271" lon="0.67059">
        <ele>115.8</ele>
        <time>2010-09-26T09:18:58Z</time>
      </trkpt>
      <trkpt lat="46.57271" lon="0.67059">
        <ele>115.8</ele>
        <time>2010-09-26T09:18:59Z</time>
      </trkpt>
      <trkpt lat="46.57271" lon="0.67059">
        <ele>115.8</ele>
        <time>2010-09-26T09:19:00Z</time>
      </trkpt>
      <trkpt lat="46.57271" lon="0.67059">
        <ele>115.8</ele>
        <time>2010-09-26T09:19:01Z</time>
      </trkpt>
      <trkpt lat="46.57271" lon="0.67059">
        <ele>115.8</ele>
        <time>2010-09-26T09:19:02Z</time>
      </trkpt>
      <trkpt lat="46.57271" lon="0.67059">
        <ele>115.8</ele>
        <time>2010-09-26T09:19:03Z</time>
      </trkpt>
      <trkpt lat="46.57271" lon="0.67059">
        <ele>115.8</ele>
        <time>2010-09-26T09:19:04Z</time>
      </trkpt>
      <trkpt lat="46.57271" lon="0.67059">
        <ele>115.8</ele>
        <time>2010-09-26T09:19:05Z</time>
      </trkpt>
      <trkpt lat="46.57271" lon="0.67059">
        <ele>115.8</ele>
        <time>2010-09-26T09:19:06Z</time>
      </trkpt>
      <trkpt lat="46.57271" lon="0.67059">
        <ele>115.8</ele>
        <time>2010-09-26T09:19:07Z</time>
      </trkpt>
      <trkpt lat="46.57271" lon="0.67059">
        <ele>115.8</ele>
        <time>2010-09-26T09:19:08Z</time>
      </trkpt>
      <trkpt lat="46.57271" lon="0.67059">
        <ele>115.8</ele>
        <time>2010-09-26T09:19:09Z</time>
      </trkpt>
      <trkpt lat="46.57271" lon="0.67059">
        <ele>115.8</ele>
        <time>2010-09-26T09:19:10Z</time>
      </trkpt>
      <trkpt lat="46.57271" lon="0.67059">
        <ele>115.8</ele>
        <time>2010-09-26T09:19:11Z</time>
      </trkpt>
      <trkpt lat="46.57271" lon="0.67059">
        <ele>115.8</ele>
        <time>2010-09-26T09:19:12Z</time>
      </trkpt>
      <trkpt lat="46.57271" lon="0.6706">
        <ele>116</ele>
        <time>2010-09-26T09:19:13Z</time>
      </trkpt>
      <trkpt lat="46.57271" lon="0.67062">
        <ele>116.3</ele>
        <time>2010-09-26T09:19:14Z</time>
      </trkpt>
      <trkpt lat="46.57254" lon="0.67139">
        <ele>115.5</ele>
        <time>2010-09-26T09:19:20Z</time>
      </trkpt>
      <trkpt lat="46.57255" lon="0.67153">
        <ele>114.8</ele>
        <time>2010-09-26T09:19:21Z</time>
      </trkpt>
      <trkpt lat="46.57256" lon="0.67189">
        <ele>113</ele>
        <time>2010-09-26T09:19:25Z</time>
      </trkpt>
      <trkpt lat="46.57255" lon="0.67194">
        <ele>112.9</ele>
        <time>2010-09-26T09:19:26Z</time>
      </trkpt>
      <trkpt lat="46.57253" lon="0.67198">
        <ele>113.1</ele>
        <time>2010-09-26T09:19:27Z</time>
      </trkpt>
      <trkpt lat="46.5725" lon="0.672">
        <ele>113.3</ele>
        <time>2010-09-26T09:19:28Z</time>
      </trkpt>
      <trkpt lat="46.57247" lon="0.672">
        <ele>113.3</ele>
        <time>2010-09-26T09:19:29Z</time>
      </trkpt>
      <trkpt lat="46.57244" lon="0.67196">
        <ele>112.8</ele>
        <time>2010-09-26T09:19:30Z</time>
      </trkpt>
      <trkpt lat="46.57239" lon="0.67184">
        <ele>111.8</ele>
        <time>2010-09-26T09:19:31Z</time>
      </trkpt>
      <trkpt lat="46.57227" lon="0.6715">
        <ele>110.6</ele>
        <time>2010-09-26T09:19:33Z</time>
      </trkpt>
      <trkpt lat="46.57215" lon="0.67102">
        <ele>110</ele>
        <time>2010-09-26T09:19:35Z</time>
      </trkpt>
      <trkpt lat="46.57208" lon="0.67074">
        <ele>109.5</ele>
        <time>2010-09-26T09:19:36Z</time>
      </trkpt>
      <trkpt lat="46.57179" lon="0.66992">
        <ele>106.5</ele>
        <time>2010-09-26T09:19:39Z</time>
      </trkpt>
      <trkpt lat="46.57166" lon="0.6697">
        <ele>105.9</ele>
        <time>2010-09-26T09:19:40Z</time>
      </trkpt>
      <trkpt lat="46.57152" lon="0.6695">
        <ele>104.1</ele>
        <time>2010-09-26T09:19:41Z</time>
      </trkpt>
      <trkpt lat="46.57135" lon="0.66933">
        <ele>103.4</ele>
        <time>2010-09-26T09:19:42Z</time>
      </trkpt>
      <trkpt lat="46.57016" lon="0.66827">
        <ele>98.6</ele>
        <time>2010-09-26T09:19:50Z</time>
      </trkpt>
      <trkpt lat="46.57006" lon="0.66814">
        <ele>98.5</ele>
        <time>2010-09-26T09:19:51Z</time>
      </trkpt>
      <trkpt lat="46.56998" lon="0.668">
        <ele>97.5</ele>
        <time>2010-09-26T09:19:52Z</time>
      </trkpt>
      <trkpt lat="46.56992" lon="0.66785">
        <ele>97.4</ele>
        <time>2010-09-26T09:19:53Z</time>
      </trkpt>
      <trkpt lat="46.56982" lon="0.66751">
        <ele>95.9</ele>
        <time>2010-09-26T09:19:56Z</time>
      </trkpt>
      <trkpt lat="46.56983" lon="0.66744">
        <ele>94.4</ele>
        <time>2010-09-26T09:19:57Z</time>
      </trkpt>
      <trkpt lat="46.56984" lon="0.66736">
        <ele>93</ele>
        <time>2010-09-26T09:19:58Z</time>
      </trkpt>
      <trkpt lat="46.56984" lon="0.6673">
        <ele>92.3</ele>
        <time>2010-09-26T09:19:59Z</time>
      </trkpt>
      <trkpt lat="46.56982" lon="0.66725">
        <ele>91.5</ele>
        <time>2010-09-26T09:20:00Z</time>
      </trkpt>
      <trkpt lat="46.5698" lon="0.66717">
        <ele>91.9</ele>
        <time>2010-09-26T09:20:02Z</time>
      </trkpt>
      <trkpt lat="46.56981" lon="0.66715">
        <ele>91.4</ele>
        <time>2010-09-26T09:20:03Z</time>
      </trkpt>
      <trkpt lat="46.56981" lon="0.66713">
        <ele>92</ele>
        <time>2010-09-26T09:20:04Z</time>
      </trkpt>
      <trkpt lat="46.56981" lon="0.66713">
        <ele>92</ele>
        <time>2010-09-26T09:20:19Z</time>
      </trkpt>
      <trkpt lat="46.56981" lon="0.66713">
        <ele>91.8</ele>
        <time>2010-09-26T09:20:20Z</time>
      </trkpt>
      <trkpt lat="46.56982" lon="0.66712">
        <ele>91.5</ele>
        <time>2010-09-26T09:20:21Z</time>
      </trkpt>
      <trkpt lat="46.56982" lon="0.66712">
        <ele>91.5</ele>
        <time>2010-09-26T09:20:22Z</time>
      </trkpt>
      <trkpt lat="46.56982" lon="0.66712">
        <ele>91.5</ele>
        <time>2010-09-26T09:20:23Z</time>
      </trkpt>
      <trkpt lat="46.56982" lon="0.66712">
        <ele>91.5</ele>
        <time>2010-09-26T09:20:24Z</time>
      </trkpt>
      <trkpt lat="46.56982" lon="0.66712">
        <ele>91.5</ele>
        <time>2010-09-26T09:20:25Z</time>
      </trkpt>
      <trkpt lat="46.56982" lon="0.66712">
        <ele>91.5</ele>
        <time>2010-09-26T09:20:26Z</time>
      </trkpt>
      <trkpt lat="46.56982" lon="0.66712">
        <ele>91.5</ele>
        <time>2010-09-26T09:20:27Z</time>
      </trkpt>
      <trkpt lat="46.56982" lon="0.66712">
        <ele>91.5</ele>
        <time>2010-09-26T09:20:28Z</time>
      </trkpt>
      <trkpt lat="46.56982" lon="0.66712">
        <ele>91.5</ele>
        <time>2010-09-26T09:20:29Z</time>
      </trkpt>
      <trkpt lat="46.56982" lon="0.66712">
        <ele>91.5</ele>
        <time>2010-09-26T09:20:30Z</time>
      </trkpt>
      <trkpt lat="46.56982" lon="0.66712">
        <ele>91.5</ele>
        <time>2010-09-26T09:20:31Z</time>
      </trkpt>
      <trkpt lat="46.56983" lon="0.66712">
        <ele>91.4</ele>
        <time>2010-09-26T09:20:32Z</time>
      </trkpt>
      <trkpt lat="46.56983" lon="0.66712">
        <ele>91.4</ele>
        <time>2010-09-26T09:20:33Z</time>
      </trkpt>
      <trkpt lat="46.56983" lon="0.66712">
        <ele>91.4</ele>
        <time>2010-09-26T09:20:34Z</time>
      </trkpt>
      <trkpt lat="46.56983" lon="0.66712">
        <ele>91.4</ele>
        <time>2010-09-26T09:20:35Z</time>
      </trkpt>
      <trkpt lat="46.56983" lon="0.66712">
        <ele>91.4</ele>
        <time>2010-09-26T09:20:36Z</time>
      </trkpt>
      <trkpt lat="46.56983" lon="0.66712">
        <ele>91.4</ele>
        <time>2010-09-26T09:20:37Z</time>
      </trkpt>
      <trkpt lat="46.56983" lon="0.66712">
        <ele>91.4</ele>
        <time>2010-09-26T09:20:38Z</time>
      </trkpt>
      <trkpt lat="46.56984" lon="0.66712">
        <ele>91.4</ele>
        <time>2010-09-26T09:20:39Z</time>
      </trkpt>
      <trkpt lat="46.57014" lon="0.66721">
        <ele>91.5</ele>
        <time>2010-09-26T09:20:44Z</time>
      </trkpt>
      <trkpt lat="46.5702" lon="0.6672">
        <ele>91.5</ele>
        <time>2010-09-26T09:20:45Z</time>
      </trkpt>
      <trkpt lat="46.57026" lon="0.6672">
        <ele>91.6</ele>
        <time>2010-09-26T09:20:46Z</time>
      </trkpt>
      <trkpt lat="46.57031" lon="0.6672">
        <ele>91.8</ele>
        <time>2010-09-26T09:20:47Z</time>
      </trkpt>
      <trkpt lat="46.57037" lon="0.66717">
        <ele>91.9</ele>
        <time>2010-09-26T09:20:49Z</time>
      </trkpt>
      <trkpt lat="46.57041" lon="0.66713">
        <ele>92</ele>
        <time>2010-09-26T09:20:50Z</time>
      </trkpt>
      <trkpt lat="46.5705" lon="0.66709">
        <ele>92.3</ele>
        <time>2010-09-26T09:20:52Z</time>
      </trkpt>
      <trkpt lat="46.57055" lon="0.66709">
        <ele>92.5</ele>
        <time>2010-09-26T09:20:53Z</time>
      </trkpt>
      <trkpt lat="46.57065" lon="0.66709">
        <ele>93</ele>
        <time>2010-09-26T09:20:55Z</time>
      </trkpt>
      <trkpt lat="46.57069" lon="0.66707">
        <ele>93.1</ele>
        <time>2010-09-26T09:20:56Z</time>
      </trkpt>
      <trkpt lat="46.57072" lon="0.66706">
        <ele>93.5</ele>
        <time>2010-09-26T09:20:57Z</time>
      </trkpt>
      <trkpt lat="46.57075" lon="0.66704">
        <ele>93.5</ele>
        <time>2010-09-26T09:20:58Z</time>
      </trkpt>
      <trkpt lat="46.57075" lon="0.66702">
        <ele>94</ele>
        <time>2010-09-26T09:20:59Z</time>
      </trkpt>
      <trkpt lat="46.57074" lon="0.66701">
        <ele>94.8</ele>
        <time>2010-09-26T09:21:00Z</time>
      </trkpt>
      <trkpt lat="46.57073" lon="0.66701">
        <ele>94.6</ele>
        <time>2010-09-26T09:21:01Z</time>
      </trkpt>
      <trkpt lat="46.57071" lon="0.66704">
        <ele>94.8</ele>
        <time>2010-09-26T09:21:02Z</time>
      </trkpt>
      <trkpt lat="46.57066" lon="0.66711">
        <ele>94.9</ele>
        <time>2010-09-26T09:21:04Z</time>
      </trkpt>
      <trkpt lat="46.57063" lon="0.66711">
        <ele>94.8</ele>
        <time>2010-09-26T09:21:05Z</time>
      </trkpt>
      <trkpt lat="46.57059" lon="0.66711">
        <ele>94.8</ele>
        <time>2010-09-26T09:21:07Z</time>
      </trkpt>
      <trkpt lat="46.57053" lon="0.66713">
        <ele>94.4</ele>
        <time>2010-09-26T09:21:10Z</time>
      </trkpt>
      <trkpt lat="46.57052" lon="0.66714">
        <ele>94.1</ele>
        <time>2010-09-26T09:21:11Z</time>
      </trkpt>
      <trkpt lat="46.57051" lon="0.66714">
        <ele>93.4</ele>
        <time>2010-09-26T09:21:12Z</time>
      </trkpt>
      <trkpt lat="46.57049" lon="0.66715">
        <ele>93</ele>
        <time>2010-09-26T09:21:13Z</time>
      </trkpt>
      <trkpt lat="46.57048" lon="0.66716">
        <ele>92.3</ele>
        <time>2010-09-26T09:21:14Z</time>
      </trkpt>
      <trkpt lat="46.57045" lon="0.66721">
        <ele>91.9</ele>
        <time>2010-09-26T09:21:17Z</time>
      </trkpt>
      <trkpt lat="46.57042" lon="0.66722">
        <ele>90.9</ele>
        <time>2010-09-26T09:21:18Z</time>
      </trkpt>
      <trkpt lat="46.57034" lon="0.66723">
        <ele>90.8</ele>
        <time>2010-09-26T09:21:20Z</time>
      </trkpt>
      <trkpt lat="46.57016" lon="0.66723">
        <ele>89.6</ele>
        <time>2010-09-26T09:21:23Z</time>
      </trkpt>
      <trkpt lat="46.57006" lon="0.66722">
        <ele>89.3</ele>
        <time>2010-09-26T09:21:25Z</time>
      </trkpt>
      <trkpt lat="46.56999" lon="0.6672">
        <ele>89.6</ele>
        <time>2010-09-26T09:23:09Z</time>
      </trkpt>
      <trkpt lat="46.56999" lon="0.6672">
        <ele>90.3</ele>
        <time>2010-09-26T09:23:10Z</time>
      </trkpt>
      <trkpt lat="46.56999" lon="0.6672">
        <ele>90.3</ele>
        <time>2010-09-26T09:23:11Z</time>
      </trkpt>
      <trkpt lat="46.56999" lon="0.6672">
        <ele>90.3</ele>
        <time>2010-09-26T09:23:12Z</time>
      </trkpt>
      <trkpt lat="46.56999" lon="0.6672">
        <ele>90.3</ele>
        <time>2010-09-26T09:23:13Z</time>
      </trkpt>
      <trkpt lat="46.56999" lon="0.6672">
        <ele>90.3</ele>
        <time>2010-09-26T09:23:14Z</time>
      </trkpt>
      <trkpt lat="46.56999" lon="0.6672">
        <ele>90.3</ele>
        <time>2010-09-26T09:23:15Z</time>
      </trkpt>
      <trkpt lat="46.56999" lon="0.6672">
        <ele>90.3</ele>
        <time>2010-09-26T09:23:16Z</time>
      </trkpt>
      <trkpt lat="46.56999" lon="0.6672">
        <ele>90.3</ele>
        <time>2010-09-26T09:23:17Z</time>
      </trkpt>
      <trkpt lat="46.56999" lon="0.6672">
        <ele>90.3</ele>
        <time>2010-09-26T09:23:18Z</time>
      </trkpt>
      <trkpt lat="46.56999" lon="0.6672">
        <ele>90.3</ele>
        <time>2010-09-26T09:23:19Z</time>
      </trkpt>
      <trkpt lat="46.56999" lon="0.6672">
        <ele>90.3</ele>
        <time>2010-09-26T09:23:20Z</time>
      </trkpt>
      <trkpt lat="46.56999" lon="0.6672">
        <ele>90.3</ele>
        <time>2010-09-26T09:23:21Z</time>
      </trkpt>
      <trkpt lat="46.56999" lon="0.6672">
        <ele>90.3</ele>
        <time>2010-09-26T09:23:22Z</time>
      </trkpt>
      <trkpt lat="46.56999" lon="0.6672">
        <ele>90.3</ele>
        <time>2010-09-26T09:23:23Z</time>
      </trkpt>
      <trkpt lat="46.56999" lon="0.6672">
        <ele>90.3</ele>
        <time>2010-09-26T09:23:24Z</time>
      </trkpt>
      <trkpt lat="46.56999" lon="0.6672">
        <ele>90.3</ele>
        <time>2010-09-26T09:23:25Z</time>
      </trkpt>
      <trkpt lat="46.56999" lon="0.6672">
        <ele>90.3</ele>
        <time>2010-09-26T09:23:26Z</time>
      </trkpt>
      <trkpt lat="46.56999" lon="0.6672">
        <ele>90.3</ele>
        <time>2010-09-26T09:23:27Z</time>
      </trkpt>
      <trkpt lat="46.56999" lon="0.6672">
        <ele>90.3</ele>
        <time>2010-09-26T09:23:28Z</time>
      </trkpt>
      <trkpt lat="46.56999" lon="0.6672">
        <ele>90.3</ele>
        <time>2010-09-26T09:23:29Z</time>
      </trkpt>
      <trkpt lat="46.56999" lon="0.6672">
        <ele>90.3</ele>
        <time>2010-09-26T09:23:30Z</time>
      </trkpt>
      <trkpt lat="46.56999" lon="0.6672">
        <ele>90.3</ele>
        <time>2010-09-26T09:23:31Z</time>
      </trkpt>
      <trkpt lat="46.56999" lon="0.6672">
        <ele>90.3</ele>
        <time>2010-09-26T09:23:32Z</time>
      </trkpt>
      <trkpt lat="46.56999" lon="0.6672">
        <ele>90.3</ele>
        <time>2010-09-26T09:23:33Z</time>
      </trkpt>
      <trkpt lat="46.56999" lon="0.6672">
        <ele>90.3</ele>
        <time>2010-09-26T09:23:34Z</time>
      </trkpt>
      <trkpt lat="46.56999" lon="0.6672">
        <ele>90.3</ele>
        <time>2010-09-26T09:23:35Z</time>
      </trkpt>
      <trkpt lat="46.56999" lon="0.6672">
        <ele>90.3</ele>
        <time>2010-09-26T09:23:36Z</time>
      </trkpt>
      <trkpt lat="46.56999" lon="0.6672">
        <ele>90.3</ele>
        <time>2010-09-26T09:23:37Z</time>
      </trkpt>
      <trkpt lat="46.56999" lon="0.6672">
        <ele>90.3</ele>
        <time>2010-09-26T09:23:38Z</time>
      </trkpt>
      <trkpt lat="46.56999" lon="0.6672">
        <ele>90.3</ele>
        <time>2010-09-26T09:23:39Z</time>
      </trkpt>
      <trkpt lat="46.56999" lon="0.6672">
        <ele>90.3</ele>
        <time>2010-09-26T09:23:40Z</time>
      </trkpt>
      <trkpt lat="46.56999" lon="0.6672">
        <ele>90.3</ele>
        <time>2010-09-26T09:23:41Z</time>
      </trkpt>
      <trkpt lat="46.56999" lon="0.6672">
        <ele>90.3</ele>
        <time>2010-09-26T09:23:42Z</time>
      </trkpt>
      <trkpt lat="46.56999" lon="0.6672">
        <ele>90.3</ele>
        <time>2010-09-26T09:23:43Z</time>
      </trkpt>
      <trkpt lat="46.56999" lon="0.6672">
        <ele>90.3</ele>
        <time>2010-09-26T09:23:44Z</time>
      </trkpt>
      <trkpt lat="46.56999" lon="0.6672">
        <ele>90.3</ele>
        <time>2010-09-26T09:23:45Z</time>
      </trkpt>
      <trkpt lat="46.56999" lon="0.6672">
        <ele>90.3</ele>
        <time>2010-09-26T09:23:46Z</time>
      </trkpt>
      <trkpt lat="46.56999" lon="0.6672">
        <ele>90.3</ele>
        <time>2010-09-26T09:23:47Z</time>
      </trkpt>
      <trkpt lat="46.56999" lon="0.6672">
        <ele>90.3</ele>
        <time>2010-09-26T09:23:48Z</time>
      </trkpt>
      <trkpt lat="46.56999" lon="0.6672">
        <ele>90.3</ele>
        <time>2010-09-26T09:23:49Z</time>
      </trkpt>
      <trkpt lat="46.56999" lon="0.6672">
        <ele>90.3</ele>
        <time>2010-09-26T09:23:50Z</time>
      </trkpt>
      <trkpt lat="46.56999" lon="0.6672">
        <ele>90.3</ele>
        <time>2010-09-26T09:23:51Z</time>
      </trkpt>
      <trkpt lat="46.56999" lon="0.6672">
        <ele>90.3</ele>
        <time>2010-09-26T09:23:52Z</time>
      </trkpt>
      <trkpt lat="46.56999" lon="0.6672">
        <ele>90.3</ele>
        <time>2010-09-26T09:23:53Z</time>
      </trkpt>
      <trkpt lat="46.56999" lon="0.6672">
        <ele>90.3</ele>
        <time>2010-09-26T09:23:54Z</time>
      </trkpt>
      <trkpt lat="46.56999" lon="0.6672">
        <ele>90.3</ele>
        <time>2010-09-26T09:23:55Z</time>
      </trkpt>
      <trkpt lat="46.56999" lon="0.6672">
        <ele>90.3</ele>
        <time>2010-09-26T09:23:56Z</time>
      </trkpt>
      <trkpt lat="46.56999" lon="0.6672">
        <ele>90.3</ele>
        <time>2010-09-26T09:23:57Z</time>
      </trkpt>
      <trkpt lat="46.56999" lon="0.6672">
        <ele>90.3</ele>
        <time>2010-09-26T09:23:58Z</time>
      </trkpt>
      <trkpt lat="46.56999" lon="0.6672">
        <ele>90.3</ele>
        <time>2010-09-26T09:23:59Z</time>
      </trkpt>
      <trkpt lat="46.56999" lon="0.6672">
        <ele>90.3</ele>
        <time>2010-09-26T09:24:00Z</time>
      </trkpt>
      <trkpt lat="46.56999" lon="0.6672">
        <ele>90.3</ele>
        <time>2010-09-26T09:24:01Z</time>
      </trkpt>
      <trkpt lat="46.56999" lon="0.6672">
        <ele>90.3</ele>
        <time>2010-09-26T09:24:02Z</time>
      </trkpt>
      <trkpt lat="46.56999" lon="0.6672">
        <ele>90.3</ele>
        <time>2010-09-26T09:24:03Z</time>
      </trkpt>
      <trkpt lat="46.56999" lon="0.6672">
        <ele>90.3</ele>
        <time>2010-09-26T09:24:04Z</time>
      </trkpt>
      <trkpt lat="46.56999" lon="0.6672">
        <ele>90.3</ele>
        <time>2010-09-26T09:24:05Z</time>
      </trkpt>
      <trkpt lat="46.56999" lon="0.6672">
        <ele>90.3</ele>
        <time>2010-09-26T09:24:06Z</time>
      </trkpt>
      <trkpt lat="46.56999" lon="0.6672">
        <ele>90.3</ele>
        <time>2010-09-26T09:24:07Z</time>
      </trkpt>
      <trkpt lat="46.56999" lon="0.6672">
        <ele>90.3</ele>
        <time>2010-09-26T09:24:08Z</time>
      </trkpt>
      <trkpt lat="46.56999" lon="0.6672">
        <ele>90.3</ele>
        <time>2010-09-26T09:24:09Z</time>
      </trkpt>
      <trkpt lat="46.56999" lon="0.6672">
        <ele>90.3</ele>
        <time>2010-09-26T09:24:10Z</time>
      </trkpt>
      <trkpt lat="46.56999" lon="0.6672">
        <ele>90.3</ele>
        <time>2010-09-26T09:24:11Z</time>
      </trkpt>
      <trkpt lat="46.56999" lon="0.6672">
        <ele>90.3</ele>
        <time>2010-09-26T09:24:12Z</time>
      </trkpt>
      <trkpt lat="46.56999" lon="0.6672">
        <ele>90.3</ele>
        <time>2010-09-26T09:24:13Z</time>
      </trkpt>
      <trkpt lat="46.56999" lon="0.6672">
        <ele>90.3</ele>
        <time>2010-09-26T09:24:14Z</time>
      </trkpt>
      <trkpt lat="46.56999" lon="0.6672">
        <ele>90.3</ele>
        <time>2010-09-26T09:24:15Z</time>
      </trkpt>
      <trkpt lat="46.56999" lon="0.6672">
        <ele>90.3</ele>
        <time>2010-09-26T09:24:16Z</time>
      </trkpt>
      <trkpt lat="46.56999" lon="0.6672">
        <ele>90.3</ele>
        <time>2010-09-26T09:24:17Z</time>
      </trkpt>
      <trkpt lat="46.56999" lon="0.6672">
        <ele>90.3</ele>
        <time>2010-09-26T09:24:18Z</time>
      </trkpt>
      <trkpt lat="46.56999" lon="0.6672">
        <ele>90.3</ele>
        <time>2010-09-26T09:24:19Z</time>
      </trkpt>
      <trkpt lat="46.56999" lon="0.6672">
        <ele>90.3</ele>
        <time>2010-09-26T09:24:20Z</time>
      </trkpt>
      <trkpt lat="46.56999" lon="0.6672">
        <ele>90.3</ele>
        <time>2010-09-26T09:24:21Z</time>
      </trkpt>
      <trkpt lat="46.56999" lon="0.6672">
        <ele>90.3</ele>
        <time>2010-09-26T09:24:22Z</time>
      </trkpt>
      <trkpt lat="46.56999" lon="0.6672">
        <ele>90.3</ele>
        <time>2010-09-26T09:24:23Z</time>
      </trkpt>
      <trkpt lat="46.56999" lon="0.6672">
        <ele>90.3</ele>
        <time>2010-09-26T09:24:24Z</time>
      </trkpt>
      <trkpt lat="46.56999" lon="0.6672">
        <ele>90.3</ele>
        <time>2010-09-26T09:24:25Z</time>
      </trkpt>
      <trkpt lat="46.56999" lon="0.6672">
        <ele>90.3</ele>
        <time>2010-09-26T09:24:26Z</time>
      </trkpt>
      <trkpt lat="46.56999" lon="0.6672">
        <ele>90.3</ele>
        <time>2010-09-26T09:24:27Z</time>
      </trkpt>
      <trkpt lat="46.56999" lon="0.6672">
        <ele>90.3</ele>
        <time>2010-09-26T09:24:28Z</time>
      </trkpt>
      <trkpt lat="46.56999" lon="0.6672">
        <ele>90.3</ele>
        <time>2010-09-26T09:24:29Z</time>
      </trkpt>
      <trkpt lat="46.56999" lon="0.6672">
        <ele>90.3</ele>
        <time>2010-09-26T09:24:30Z</time>
      </trkpt>
      <trkpt lat="46.56999" lon="0.6672">
        <ele>90.3</ele>
        <time>2010-09-26T09:24:31Z</time>
      </trkpt>
      <trkpt lat="46.56999" lon="0.6672">
        <ele>90.3</ele>
        <time>2010-09-26T09:24:32Z</time>
      </trkpt>
      <trkpt lat="46.56999" lon="0.6672">
        <ele>90.3</ele>
        <time>2010-09-26T09:24:33Z</time>
      </trkpt>
      <trkpt lat="46.56999" lon="0.6672">
        <ele>90.3</ele>
        <time>2010-09-26T09:24:34Z</time>
      </trkpt>
      <trkpt lat="46.56999" lon="0.6672">
        <ele>90.3</ele>
        <time>2010-09-26T09:24:35Z</time>
      </trkpt>
      <trkpt lat="46.56999" lon="0.6672">
        <ele>90.3</ele>
        <time>2010-09-26T09:24:36Z</time>
      </trkpt>
      <trkpt lat="46.56999" lon="0.6672">
        <ele>90.3</ele>
        <time>2010-09-26T09:24:37Z</time>
      </trkpt>
      <trkpt lat="46.56999" lon="0.6672">
        <ele>90.3</ele>
        <time>2010-09-26T09:24:38Z</time>
      </trkpt>
      <trkpt lat="46.56999" lon="0.6672">
        <ele>90.3</ele>
        <time>2010-09-26T09:24:39Z</time>
      </trkpt>
      <trkpt lat="46.56999" lon="0.6672">
        <ele>90.3</ele>
        <time>2010-09-26T09:24:40Z</time>
      </trkpt>
      <trkpt lat="46.56999" lon="0.6672">
        <ele>90.3</ele>
        <time>2010-09-26T09:24:41Z</time>
      </trkpt>
      <trkpt lat="46.56999" lon="0.6672">
        <ele>90.3</ele>
        <time>2010-09-26T09:24:42Z</time>
      </trkpt>
      <trkpt lat="46.56999" lon="0.6672">
        <ele>90.3</ele>
        <time>2010-09-26T09:24:43Z</time>
      </trkpt>
      <trkpt lat="46.56999" lon="0.6672">
        <ele>90.3</ele>
        <time>2010-09-26T09:24:44Z</time>
      </trkpt>
      <trkpt lat="46.56999" lon="0.6672">
        <ele>90.3</ele>
        <time>2010-09-26T09:24:45Z</time>
      </trkpt>
      <trkpt lat="46.56999" lon="0.6672">
        <ele>90.3</ele>
        <time>2010-09-26T09:24:46Z</time>
      </trkpt>
      <trkpt lat="46.56999" lon="0.6672">
        <ele>90.3</ele>
        <time>2010-09-26T09:24:47Z</time>
      </trkpt>
      <trkpt lat="46.56999" lon="0.6672">
        <ele>90.3</ele>
        <time>2010-09-26T09:24:48Z</time>
      </trkpt>
      <trkpt lat="46.56999" lon="0.6672">
        <ele>90.3</ele>
        <time>2010-09-26T09:24:49Z</time>
      </trkpt>
      <trkpt lat="46.56999" lon="0.6672">
        <ele>90.3</ele>
        <time>2010-09-26T09:24:50Z</time>
      </trkpt>
      <trkpt lat="46.56999" lon="0.6672">
        <ele>90.3</ele>
        <time>2010-09-26T09:24:51Z</time>
      </trkpt>
      <trkpt lat="46.56999" lon="0.6672">
        <ele>90.3</ele>
        <time>2010-09-26T09:24:52Z</time>
      </trkpt>
      <trkpt lat="46.56999" lon="0.6672">
        <ele>90.3</ele>
        <time>2010-09-26T09:24:53Z</time>
      </trkpt>
      <trkpt lat="46.56999" lon="0.6672">
        <ele>90.3</ele>
        <time>2010-09-26T09:24:54Z</time>
      </trkpt>
      <trkpt lat="46.56999" lon="0.6672">
        <ele>90.3</ele>
        <time>2010-09-26T09:24:55Z</time>
      </trkpt>
      <trkpt lat="46.56999" lon="0.6672">
        <ele>90.3</ele>
        <time>2010-09-26T09:24:56Z</time>
      </trkpt>
      <trkpt lat="46.56999" lon="0.6672">
        <ele>90.3</ele>
        <time>2010-09-26T09:24:57Z</time>
      </trkpt>
      <trkpt lat="46.56999" lon="0.6672">
        <ele>90.3</ele>
        <time>2010-09-26T09:24:58Z</time>
      </trkpt>
      <trkpt lat="46.56999" lon="0.6672">
        <ele>90.3</ele>
        <time>2010-09-26T09:24:59Z</time>
      </trkpt>
      <trkpt lat="46.56999" lon="0.6672">
        <ele>90.3</ele>
        <time>2010-09-26T09:25:00Z</time>
      </trkpt>
      <trkpt lat="46.56999" lon="0.6672">
        <ele>90.3</ele>
        <time>2010-09-26T09:25:01Z</time>
      </trkpt>
      <trkpt lat="46.56999" lon="0.6672">
        <ele>90.3</ele>
        <time>2010-09-26T09:25:02Z</time>
      </trkpt>
      <trkpt lat="46.56999" lon="0.6672">
        <ele>90.3</ele>
        <time>2010-09-26T09:25:03Z</time>
      </trkpt>
      <trkpt lat="46.56999" lon="0.6672">
        <ele>90.3</ele>
        <time>2010-09-26T09:25:04Z</time>
      </trkpt>
      <trkpt lat="46.56999" lon="0.6672">
        <ele>90.3</ele>
        <time>2010-09-26T09:25:05Z</time>
      </trkpt>
      <trkpt lat="46.56999" lon="0.6672">
        <ele>90.3</ele>
        <time>2010-09-26T09:25:06Z</time>
      </trkpt>
      <trkpt lat="46.56999" lon="0.6672">
        <ele>90.3</ele>
        <time>2010-09-26T09:25:07Z</time>
      </trkpt>
      <trkpt lat="46.56999" lon="0.6672">
        <ele>90.3</ele>
        <time>2010-09-26T09:25:08Z</time>
      </trkpt>
      <trkpt lat="46.56999" lon="0.6672">
        <ele>90.3</ele>
        <time>2010-09-26T09:25:09Z</time>
      </trkpt>
      <trkpt lat="46.56999" lon="0.6672">
        <ele>90.3</ele>
        <time>2010-09-26T09:25:10Z</time>
      </trkpt>
      <trkpt lat="46.56999" lon="0.6672">
        <ele>90.3</ele>
        <time>2010-09-26T09:25:11Z</time>
      </trkpt>
      <trkpt lat="46.56999" lon="0.6672">
        <ele>90.3</ele>
        <time>2010-09-26T09:25:12Z</time>
      </trkpt>
      <trkpt lat="46.56999" lon="0.6672">
        <ele>90.3</ele>
        <time>2010-09-26T09:25:13Z</time>
      </trkpt>
      <trkpt lat="46.56999" lon="0.6672">
        <ele>90.3</ele>
        <time>2010-09-26T09:25:14Z</time>
      </trkpt>
      <trkpt lat="46.56999" lon="0.6672">
        <ele>90.3</ele>
        <time>2010-09-26T09:25:15Z</time>
      </trkpt>
      <trkpt lat="46.56999" lon="0.6672">
        <ele>90.3</ele>
        <time>2010-09-26T09:25:16Z</time>
      </trkpt>
      <trkpt lat="46.56999" lon="0.6672">
        <ele>90.3</ele>
        <time>2010-09-26T09:25:17Z</time>
      </trkpt>
      <trkpt lat="46.56999" lon="0.6672">
        <ele>90.3</ele>
        <time>2010-09-26T09:25:18Z</time>
      </trkpt>
      <trkpt lat="46.56999" lon="0.6672">
        <ele>90.3</ele>
        <time>2010-09-26T09:25:19Z</time>
      </trkpt>
      <trkpt lat="46.56999" lon="0.6672">
        <ele>90</ele>
        <time>2010-09-26T09:25:20Z</time>
      </trkpt>
      <trkpt lat="46.56999" lon="0.6672">
        <ele>90</ele>
        <time>2010-09-26T09:25:21Z</time>
      </trkpt>
      <trkpt lat="46.56999" lon="0.6672">
        <ele>90</ele>
        <time>2010-09-26T09:25:22Z</time>
      </trkpt>
      <trkpt lat="46.56999" lon="0.6672">
        <ele>90</ele>
        <time>2010-09-26T09:25:23Z</time>
      </trkpt>
      <trkpt lat="46.56999" lon="0.6672">
        <ele>90</ele>
        <time>2010-09-26T09:25:24Z</time>
      </trkpt>
      <trkpt lat="46.56999" lon="0.6672">
        <ele>90</ele>
        <time>2010-09-26T09:25:25Z</time>
      </trkpt>
      <trkpt lat="46.56999" lon="0.6672">
        <ele>90</ele>
        <time>2010-09-26T09:25:26Z</time>
      </trkpt>
      <trkpt lat="46.56999" lon="0.6672">
        <ele>90</ele>
        <time>2010-09-26T09:25:27Z</time>
      </trkpt>
      <trkpt lat="46.56999" lon="0.6672">
        <ele>90</ele>
        <time>2010-09-26T09:25:28Z</time>
      </trkpt>
      <trkpt lat="46.56999" lon="0.6672">
        <ele>90</ele>
        <time>2010-09-26T09:25:29Z</time>
      </trkpt>
      <trkpt lat="46.56999" lon="0.6672">
        <ele>90</ele>
        <time>2010-09-26T09:25:30Z</time>
      </trkpt>
      <trkpt lat="46.56999" lon="0.6672">
        <ele>90</ele>
        <time>2010-09-26T09:25:31Z</time>
      </trkpt>
      <trkpt lat="46.56999" lon="0.6672">
        <ele>90</ele>
        <time>2010-09-26T09:25:32Z</time>
      </trkpt>
      <trkpt lat="46.56999" lon="0.6672">
        <ele>90</ele>
        <time>2010-09-26T09:25:33Z</time>
      </trkpt>
      <trkpt lat="46.56999" lon="0.6672">
        <ele>90</ele>
        <time>2010-09-26T09:25:34Z</time>
      </trkpt>
      <trkpt lat="46.56999" lon="0.6672">
        <ele>90</ele>
        <time>2010-09-26T09:25:35Z</time>
      </trkpt>
      <trkpt lat="46.56999" lon="0.6672">
        <ele>90</ele>
        <time>2010-09-26T09:25:36Z</time>
      </trkpt>
      <trkpt lat="46.56999" lon="0.6672">
        <ele>90</ele>
        <time>2010-09-26T09:25:37Z</time>
      </trkpt>
      <trkpt lat="46.56999" lon="0.6672">
        <ele>90</ele>
        <time>2010-09-26T09:25:38Z</time>
      </trkpt>
      <trkpt lat="46.56999" lon="0.6672">
        <ele>90</ele>
        <time>2010-09-26T09:25:39Z</time>
      </trkpt>
      <trkpt lat="46.56999" lon="0.6672">
        <ele>90</ele>
        <time>2010-09-26T09:25:40Z</time>
      </trkpt>
      <trkpt lat="46.56999" lon="0.6672">
        <ele>90</ele>
        <time>2010-09-26T09:25:41Z</time>
      </trkpt>
      <trkpt lat="46.56999" lon="0.6672">
        <ele>90</ele>
        <time>2010-09-26T09:25:42Z</time>
      </trkpt>
      <trkpt lat="46.56999" lon="0.6672">
        <ele>90</ele>
        <time>2010-09-26T09:25:43Z</time>
      </trkpt>
      <trkpt lat="46.56999" lon="0.6672">
        <ele>90</ele>
        <time>2010-09-26T09:25:44Z</time>
      </trkpt>
      <trkpt lat="46.56999" lon="0.6672">
        <ele>90</ele>
        <time>2010-09-26T09:25:45Z</time>
      </trkpt>
      <trkpt lat="46.56999" lon="0.6672">
        <ele>90</ele>
        <time>2010-09-26T09:25:46Z</time>
      </trkpt>
      <trkpt lat="46.56999" lon="0.6672">
        <ele>90</ele>
        <time>2010-09-26T09:25:47Z</time>
      </trkpt>
      <trkpt lat="46.56999" lon="0.6672">
        <ele>90</ele>
        <time>2010-09-26T09:25:48Z</time>
      </trkpt>
      <trkpt lat="46.56999" lon="0.6672">
        <ele>90</ele>
        <time>2010-09-26T09:25:49Z</time>
      </trkpt>
      <trkpt lat="46.56999" lon="0.6672">
        <ele>90</ele>
        <time>2010-09-26T09:25:50Z</time>
      </trkpt>
      <trkpt lat="46.56999" lon="0.6672">
        <ele>90</ele>
        <time>2010-09-26T09:25:51Z</time>
      </trkpt>
      <trkpt lat="46.56999" lon="0.6672">
        <ele>90</ele>
        <time>2010-09-26T09:25:52Z</time>
      </trkpt>
      <trkpt lat="46.56999" lon="0.6672">
        <ele>90</ele>
        <time>2010-09-26T09:25:53Z</time>
      </trkpt>
      <trkpt lat="46.56999" lon="0.6672">
        <ele>90</ele>
        <time>2010-09-26T09:25:54Z</time>
      </trkpt>
      <trkpt lat="46.56999" lon="0.6672">
        <ele>90</ele>
        <time>2010-09-26T09:25:55Z</time>
      </trkpt>
      <trkpt lat="46.56999" lon="0.6672">
        <ele>90</ele>
        <time>2010-09-26T09:25:56Z</time>
      </trkpt>
      <trkpt lat="46.56999" lon="0.6672">
        <ele>90</ele>
        <time>2010-09-26T09:25:57Z</time>
      </trkpt>
      <trkpt lat="46.56999" lon="0.6672">
        <ele>90</ele>
        <time>2010-09-26T09:25:58Z</time>
      </trkpt>
      <trkpt lat="46.56999" lon="0.6672">
        <ele>90</ele>
        <time>2010-09-26T09:25:59Z</time>
      </trkpt>
      <trkpt lat="46.56999" lon="0.6672">
        <ele>90</ele>
        <time>2010-09-26T09:26:00Z</time>
      </trkpt>
      <trkpt lat="46.56999" lon="0.6672">
        <ele>90</ele>
        <time>2010-09-26T09:26:01Z</time>
      </trkpt>
      <trkpt lat="46.56999" lon="0.6672">
        <ele>90</ele>
        <time>2010-09-26T09:26:02Z</time>
      </trkpt>
      <trkpt lat="46.56999" lon="0.6672">
        <ele>90</ele>
        <time>2010-09-26T09:26:03Z</time>
      </trkpt>
      <trkpt lat="46.56999" lon="0.6672">
        <ele>90</ele>
        <time>2010-09-26T09:26:04Z</time>
      </trkpt>
      <trkpt lat="46.56999" lon="0.6672">
        <ele>90</ele>
        <time>2010-09-26T09:26:05Z</time>
      </trkpt>
      <trkpt lat="46.56999" lon="0.6672">
        <ele>90</ele>
        <time>2010-09-26T09:26:06Z</time>
      </trkpt>
      <trkpt lat="46.56999" lon="0.6672">
        <ele>90</ele>
        <time>2010-09-26T09:26:07Z</time>
      </trkpt>
      <trkpt lat="46.56999" lon="0.6672">
        <ele>90</ele>
        <time>2010-09-26T09:26:08Z</time>
      </trkpt>
      <trkpt lat="46.56999" lon="0.6672">
        <ele>90</ele>
        <time>2010-09-26T09:26:09Z</time>
      </trkpt>
      <trkpt lat="46.56999" lon="0.6672">
        <ele>90</ele>
        <time>2010-09-26T09:26:10Z</time>
      </trkpt>
      <trkpt lat="46.56999" lon="0.6672">
        <ele>90</ele>
        <time>2010-09-26T09:26:11Z</time>
      </trkpt>
      <trkpt lat="46.56999" lon="0.6672">
        <ele>90</ele>
        <time>2010-09-26T09:26:12Z</time>
      </trkpt>
      <trkpt lat="46.56999" lon="0.6672">
        <ele>90</ele>
        <time>2010-09-26T09:26:13Z</time>
      </trkpt>
      <trkpt lat="46.56999" lon="0.6672">
        <ele>90</ele>
        <time>2010-09-26T09:26:14Z</time>
      </trkpt>
      <trkpt lat="46.56999" lon="0.6672">
        <ele>90</ele>
        <time>2010-09-26T09:26:15Z</time>
      </trkpt>
      <trkpt lat="46.56999" lon="0.6672">
        <ele>90</ele>
        <time>2010-09-26T09:26:16Z</time>
      </trkpt>
      <trkpt lat="46.56999" lon="0.6672">
        <ele>90</ele>
        <time>2010-09-26T09:26:17Z</time>
      </trkpt>
      <trkpt lat="46.56999" lon="0.6672">
        <ele>90</ele>
        <time>2010-09-26T09:26:18Z</time>
      </trkpt>
      <trkpt lat="46.56999" lon="0.6672">
        <ele>90</ele>
        <time>2010-09-26T09:26:19Z</time>
      </trkpt>
      <trkpt lat="46.56999" lon="0.6672">
        <ele>90</ele>
        <time>2010-09-26T09:26:20Z</time>
      </trkpt>
      <trkpt lat="46.56999" lon="0.6672">
        <ele>90</ele>
        <time>2010-09-26T09:26:21Z</time>
      </trkpt>
      <trkpt lat="46.56999" lon="0.6672">
        <ele>90</ele>
        <time>2010-09-26T09:26:22Z</time>
      </trkpt>
      <trkpt lat="46.56999" lon="0.6672">
        <ele>90</ele>
        <time>2010-09-26T09:26:23Z</time>
      </trkpt>
      <trkpt lat="46.56999" lon="0.6672">
        <ele>90</ele>
        <time>2010-09-26T09:26:24Z</time>
      </trkpt>
      <trkpt lat="46.56999" lon="0.6672">
        <ele>90</ele>
        <time>2010-09-26T09:26:25Z</time>
      </trkpt>
      <trkpt lat="46.56999" lon="0.6672">
        <ele>90</ele>
        <time>2010-09-26T09:26:26Z</time>
      </trkpt>
      <trkpt lat="46.56999" lon="0.6672">
        <ele>90</ele>
        <time>2010-09-26T09:26:27Z</time>
      </trkpt>
      <trkpt lat="46.56999" lon="0.6672">
        <ele>90</ele>
        <time>2010-09-26T09:26:28Z</time>
      </trkpt>
      <trkpt lat="46.56999" lon="0.6672">
        <ele>90</ele>
        <time>2010-09-26T09:26:29Z</time>
      </trkpt>
      <trkpt lat="46.56999" lon="0.6672">
        <ele>90</ele>
        <time>2010-09-26T09:26:30Z</time>
      </trkpt>
      <trkpt lat="46.56999" lon="0.6672">
        <ele>90</ele>
        <time>2010-09-26T09:26:31Z</time>
      </trkpt>
      <trkpt lat="46.56999" lon="0.6672">
        <ele>90</ele>
        <time>2010-09-26T09:26:32Z</time>
      </trkpt>
      <trkpt lat="46.56999" lon="0.6672">
        <ele>90</ele>
        <time>2010-09-26T09:26:33Z</time>
      </trkpt>
      <trkpt lat="46.56999" lon="0.6672">
        <ele>90</ele>
        <time>2010-09-26T09:26:34Z</time>
      </trkpt>
      <trkpt lat="46.56999" lon="0.6672">
        <ele>90</ele>
        <time>2010-09-26T09:26:35Z</time>
      </trkpt>
      <trkpt lat="46.56999" lon="0.6672">
        <ele>90</ele>
        <time>2010-09-26T09:26:36Z</time>
      </trkpt>
      <trkpt lat="46.56999" lon="0.6672">
        <ele>90</ele>
        <time>2010-09-26T09:26:37Z</time>
      </trkpt>
      <trkpt lat="46.56999" lon="0.6672">
        <ele>90</ele>
        <time>2010-09-26T09:26:38Z</time>
      </trkpt>
      <trkpt lat="46.56999" lon="0.6672">
        <ele>90</ele>
        <time>2010-09-26T09:26:39Z</time>
      </trkpt>
      <trkpt lat="46.56999" lon="0.6672">
        <ele>90</ele>
        <time>2010-09-26T09:26:40Z</time>
      </trkpt>
      <trkpt lat="46.56999" lon="0.6672">
        <ele>90</ele>
        <time>2010-09-26T09:26:41Z</time>
      </trkpt>
      <trkpt lat="46.56999" lon="0.6672">
        <ele>90</ele>
        <time>2010-09-26T09:26:42Z</time>
      </trkpt>
      <trkpt lat="46.56999" lon="0.6672">
        <ele>90</ele>
        <time>2010-09-26T09:26:43Z</time>
      </trkpt>
      <trkpt lat="46.56999" lon="0.6672">
        <ele>90</ele>
        <time>2010-09-26T09:26:44Z</time>
      </trkpt>
      <trkpt lat="46.56999" lon="0.6672">
        <ele>90</ele>
        <time>2010-09-26T09:26:45Z</time>
      </trkpt>
      <trkpt lat="46.56999" lon="0.6672">
        <ele>90</ele>
        <time>2010-09-26T09:26:46Z</time>
      </trkpt>
      <trkpt lat="46.56999" lon="0.6672">
        <ele>90</ele>
        <time>2010-09-26T09:26:47Z</time>
      </trkpt>
      <trkpt lat="46.56999" lon="0.6672">
        <ele>90</ele>
        <time>2010-09-26T09:26:48Z</time>
      </trkpt>
      <trkpt lat="46.56999" lon="0.6672">
        <ele>90</ele>
        <time>2010-09-26T09:26:49Z</time>
      </trkpt>
      <trkpt lat="46.56999" lon="0.6672">
        <ele>90</ele>
        <time>2010-09-26T09:26:50Z</time>
      </trkpt>
      <trkpt lat="46.56999" lon="0.6672">
        <ele>90</ele>
        <time>2010-09-26T09:26:51Z</time>
      </trkpt>
      <trkpt lat="46.56999" lon="0.6672">
        <ele>90</ele>
        <time>2010-09-26T09:26:52Z</time>
      </trkpt>
      <trkpt lat="46.56999" lon="0.6672">
        <ele>90</ele>
        <time>2010-09-26T09:26:53Z</time>
      </trkpt>
      <trkpt lat="46.56999" lon="0.6672">
        <ele>90</ele>
        <time>2010-09-26T09:26:54Z</time>
      </trkpt>
      <trkpt lat="46.56999" lon="0.6672">
        <ele>90</ele>
        <time>2010-09-26T09:26:55Z</time>
      </trkpt>
      <trkpt lat="46.56999" lon="0.6672">
        <ele>90</ele>
        <time>2010-09-26T09:26:56Z</time>
      </trkpt>
      <trkpt lat="46.56999" lon="0.6672">
        <ele>90</ele>
        <time>2010-09-26T09:26:57Z</time>
      </trkpt>
      <trkpt lat="46.56999" lon="0.6672">
        <ele>90</ele>
        <time>2010-09-26T09:26:58Z</time>
      </trkpt>
      <trkpt lat="46.56999" lon="0.6672">
        <ele>90</ele>
        <time>2010-09-26T09:26:59Z</time>
      </trkpt>
      <trkpt lat="46.56999" lon="0.6672">
        <ele>90</ele>
        <time>2010-09-26T09:27:00Z</time>
      </trkpt>
      <trkpt lat="46.56999" lon="0.6672">
        <ele>90</ele>
        <time>2010-09-26T09:27:01Z</time>
      </trkpt>
      <trkpt lat="46.56999" lon="0.6672">
        <ele>90</ele>
        <time>2010-09-26T09:27:02Z</time>
      </trkpt>
      <trkpt lat="46.56999" lon="0.6672">
        <ele>90</ele>
        <time>2010-09-26T09:27:03Z</time>
      </trkpt>
      <trkpt lat="46.56999" lon="0.6672">
        <ele>90</ele>
        <time>2010-09-26T09:27:04Z</time>
      </trkpt>
      <trkpt lat="46.56999" lon="0.6672">
        <ele>90</ele>
        <time>2010-09-26T09:27:05Z</time>
      </trkpt>
      <trkpt lat="46.56999" lon="0.6672">
        <ele>90</ele>
        <time>2010-09-26T09:27:06Z</time>
      </trkpt>
      <trkpt lat="46.56999" lon="0.6672">
        <ele>90</ele>
        <time>2010-09-26T09:27:07Z</time>
      </trkpt>
      <trkpt lat="46.56999" lon="0.6672">
        <ele>90</ele>
        <time>2010-09-26T09:27:08Z</time>
      </trkpt>
      <trkpt lat="46.56999" lon="0.6672">
        <ele>90</ele>
        <time>2010-09-26T09:27:09Z</time>
      </trkpt>
      <trkpt lat="46.56999" lon="0.6672">
        <ele>90</ele>
        <time>2010-09-26T09:27:10Z</time>
      </trkpt>
      <trkpt lat="46.56999" lon="0.6672">
        <ele>90</ele>
        <time>2010-09-26T09:27:11Z</time>
      </trkpt>
      <trkpt lat="46.56999" lon="0.6672">
        <ele>90</ele>
        <time>2010-09-26T09:27:12Z</time>
      </trkpt>
      <trkpt lat="46.56999" lon="0.6672">
        <ele>90</ele>
        <time>2010-09-26T09:27:13Z</time>
      </trkpt>
      <trkpt lat="46.56999" lon="0.6672">
        <ele>90</ele>
        <time>2010-09-26T09:27:14Z</time>
      </trkpt>
      <trkpt lat="46.56999" lon="0.6672">
        <ele>90</ele>
        <time>2010-09-26T09:27:15Z</time>
      </trkpt>
      <trkpt lat="46.56999" lon="0.6672">
        <ele>90</ele>
        <time>2010-09-26T09:27:16Z</time>
      </trkpt>
      <trkpt lat="46.56999" lon="0.6672">
        <ele>90</ele>
        <time>2010-09-26T09:27:17Z</time>
      </trkpt>
      <trkpt lat="46.56999" lon="0.6672">
        <ele>90</ele>
        <time>2010-09-26T09:27:18Z</time>
      </trkpt>
      <trkpt lat="46.56999" lon="0.6672">
        <ele>90</ele>
        <time>2010-09-26T09:27:19Z</time>
      </trkpt>
      <trkpt lat="46.56999" lon="0.6672">
        <ele>90</ele>
        <time>2010-09-26T09:27:20Z</time>
      </trkpt>
      <trkpt lat="46.56999" lon="0.6672">
        <ele>90</ele>
        <time>2010-09-26T09:27:21Z</time>
      </trkpt>
      <trkpt lat="46.56999" lon="0.6672">
        <ele>90</ele>
        <time>2010-09-26T09:27:22Z</time>
      </trkpt>
      <trkpt lat="46.56999" lon="0.6672">
        <ele>90</ele>
        <time>2010-09-26T09:27:23Z</time>
      </trkpt>
      <trkpt lat="46.56999" lon="0.6672">
        <ele>90</ele>
        <time>2010-09-26T09:27:24Z</time>
      </trkpt>
      <trkpt lat="46.56999" lon="0.6672">
        <ele>90</ele>
        <time>2010-09-26T09:27:25Z</time>
      </trkpt>
      <trkpt lat="46.56999" lon="0.6672">
        <ele>90</ele>
        <time>2010-09-26T09:27:26Z</time>
      </trkpt>
      <trkpt lat="46.56999" lon="0.6672">
        <ele>90</ele>
        <time>2010-09-26T09:27:27Z</time>
      </trkpt>
      <trkpt lat="46.56999" lon="0.6672">
        <ele>90</ele>
        <time>2010-09-26T09:27:28Z</time>
      </trkpt>
      <trkpt lat="46.56999" lon="0.6672">
        <ele>90</ele>
        <time>2010-09-26T09:27:29Z</time>
      </trkpt>
      <trkpt lat="46.56999" lon="0.6672">
        <ele>90</ele>
        <time>2010-09-26T09:27:30Z</time>
      </trkpt>
      <trkpt lat="46.56999" lon="0.6672">
        <ele>90</ele>
        <time>2010-09-26T09:27:31Z</time>
      </trkpt>
      <trkpt lat="46.56999" lon="0.6672">
        <ele>90</ele>
        <time>2010-09-26T09:27:32Z</time>
      </trkpt>
      <trkpt lat="46.56999" lon="0.6672">
        <ele>90</ele>
        <time>2010-09-26T09:27:33Z</time>
      </trkpt>
      <trkpt lat="46.56999" lon="0.6672">
        <ele>90</ele>
        <time>2010-09-26T09:27:34Z</time>
      </trkpt>
      <trkpt lat="46.56999" lon="0.6672">
        <ele>90</ele>
        <time>2010-09-26T09:27:35Z</time>
      </trkpt>
      <trkpt lat="46.56999" lon="0.6672">
        <ele>90</ele>
        <time>2010-09-26T09:27:36Z</time>
      </trkpt>
      <trkpt lat="46.56999" lon="0.6672">
        <ele>90</ele>
        <time>2010-09-26T09:27:37Z</time>
      </trkpt>
      <trkpt lat="46.56999" lon="0.6672">
        <ele>90</ele>
        <time>2010-09-26T09:27:38Z</time>
      </trkpt>
      <trkpt lat="46.56999" lon="0.6672">
        <ele>90</ele>
        <time>2010-09-26T09:27:39Z</time>
      </trkpt>
      <trkpt lat="46.56999" lon="0.6672">
        <ele>90</ele>
        <time>2010-09-26T09:27:40Z</time>
      </trkpt>
      <trkpt lat="46.56999" lon="0.6672">
        <ele>90</ele>
        <time>2010-09-26T09:27:41Z</time>
      </trkpt>
      <trkpt lat="46.56999" lon="0.6672">
        <ele>90</ele>
        <time>2010-09-26T09:27:42Z</time>
      </trkpt>
      <trkpt lat="46.56999" lon="0.6672">
        <ele>90</ele>
        <time>2010-09-26T09:27:43Z</time>
      </trkpt>
      <trkpt lat="46.56999" lon="0.6672">
        <ele>90</ele>
        <time>2010-09-26T09:27:44Z</time>
      </trkpt>
      <trkpt lat="46.56999" lon="0.6672">
        <ele>90</ele>
        <time>2010-09-26T09:27:45Z</time>
      </trkpt>
      <trkpt lat="46.56999" lon="0.6672">
        <ele>90</ele>
        <time>2010-09-26T09:27:46Z</time>
      </trkpt>
      <trkpt lat="46.56999" lon="0.6672">
        <ele>90</ele>
        <time>2010-09-26T09:27:47Z</time>
      </trkpt>
      <trkpt lat="46.56999" lon="0.6672">
        <ele>90</ele>
        <time>2010-09-26T09:27:48Z</time>
      </trkpt>
      <trkpt lat="46.56999" lon="0.6672">
        <ele>90</ele>
        <time>2010-09-26T09:27:49Z</time>
      </trkpt>
      <trkpt lat="46.56999" lon="0.6672">
        <ele>90</ele>
        <time>2010-09-26T09:27:50Z</time>
      </trkpt>
      <trkpt lat="46.56999" lon="0.6672">
        <ele>90</ele>
        <time>2010-09-26T09:27:51Z</time>
      </trkpt>
      <trkpt lat="46.56999" lon="0.6672">
        <ele>90</ele>
        <time>2010-09-26T09:27:52Z</time>
      </trkpt>
      <trkpt lat="46.56999" lon="0.6672">
        <ele>90</ele>
        <time>2010-09-26T09:27:53Z</time>
      </trkpt>
      <trkpt lat="46.56999" lon="0.6672">
        <ele>90</ele>
        <time>2010-09-26T09:27:54Z</time>
      </trkpt>
      <trkpt lat="46.56999" lon="0.6672">
        <ele>90</ele>
        <time>2010-09-26T09:27:55Z</time>
      </trkpt>
      <trkpt lat="46.56999" lon="0.6672">
        <ele>90</ele>
        <time>2010-09-26T09:27:56Z</time>
      </trkpt>
      <trkpt lat="46.56999" lon="0.6672">
        <ele>90</ele>
        <time>2010-09-26T09:27:57Z</time>
      </trkpt>
      <trkpt lat="46.56999" lon="0.6672">
        <ele>90</ele>
        <time>2010-09-26T09:27:58Z</time>
      </trkpt>
      <trkpt lat="46.56999" lon="0.6672">
        <ele>90</ele>
        <time>2010-09-26T09:27:59Z</time>
      </trkpt>
      <trkpt lat="46.56999" lon="0.6672">
        <ele>90</ele>
        <time>2010-09-26T09:28:00Z</time>
      </trkpt>
      <trkpt lat="46.56999" lon="0.6672">
        <ele>90</ele>
        <time>2010-09-26T09:28:01Z</time>
      </trkpt>
      <trkpt lat="46.56999" lon="0.6672">
        <ele>90</ele>
        <time>2010-09-26T09:28:02Z</time>
      </trkpt>
      <trkpt lat="46.56999" lon="0.6672">
        <ele>90</ele>
        <time>2010-09-26T09:28:03Z</time>
      </trkpt>
      <trkpt lat="46.56999" lon="0.6672">
        <ele>90</ele>
        <time>2010-09-26T09:28:04Z</time>
      </trkpt>
      <trkpt lat="46.56999" lon="0.6672">
        <ele>90</ele>
        <time>2010-09-26T09:28:05Z</time>
      </trkpt>
      <trkpt lat="46.56999" lon="0.6672">
        <ele>90</ele>
        <time>2010-09-26T09:28:06Z</time>
      </trkpt>
      <trkpt lat="46.56999" lon="0.6672">
        <ele>90</ele>
        <time>2010-09-26T09:28:07Z</time>
      </trkpt>
      <trkpt lat="46.56999" lon="0.6672">
        <ele>90</ele>
        <time>2010-09-26T09:28:08Z</time>
      </trkpt>
      <trkpt lat="46.56999" lon="0.6672">
        <ele>90</ele>
        <time>2010-09-26T09:28:09Z</time>
      </trkpt>
      <trkpt lat="46.56999" lon="0.6672">
        <ele>90</ele>
        <time>2010-09-26T09:28:10Z</time>
      </trkpt>
      <trkpt lat="46.56999" lon="0.6672">
        <ele>90</ele>
        <time>2010-09-26T09:28:11Z</time>
      </trkpt>
      <trkpt lat="46.56999" lon="0.6672">
        <ele>90</ele>
        <time>2010-09-26T09:28:12Z</time>
      </trkpt>
      <trkpt lat="46.56999" lon="0.6672">
        <ele>90</ele>
        <time>2010-09-26T09:28:13Z</time>
      </trkpt>
      <trkpt lat="46.56999" lon="0.6672">
        <ele>90</ele>
        <time>2010-09-26T09:28:14Z</time>
      </trkpt>
      <trkpt lat="46.56999" lon="0.6672">
        <ele>90</ele>
        <time>2010-09-26T09:28:15Z</time>
      </trkpt>
      <trkpt lat="46.56999" lon="0.6672">
        <ele>90</ele>
        <time>2010-09-26T09:28:16Z</time>
      </trkpt>
      <trkpt lat="46.56999" lon="0.6672">
        <ele>90</ele>
        <time>2010-09-26T09:28:17Z</time>
      </trkpt>
      <trkpt lat="46.56999" lon="0.6672">
        <ele>90</ele>
        <time>2010-09-26T09:28:18Z</time>
      </trkpt>
      <trkpt lat="46.56999" lon="0.6672">
        <ele>90</ele>
        <time>2010-09-26T09:28:19Z</time>
      </trkpt>
      <trkpt lat="46.56999" lon="0.6672">
        <ele>90</ele>
        <time>2010-09-26T09:28:20Z</time>
      </trkpt>
      <trkpt lat="46.56999" lon="0.6672">
        <ele>90</ele>
        <time>2010-09-26T09:28:21Z</time>
      </trkpt>
      <trkpt lat="46.56999" lon="0.6672">
        <ele>90</ele>
        <time>2010-09-26T09:28:22Z</time>
      </trkpt>
      <trkpt lat="46.56999" lon="0.6672">
        <ele>90</ele>
        <time>2010-09-26T09:28:23Z</time>
      </trkpt>
      <trkpt lat="46.56999" lon="0.6672">
        <ele>90</ele>
        <time>2010-09-26T09:28:24Z</time>
      </trkpt>
      <trkpt lat="46.56999" lon="0.6672">
        <ele>90</ele>
        <time>2010-09-26T09:28:25Z</time>
      </trkpt>
      <trkpt lat="46.56999" lon="0.6672">
        <ele>90</ele>
        <time>2010-09-26T09:28:26Z</time>
      </trkpt>
      <trkpt lat="46.56999" lon="0.6672">
        <ele>90</ele>
        <time>2010-09-26T09:28:27Z</time>
      </trkpt>
      <trkpt lat="46.56999" lon="0.6672">
        <ele>90</ele>
        <time>2010-09-26T09:28:28Z</time>
      </trkpt>
      <trkpt lat="46.56999" lon="0.6672">
        <ele>90</ele>
        <time>2010-09-26T09:28:29Z</time>
      </trkpt>
      <trkpt lat="46.56999" lon="0.6672">
        <ele>90</ele>
        <time>2010-09-26T09:28:30Z</time>
      </trkpt>
      <trkpt lat="46.56999" lon="0.6672">
        <ele>90</ele>
        <time>2010-09-26T09:28:31Z</time>
      </trkpt>
      <trkpt lat="46.56999" lon="0.6672">
        <ele>90</ele>
        <time>2010-09-26T09:28:32Z</time>
      </trkpt>
      <trkpt lat="46.56999" lon="0.6672">
        <ele>90</ele>
        <time>2010-09-26T09:28:33Z</time>
      </trkpt>
      <trkpt lat="46.56999" lon="0.6672">
        <ele>90</ele>
        <time>2010-09-26T09:28:34Z</time>
      </trkpt>
      <trkpt lat="46.56999" lon="0.6672">
        <ele>90</ele>
        <time>2010-09-26T09:28:35Z</time>
      </trkpt>
      <trkpt lat="46.56999" lon="0.6672">
        <ele>90</ele>
        <time>2010-09-26T09:28:36Z</time>
      </trkpt>
      <trkpt lat="46.56999" lon="0.6672">
        <ele>90</ele>
        <time>2010-09-26T09:28:37Z</time>
      </trkpt>
      <trkpt lat="46.56999" lon="0.6672">
        <ele>90</ele>
        <time>2010-09-26T09:28:38Z</time>
      </trkpt>
      <trkpt lat="46.56999" lon="0.6672">
        <ele>90</ele>
        <time>2010-09-26T09:28:39Z</time>
      </trkpt>
      <trkpt lat="46.56999" lon="0.6672">
        <ele>90</ele>
        <time>2010-09-26T09:28:40Z</time>
      </trkpt>
      <trkpt lat="46.56999" lon="0.6672">
        <ele>90</ele>
        <time>2010-09-26T09:28:41Z</time>
      </trkpt>
      <trkpt lat="46.56999" lon="0.6672">
        <ele>90</ele>
        <time>2010-09-26T09:28:42Z</time>
      </trkpt>
      <trkpt lat="46.56999" lon="0.6672">
        <ele>90</ele>
        <time>2010-09-26T09:28:43Z</time>
      </trkpt>
      <trkpt lat="46.56999" lon="0.6672">
        <ele>90</ele>
        <time>2010-09-26T09:28:44Z</time>
      </trkpt>
      <trkpt lat="46.56999" lon="0.6672">
        <ele>90</ele>
        <time>2010-09-26T09:28:45Z</time>
      </trkpt>
      <trkpt lat="46.56999" lon="0.6672">
        <ele>90</ele>
        <time>2010-09-26T09:28:46Z</time>
      </trkpt>
      <trkpt lat="46.56999" lon="0.6672">
        <ele>90</ele>
        <time>2010-09-26T09:28:47Z</time>
      </trkpt>
      <trkpt lat="46.56999" lon="0.6672">
        <ele>90</ele>
        <time>2010-09-26T09:28:48Z</time>
      </trkpt>
      <trkpt lat="46.56999" lon="0.6672">
        <ele>90</ele>
        <time>2010-09-26T09:28:49Z</time>
      </trkpt>
      <trkpt lat="46.56999" lon="0.6672">
        <ele>90</ele>
        <time>2010-09-26T09:28:50Z</time>
      </trkpt>
      <trkpt lat="46.56999" lon="0.6672">
        <ele>90</ele>
        <time>2010-09-26T09:28:51Z</time>
      </trkpt>
      <trkpt lat="46.56999" lon="0.6672">
        <ele>90</ele>
        <time>2010-09-26T09:28:52Z</time>
      </trkpt>
      <trkpt lat="46.56999" lon="0.6672">
        <ele>90</ele>
        <time>2010-09-26T09:28:53Z</time>
      </trkpt>
      <trkpt lat="46.56999" lon="0.6672">
        <ele>90</ele>
        <time>2010-09-26T09:28:54Z</time>
      </trkpt>
      <trkpt lat="46.56999" lon="0.6672">
        <ele>90</ele>
        <time>2010-09-26T09:28:55Z</time>
      </trkpt>
      <trkpt lat="46.56999" lon="0.6672">
        <ele>90</ele>
        <time>2010-09-26T09:28:56Z</time>
      </trkpt>
      <trkpt lat="46.56999" lon="0.6672">
        <ele>90</ele>
        <time>2010-09-26T09:28:57Z</time>
      </trkpt>
      <trkpt lat="46.56999" lon="0.6672">
        <ele>90</ele>
        <time>2010-09-26T09:28:58Z</time>
      </trkpt>
      <trkpt lat="46.56999" lon="0.6672">
        <ele>90</ele>
        <time>2010-09-26T09:28:59Z</time>
      </trkpt>
      <trkpt lat="46.56999" lon="0.6672">
        <ele>90</ele>
        <time>2010-09-26T09:29:00Z</time>
      </trkpt>
      <trkpt lat="46.56999" lon="0.6672">
        <ele>90</ele>
        <time>2010-09-26T09:29:01Z</time>
      </trkpt>
      <trkpt lat="46.56999" lon="0.6672">
        <ele>90</ele>
        <time>2010-09-26T09:29:02Z</time>
      </trkpt>
      <trkpt lat="46.56999" lon="0.6672">
        <ele>90</ele>
        <time>2010-09-26T09:29:03Z</time>
      </trkpt>
      <trkpt lat="46.56999" lon="0.6672">
        <ele>90</ele>
        <time>2010-09-26T09:29:04Z</time>
      </trkpt>
      <trkpt lat="46.56999" lon="0.6672">
        <ele>90</ele>
        <time>2010-09-26T09:29:05Z</time>
      </trkpt>
      <trkpt lat="46.56999" lon="0.6672">
        <ele>90</ele>
        <time>2010-09-26T09:29:06Z</time>
      </trkpt>
      <trkpt lat="46.56999" lon="0.6672">
        <ele>90</ele>
        <time>2010-09-26T09:29:07Z</time>
      </trkpt>
      <trkpt lat="46.56999" lon="0.6672">
        <ele>90</ele>
        <time>2010-09-26T09:29:08Z</time>
      </trkpt>
      <trkpt lat="46.56999" lon="0.6672">
        <ele>90</ele>
        <time>2010-09-26T09:29:09Z</time>
      </trkpt>
      <trkpt lat="46.56999" lon="0.6672">
        <ele>90</ele>
        <time>2010-09-26T09:29:10Z</time>
      </trkpt>
      <trkpt lat="46.56999" lon="0.6672">
        <ele>90</ele>
        <time>2010-09-26T09:29:11Z</time>
      </trkpt>
      <trkpt lat="46.56999" lon="0.6672">
        <ele>90</ele>
        <time>2010-09-26T09:29:12Z</time>
      </trkpt>
      <trkpt lat="46.56999" lon="0.6672">
        <ele>90</ele>
        <time>2010-09-26T09:29:13Z</time>
      </trkpt>
      <trkpt lat="46.56999" lon="0.6672">
        <ele>90</ele>
        <time>2010-09-26T09:29:14Z</time>
      </trkpt>
      <trkpt lat="46.56999" lon="0.6672">
        <ele>90</ele>
        <time>2010-09-26T09:29:15Z</time>
      </trkpt>
      <trkpt lat="46.56999" lon="0.6672">
        <ele>90</ele>
        <time>2010-09-26T09:29:16Z</time>
      </trkpt>
      <trkpt lat="46.56999" lon="0.6672">
        <ele>90</ele>
        <time>2010-09-26T09:29:17Z</time>
      </trkpt>
      <trkpt lat="46.56999" lon="0.6672">
        <ele>90</ele>
        <time>2010-09-26T09:29:18Z</time>
      </trkpt>
      <trkpt lat="46.56999" lon="0.6672">
        <ele>90</ele>
        <time>2010-09-26T09:29:19Z</time>
      </trkpt>
      <trkpt lat="46.56999" lon="0.6672">
        <ele>90</ele>
        <time>2010-09-26T09:29:20Z</time>
      </trkpt>
      <trkpt lat="46.56999" lon="0.6672">
        <ele>90</ele>
        <time>2010-09-26T09:29:21Z</time>
      </trkpt>
      <trkpt lat="46.56999" lon="0.6672">
        <ele>90</ele>
        <time>2010-09-26T09:29:22Z</time>
      </trkpt>
      <trkpt lat="46.56999" lon="0.6672">
        <ele>90</ele>
        <time>2010-09-26T09:29:23Z</time>
      </trkpt>
      <trkpt lat="46.56999" lon="0.6672">
        <ele>90</ele>
        <time>2010-09-26T09:29:24Z</time>
      </trkpt>
      <trkpt lat="46.56999" lon="0.6672">
        <ele>90</ele>
        <time>2010-09-26T09:29:25Z</time>
      </trkpt>
      <trkpt lat="46.56999" lon="0.6672">
        <ele>90</ele>
        <time>2010-09-26T09:29:26Z</time>
      </trkpt>
      <trkpt lat="46.56999" lon="0.6672">
        <ele>90</ele>
        <time>2010-09-26T09:29:27Z</time>
      </trkpt>
      <trkpt lat="46.56999" lon="0.6672">
        <ele>90</ele>
        <time>2010-09-26T09:29:28Z</time>
      </trkpt>
      <trkpt lat="46.56999" lon="0.6672">
        <ele>90</ele>
        <time>2010-09-26T09:29:29Z</time>
      </trkpt>
      <trkpt lat="46.56999" lon="0.6672">
        <ele>90</ele>
        <time>2010-09-26T09:29:30Z</time>
      </trkpt>
      <trkpt lat="46.56999" lon="0.6672">
        <ele>90</ele>
        <time>2010-09-26T09:29:31Z</time>
      </trkpt>
      <trkpt lat="46.56999" lon="0.6672">
        <ele>90</ele>
        <time>2010-09-26T09:29:32Z</time>
      </trkpt>
      <trkpt lat="46.56999" lon="0.6672">
        <ele>90</ele>
        <time>2010-09-26T09:29:33Z</time>
      </trkpt>
      <trkpt lat="46.56999" lon="0.6672">
        <ele>90</ele>
        <time>2010-09-26T09:29:34Z</time>
      </trkpt>
      <trkpt lat="46.56999" lon="0.6672">
        <ele>90</ele>
        <time>2010-09-26T09:29:35Z</time>
      </trkpt>
      <trkpt lat="46.56999" lon="0.6672">
        <ele>90</ele>
        <time>2010-09-26T09:29:36Z</time>
      </trkpt>
      <trkpt lat="46.56999" lon="0.6672">
        <ele>90</ele>
        <time>2010-09-26T09:29:37Z</time>
      </trkpt>
      <trkpt lat="46.56999" lon="0.6672">
        <ele>90</ele>
        <time>2010-09-26T09:29:38Z</time>
      </trkpt>
      <trkpt lat="46.56999" lon="0.6672">
        <ele>90</ele>
        <time>2010-09-26T09:29:39Z</time>
      </trkpt>
      <trkpt lat="46.56999" lon="0.6672">
        <ele>90</ele>
        <time>2010-09-26T09:29:40Z</time>
      </trkpt>
      <trkpt lat="46.56999" lon="0.6672">
        <ele>90</ele>
        <time>2010-09-26T09:29:41Z</time>
      </trkpt>
      <trkpt lat="46.56999" lon="0.6672">
        <ele>90</ele>
        <time>2010-09-26T09:29:42Z</time>
      </trkpt>
      <trkpt lat="46.56999" lon="0.6672">
        <ele>90</ele>
        <time>2010-09-26T09:29:43Z</time>
      </trkpt>
      <trkpt lat="46.56999" lon="0.6672">
        <ele>90</ele>
        <time>2010-09-26T09:29:44Z</time>
      </trkpt>
      <trkpt lat="46.56999" lon="0.6672">
        <ele>90</ele>
        <time>2010-09-26T09:29:45Z</time>
      </trkpt>
      <trkpt lat="46.56999" lon="0.6672">
        <ele>90</ele>
        <time>2010-09-26T09:29:46Z</time>
      </trkpt>
      <trkpt lat="46.56999" lon="0.6672">
        <ele>90</ele>
        <time>2010-09-26T09:29:47Z</time>
      </trkpt>
      <trkpt lat="46.56999" lon="0.6672">
        <ele>90</ele>
        <time>2010-09-26T09:29:48Z</time>
      </trkpt>
      <trkpt lat="46.56999" lon="0.6672">
        <ele>90</ele>
        <time>2010-09-26T09:29:49Z</time>
      </trkpt>
      <trkpt lat="46.56999" lon="0.6672">
        <ele>90</ele>
        <time>2010-09-26T09:29:50Z</time>
      </trkpt>
      <trkpt lat="46.56999" lon="0.6672">
        <ele>90</ele>
        <time>2010-09-26T09:29:51Z</time>
      </trkpt>
      <trkpt lat="46.56999" lon="0.6672">
        <ele>90</ele>
        <time>2010-09-26T09:29:52Z</time>
      </trkpt>
      <trkpt lat="46.56999" lon="0.6672">
        <ele>90</ele>
        <time>2010-09-26T09:29:53Z</time>
      </trkpt>
      <trkpt lat="46.56999" lon="0.6672">
        <ele>90</ele>
        <time>2010-09-26T09:29:54Z</time>
      </trkpt>
      <trkpt lat="46.56999" lon="0.6672">
        <ele>90</ele>
        <time>2010-09-26T09:29:55Z</time>
      </trkpt>
      <trkpt lat="46.56999" lon="0.6672">
        <ele>90</ele>
        <time>2010-09-26T09:29:56Z</time>
      </trkpt>
      <trkpt lat="46.56999" lon="0.6672">
        <ele>90</ele>
        <time>2010-09-26T09:29:57Z</time>
      </trkpt>
      <trkpt lat="46.56999" lon="0.6672">
        <ele>90</ele>
        <time>2010-09-26T09:29:58Z</time>
      </trkpt>
      <trkpt lat="46.56999" lon="0.6672">
        <ele>90</ele>
        <time>2010-09-26T09:29:59Z</time>
      </trkpt>
      <trkpt lat="46.56999" lon="0.6672">
        <ele>90</ele>
        <time>2010-09-26T09:30:00Z</time>
      </trkpt>
      <trkpt lat="46.56999" lon="0.6672">
        <ele>90</ele>
        <time>2010-09-26T09:30:01Z</time>
      </trkpt>
      <trkpt lat="46.56999" lon="0.6672">
        <ele>90</ele>
        <time>2010-09-26T09:30:02Z</time>
      </trkpt>
      <trkpt lat="46.56999" lon="0.6672">
        <ele>90</ele>
        <time>2010-09-26T09:30:03Z</time>
      </trkpt>
      <trkpt lat="46.56999" lon="0.6672">
        <ele>90</ele>
        <time>2010-09-26T09:30:04Z</time>
      </trkpt>
      <trkpt lat="46.56999" lon="0.6672">
        <ele>90</ele>
        <time>2010-09-26T09:30:05Z</time>
      </trkpt>
      <trkpt lat="46.56999" lon="0.6672">
        <ele>90</ele>
        <time>2010-09-26T09:30:06Z</time>
      </trkpt>
      <trkpt lat="46.56999" lon="0.6672">
        <ele>90</ele>
        <time>2010-09-26T09:30:07Z</time>
      </trkpt>
      <trkpt lat="46.56999" lon="0.6672">
        <ele>90</ele>
        <time>2010-09-26T09:30:08Z</time>
      </trkpt>
      <trkpt lat="46.56999" lon="0.6672">
        <ele>90</ele>
        <time>2010-09-26T09:30:09Z</time>
      </trkpt>
      <trkpt lat="46.56999" lon="0.6672">
        <ele>90</ele>
        <time>2010-09-26T09:30:10Z</time>
      </trkpt>
      <trkpt lat="46.56999" lon="0.6672">
        <ele>90</ele>
        <time>2010-09-26T09:30:11Z</time>
      </trkpt>
      <trkpt lat="46.56999" lon="0.6672">
        <ele>90</ele>
        <time>2010-09-26T09:30:12Z</time>
      </trkpt>
      <trkpt lat="46.56999" lon="0.6672">
        <ele>90</ele>
        <time>2010-09-26T09:30:13Z</time>
      </trkpt>
      <trkpt lat="46.56999" lon="0.6672">
        <ele>90</ele>
        <time>2010-09-26T09:30:14Z</time>
      </trkpt>
      <trkpt lat="46.56999" lon="0.6672">
        <ele>90</ele>
        <time>2010-09-26T09:30:15Z</time>
      </trkpt>
      <trkpt lat="46.56999" lon="0.6672">
        <ele>90</ele>
        <time>2010-09-26T09:30:16Z</time>
      </trkpt>
      <trkpt lat="46.56999" lon="0.6672">
        <ele>90</ele>
        <time>2010-09-26T09:30:17Z</time>
      </trkpt>
      <trkpt lat="46.56999" lon="0.6672">
        <ele>90</ele>
        <time>2010-09-26T09:30:18Z</time>
      </trkpt>
      <trkpt lat="46.56999" lon="0.6672">
        <ele>90</ele>
        <time>2010-09-26T09:30:19Z</time>
      </trkpt>
      <trkpt lat="46.56999" lon="0.6672">
        <ele>90</ele>
        <time>2010-09-26T09:30:20Z</time>
      </trkpt>
      <trkpt lat="46.56999" lon="0.6672">
        <ele>90</ele>
        <time>2010-09-26T09:30:21Z</time>
      </trkpt>
      <trkpt lat="46.56999" lon="0.6672">
        <ele>90</ele>
        <time>2010-09-26T09:30:22Z</time>
      </trkpt>
      <trkpt lat="46.56999" lon="0.6672">
        <ele>90</ele>
        <time>2010-09-26T09:30:23Z</time>
      </trkpt>
      <trkpt lat="46.56999" lon="0.6672">
        <ele>90</ele>
        <time>2010-09-26T09:30:24Z</time>
      </trkpt>
      <trkpt lat="46.56999" lon="0.6672">
        <ele>90</ele>
        <time>2010-09-26T09:30:25Z</time>
      </trkpt>
      <trkpt lat="46.56999" lon="0.6672">
        <ele>90</ele>
        <time>2010-09-26T09:30:26Z</time>
      </trkpt>
      <trkpt lat="46.56999" lon="0.6672">
        <ele>90</ele>
        <time>2010-09-26T09:30:27Z</time>
      </trkpt>
      <trkpt lat="46.56999" lon="0.6672">
        <ele>90</ele>
        <time>2010-09-26T09:30:28Z</time>
      </trkpt>
      <trkpt lat="46.56999" lon="0.6672">
        <ele>90</ele>
        <time>2010-09-26T09:30:29Z</time>
      </trkpt>
      <trkpt lat="46.56999" lon="0.6672">
        <ele>90</ele>
        <time>2010-09-26T09:30:30Z</time>
      </trkpt>
      <trkpt lat="46.56999" lon="0.6672">
        <ele>90</ele>
        <time>2010-09-26T09:30:31Z</time>
      </trkpt>
      <trkpt lat="46.56999" lon="0.6672">
        <ele>90</ele>
        <time>2010-09-26T09:30:32Z</time>
      </trkpt>
      <trkpt lat="46.56999" lon="0.6672">
        <ele>90</ele>
        <time>2010-09-26T09:30:33Z</time>
      </trkpt>
      <trkpt lat="46.56999" lon="0.6672">
        <ele>90</ele>
        <time>2010-09-26T09:30:34Z</time>
      </trkpt>
      <trkpt lat="46.56999" lon="0.6672">
        <ele>90</ele>
        <time>2010-09-26T09:30:35Z</time>
      </trkpt>
      <trkpt lat="46.56999" lon="0.6672">
        <ele>90</ele>
        <time>2010-09-26T09:30:36Z</time>
      </trkpt>
      <trkpt lat="46.56999" lon="0.6672">
        <ele>90</ele>
        <time>2010-09-26T09:30:37Z</time>
      </trkpt>
      <trkpt lat="46.56999" lon="0.6672">
        <ele>90</ele>
        <time>2010-09-26T09:30:38Z</time>
      </trkpt>
      <trkpt lat="46.56999" lon="0.6672">
        <ele>90</ele>
        <time>2010-09-26T09:30:39Z</time>
      </trkpt>
      <trkpt lat="46.56999" lon="0.6672">
        <ele>90</ele>
        <time>2010-09-26T09:30:40Z</time>
      </trkpt>
      <trkpt lat="46.56999" lon="0.6672">
        <ele>90</ele>
        <time>2010-09-26T09:30:41Z</time>
      </trkpt>
      <trkpt lat="46.56999" lon="0.6672">
        <ele>90</ele>
        <time>2010-09-26T09:30:42Z</time>
      </trkpt>
      <trkpt lat="46.56999" lon="0.6672">
        <ele>90</ele>
        <time>2010-09-26T09:30:43Z</time>
      </trkpt>
      <trkpt lat="46.56999" lon="0.6672">
        <ele>90</ele>
        <time>2010-09-26T09:30:44Z</time>
      </trkpt>
      <trkpt lat="46.56999" lon="0.6672">
        <ele>90</ele>
        <time>2010-09-26T09:30:45Z</time>
      </trkpt>
      <trkpt lat="46.56999" lon="0.6672">
        <ele>90</ele>
        <time>2010-09-26T09:30:46Z</time>
      </trkpt>
      <trkpt lat="46.56999" lon="0.6672">
        <ele>90</ele>
        <time>2010-09-26T09:30:47Z</time>
      </trkpt>
      <trkpt lat="46.56999" lon="0.6672">
        <ele>90</ele>
        <time>2010-09-26T09:30:48Z</time>
      </trkpt>
      <trkpt lat="46.56999" lon="0.6672">
        <ele>90</ele>
        <time>2010-09-26T09:30:49Z</time>
      </trkpt>
      <trkpt lat="46.56999" lon="0.6672">
        <ele>90</ele>
        <time>2010-09-26T09:30:50Z</time>
      </trkpt>
      <trkpt lat="46.56999" lon="0.6672">
        <ele>90</ele>
        <time>2010-09-26T09:30:51Z</time>
      </trkpt>
      <trkpt lat="46.56999" lon="0.6672">
        <ele>90</ele>
        <time>2010-09-26T09:30:52Z</time>
      </trkpt>
      <trkpt lat="46.56999" lon="0.6672">
        <ele>90</ele>
        <time>2010-09-26T09:30:53Z</time>
      </trkpt>
      <trkpt lat="46.56999" lon="0.6672">
        <ele>90</ele>
        <time>2010-09-26T09:30:54Z</time>
      </trkpt>
      <trkpt lat="46.56999" lon="0.6672">
        <ele>90</ele>
        <time>2010-09-26T09:30:55Z</time>
      </trkpt>
      <trkpt lat="46.56999" lon="0.6672">
        <ele>90</ele>
        <time>2010-09-26T09:30:56Z</time>
      </trkpt>
      <trkpt lat="46.56999" lon="0.6672">
        <ele>90</ele>
        <time>2010-09-26T09:30:57Z</time>
      </trkpt>
      <trkpt lat="46.56999" lon="0.6672">
        <ele>90</ele>
        <time>2010-09-26T09:30:58Z</time>
      </trkpt>
      <trkpt lat="46.56999" lon="0.6672">
        <ele>90</ele>
        <time>2010-09-26T09:30:59Z</time>
      </trkpt>
      <trkpt lat="46.56999" lon="0.6672">
        <ele>90</ele>
        <time>2010-09-26T09:31:00Z</time>
      </trkpt>
      <trkpt lat="46.56999" lon="0.6672">
        <ele>90</ele>
        <time>2010-09-26T09:31:01Z</time>
      </trkpt>
      <trkpt lat="46.56999" lon="0.6672">
        <ele>90</ele>
        <time>2010-09-26T09:31:02Z</time>
      </trkpt>
      <trkpt lat="46.56999" lon="0.6672">
        <ele>90</ele>
        <time>2010-09-26T09:31:03Z</time>
      </trkpt>
      <trkpt lat="46.56999" lon="0.6672">
        <ele>90</ele>
        <time>2010-09-26T09:31:04Z</time>
      </trkpt>
      <trkpt lat="46.56999" lon="0.6672">
        <ele>90</ele>
        <time>2010-09-26T09:31:05Z</time>
      </trkpt>
      <trkpt lat="46.56999" lon="0.6672">
        <ele>90</ele>
        <time>2010-09-26T09:31:06Z</time>
      </trkpt>
      <trkpt lat="46.56999" lon="0.6672">
        <ele>90</ele>
        <time>2010-09-26T09:31:07Z</time>
      </trkpt>
      <trkpt lat="46.56999" lon="0.6672">
        <ele>90</ele>
        <time>2010-09-26T09:31:08Z</time>
      </trkpt>
      <trkpt lat="46.56999" lon="0.6672">
        <ele>90</ele>
        <time>2010-09-26T09:31:09Z</time>
      </trkpt>
      <trkpt lat="46.56999" lon="0.6672">
        <ele>90</ele>
        <time>2010-09-26T09:31:10Z</time>
      </trkpt>
      <trkpt lat="46.56999" lon="0.6672">
        <ele>90</ele>
        <time>2010-09-26T09:31:11Z</time>
      </trkpt>
      <trkpt lat="46.56999" lon="0.6672">
        <ele>90</ele>
        <time>2010-09-26T09:31:12Z</time>
      </trkpt>
      <trkpt lat="46.56999" lon="0.6672">
        <ele>90</ele>
        <time>2010-09-26T09:31:13Z</time>
      </trkpt>
      <trkpt lat="46.56999" lon="0.6672">
        <ele>90</ele>
        <time>2010-09-26T09:31:14Z</time>
      </trkpt>
      <trkpt lat="46.56999" lon="0.6672">
        <ele>90</ele>
        <time>2010-09-26T09:31:15Z</time>
      </trkpt>
      <trkpt lat="46.56999" lon="0.6672">
        <ele>90</ele>
        <time>2010-09-26T09:31:16Z</time>
      </trkpt>
      <trkpt lat="46.56998" lon="0.6672">
        <ele>90.5</ele>
        <time>2010-09-26T09:31:17Z</time>
      </trkpt>
      <trkpt lat="46.56997" lon="0.66718">
        <ele>89.9</ele>
        <time>2010-09-26T09:31:18Z</time>
      </trkpt>
      <trkpt lat="46.5699" lon="0.66715">
        <ele>89.1</ele>
        <time>2010-09-26T09:31:20Z</time>
      </trkpt>
      <trkpt lat="46.56986" lon="0.66714">
        <ele>89.1</ele>
        <time>2010-09-26T09:31:21Z</time>
      </trkpt>
      <trkpt lat="46.56982" lon="0.66713">
        <ele>88.8</ele>
        <time>2010-09-26T09:31:22Z</time>
      </trkpt>
      <trkpt lat="46.56975" lon="0.66713">
        <ele>88.6</ele>
        <time>2010-09-26T09:31:24Z</time>
      </trkpt>
      <trkpt lat="46.56972" lon="0.66715">
        <ele>87.5</ele>
        <time>2010-09-26T09:31:25Z</time>
      </trkpt>
      <trkpt lat="46.56969" lon="0.66717">
        <ele>87</ele>
        <time>2010-09-26T09:31:26Z</time>
      </trkpt>
      <trkpt lat="46.56968" lon="0.66719">
        <ele>86.3</ele>
        <time>2010-09-26T09:31:27Z</time>
      </trkpt>
      <trkpt lat="46.56965" lon="0.66721">
        <ele>86.4</ele>
        <time>2010-09-26T09:31:28Z</time>
      </trkpt>
      <trkpt lat="46.56962" lon="0.66725">
        <ele>86.5</ele>
        <time>2010-09-26T09:31:29Z</time>
      </trkpt>
      <trkpt lat="46.5696" lon="0.66729">
        <ele>86.5</ele>
        <time>2010-09-26T09:31:30Z</time>
      </trkpt>
      <trkpt lat="46.5696" lon="0.66733">
        <ele>86.3</ele>
        <time>2010-09-26T09:31:31Z</time>
      </trkpt>
      <trkpt lat="46.56959" lon="0.66736">
        <ele>86.6</ele>
        <time>2010-09-26T09:31:32Z</time>
      </trkpt>
      <trkpt lat="46.56959" lon="0.66739">
        <ele>86.5</ele>
        <time>2010-09-26T09:31:33Z</time>
      </trkpt>
      <trkpt lat="46.5696" lon="0.66741">
        <ele>86.6</ele>
        <time>2010-09-26T09:31:34Z</time>
      </trkpt>
      <trkpt lat="46.56962" lon="0.66743">
        <ele>87</ele>
        <time>2010-09-26T09:31:35Z</time>
      </trkpt>
      <trkpt lat="46.56972" lon="0.66766">
        <ele>88.4</ele>
        <time>2010-09-26T09:31:40Z</time>
      </trkpt>
      <trkpt lat="46.56972" lon="0.6677">
        <ele>89.9</ele>
        <time>2010-09-26T09:31:41Z</time>
      </trkpt>
      <trkpt lat="46.5697" lon="0.66775">
        <ele>89.8</ele>
        <time>2010-09-26T09:31:42Z</time>
      </trkpt>
      <trkpt lat="46.56967" lon="0.66778">
        <ele>90</ele>
        <time>2010-09-26T09:31:43Z</time>
      </trkpt>
      <trkpt lat="46.56962" lon="0.66781">
        <ele>90</ele>
        <time>2010-09-26T09:31:44Z</time>
      </trkpt>
      <trkpt lat="46.56894" lon="0.66809">
        <ele>91</ele>
        <time>2010-09-26T09:31:51Z</time>
      </trkpt>
      <trkpt lat="46.56875" lon="0.66813">
        <ele>91.5</ele>
        <time>2010-09-26T09:31:53Z</time>
      </trkpt>
      <trkpt lat="46.56865" lon="0.66813">
        <ele>92.1</ele>
        <time>2010-09-26T09:31:54Z</time>
      </trkpt>
      <trkpt lat="46.56856" lon="0.66812">
        <ele>92.4</ele>
        <time>2010-09-26T09:31:55Z</time>
      </trkpt>
      <trkpt lat="46.5683" lon="0.66807">
        <ele>93</ele>
        <time>2010-09-26T09:31:58Z</time>
      </trkpt>
      <trkpt lat="46.56822" lon="0.66808">
        <ele>94.1</ele>
        <time>2010-09-26T09:31:59Z</time>
      </trkpt>
      <trkpt lat="46.56815" lon="0.66809">
        <ele>94.5</ele>
        <time>2010-09-26T09:32:00Z</time>
      </trkpt>
      <trkpt lat="46.56809" lon="0.66813">
        <ele>95.5</ele>
        <time>2010-09-26T09:32:01Z</time>
      </trkpt>
      <trkpt lat="46.56764" lon="0.66833">
        <ele>98.6</ele>
        <time>2010-09-26T09:32:08Z</time>
      </trkpt>
      <trkpt lat="46.56757" lon="0.66835">
        <ele>99.1</ele>
        <time>2010-09-26T09:32:09Z</time>
      </trkpt>
      <trkpt lat="46.56746" lon="0.66839">
        <ele>99.8</ele>
        <time>2010-09-26T09:32:11Z</time>
      </trkpt>
      <trkpt lat="46.56742" lon="0.66843">
        <ele>100.5</ele>
        <time>2010-09-26T09:32:12Z</time>
      </trkpt>
      <trkpt lat="46.56739" lon="0.66847">
        <ele>101.8</ele>
        <time>2010-09-26T09:32:13Z</time>
      </trkpt>
      <trkpt lat="46.56688" lon="0.66901">
        <ele>105.4</ele>
        <time>2010-09-26T09:32:20Z</time>
      </trkpt>
      <trkpt lat="46.56675" lon="0.66909">
        <ele>105.5</ele>
        <time>2010-09-26T09:32:21Z</time>
      </trkpt>
      <trkpt lat="46.56647" lon="0.66928">
        <ele>105.5</ele>
        <time>2010-09-26T09:32:24Z</time>
      </trkpt>
      <trkpt lat="46.56639" lon="0.66937">
        <ele>105.8</ele>
        <time>2010-09-26T09:32:25Z</time>
      </trkpt>
      <trkpt lat="46.56633" lon="0.66947">
        <ele>104.8</ele>
        <time>2010-09-26T09:32:26Z</time>
      </trkpt>
      <trkpt lat="46.5663" lon="0.66957">
        <ele>104</ele>
        <time>2010-09-26T09:32:27Z</time>
      </trkpt>
      <trkpt lat="46.56628" lon="0.66967">
        <ele>104.1</ele>
        <time>2010-09-26T09:32:28Z</time>
      </trkpt>
      <trkpt lat="46.56626" lon="0.66992">
        <ele>104</ele>
        <time>2010-09-26T09:32:30Z</time>
      </trkpt>
      <trkpt lat="46.56629" lon="0.67019">
        <ele>104.8</ele>
        <time>2010-09-26T09:32:32Z</time>
      </trkpt>
      <trkpt lat="46.56632" lon="0.67033">
        <ele>104.4</ele>
        <time>2010-09-26T09:32:33Z</time>
      </trkpt>
      <trkpt lat="46.56635" lon="0.67048">
        <ele>103.9</ele>
        <time>2010-09-26T09:32:34Z</time>
      </trkpt>
      <trkpt lat="46.56655" lon="0.67165">
        <ele>98.5</ele>
        <time>2010-09-26T09:32:42Z</time>
      </trkpt>
      <trkpt lat="46.56658" lon="0.67177">
        <ele>98</ele>
        <time>2010-09-26T09:32:43Z</time>
      </trkpt>
      <trkpt lat="46.56668" lon="0.67225">
        <ele>100.5</ele>
        <time>2010-09-26T09:32:47Z</time>
      </trkpt>
      <trkpt lat="46.56689" lon="0.67334">
        <ele>101.5</ele>
        <time>2010-09-26T09:32:55Z</time>
      </trkpt>
      <trkpt lat="46.56694" lon="0.67346">
        <ele>101</ele>
        <time>2010-09-26T09:32:56Z</time>
      </trkpt>
      <trkpt lat="46.567" lon="0.67356">
        <ele>101.8</ele>
        <time>2010-09-26T09:32:57Z</time>
      </trkpt>
      <trkpt lat="46.56707" lon="0.67366">
        <ele>102.4</ele>
        <time>2010-09-26T09:32:58Z</time>
      </trkpt>
      <trkpt lat="46.56715" lon="0.67375">
        <ele>103</ele>
        <time>2010-09-26T09:32:59Z</time>
      </trkpt>
      <trkpt lat="46.56734" lon="0.67391">
        <ele>105.8</ele>
        <time>2010-09-26T09:33:01Z</time>
      </trkpt>
      <trkpt lat="46.56797" lon="0.67451">
        <ele>106.1</ele>
        <time>2010-09-26T09:33:08Z</time>
      </trkpt>
      <trkpt lat="46.56802" lon="0.67462">
        <ele>104.4</ele>
        <time>2010-09-26T09:33:09Z</time>
      </trkpt>
      <trkpt lat="46.56824" lon="0.67528">
        <ele>104.8</ele>
        <time>2010-09-26T09:33:15Z</time>
      </trkpt>
      <trkpt lat="46.56824" lon="0.67541">
        <ele>105</ele>
        <time>2010-09-26T09:33:16Z</time>
      </trkpt>
      <trkpt lat="46.5682" lon="0.67614">
        <ele>109.5</ele>
        <time>2010-09-26T09:33:21Z</time>
      </trkpt>
      <trkpt lat="46.56818" lon="0.67626">
        <ele>110.9</ele>
        <time>2010-09-26T09:33:22Z</time>
      </trkpt>
      <trkpt lat="46.5681" lon="0.67653">
        <ele>112</ele>
        <time>2010-09-26T09:33:24Z</time>
      </trkpt>
      <trkpt lat="46.56792" lon="0.67715">
        <ele>116.5</ele>
        <time>2010-09-26T09:33:29Z</time>
      </trkpt>
      <trkpt lat="46.56791" lon="0.67726">
        <ele>116.9</ele>
        <time>2010-09-26T09:33:30Z</time>
      </trkpt>
      <trkpt lat="46.56792" lon="0.67735">
        <ele>118</ele>
        <time>2010-09-26T09:33:31Z</time>
      </trkpt>
      <trkpt lat="46.56793" lon="0.67743">
        <ele>118.5</ele>
        <time>2010-09-26T09:33:32Z</time>
      </trkpt>
      <trkpt lat="46.56795" lon="0.67752">
        <ele>118.6</ele>
        <time>2010-09-26T09:33:33Z</time>
      </trkpt>
      <trkpt lat="46.56802" lon="0.67778">
        <ele>121.3</ele>
        <time>2010-09-26T09:33:36Z</time>
      </trkpt>
      <trkpt lat="46.56806" lon="0.67784">
        <ele>121.9</ele>
        <time>2010-09-26T09:33:37Z</time>
      </trkpt>
      <trkpt lat="46.56812" lon="0.67791">
        <ele>122.5</ele>
        <time>2010-09-26T09:33:38Z</time>
      </trkpt>
      <trkpt lat="46.56833" lon="0.67818">
        <ele>123.5</ele>
        <time>2010-09-26T09:33:41Z</time>
      </trkpt>
      <trkpt lat="46.56845" lon="0.67837">
        <ele>125.5</ele>
        <time>2010-09-26T09:33:43Z</time>
      </trkpt>
      <trkpt lat="46.56868" lon="0.67873">
        <ele>127</ele>
        <time>2010-09-26T09:33:47Z</time>
      </trkpt>
      <trkpt lat="46.56873" lon="0.67879">
        <ele>127.1</ele>
        <time>2010-09-26T09:33:48Z</time>
      </trkpt>
      <trkpt lat="46.5688" lon="0.67887">
        <ele>127.5</ele>
        <time>2010-09-26T09:33:50Z</time>
      </trkpt>
      <trkpt lat="46.56881" lon="0.6789">
        <ele>127</ele>
        <time>2010-09-26T09:33:56Z</time>
      </trkpt>
      <trkpt lat="46.5688" lon="0.6789">
        <ele>129</ele>
        <time>2010-09-26T09:33:57Z</time>
      </trkpt>
      <trkpt lat="46.5688" lon="0.6789">
        <ele>129</ele>
        <time>2010-09-26T09:33:58Z</time>
      </trkpt>
      <trkpt lat="46.5688" lon="0.6789">
        <ele>129</ele>
        <time>2010-09-26T09:33:59Z</time>
      </trkpt>
      <trkpt lat="46.5688" lon="0.6789">
        <ele>129</ele>
        <time>2010-09-26T09:34:00Z</time>
      </trkpt>
      <trkpt lat="46.5688" lon="0.6789">
        <ele>129</ele>
        <time>2010-09-26T09:34:01Z</time>
      </trkpt>
      <trkpt lat="46.5688" lon="0.6789">
        <ele>129</ele>
        <time>2010-09-26T09:34:02Z</time>
      </trkpt>
      <trkpt lat="46.5688" lon="0.6789">
        <ele>129</ele>
        <time>2010-09-26T09:34:03Z</time>
      </trkpt>
      <trkpt lat="46.5688" lon="0.6789">
        <ele>129</ele>
        <time>2010-09-26T09:34:04Z</time>
      </trkpt>
      <trkpt lat="46.5688" lon="0.6789">
        <ele>129</ele>
        <time>2010-09-26T09:34:05Z</time>
      </trkpt>
      <trkpt lat="46.5688" lon="0.6789">
        <ele>128.8</ele>
        <time>2010-09-26T09:34:06Z</time>
      </trkpt>
      <trkpt lat="46.56879" lon="0.67892">
        <ele>128.8</ele>
        <time>2010-09-26T09:34:07Z</time>
      </trkpt>
      <trkpt lat="46.56878" lon="0.67904">
        <ele>129.3</ele>
        <time>2010-09-26T09:34:09Z</time>
      </trkpt>
      <trkpt lat="46.56876" lon="0.67911">
        <ele>129.6</ele>
        <time>2010-09-26T09:34:10Z</time>
      </trkpt>
      <trkpt lat="46.56872" lon="0.67919">
        <ele>130</ele>
        <time>2010-09-26T09:34:11Z</time>
      </trkpt>
      <trkpt lat="46.56865" lon="0.67938">
        <ele>129.5</ele>
        <time>2010-09-26T09:34:13Z</time>
      </trkpt>
      <trkpt lat="46.56862" lon="0.6795">
        <ele>128.8</ele>
        <time>2010-09-26T09:34:14Z</time>
      </trkpt>
      <trkpt lat="46.56847" lon="0.68002">
        <ele>130.6</ele>
        <time>2010-09-26T09:34:18Z</time>
      </trkpt>
      <trkpt lat="46.56775" lon="0.68194">
        <ele>132.3</ele>
        <time>2010-09-26T09:35:03Z</time>
      </trkpt>
      <trkpt lat="46.56775" lon="0.68194">
        <ele>132</ele>
        <time>2010-09-26T09:35:04Z</time>
      </trkpt>
      <trkpt lat="46.56775" lon="0.68194">
        <ele>132</ele>
        <time>2010-09-26T09:35:05Z</time>
      </trkpt>
      <trkpt lat="46.56775" lon="0.68194">
        <ele>132</ele>
        <time>2010-09-26T09:35:06Z</time>
      </trkpt>
      <trkpt lat="46.56775" lon="0.68194">
        <ele>132</ele>
        <time>2010-09-26T09:35:07Z</time>
      </trkpt>
      <trkpt lat="46.56775" lon="0.68194">
        <ele>132</ele>
        <time>2010-09-26T09:35:08Z</time>
      </trkpt>
      <trkpt lat="46.56775" lon="0.68194">
        <ele>132</ele>
        <time>2010-09-26T09:35:09Z</time>
      </trkpt>
      <trkpt lat="46.56775" lon="0.68194">
        <ele>132</ele>
        <time>2010-09-26T09:35:10Z</time>
      </trkpt>
      <trkpt lat="46.56775" lon="0.68194">
        <ele>132</ele>
        <time>2010-09-26T09:35:11Z</time>
      </trkpt>
      <trkpt lat="46.56775" lon="0.68194">
        <ele>131.6</ele>
        <time>2010-09-26T09:35:12Z</time>
      </trkpt>
      <trkpt lat="46.56775" lon="0.68194">
        <ele>131.6</ele>
        <time>2010-09-26T09:35:13Z</time>
      </trkpt>
      <trkpt lat="46.56775" lon="0.68194">
        <ele>131.6</ele>
        <time>2010-09-26T09:35:14Z</time>
      </trkpt>
      <trkpt lat="46.56775" lon="0.68194">
        <ele>131.6</ele>
        <time>2010-09-26T09:35:15Z</time>
      </trkpt>
      <trkpt lat="46.56775" lon="0.68194">
        <ele>131.6</ele>
        <time>2010-09-26T09:35:16Z</time>
      </trkpt>
      <trkpt lat="46.56775" lon="0.68194">
        <ele>131.6</ele>
        <time>2010-09-26T09:35:17Z</time>
      </trkpt>
      <trkpt lat="46.56775" lon="0.68194">
        <ele>131.6</ele>
        <time>2010-09-26T09:35:18Z</time>
      </trkpt>
      <trkpt lat="46.56775" lon="0.68194">
        <ele>131.6</ele>
        <time>2010-09-26T09:35:19Z</time>
      </trkpt>
      <trkpt lat="46.56775" lon="0.68194">
        <ele>131.6</ele>
        <time>2010-09-26T09:35:20Z</time>
      </trkpt>
      <trkpt lat="46.56775" lon="0.68194">
        <ele>131.6</ele>
        <time>2010-09-26T09:35:21Z</time>
      </trkpt>
      <trkpt lat="46.56775" lon="0.68194">
        <ele>131.6</ele>
        <time>2010-09-26T09:35:22Z</time>
      </trkpt>
      <trkpt lat="46.56775" lon="0.68194">
        <ele>131.6</ele>
        <time>2010-09-26T09:35:23Z</time>
      </trkpt>
      <trkpt lat="46.56775" lon="0.68194">
        <ele>131.6</ele>
        <time>2010-09-26T09:35:24Z</time>
      </trkpt>
      <trkpt lat="46.56775" lon="0.68194">
        <ele>131.6</ele>
        <time>2010-09-26T09:35:25Z</time>
      </trkpt>
      <trkpt lat="46.56775" lon="0.68194">
        <ele>131.6</ele>
        <time>2010-09-26T09:35:26Z</time>
      </trkpt>
      <trkpt lat="46.56775" lon="0.68194">
        <ele>131.6</ele>
        <time>2010-09-26T09:35:27Z</time>
      </trkpt>
      <trkpt lat="46.56775" lon="0.68194">
        <ele>131.6</ele>
        <time>2010-09-26T09:35:28Z</time>
      </trkpt>
      <trkpt lat="46.56775" lon="0.68194">
        <ele>131.6</ele>
        <time>2010-09-26T09:35:29Z</time>
      </trkpt>
      <trkpt lat="46.56775" lon="0.68194">
        <ele>131.6</ele>
        <time>2010-09-26T09:35:30Z</time>
      </trkpt>
      <trkpt lat="46.56775" lon="0.68194">
        <ele>131.6</ele>
        <time>2010-09-26T09:35:31Z</time>
      </trkpt>
      <trkpt lat="46.56775" lon="0.68194">
        <ele>131.6</ele>
        <time>2010-09-26T09:35:32Z</time>
      </trkpt>
      <trkpt lat="46.56775" lon="0.68194">
        <ele>131.6</ele>
        <time>2010-09-26T09:35:33Z</time>
      </trkpt>
      <trkpt lat="46.56775" lon="0.68194">
        <ele>131.6</ele>
        <time>2010-09-26T09:35:34Z</time>
      </trkpt>
      <trkpt lat="46.56775" lon="0.68194">
        <ele>131.6</ele>
        <time>2010-09-26T09:35:35Z</time>
      </trkpt>
      <trkpt lat="46.56775" lon="0.68194">
        <ele>131.6</ele>
        <time>2010-09-26T09:35:36Z</time>
      </trkpt>
      <trkpt lat="46.56775" lon="0.68194">
        <ele>131.6</ele>
        <time>2010-09-26T09:35:37Z</time>
      </trkpt>
      <trkpt lat="46.56775" lon="0.68194">
        <ele>131.6</ele>
        <time>2010-09-26T09:35:38Z</time>
      </trkpt>
      <trkpt lat="46.56775" lon="0.68194">
        <ele>131.6</ele>
        <time>2010-09-26T09:35:39Z</time>
      </trkpt>
      <trkpt lat="46.56775" lon="0.68194">
        <ele>131.6</ele>
        <time>2010-09-26T09:35:40Z</time>
      </trkpt>
      <trkpt lat="46.56775" lon="0.68194">
        <ele>131.6</ele>
        <time>2010-09-26T09:35:41Z</time>
      </trkpt>
      <trkpt lat="46.56775" lon="0.68194">
        <ele>131.6</ele>
        <time>2010-09-26T09:35:42Z</time>
      </trkpt>
      <trkpt lat="46.56775" lon="0.68194">
        <ele>131.6</ele>
        <time>2010-09-26T09:35:43Z</time>
      </trkpt>
      <trkpt lat="46.56775" lon="0.68194">
        <ele>131.6</ele>
        <time>2010-09-26T09:35:44Z</time>
      </trkpt>
      <trkpt lat="46.56775" lon="0.68194">
        <ele>131.6</ele>
        <time>2010-09-26T09:35:45Z</time>
      </trkpt>
      <trkpt lat="46.56775" lon="0.68194">
        <ele>131.6</ele>
        <time>2010-09-26T09:35:46Z</time>
      </trkpt>
      <trkpt lat="46.56775" lon="0.68194">
        <ele>131.6</ele>
        <time>2010-09-26T09:35:47Z</time>
      </trkpt>
      <trkpt lat="46.56775" lon="0.68194">
        <ele>131.6</ele>
        <time>2010-09-26T09:35:48Z</time>
      </trkpt>
      <trkpt lat="46.56775" lon="0.68194">
        <ele>131.6</ele>
        <time>2010-09-26T09:35:49Z</time>
      </trkpt>
      <trkpt lat="46.56775" lon="0.68194">
        <ele>131.6</ele>
        <time>2010-09-26T09:35:50Z</time>
      </trkpt>
      <trkpt lat="46.56775" lon="0.68194">
        <ele>131.6</ele>
        <time>2010-09-26T09:35:51Z</time>
      </trkpt>
      <trkpt lat="46.56775" lon="0.68194">
        <ele>131.6</ele>
        <time>2010-09-26T09:35:52Z</time>
      </trkpt>
      <trkpt lat="46.56775" lon="0.68194">
        <ele>131.6</ele>
        <time>2010-09-26T09:35:53Z</time>
      </trkpt>
      <trkpt lat="46.56775" lon="0.68194">
        <ele>131.6</ele>
        <time>2010-09-26T09:35:54Z</time>
      </trkpt>
      <trkpt lat="46.56775" lon="0.68194">
        <ele>131.6</ele>
        <time>2010-09-26T09:35:55Z</time>
      </trkpt>
      <trkpt lat="46.56775" lon="0.68194">
        <ele>131.6</ele>
        <time>2010-09-26T09:35:56Z</time>
      </trkpt>
      <trkpt lat="46.56775" lon="0.68194">
        <ele>131.6</ele>
        <time>2010-09-26T09:35:57Z</time>
      </trkpt>
      <trkpt lat="46.56775" lon="0.68194">
        <ele>131.6</ele>
        <time>2010-09-26T09:35:58Z</time>
      </trkpt>
      <trkpt lat="46.56775" lon="0.68194">
        <ele>131.6</ele>
        <time>2010-09-26T09:35:59Z</time>
      </trkpt>
      <trkpt lat="46.56775" lon="0.68194">
        <ele>131.6</ele>
        <time>2010-09-26T09:36:00Z</time>
      </trkpt>
      <trkpt lat="46.56775" lon="0.68194">
        <ele>131.6</ele>
        <time>2010-09-26T09:36:01Z</time>
      </trkpt>
      <trkpt lat="46.56775" lon="0.68194">
        <ele>131.6</ele>
        <time>2010-09-26T09:36:02Z</time>
      </trkpt>
      <trkpt lat="46.56775" lon="0.68194">
        <ele>131.6</ele>
        <time>2010-09-26T09:36:03Z</time>
      </trkpt>
      <trkpt lat="46.56775" lon="0.68194">
        <ele>131.6</ele>
        <time>2010-09-26T09:36:04Z</time>
      </trkpt>
      <trkpt lat="46.56775" lon="0.68194">
        <ele>131.6</ele>
        <time>2010-09-26T09:36:05Z</time>
      </trkpt>
      <trkpt lat="46.56775" lon="0.68194">
        <ele>131.6</ele>
        <time>2010-09-26T09:36:06Z</time>
      </trkpt>
      <trkpt lat="46.56775" lon="0.68194">
        <ele>131.6</ele>
        <time>2010-09-26T09:36:07Z</time>
      </trkpt>
      <trkpt lat="46.56775" lon="0.68194">
        <ele>131.6</ele>
        <time>2010-09-26T09:36:08Z</time>
      </trkpt>
      <trkpt lat="46.56775" lon="0.68194">
        <ele>131.6</ele>
        <time>2010-09-26T09:36:09Z</time>
      </trkpt>
      <trkpt lat="46.56775" lon="0.68194">
        <ele>131.6</ele>
        <time>2010-09-26T09:36:10Z</time>
      </trkpt>
      <trkpt lat="46.56775" lon="0.68194">
        <ele>131.6</ele>
        <time>2010-09-26T09:36:11Z</time>
      </trkpt>
      <trkpt lat="46.56775" lon="0.68194">
        <ele>131.6</ele>
        <time>2010-09-26T09:36:12Z</time>
      </trkpt>
      <trkpt lat="46.56775" lon="0.68194">
        <ele>131.6</ele>
        <time>2010-09-26T09:36:13Z</time>
      </trkpt>
      <trkpt lat="46.56775" lon="0.68194">
        <ele>131.6</ele>
        <time>2010-09-26T09:36:14Z</time>
      </trkpt>
      <trkpt lat="46.56775" lon="0.68194">
        <ele>131.6</ele>
        <time>2010-09-26T09:36:15Z</time>
      </trkpt>
      <trkpt lat="46.56775" lon="0.68194">
        <ele>131.6</ele>
        <time>2010-09-26T09:36:16Z</time>
      </trkpt>
      <trkpt lat="46.56775" lon="0.68194">
        <ele>131.6</ele>
        <time>2010-09-26T09:36:17Z</time>
      </trkpt>
      <trkpt lat="46.56775" lon="0.68194">
        <ele>131.6</ele>
        <time>2010-09-26T09:36:18Z</time>
      </trkpt>
      <trkpt lat="46.56775" lon="0.68194">
        <ele>131.6</ele>
        <time>2010-09-26T09:36:19Z</time>
      </trkpt>
      <trkpt lat="46.56775" lon="0.68194">
        <ele>131.6</ele>
        <time>2010-09-26T09:36:20Z</time>
      </trkpt>
      <trkpt lat="46.56775" lon="0.68194">
        <ele>131.6</ele>
        <time>2010-09-26T09:36:21Z</time>
      </trkpt>
      <trkpt lat="46.56775" lon="0.68194">
        <ele>131.6</ele>
        <time>2010-09-26T09:36:22Z</time>
      </trkpt>
      <trkpt lat="46.56775" lon="0.68194">
        <ele>131.6</ele>
        <time>2010-09-26T09:36:23Z</time>
      </trkpt>
      <trkpt lat="46.56775" lon="0.68194">
        <ele>131.6</ele>
        <time>2010-09-26T09:36:24Z</time>
      </trkpt>
      <trkpt lat="46.56775" lon="0.68194">
        <ele>131.6</ele>
        <time>2010-09-26T09:36:25Z</time>
      </trkpt>
      <trkpt lat="46.56775" lon="0.68194">
        <ele>131.6</ele>
        <time>2010-09-26T09:36:26Z</time>
      </trkpt>
      <trkpt lat="46.56775" lon="0.68194">
        <ele>131.6</ele>
        <time>2010-09-26T09:36:27Z</time>
      </trkpt>
      <trkpt lat="46.56775" lon="0.68194">
        <ele>131.6</ele>
        <time>2010-09-26T09:36:28Z</time>
      </trkpt>
      <trkpt lat="46.56775" lon="0.68194">
        <ele>131.6</ele>
        <time>2010-09-26T09:36:29Z</time>
      </trkpt>
      <trkpt lat="46.56775" lon="0.68194">
        <ele>131.6</ele>
        <time>2010-09-26T09:36:30Z</time>
      </trkpt>
      <trkpt lat="46.56775" lon="0.68194">
        <ele>131.6</ele>
        <time>2010-09-26T09:36:31Z</time>
      </trkpt>
      <trkpt lat="46.56775" lon="0.68194">
        <ele>131.6</ele>
        <time>2010-09-26T09:36:32Z</time>
      </trkpt>
      <trkpt lat="46.56775" lon="0.68194">
        <ele>131.6</ele>
        <time>2010-09-26T09:36:33Z</time>
      </trkpt>
      <trkpt lat="46.56775" lon="0.68194">
        <ele>131.6</ele>
        <time>2010-09-26T09:36:34Z</time>
      </trkpt>
      <trkpt lat="46.56775" lon="0.68194">
        <ele>131.6</ele>
        <time>2010-09-26T09:36:35Z</time>
      </trkpt>
      <trkpt lat="46.56775" lon="0.68194">
        <ele>131.6</ele>
        <time>2010-09-26T09:36:36Z</time>
      </trkpt>
      <trkpt lat="46.56775" lon="0.68194">
        <ele>131.6</ele>
        <time>2010-09-26T09:36:37Z</time>
      </trkpt>
      <trkpt lat="46.56775" lon="0.68194">
        <ele>131.6</ele>
        <time>2010-09-26T09:36:38Z</time>
      </trkpt>
      <trkpt lat="46.56775" lon="0.68194">
        <ele>131.6</ele>
        <time>2010-09-26T09:36:39Z</time>
      </trkpt>
      <trkpt lat="46.56775" lon="0.68194">
        <ele>131.6</ele>
        <time>2010-09-26T09:36:40Z</time>
      </trkpt>
      <trkpt lat="46.56775" lon="0.68194">
        <ele>131.6</ele>
        <time>2010-09-26T09:36:41Z</time>
      </trkpt>
      <trkpt lat="46.56775" lon="0.68194">
        <ele>131.6</ele>
        <time>2010-09-26T09:36:42Z</time>
      </trkpt>
      <trkpt lat="46.56775" lon="0.68194">
        <ele>131.6</ele>
        <time>2010-09-26T09:36:43Z</time>
      </trkpt>
      <trkpt lat="46.56775" lon="0.68194">
        <ele>131.6</ele>
        <time>2010-09-26T09:36:44Z</time>
      </trkpt>
      <trkpt lat="46.56775" lon="0.68194">
        <ele>131.6</ele>
        <time>2010-09-26T09:36:45Z</time>
      </trkpt>
      <trkpt lat="46.56775" lon="0.68194">
        <ele>131.6</ele>
        <time>2010-09-26T09:36:46Z</time>
      </trkpt>
      <trkpt lat="46.56775" lon="0.68194">
        <ele>131.6</ele>
        <time>2010-09-26T09:36:47Z</time>
      </trkpt>
      <trkpt lat="46.56775" lon="0.68194">
        <ele>131.6</ele>
        <time>2010-09-26T09:36:48Z</time>
      </trkpt>
      <trkpt lat="46.56775" lon="0.68194">
        <ele>131.6</ele>
        <time>2010-09-26T09:36:49Z</time>
      </trkpt>
      <trkpt lat="46.56775" lon="0.68194">
        <ele>131.6</ele>
        <time>2010-09-26T09:36:50Z</time>
      </trkpt>
      <trkpt lat="46.56775" lon="0.68194">
        <ele>131.6</ele>
        <time>2010-09-26T09:36:51Z</time>
      </trkpt>
      <trkpt lat="46.56775" lon="0.68194">
        <ele>131.6</ele>
        <time>2010-09-26T09:36:52Z</time>
      </trkpt>
      <trkpt lat="46.56775" lon="0.68194">
        <ele>131.6</ele>
        <time>2010-09-26T09:36:53Z</time>
      </trkpt>
      <trkpt lat="46.56775" lon="0.68194">
        <ele>131.6</ele>
        <time>2010-09-26T09:36:54Z</time>
      </trkpt>
      <trkpt lat="46.56775" lon="0.68194">
        <ele>131.6</ele>
        <time>2010-09-26T09:36:55Z</time>
      </trkpt>
      <trkpt lat="46.56775" lon="0.68194">
        <ele>131.6</ele>
        <time>2010-09-26T09:36:56Z</time>
      </trkpt>
      <trkpt lat="46.56775" lon="0.68194">
        <ele>131.6</ele>
        <time>2010-09-26T09:36:57Z</time>
      </trkpt>
      <trkpt lat="46.56775" lon="0.68194">
        <ele>131.6</ele>
        <time>2010-09-26T09:36:58Z</time>
      </trkpt>
      <trkpt lat="46.56775" lon="0.68194">
        <ele>131.6</ele>
        <time>2010-09-26T09:36:59Z</time>
      </trkpt>
      <trkpt lat="46.56775" lon="0.68194">
        <ele>131.6</ele>
        <time>2010-09-26T09:37:00Z</time>
      </trkpt>
      <trkpt lat="46.56775" lon="0.68194">
        <ele>131.6</ele>
        <time>2010-09-26T09:37:01Z</time>
      </trkpt>
      <trkpt lat="46.56775" lon="0.68194">
        <ele>131.6</ele>
        <time>2010-09-26T09:37:02Z</time>
      </trkpt>
      <trkpt lat="46.56775" lon="0.68194">
        <ele>131.6</ele>
        <time>2010-09-26T09:37:03Z</time>
      </trkpt>
      <trkpt lat="46.56775" lon="0.68194">
        <ele>131.6</ele>
        <time>2010-09-26T09:37:04Z</time>
      </trkpt>
      <trkpt lat="46.56775" lon="0.68194">
        <ele>131.6</ele>
        <time>2010-09-26T09:37:05Z</time>
      </trkpt>
      <trkpt lat="46.56775" lon="0.68194">
        <ele>131.6</ele>
        <time>2010-09-26T09:37:06Z</time>
      </trkpt>
      <trkpt lat="46.56775" lon="0.68194">
        <ele>131.6</ele>
        <time>2010-09-26T09:37:07Z</time>
      </trkpt>
      <trkpt lat="46.56775" lon="0.68194">
        <ele>131.6</ele>
        <time>2010-09-26T09:37:08Z</time>
      </trkpt>
      <trkpt lat="46.56775" lon="0.68194">
        <ele>131.6</ele>
        <time>2010-09-26T09:37:09Z</time>
      </trkpt>
      <trkpt lat="46.56775" lon="0.68194">
        <ele>131.6</ele>
        <time>2010-09-26T09:37:10Z</time>
      </trkpt>
      <trkpt lat="46.56775" lon="0.68194">
        <ele>131.6</ele>
        <time>2010-09-26T09:37:11Z</time>
      </trkpt>
      <trkpt lat="46.56775" lon="0.68194">
        <ele>131.6</ele>
        <time>2010-09-26T09:37:12Z</time>
      </trkpt>
      <trkpt lat="46.56775" lon="0.68194">
        <ele>131.6</ele>
        <time>2010-09-26T09:37:13Z</time>
      </trkpt>
      <trkpt lat="46.56775" lon="0.68194">
        <ele>131.6</ele>
        <time>2010-09-26T09:37:14Z</time>
      </trkpt>
      <trkpt lat="46.56775" lon="0.68194">
        <ele>131.6</ele>
        <time>2010-09-26T09:37:15Z</time>
      </trkpt>
      <trkpt lat="46.56775" lon="0.68194">
        <ele>131.6</ele>
        <time>2010-09-26T09:37:16Z</time>
      </trkpt>
      <trkpt lat="46.56775" lon="0.68194">
        <ele>131.6</ele>
        <time>2010-09-26T09:37:17Z</time>
      </trkpt>
      <trkpt lat="46.56775" lon="0.68194">
        <ele>131.6</ele>
        <time>2010-09-26T09:37:18Z</time>
      </trkpt>
      <trkpt lat="46.56775" lon="0.68194">
        <ele>131.6</ele>
        <time>2010-09-26T09:37:19Z</time>
      </trkpt>
      <trkpt lat="46.56775" lon="0.68194">
        <ele>131.6</ele>
        <time>2010-09-26T09:37:20Z</time>
      </trkpt>
      <trkpt lat="46.56775" lon="0.68194">
        <ele>131.6</ele>
        <time>2010-09-26T09:37:21Z</time>
      </trkpt>
      <trkpt lat="46.56775" lon="0.68194">
        <ele>131.6</ele>
        <time>2010-09-26T09:37:22Z</time>
      </trkpt>
      <trkpt lat="46.56775" lon="0.68194">
        <ele>131.6</ele>
        <time>2010-09-26T09:37:23Z</time>
      </trkpt>
      <trkpt lat="46.56775" lon="0.68194">
        <ele>131.6</ele>
        <time>2010-09-26T09:37:24Z</time>
      </trkpt>
      <trkpt lat="46.56775" lon="0.68194">
        <ele>131.6</ele>
        <time>2010-09-26T09:37:25Z</time>
      </trkpt>
      <trkpt lat="46.56775" lon="0.68194">
        <ele>131.6</ele>
        <time>2010-09-26T09:37:26Z</time>
      </trkpt>
      <trkpt lat="46.56775" lon="0.68194">
        <ele>131.6</ele>
        <time>2010-09-26T09:37:27Z</time>
      </trkpt>
      <trkpt lat="46.56775" lon="0.68194">
        <ele>131.6</ele>
        <time>2010-09-26T09:37:28Z</time>
      </trkpt>
      <trkpt lat="46.56775" lon="0.68194">
        <ele>131.6</ele>
        <time>2010-09-26T09:37:29Z</time>
      </trkpt>
      <trkpt lat="46.56775" lon="0.68194">
        <ele>131.6</ele>
        <time>2010-09-26T09:37:30Z</time>
      </trkpt>
      <trkpt lat="46.56775" lon="0.68194">
        <ele>131.6</ele>
        <time>2010-09-26T09:37:31Z</time>
      </trkpt>
      <trkpt lat="46.56775" lon="0.68194">
        <ele>131.6</ele>
        <time>2010-09-26T09:37:32Z</time>
      </trkpt>
      <trkpt lat="46.56775" lon="0.68194">
        <ele>131.6</ele>
        <time>2010-09-26T09:37:33Z</time>
      </trkpt>
      <trkpt lat="46.56775" lon="0.68194">
        <ele>131.6</ele>
        <time>2010-09-26T09:37:34Z</time>
      </trkpt>
      <trkpt lat="46.56775" lon="0.68194">
        <ele>131.6</ele>
        <time>2010-09-26T09:37:35Z</time>
      </trkpt>
      <trkpt lat="46.56775" lon="0.68194">
        <ele>131.6</ele>
        <time>2010-09-26T09:37:36Z</time>
      </trkpt>
      <trkpt lat="46.56775" lon="0.68194">
        <ele>131.6</ele>
        <time>2010-09-26T09:37:37Z</time>
      </trkpt>
      <trkpt lat="46.56775" lon="0.68194">
        <ele>131.6</ele>
        <time>2010-09-26T09:37:38Z</time>
      </trkpt>
      <trkpt lat="46.56775" lon="0.68194">
        <ele>131.6</ele>
        <time>2010-09-26T09:37:39Z</time>
      </trkpt>
      <trkpt lat="46.56775" lon="0.68194">
        <ele>131.6</ele>
        <time>2010-09-26T09:37:40Z</time>
      </trkpt>
      <trkpt lat="46.56775" lon="0.68194">
        <ele>131.6</ele>
        <time>2010-09-26T09:37:41Z</time>
      </trkpt>
      <trkpt lat="46.56775" lon="0.68193">
        <ele>131.8</ele>
        <time>2010-09-26T09:37:42Z</time>
      </trkpt>
      <trkpt lat="46.56775" lon="0.68193">
        <ele>131.8</ele>
        <time>2010-09-26T09:37:43Z</time>
      </trkpt>
      <trkpt lat="46.56775" lon="0.68193">
        <ele>131.8</ele>
        <time>2010-09-26T09:37:44Z</time>
      </trkpt>
      <trkpt lat="46.56775" lon="0.68193">
        <ele>131.8</ele>
        <time>2010-09-26T09:37:45Z</time>
      </trkpt>
      <trkpt lat="46.56775" lon="0.68194">
        <ele>131.5</ele>
        <time>2010-09-26T09:37:46Z</time>
      </trkpt>
      <trkpt lat="46.56775" lon="0.68194">
        <ele>131.5</ele>
        <time>2010-09-26T09:37:47Z</time>
      </trkpt>
      <trkpt lat="46.56775" lon="0.68194">
        <ele>131.5</ele>
        <time>2010-09-26T09:37:48Z</time>
      </trkpt>
      <trkpt lat="46.56775" lon="0.68194">
        <ele>131.5</ele>
        <time>2010-09-26T09:37:49Z</time>
      </trkpt>
      <trkpt lat="46.56775" lon="0.68194">
        <ele>131.5</ele>
        <time>2010-09-26T09:37:50Z</time>
      </trkpt>
      <trkpt lat="46.56775" lon="0.68194">
        <ele>131.5</ele>
        <time>2010-09-26T09:37:51Z</time>
      </trkpt>
      <trkpt lat="46.56775" lon="0.68194">
        <ele>131.5</ele>
        <time>2010-09-26T09:37:52Z</time>
      </trkpt>
      <trkpt lat="46.56775" lon="0.68194">
        <ele>131.5</ele>
        <time>2010-09-26T09:37:53Z</time>
      </trkpt>
      <trkpt lat="46.56775" lon="0.68194">
        <ele>131.5</ele>
        <time>2010-09-26T09:37:54Z</time>
      </trkpt>
      <trkpt lat="46.56775" lon="0.68194">
        <ele>131.5</ele>
        <time>2010-09-26T09:37:55Z</time>
      </trkpt>
      <trkpt lat="46.56775" lon="0.68194">
        <ele>131.5</ele>
        <time>2010-09-26T09:37:56Z</time>
      </trkpt>
      <trkpt lat="46.56775" lon="0.68194">
        <ele>131.5</ele>
        <time>2010-09-26T09:37:57Z</time>
      </trkpt>
      <trkpt lat="46.56775" lon="0.68194">
        <ele>131.5</ele>
        <time>2010-09-26T09:37:58Z</time>
      </trkpt>
      <trkpt lat="46.56775" lon="0.68194">
        <ele>131.5</ele>
        <time>2010-09-26T09:37:59Z</time>
      </trkpt>
      <trkpt lat="46.56775" lon="0.68194">
        <ele>131.5</ele>
        <time>2010-09-26T09:38:00Z</time>
      </trkpt>
      <trkpt lat="46.56775" lon="0.68194">
        <ele>131.5</ele>
        <time>2010-09-26T09:38:01Z</time>
      </trkpt>
      <trkpt lat="46.56775" lon="0.68194">
        <ele>131.5</ele>
        <time>2010-09-26T09:38:02Z</time>
      </trkpt>
      <trkpt lat="46.56775" lon="0.68194">
        <ele>131.5</ele>
        <time>2010-09-26T09:38:03Z</time>
      </trkpt>
      <trkpt lat="46.56775" lon="0.68194">
        <ele>131.5</ele>
        <time>2010-09-26T09:38:04Z</time>
      </trkpt>
      <trkpt lat="46.56775" lon="0.68194">
        <ele>131.5</ele>
        <time>2010-09-26T09:38:05Z</time>
      </trkpt>
      <trkpt lat="46.56775" lon="0.68194">
        <ele>131.5</ele>
        <time>2010-09-26T09:38:06Z</time>
      </trkpt>
      <trkpt lat="46.56775" lon="0.68194">
        <ele>131.5</ele>
        <time>2010-09-26T09:38:07Z</time>
      </trkpt>
      <trkpt lat="46.56775" lon="0.68194">
        <ele>131.5</ele>
        <time>2010-09-26T09:38:08Z</time>
      </trkpt>
      <trkpt lat="46.56775" lon="0.68194">
        <ele>131.5</ele>
        <time>2010-09-26T09:38:09Z</time>
      </trkpt>
      <trkpt lat="46.56775" lon="0.68194">
        <ele>131.5</ele>
        <time>2010-09-26T09:38:10Z</time>
      </trkpt>
      <trkpt lat="46.56775" lon="0.68194">
        <ele>131.5</ele>
        <time>2010-09-26T09:38:11Z</time>
      </trkpt>
      <trkpt lat="46.56775" lon="0.68194">
        <ele>131.5</ele>
        <time>2010-09-26T09:38:12Z</time>
      </trkpt>
      <trkpt lat="46.56775" lon="0.68194">
        <ele>131.5</ele>
        <time>2010-09-26T09:38:13Z</time>
      </trkpt>
      <trkpt lat="46.56775" lon="0.68194">
        <ele>131.5</ele>
        <time>2010-09-26T09:38:14Z</time>
      </trkpt>
      <trkpt lat="46.56775" lon="0.68194">
        <ele>131.5</ele>
        <time>2010-09-26T09:38:15Z</time>
      </trkpt>
      <trkpt lat="46.56775" lon="0.68194">
        <ele>131.5</ele>
        <time>2010-09-26T09:38:16Z</time>
      </trkpt>
      <trkpt lat="46.56774" lon="0.68194">
        <ele>131.3</ele>
        <time>2010-09-26T09:38:17Z</time>
      </trkpt>
      <trkpt lat="46.56772" lon="0.68193">
        <ele>131.1</ele>
        <time>2010-09-26T09:38:18Z</time>
      </trkpt>
      <trkpt lat="46.56768" lon="0.6819">
        <ele>130.8</ele>
        <time>2010-09-26T09:38:19Z</time>
      </trkpt>
      <trkpt lat="46.56763" lon="0.68185">
        <ele>131</ele>
        <time>2010-09-26T09:38:20Z</time>
      </trkpt>
      <trkpt lat="46.56707" lon="0.68116">
        <ele>129.1</ele>
        <time>2010-09-26T09:38:31Z</time>
      </trkpt>
      <trkpt lat="46.56695" lon="0.681">
        <ele>128.6</ele>
        <time>2010-09-26T09:38:35Z</time>
      </trkpt>
      <trkpt lat="46.56693" lon="0.68098">
        <ele>128.6</ele>
        <time>2010-09-26T09:38:36Z</time>
      </trkpt>
      <trkpt lat="46.5669" lon="0.68098">
        <ele>128.5</ele>
        <time>2010-09-26T09:38:37Z</time>
      </trkpt>
      <trkpt lat="46.56687" lon="0.68096">
        <ele>128.3</ele>
        <time>2010-09-26T09:38:38Z</time>
      </trkpt>
      <trkpt lat="46.56685" lon="0.68094">
        <ele>128.1</ele>
        <time>2010-09-26T09:38:39Z</time>
      </trkpt>
      <trkpt lat="46.56677" lon="0.68087">
        <ele>127.9</ele>
        <time>2010-09-26T09:38:41Z</time>
      </trkpt>
      <trkpt lat="46.56672" lon="0.68082">
        <ele>128</ele>
        <time>2010-09-26T09:38:42Z</time>
      </trkpt>
      <trkpt lat="46.56666" lon="0.68077">
        <ele>128</ele>
        <time>2010-09-26T09:38:43Z</time>
      </trkpt>
      <trkpt lat="46.56619" lon="0.68036">
        <ele>127.6</ele>
        <time>2010-09-26T09:38:50Z</time>
      </trkpt>
      <trkpt lat="46.56615" lon="0.68031">
        <ele>127.4</ele>
        <time>2010-09-26T09:38:51Z</time>
      </trkpt>
      <trkpt lat="46.56602" lon="0.68017">
        <ele>127.1</ele>
        <time>2010-09-26T09:38:54Z</time>
      </trkpt>
      <trkpt lat="46.56597" lon="0.68015">
        <ele>127.5</ele>
        <time>2010-09-26T09:38:55Z</time>
      </trkpt>
      <trkpt lat="46.56592" lon="0.68011">
        <ele>127.4</ele>
        <time>2010-09-26T09:38:56Z</time>
      </trkpt>
      <trkpt lat="46.56577" lon="0.67997">
        <ele>127.6</ele>
        <time>2010-09-26T09:38:59Z</time>
      </trkpt>
      <trkpt lat="46.56557" lon="0.67974">
        <ele>127.1</ele>
        <time>2010-09-26T09:39:03Z</time>
      </trkpt>
      <trkpt lat="46.56554" lon="0.67964">
        <ele>127</ele>
        <time>2010-09-26T09:39:04Z</time>
      </trkpt>
      <trkpt lat="46.56548" lon="0.67945">
        <ele>126.6</ele>
        <time>2010-09-26T09:39:06Z</time>
      </trkpt>
      <trkpt lat="46.56544" lon="0.67937">
        <ele>126.6</ele>
        <time>2010-09-26T09:39:07Z</time>
      </trkpt>
      <trkpt lat="46.56539" lon="0.67929">
        <ele>126.4</ele>
        <time>2010-09-26T09:39:08Z</time>
      </trkpt>
      <trkpt lat="46.56502" lon="0.67864">
        <ele>123.4</ele>
        <time>2010-09-26T09:39:15Z</time>
      </trkpt>
      <trkpt lat="46.56464" lon="0.67822">
        <ele>121.3</ele>
        <time>2010-09-26T09:39:20Z</time>
      </trkpt>
      <trkpt lat="46.56458" lon="0.67813">
        <ele>120.5</ele>
        <time>2010-09-26T09:39:21Z</time>
      </trkpt>
      <trkpt lat="46.56446" lon="0.67798">
        <ele>119.9</ele>
        <time>2010-09-26T09:39:23Z</time>
      </trkpt>
      <trkpt lat="46.56439" lon="0.67791">
        <ele>118.8</ele>
        <time>2010-09-26T09:39:24Z</time>
      </trkpt>
      <trkpt lat="46.56426" lon="0.67776">
        <ele>116.9</ele>
        <time>2010-09-26T09:39:26Z</time>
      </trkpt>
      <trkpt lat="46.56315" lon="0.67622">
        <ele>108.5</ele>
        <time>2010-09-26T09:39:43Z</time>
      </trkpt>
      <trkpt lat="46.56312" lon="0.67612">
        <ele>108.4</ele>
        <time>2010-09-26T09:39:44Z</time>
      </trkpt>
      <trkpt lat="46.56311" lon="0.67602">
        <ele>107.8</ele>
        <time>2010-09-26T09:39:45Z</time>
      </trkpt>
      <trkpt lat="46.5631" lon="0.67591">
        <ele>107.4</ele>
        <time>2010-09-26T09:39:46Z</time>
      </trkpt>
      <trkpt lat="46.5631" lon="0.6758">
        <ele>107.3</ele>
        <time>2010-09-26T09:39:47Z</time>
      </trkpt>
      <trkpt lat="46.56312" lon="0.67569">
        <ele>106.3</ele>
        <time>2010-09-26T09:39:48Z</time>
      </trkpt>
      <trkpt lat="46.56318" lon="0.67532">
        <ele>103</ele>
        <time>2010-09-26T09:39:52Z</time>
      </trkpt>
      <trkpt lat="46.56318" lon="0.67522">
        <ele>102.5</ele>
        <time>2010-09-26T09:39:53Z</time>
      </trkpt>
      <trkpt lat="46.56318" lon="0.67512">
        <ele>101.8</ele>
        <time>2010-09-26T09:39:54Z</time>
      </trkpt>
      <trkpt lat="46.56321" lon="0.67486">
        <ele>102.5</ele>
        <time>2010-09-26T09:39:56Z</time>
      </trkpt>
      <trkpt lat="46.56322" lon="0.67459">
        <ele>103.9</ele>
        <time>2010-09-26T09:39:58Z</time>
      </trkpt>
      <trkpt lat="46.5632" lon="0.67434">
        <ele>105</ele>
        <time>2010-09-26T09:40:00Z</time>
      </trkpt>
      <trkpt lat="46.56317" lon="0.67421">
        <ele>105</ele>
        <time>2010-09-26T09:40:01Z</time>
      </trkpt>
      <trkpt lat="46.56313" lon="0.67409">
        <ele>105.5</ele>
        <time>2010-09-26T09:40:02Z</time>
      </trkpt>
      <trkpt lat="46.56287" lon="0.67352">
        <ele>108</ele>
        <time>2010-09-26T09:40:07Z</time>
      </trkpt>
      <trkpt lat="46.56279" lon="0.67342">
        <ele>109.6</ele>
        <time>2010-09-26T09:40:08Z</time>
      </trkpt>
      <trkpt lat="46.56273" lon="0.67333">
        <ele>110.4</ele>
        <time>2010-09-26T09:40:09Z</time>
      </trkpt>
      <trkpt lat="46.56255" lon="0.67315">
        <ele>112.6</ele>
        <time>2010-09-26T09:40:12Z</time>
      </trkpt>
      <trkpt lat="46.56251" lon="0.67313">
        <ele>113.5</ele>
        <time>2010-09-26T09:40:13Z</time>
      </trkpt>
      <trkpt lat="46.56247" lon="0.67312">
        <ele>113.8</ele>
        <time>2010-09-26T09:40:14Z</time>
      </trkpt>
      <trkpt lat="46.56244" lon="0.67313">
        <ele>113.6</ele>
        <time>2010-09-26T09:40:44Z</time>
      </trkpt>
      <trkpt lat="46.56245" lon="0.67313">
        <ele>113.6</ele>
        <time>2010-09-26T09:40:45Z</time>
      </trkpt>
      <trkpt lat="46.56245" lon="0.67316">
        <ele>114.3</ele>
        <time>2010-09-26T09:40:46Z</time>
      </trkpt>
      <trkpt lat="46.56245" lon="0.67319">
        <ele>114.6</ele>
        <time>2010-09-26T09:40:47Z</time>
      </trkpt>
      <trkpt lat="46.56237" lon="0.67342">
        <ele>114.9</ele>
        <time>2010-09-26T09:40:51Z</time>
      </trkpt>
      <trkpt lat="46.56229" lon="0.6735">
        <ele>114</ele>
        <time>2010-09-26T09:40:52Z</time>
      </trkpt>
      <trkpt lat="46.56214" lon="0.67361">
        <ele>115</ele>
        <time>2010-09-26T09:40:54Z</time>
      </trkpt>
      <trkpt lat="46.56197" lon="0.6737">
        <ele>116</ele>
        <time>2010-09-26T09:40:56Z</time>
      </trkpt>
      <trkpt lat="46.56189" lon="0.67372">
        <ele>117.6</ele>
        <time>2010-09-26T09:40:57Z</time>
      </trkpt>
      <trkpt lat="46.56184" lon="0.67372">
        <ele>118.6</ele>
        <time>2010-09-26T09:40:58Z</time>
      </trkpt>
      <trkpt lat="46.5618" lon="0.67371">
        <ele>118.8</ele>
        <time>2010-09-26T09:40:59Z</time>
      </trkpt>
      <trkpt lat="46.56178" lon="0.6737">
        <ele>118.6</ele>
        <time>2010-09-26T09:41:00Z</time>
      </trkpt>
      <trkpt lat="46.56176" lon="0.67368">
        <ele>118</ele>
        <time>2010-09-26T09:41:01Z</time>
      </trkpt>
      <trkpt lat="46.56175" lon="0.67367">
        <ele>117</ele>
        <time>2010-09-26T09:41:02Z</time>
      </trkpt>
      <trkpt lat="46.56175" lon="0.67367">
        <ele>117</ele>
        <time>2010-09-26T09:41:03Z</time>
      </trkpt>
      <trkpt lat="46.56175" lon="0.67367">
        <ele>117</ele>
        <time>2010-09-26T09:41:04Z</time>
      </trkpt>
      <trkpt lat="46.56175" lon="0.67367">
        <ele>117</ele>
        <time>2010-09-26T09:41:05Z</time>
      </trkpt>
      <trkpt lat="46.56175" lon="0.67367">
        <ele>117</ele>
        <time>2010-09-26T09:41:06Z</time>
      </trkpt>
      <trkpt lat="46.56175" lon="0.67367">
        <ele>117</ele>
        <time>2010-09-26T09:41:07Z</time>
      </trkpt>
      <trkpt lat="46.56175" lon="0.67367">
        <ele>117</ele>
        <time>2010-09-26T09:41:08Z</time>
      </trkpt>
      <trkpt lat="46.56175" lon="0.67367">
        <ele>117</ele>
        <time>2010-09-26T09:41:09Z</time>
      </trkpt>
      <trkpt lat="46.56175" lon="0.67367">
        <ele>117</ele>
        <time>2010-09-26T09:41:10Z</time>
      </trkpt>
      <trkpt lat="46.56175" lon="0.67367">
        <ele>117</ele>
        <time>2010-09-26T09:41:11Z</time>
      </trkpt>
      <trkpt lat="46.56175" lon="0.67367">
        <ele>117</ele>
        <time>2010-09-26T09:41:12Z</time>
      </trkpt>
      <trkpt lat="46.56175" lon="0.67367">
        <ele>117</ele>
        <time>2010-09-26T09:41:13Z</time>
      </trkpt>
      <trkpt lat="46.56175" lon="0.67367">
        <ele>117</ele>
        <time>2010-09-26T09:41:14Z</time>
      </trkpt>
      <trkpt lat="46.56175" lon="0.67367">
        <ele>117</ele>
        <time>2010-09-26T09:41:15Z</time>
      </trkpt>
      <trkpt lat="46.56175" lon="0.67367">
        <ele>117</ele>
        <time>2010-09-26T09:41:16Z</time>
      </trkpt>
      <trkpt lat="46.56175" lon="0.67367">
        <ele>117</ele>
        <time>2010-09-26T09:41:17Z</time>
      </trkpt>
      <trkpt lat="46.56175" lon="0.67367">
        <ele>117</ele>
        <time>2010-09-26T09:41:18Z</time>
      </trkpt>
      <trkpt lat="46.56175" lon="0.67367">
        <ele>117</ele>
        <time>2010-09-26T09:41:19Z</time>
      </trkpt>
      <trkpt lat="46.56175" lon="0.67367">
        <ele>117</ele>
        <time>2010-09-26T09:41:20Z</time>
      </trkpt>
      <trkpt lat="46.56175" lon="0.67367">
        <ele>117</ele>
        <time>2010-09-26T09:41:21Z</time>
      </trkpt>
      <trkpt lat="46.56175" lon="0.67367">
        <ele>117</ele>
        <time>2010-09-26T09:41:22Z</time>
      </trkpt>
      <trkpt lat="46.56175" lon="0.67367">
        <ele>117</ele>
        <time>2010-09-26T09:41:23Z</time>
      </trkpt>
      <trkpt lat="46.56175" lon="0.67367">
        <ele>117</ele>
        <time>2010-09-26T09:41:24Z</time>
      </trkpt>
      <trkpt lat="46.56175" lon="0.67367">
        <ele>117</ele>
        <time>2010-09-26T09:41:25Z</time>
      </trkpt>
      <trkpt lat="46.56175" lon="0.67367">
        <ele>117</ele>
        <time>2010-09-26T09:41:26Z</time>
      </trkpt>
      <trkpt lat="46.56175" lon="0.67367">
        <ele>117</ele>
        <time>2010-09-26T09:41:27Z</time>
      </trkpt>
      <trkpt lat="46.56175" lon="0.67367">
        <ele>117</ele>
        <time>2010-09-26T09:41:28Z</time>
      </trkpt>
      <trkpt lat="46.56175" lon="0.67367">
        <ele>117</ele>
        <time>2010-09-26T09:41:29Z</time>
      </trkpt>
      <trkpt lat="46.56175" lon="0.67367">
        <ele>117</ele>
        <time>2010-09-26T09:41:30Z</time>
      </trkpt>
      <trkpt lat="46.56175" lon="0.67367">
        <ele>117</ele>
        <time>2010-09-26T09:41:31Z</time>
      </trkpt>
      <trkpt lat="46.56175" lon="0.67367">
        <ele>117</ele>
        <time>2010-09-26T09:41:32Z</time>
      </trkpt>
      <trkpt lat="46.56175" lon="0.67367">
        <ele>117</ele>
        <time>2010-09-26T09:41:33Z</time>
      </trkpt>
      <trkpt lat="46.56175" lon="0.67367">
        <ele>117</ele>
        <time>2010-09-26T09:41:34Z</time>
      </trkpt>
      <trkpt lat="46.56175" lon="0.67367">
        <ele>117</ele>
        <time>2010-09-26T09:41:35Z</time>
      </trkpt>
      <trkpt lat="46.56175" lon="0.67367">
        <ele>117</ele>
        <time>2010-09-26T09:41:36Z</time>
      </trkpt>
      <trkpt lat="46.56175" lon="0.67367">
        <ele>117</ele>
        <time>2010-09-26T09:41:37Z</time>
      </trkpt>
      <trkpt lat="46.56175" lon="0.67367">
        <ele>117</ele>
        <time>2010-09-26T09:41:38Z</time>
      </trkpt>
      <trkpt lat="46.56175" lon="0.67367">
        <ele>117</ele>
        <time>2010-09-26T09:41:39Z</time>
      </trkpt>
      <trkpt lat="46.56175" lon="0.67367">
        <ele>117</ele>
        <time>2010-09-26T09:41:40Z</time>
      </trkpt>
      <trkpt lat="46.56175" lon="0.67367">
        <ele>117</ele>
        <time>2010-09-26T09:41:41Z</time>
      </trkpt>
      <trkpt lat="46.56175" lon="0.67367">
        <ele>117</ele>
        <time>2010-09-26T09:41:42Z</time>
      </trkpt>
      <trkpt lat="46.56175" lon="0.67367">
        <ele>117</ele>
        <time>2010-09-26T09:41:43Z</time>
      </trkpt>
      <trkpt lat="46.56175" lon="0.67367">
        <ele>117</ele>
        <time>2010-09-26T09:41:44Z</time>
      </trkpt>
      <trkpt lat="46.56175" lon="0.67367">
        <ele>117</ele>
        <time>2010-09-26T09:41:45Z</time>
      </trkpt>
      <trkpt lat="46.56175" lon="0.67367">
        <ele>117</ele>
        <time>2010-09-26T09:41:46Z</time>
      </trkpt>
      <trkpt lat="46.56175" lon="0.67366">
        <ele>117</ele>
        <time>2010-09-26T09:41:47Z</time>
      </trkpt>
      <trkpt lat="46.56174" lon="0.67364">
        <ele>117</ele>
        <time>2010-09-26T09:41:48Z</time>
      </trkpt>
      <trkpt lat="46.56172" lon="0.67361">
        <ele>116.6</ele>
        <time>2010-09-26T09:41:49Z</time>
      </trkpt>
      <trkpt lat="46.5617" lon="0.67361">
        <ele>116.3</ele>
        <time>2010-09-26T09:41:50Z</time>
      </trkpt>
      <trkpt lat="46.56169" lon="0.67364">
        <ele>115.8</ele>
        <time>2010-09-26T09:41:51Z</time>
      </trkpt>
      <trkpt lat="46.56169" lon="0.67367">
        <ele>115.5</ele>
        <time>2010-09-26T09:41:52Z</time>
      </trkpt>
      <trkpt lat="46.56174" lon="0.67373">
        <ele>115.8</ele>
        <time>2010-09-26T09:41:53Z</time>
      </trkpt>
      <trkpt lat="46.56178" lon="0.67377">
        <ele>115.5</ele>
        <time>2010-09-26T09:41:54Z</time>
      </trkpt>
      <trkpt lat="46.56183" lon="0.67381">
        <ele>115.5</ele>
        <time>2010-09-26T09:41:55Z</time>
      </trkpt>
      <trkpt lat="46.56189" lon="0.67382">
        <ele>115.5</ele>
        <time>2010-09-26T09:41:56Z</time>
      </trkpt>
      <trkpt lat="46.56196" lon="0.67379">
        <ele>115.4</ele>
        <time>2010-09-26T09:41:57Z</time>
      </trkpt>
      <trkpt lat="46.56202" lon="0.67375">
        <ele>115.1</ele>
        <time>2010-09-26T09:41:58Z</time>
      </trkpt>
      <trkpt lat="46.56216" lon="0.67362">
        <ele>114.6</ele>
        <time>2010-09-26T09:42:00Z</time>
      </trkpt>
      <trkpt lat="46.56231" lon="0.67347">
        <ele>114</ele>
        <time>2010-09-26T09:42:02Z</time>
      </trkpt>
      <trkpt lat="46.56247" lon="0.67328">
        <ele>113.6</ele>
        <time>2010-09-26T09:42:04Z</time>
      </trkpt>
      <trkpt lat="46.56255" lon="0.67316">
        <ele>113.8</ele>
        <time>2010-09-26T09:42:05Z</time>
      </trkpt>
      <trkpt lat="46.56271" lon="0.6729">
        <ele>114</ele>
        <time>2010-09-26T09:42:07Z</time>
      </trkpt>
      <trkpt lat="46.56376" lon="0.67111">
        <ele>124</ele>
        <time>2010-09-26T09:42:25Z</time>
      </trkpt>
      <trkpt lat="46.56381" lon="0.67099">
        <ele>123.9</ele>
        <time>2010-09-26T09:42:26Z</time>
      </trkpt>
      <trkpt lat="46.56388" lon="0.67076">
        <ele>123.1</ele>
        <time>2010-09-26T09:42:28Z</time>
      </trkpt>
      <trkpt lat="46.56404" lon="0.67019">
        <ele>120.5</ele>
        <time>2010-09-26T09:42:37Z</time>
      </trkpt>
      <trkpt lat="46.56405" lon="0.67015">
        <ele>120.1</ele>
        <time>2010-09-26T09:42:38Z</time>
      </trkpt>
      <trkpt lat="46.56405" lon="0.67011">
        <ele>119.6</ele>
        <time>2010-09-26T09:42:39Z</time>
      </trkpt>
      <trkpt lat="46.56406" lon="0.67008">
        <ele>119.3</ele>
        <time>2010-09-26T09:42:40Z</time>
      </trkpt>
      <trkpt lat="46.56409" lon="0.67">
        <ele>117.9</ele>
        <time>2010-09-26T09:42:42Z</time>
      </trkpt>
      <trkpt lat="46.56411" lon="0.66996">
        <ele>116.8</ele>
        <time>2010-09-26T09:42:43Z</time>
      </trkpt>
      <trkpt lat="46.56413" lon="0.6699">
        <ele>116.8</ele>
        <time>2010-09-26T09:42:44Z</time>
      </trkpt>
      <trkpt lat="46.56414" lon="0.66983">
        <ele>116.5</ele>
        <time>2010-09-26T09:42:45Z</time>
      </trkpt>
      <trkpt lat="46.5642" lon="0.66965">
        <ele>116</ele>
        <time>2010-09-26T09:42:47Z</time>
      </trkpt>
      <trkpt lat="46.56477" lon="0.6679">
        <ele>110.4</ele>
        <time>2010-09-26T09:42:59Z</time>
      </trkpt>
      <trkpt lat="46.56484" lon="0.66776">
        <ele>109.5</ele>
        <time>2010-09-26T09:43:00Z</time>
      </trkpt>
      <trkpt lat="46.56555" lon="0.6666">
        <ele>110.5</ele>
        <time>2010-09-26T09:43:08Z</time>
      </trkpt>
      <trkpt lat="46.56665" lon="0.66516">
        <ele>108.4</ele>
        <time>2010-09-26T09:43:19Z</time>
      </trkpt>
      <trkpt lat="46.56757" lon="0.66406">
        <ele>109.1</ele>
        <time>2010-09-26T09:43:30Z</time>
      </trkpt>
      <trkpt lat="46.56765" lon="0.66398">
        <ele>109</ele>
        <time>2010-09-26T09:43:31Z</time>
      </trkpt>
      <trkpt lat="46.56828" lon="0.66315">
        <ele>105</ele>
        <time>2010-09-26T09:43:40Z</time>
      </trkpt>
      <trkpt lat="46.5683" lon="0.66312">
        <ele>105</ele>
        <time>2010-09-26T09:43:41Z</time>
      </trkpt>
      <trkpt lat="46.56832" lon="0.6631">
        <ele>105</ele>
        <time>2010-09-26T09:44:46Z</time>
      </trkpt>
      <trkpt lat="46.56832" lon="0.6631">
        <ele>105.1</ele>
        <time>2010-09-26T09:44:47Z</time>
      </trkpt>
      <trkpt lat="46.56833" lon="0.66293">
        <ele>105.5</ele>
        <time>2010-09-26T09:44:50Z</time>
      </trkpt>
      <trkpt lat="46.56834" lon="0.66287">
        <ele>105.5</ele>
        <time>2010-09-26T09:44:51Z</time>
      </trkpt>
      <trkpt lat="46.56835" lon="0.66282">
        <ele>105.5</ele>
        <time>2010-09-26T09:44:52Z</time>
      </trkpt>
      <trkpt lat="46.56837" lon="0.66279">
        <ele>105.5</ele>
        <time>2010-09-26T09:44:53Z</time>
      </trkpt>
      <trkpt lat="46.56839" lon="0.66273">
        <ele>105.1</ele>
        <time>2010-09-26T09:44:55Z</time>
      </trkpt>
      <trkpt lat="46.56839" lon="0.66273">
        <ele>105</ele>
        <time>2010-09-26T09:44:56Z</time>
      </trkpt>
      <trkpt lat="46.56839" lon="0.66276">
        <ele>104.4</ele>
        <time>2010-09-26T09:44:57Z</time>
      </trkpt>
      <trkpt lat="46.56838" lon="0.66283">
        <ele>103.6</ele>
        <time>2010-09-26T09:44:58Z</time>
      </trkpt>
      <trkpt lat="46.56828" lon="0.66318">
        <ele>104</ele>
        <time>2010-09-26T09:45:01Z</time>
      </trkpt>
      <trkpt lat="46.56821" lon="0.6633">
        <ele>103.9</ele>
        <time>2010-09-26T09:45:02Z</time>
      </trkpt>
      <trkpt lat="46.56802" lon="0.66359">
        <ele>104.5</ele>
        <time>2010-09-26T09:45:04Z</time>
      </trkpt>
      <trkpt lat="46.56767" lon="0.66401">
        <ele>106</ele>
        <time>2010-09-26T09:45:08Z</time>
      </trkpt>
      <trkpt lat="46.56682" lon="0.66504">
        <ele>100.3</ele>
        <time>2010-09-26T09:45:20Z</time>
      </trkpt>
      <trkpt lat="46.5668" lon="0.66505">
        <ele>100</ele>
        <time>2010-09-26T09:45:21Z</time>
      </trkpt>
      <trkpt lat="46.56679" lon="0.66505">
        <ele>100.3</ele>
        <time>2010-09-26T09:45:22Z</time>
      </trkpt>
      <trkpt lat="46.56677" lon="0.66502">
        <ele>100.3</ele>
        <time>2010-09-26T09:45:23Z</time>
      </trkpt>
      <trkpt lat="46.56676" lon="0.66499">
        <ele>100.5</ele>
        <time>2010-09-26T09:45:24Z</time>
      </trkpt>
      <trkpt lat="46.56653" lon="0.66459">
        <ele>102</ele>
        <time>2010-09-26T09:45:33Z</time>
      </trkpt>
      <trkpt lat="46.56653" lon="0.66457">
        <ele>101.5</ele>
        <time>2010-09-26T09:45:34Z</time>
      </trkpt>
      <trkpt lat="46.56654" lon="0.66454">
        <ele>101</ele>
        <time>2010-09-26T09:45:35Z</time>
      </trkpt>
      <trkpt lat="46.56656" lon="0.66453">
        <ele>101</ele>
        <time>2010-09-26T09:45:36Z</time>
      </trkpt>
      <trkpt lat="46.56658" lon="0.66453">
        <ele>100.8</ele>
        <time>2010-09-26T09:45:37Z</time>
      </trkpt>
      <trkpt lat="46.5666" lon="0.66452">
        <ele>101.1</ele>
        <time>2010-09-26T09:45:38Z</time>
      </trkpt>
      <trkpt lat="46.56662" lon="0.66449">
        <ele>101.4</ele>
        <time>2010-09-26T09:45:39Z</time>
      </trkpt>
      <trkpt lat="46.56682" lon="0.66413">
        <ele>102</ele>
        <time>2010-09-26T09:45:43Z</time>
      </trkpt>
      <trkpt lat="46.56725" lon="0.66336">
        <ele>103.1</ele>
        <time>2010-09-26T09:45:49Z</time>
      </trkpt>
      <trkpt lat="46.56729" lon="0.66321">
        <ele>103.1</ele>
        <time>2010-09-26T09:45:50Z</time>
      </trkpt>
      <trkpt lat="46.56732" lon="0.66304">
        <ele>103</ele>
        <time>2010-09-26T09:45:51Z</time>
      </trkpt>
      <trkpt lat="46.56733" lon="0.66286">
        <ele>102.9</ele>
        <time>2010-09-26T09:45:52Z</time>
      </trkpt>
      <trkpt lat="46.56742" lon="0.66205">
        <ele>102.5</ele>
        <time>2010-09-26T09:45:56Z</time>
      </trkpt>
      <trkpt lat="46.56746" lon="0.66185">
        <ele>102.5</ele>
        <time>2010-09-26T09:45:57Z</time>
      </trkpt>
      <trkpt lat="46.56758" lon="0.66148">
        <ele>102</ele>
        <time>2010-09-26T09:45:59Z</time>
      </trkpt>
      <trkpt lat="46.56767" lon="0.66132">
        <ele>102.1</ele>
        <time>2010-09-26T09:46:00Z</time>
      </trkpt>
      <trkpt lat="46.56787" lon="0.66107">
        <ele>102</ele>
        <time>2010-09-26T09:46:02Z</time>
      </trkpt>
      <trkpt lat="46.56818" lon="0.6607">
        <ele>102</ele>
        <time>2010-09-26T09:46:06Z</time>
      </trkpt>
      <trkpt lat="46.56821" lon="0.6606">
        <ele>102</ele>
        <time>2010-09-26T09:46:07Z</time>
      </trkpt>
      <trkpt lat="46.56821" lon="0.66049">
        <ele>102.1</ele>
        <time>2010-09-26T09:46:08Z</time>
      </trkpt>
      <trkpt lat="46.5682" lon="0.66038">
        <ele>102.9</ele>
        <time>2010-09-26T09:46:09Z</time>
      </trkpt>
      <trkpt lat="46.56819" lon="0.66017">
        <ele>103</ele>
        <time>2010-09-26T09:46:11Z</time>
      </trkpt>
      <trkpt lat="46.5682" lon="0.66008">
        <ele>103.1</ele>
        <time>2010-09-26T09:46:12Z</time>
      </trkpt>
      <trkpt lat="46.56822" lon="0.65964">
        <ele>101.5</ele>
        <time>2010-09-26T09:46:19Z</time>
      </trkpt>
      <trkpt lat="46.56821" lon="0.65961">
        <ele>101.4</ele>
        <time>2010-09-26T09:46:20Z</time>
      </trkpt>
      <trkpt lat="46.56821" lon="0.65959">
        <ele>102</ele>
        <time>2010-09-26T09:46:21Z</time>
      </trkpt>
      <trkpt lat="46.56821" lon="0.65956">
        <ele>102</ele>
        <time>2010-09-26T09:46:22Z</time>
      </trkpt>
      <trkpt lat="46.56821" lon="0.65954">
        <ele>101.9</ele>
        <time>2010-09-26T09:46:23Z</time>
      </trkpt>
      <trkpt lat="46.56821" lon="0.65952">
        <ele>101.8</ele>
        <time>2010-09-26T09:46:24Z</time>
      </trkpt>
      <trkpt lat="46.56821" lon="0.65948">
        <ele>101.4</ele>
        <time>2010-09-26T09:46:26Z</time>
      </trkpt>
      <trkpt lat="46.5682" lon="0.65947">
        <ele>101</ele>
        <time>2010-09-26T09:46:27Z</time>
      </trkpt>
      <trkpt lat="46.56819" lon="0.65947">
        <ele>101.3</ele>
        <time>2010-09-26T09:46:28Z</time>
      </trkpt>
      <trkpt lat="46.56818" lon="0.6595">
        <ele>101.5</ele>
        <time>2010-09-26T09:46:29Z</time>
      </trkpt>
      <trkpt lat="46.56818" lon="0.65957">
        <ele>101.8</ele>
        <time>2010-09-26T09:46:30Z</time>
      </trkpt>
      <trkpt lat="46.56818" lon="0.65965">
        <ele>102.1</ele>
        <time>2010-09-26T09:46:31Z</time>
      </trkpt>
      <trkpt lat="46.56814" lon="0.66074">
        <ele>102.3</ele>
        <time>2010-09-26T09:46:39Z</time>
      </trkpt>
      <trkpt lat="46.56809" lon="0.66085">
        <ele>103.4</ele>
        <time>2010-09-26T09:46:40Z</time>
      </trkpt>
      <trkpt lat="46.568" lon="0.66095">
        <ele>104.6</ele>
        <time>2010-09-26T09:46:41Z</time>
      </trkpt>
      <trkpt lat="46.56771" lon="0.66131">
        <ele>105.5</ele>
        <time>2010-09-26T09:46:44Z</time>
      </trkpt>
      <trkpt lat="46.56762" lon="0.66145">
        <ele>105.8</ele>
        <time>2010-09-26T09:46:45Z</time>
      </trkpt>
      <trkpt lat="46.56754" lon="0.66161">
        <ele>106.5</ele>
        <time>2010-09-26T09:46:46Z</time>
      </trkpt>
      <trkpt lat="46.56748" lon="0.66179">
        <ele>107</ele>
        <time>2010-09-26T09:46:47Z</time>
      </trkpt>
      <trkpt lat="46.56742" lon="0.662">
        <ele>107.6</ele>
        <time>2010-09-26T09:46:48Z</time>
      </trkpt>
      <trkpt lat="46.56738" lon="0.66221">
        <ele>107.3</ele>
        <time>2010-09-26T09:46:49Z</time>
      </trkpt>
      <trkpt lat="46.56734" lon="0.66243">
        <ele>107.5</ele>
        <time>2010-09-26T09:46:50Z</time>
      </trkpt>
      <trkpt lat="46.56732" lon="0.66265">
        <ele>107.5</ele>
        <time>2010-09-26T09:46:51Z</time>
      </trkpt>
      <trkpt lat="46.56727" lon="0.66323">
        <ele>107.6</ele>
        <time>2010-09-26T09:46:54Z</time>
      </trkpt>
      <trkpt lat="46.56722" lon="0.66339">
        <ele>108.4</ele>
        <time>2010-09-26T09:46:55Z</time>
      </trkpt>
      <trkpt lat="46.56716" lon="0.66354">
        <ele>108.5</ele>
        <time>2010-09-26T09:46:56Z</time>
      </trkpt>
      <trkpt lat="46.56708" lon="0.66368">
        <ele>108.8</ele>
        <time>2010-09-26T09:46:57Z</time>
      </trkpt>
      <trkpt lat="46.5666" lon="0.66449">
        <ele>105.4</ele>
        <time>2010-09-26T09:47:05Z</time>
      </trkpt>
      <trkpt lat="46.56654" lon="0.66456">
        <ele>105</ele>
        <time>2010-09-26T09:47:07Z</time>
      </trkpt>
      <trkpt lat="46.56651" lon="0.66456">
        <ele>104.8</ele>
        <time>2010-09-26T09:47:08Z</time>
      </trkpt>
      <trkpt lat="46.56649" lon="0.66454">
        <ele>104.4</ele>
        <time>2010-09-26T09:47:09Z</time>
      </trkpt>
      <trkpt lat="46.56646" lon="0.66449">
        <ele>104</ele>
        <time>2010-09-26T09:47:10Z</time>
      </trkpt>
      <trkpt lat="46.56643" lon="0.66439">
        <ele>103.8</ele>
        <time>2010-09-26T09:47:11Z</time>
      </trkpt>
      <trkpt lat="46.56641" lon="0.66426">
        <ele>103.5</ele>
        <time>2010-09-26T09:47:12Z</time>
      </trkpt>
      <trkpt lat="46.56631" lon="0.66349">
        <ele>103.1</ele>
        <time>2010-09-26T09:47:16Z</time>
      </trkpt>
      <trkpt lat="46.56629" lon="0.66295">
        <ele>104.8</ele>
        <time>2010-09-26T09:47:18Z</time>
      </trkpt>
      <trkpt lat="46.56622" lon="0.66117">
        <ele>106.1</ele>
        <time>2010-09-26T09:47:25Z</time>
      </trkpt>
      <trkpt lat="46.56618" lon="0.66099">
        <ele>106</ele>
        <time>2010-09-26T09:47:26Z</time>
      </trkpt>
      <trkpt lat="46.56609" lon="0.66065">
        <ele>106.6</ele>
        <time>2010-09-26T09:47:28Z</time>
      </trkpt>
      <trkpt lat="46.56594" lon="0.66022">
        <ele>107.3</ele>
        <time>2010-09-26T09:47:31Z</time>
      </trkpt>
      <trkpt lat="46.56563" lon="0.65932">
        <ele>109.8</ele>
        <time>2010-09-26T09:47:39Z</time>
      </trkpt>
      <trkpt lat="46.56544" lon="0.65873">
        <ele>110.5</ele>
        <time>2010-09-26T09:47:46Z</time>
      </trkpt>
      <trkpt lat="46.56539" lon="0.65863">
        <ele>110.5</ele>
        <time>2010-09-26T09:47:47Z</time>
      </trkpt>
      <trkpt lat="46.56513" lon="0.65813">
        <ele>110</ele>
        <time>2010-09-26T09:47:52Z</time>
      </trkpt>
      <trkpt lat="46.56507" lon="0.65803">
        <ele>109.9</ele>
        <time>2010-09-26T09:47:53Z</time>
      </trkpt>
      <trkpt lat="46.56483" lon="0.6577">
        <ele>109.5</ele>
        <time>2010-09-26T09:47:56Z</time>
      </trkpt>
      <trkpt lat="46.56315" lon="0.65546">
        <ele>109</ele>
        <time>2010-09-26T09:48:12Z</time>
      </trkpt>
      <trkpt lat="46.56284" lon="0.65505">
        <ele>107.5</ele>
        <time>2010-09-26T09:48:16Z</time>
      </trkpt>
      <trkpt lat="46.56277" lon="0.655">
        <ele>107.9</ele>
        <time>2010-09-26T09:48:17Z</time>
      </trkpt>
      <trkpt lat="46.56258" lon="0.65491">
        <ele>108.1</ele>
        <time>2010-09-26T09:48:20Z</time>
      </trkpt>
      <trkpt lat="46.56251" lon="0.65492">
        <ele>108.3</ele>
        <time>2010-09-26T09:48:21Z</time>
      </trkpt>
      <trkpt lat="46.56244" lon="0.65498">
        <ele>108.5</ele>
        <time>2010-09-26T09:48:22Z</time>
      </trkpt>
      <trkpt lat="46.56236" lon="0.65507">
        <ele>108.6</ele>
        <time>2010-09-26T09:48:23Z</time>
      </trkpt>
      <trkpt lat="46.56093" lon="0.65678">
        <ele>112.5</ele>
        <time>2010-09-26T09:48:38Z</time>
      </trkpt>
      <trkpt lat="46.56085" lon="0.65692">
        <ele>113</ele>
        <time>2010-09-26T09:48:39Z</time>
      </trkpt>
      <trkpt lat="46.56079" lon="0.65706">
        <ele>113.4</ele>
        <time>2010-09-26T09:48:40Z</time>
      </trkpt>
      <trkpt lat="46.55835" lon="0.66286">
        <ele>118.9</ele>
        <time>2010-09-26T09:49:13Z</time>
      </trkpt>
      <trkpt lat="46.55822" lon="0.66301">
        <ele>119</ele>
        <time>2010-09-26T09:49:14Z</time>
      </trkpt>
      <trkpt lat="46.55808" lon="0.66312">
        <ele>119.5</ele>
        <time>2010-09-26T09:49:15Z</time>
      </trkpt>
      <trkpt lat="46.55713" lon="0.66394">
        <ele>121.1</ele>
        <time>2010-09-26T09:49:24Z</time>
      </trkpt>
      <trkpt lat="46.55703" lon="0.66405">
        <ele>121.3</ele>
        <time>2010-09-26T09:49:25Z</time>
      </trkpt>
      <trkpt lat="46.55639" lon="0.66486">
        <ele>123</ele>
        <time>2010-09-26T09:49:34Z</time>
      </trkpt>
      <trkpt lat="46.55636" lon="0.66488">
        <ele>123</ele>
        <time>2010-09-26T09:49:35Z</time>
      </trkpt>
      <trkpt lat="46.55633" lon="0.66488">
        <ele>122.8</ele>
        <time>2010-09-26T09:49:36Z</time>
      </trkpt>
      <trkpt lat="46.55631" lon="0.66488">
        <ele>123.3</ele>
        <time>2010-09-26T09:49:37Z</time>
      </trkpt>
      <trkpt lat="46.5563" lon="0.66489">
        <ele>123</ele>
        <time>2010-09-26T09:49:38Z</time>
      </trkpt>
      <trkpt lat="46.55629" lon="0.66492">
        <ele>123.3</ele>
        <time>2010-09-26T09:49:39Z</time>
      </trkpt>
      <trkpt lat="46.55629" lon="0.66494">
        <ele>123.5</ele>
        <time>2010-09-26T09:49:40Z</time>
      </trkpt>
      <trkpt lat="46.55631" lon="0.66494">
        <ele>123.5</ele>
        <time>2010-09-26T09:49:41Z</time>
      </trkpt>
      <trkpt lat="46.55633" lon="0.66491">
        <ele>123.5</ele>
        <time>2010-09-26T09:49:42Z</time>
      </trkpt>
      <trkpt lat="46.55633" lon="0.66484">
        <ele>123.5</ele>
        <time>2010-09-26T09:49:43Z</time>
      </trkpt>
      <trkpt lat="46.55628" lon="0.66475">
        <ele>123.8</ele>
        <time>2010-09-26T09:49:44Z</time>
      </trkpt>
      <trkpt lat="46.55621" lon="0.66464">
        <ele>123.8</ele>
        <time>2010-09-26T09:49:45Z</time>
      </trkpt>
      <trkpt lat="46.55594" lon="0.66419">
        <ele>123</ele>
        <time>2010-09-26T09:49:49Z</time>
      </trkpt>
      <trkpt lat="46.5559" lon="0.66405">
        <ele>122.9</ele>
        <time>2010-09-26T09:49:50Z</time>
      </trkpt>
      <trkpt lat="46.55587" lon="0.6639">
        <ele>123</ele>
        <time>2010-09-26T09:49:51Z</time>
      </trkpt>
      <trkpt lat="46.55573" lon="0.66306">
        <ele>123</ele>
        <time>2010-09-26T09:49:56Z</time>
      </trkpt>
      <trkpt lat="46.55568" lon="0.66291">
        <ele>122.9</ele>
        <time>2010-09-26T09:49:57Z</time>
      </trkpt>
      <trkpt lat="46.5556" lon="0.66277">
        <ele>122.5</ele>
        <time>2010-09-26T09:49:58Z</time>
      </trkpt>
      <trkpt lat="46.55552" lon="0.66264">
        <ele>122</ele>
        <time>2010-09-26T09:49:59Z</time>
      </trkpt>
      <trkpt lat="46.55515" lon="0.66208">
        <ele>119.6</ele>
        <time>2010-09-26T09:50:04Z</time>
      </trkpt>
      <trkpt lat="46.55512" lon="0.66195">
        <ele>119</ele>
        <time>2010-09-26T09:50:05Z</time>
      </trkpt>
      <trkpt lat="46.55512" lon="0.6618">
        <ele>118.5</ele>
        <time>2010-09-26T09:50:06Z</time>
      </trkpt>
      <trkpt lat="46.5551" lon="0.66154">
        <ele>117</ele>
        <time>2010-09-26T09:50:08Z</time>
      </trkpt>
      <trkpt lat="46.55505" lon="0.66143">
        <ele>116.6</ele>
        <time>2010-09-26T09:50:09Z</time>
      </trkpt>
      <trkpt lat="46.55495" lon="0.66136">
        <ele>116.3</ele>
        <time>2010-09-26T09:50:10Z</time>
      </trkpt>
      <trkpt lat="46.55485" lon="0.66131">
        <ele>115.9</ele>
        <time>2010-09-26T09:50:11Z</time>
      </trkpt>
      <trkpt lat="46.55446" lon="0.66118">
        <ele>115</ele>
        <time>2010-09-26T09:50:15Z</time>
      </trkpt>
      <trkpt lat="46.55437" lon="0.66115">
        <ele>114.9</ele>
        <time>2010-09-26T09:50:16Z</time>
      </trkpt>
      <trkpt lat="46.5541" lon="0.66094">
        <ele>114</ele>
        <time>2010-09-26T09:50:19Z</time>
      </trkpt>
      <trkpt lat="46.55402" lon="0.66083">
        <ele>113.9</ele>
        <time>2010-09-26T09:50:20Z</time>
      </trkpt>
      <trkpt lat="46.55397" lon="0.66068">
        <ele>113.8</ele>
        <time>2010-09-26T09:50:21Z</time>
      </trkpt>
      <trkpt lat="46.55393" lon="0.6605">
        <ele>113.9</ele>
        <time>2010-09-26T09:50:22Z</time>
      </trkpt>
      <trkpt lat="46.55377" lon="0.65963">
        <ele>112.3</ele>
        <time>2010-09-26T09:50:27Z</time>
      </trkpt>
      <trkpt lat="46.55372" lon="0.65948">
        <ele>111.6</ele>
        <time>2010-09-26T09:50:28Z</time>
      </trkpt>
      <trkpt lat="46.55366" lon="0.65935">
        <ele>111.1</ele>
        <time>2010-09-26T09:50:29Z</time>
      </trkpt>
      <trkpt lat="46.55345" lon="0.65898">
        <ele>109.6</ele>
        <time>2010-09-26T09:50:34Z</time>
      </trkpt>
      <trkpt lat="46.55343" lon="0.65897">
        <ele>110</ele>
        <time>2010-09-26T09:50:35Z</time>
      </trkpt>
      <trkpt lat="46.55343" lon="0.65897">
        <ele>110</ele>
        <time>2010-09-26T09:50:36Z</time>
      </trkpt>
      <trkpt lat="46.55343" lon="0.65897">
        <ele>110</ele>
        <time>2010-09-26T09:50:37Z</time>
      </trkpt>
      <trkpt lat="46.55343" lon="0.65897">
        <ele>110</ele>
        <time>2010-09-26T09:50:38Z</time>
      </trkpt>
      <trkpt lat="46.55343" lon="0.65897">
        <ele>110</ele>
        <time>2010-09-26T09:50:39Z</time>
      </trkpt>
      <trkpt lat="46.55342" lon="0.65896">
        <ele>110.4</ele>
        <time>2010-09-26T09:50:40Z</time>
      </trkpt>
      <trkpt lat="46.55335" lon="0.65893">
        <ele>110.1</ele>
        <time>2010-09-26T09:50:42Z</time>
      </trkpt>
      <trkpt lat="46.5533" lon="0.65892">
        <ele>110.3</ele>
        <time>2010-09-26T09:50:43Z</time>
      </trkpt>
      <trkpt lat="46.55316" lon="0.65886">
        <ele>110.1</ele>
        <time>2010-09-26T09:50:45Z</time>
      </trkpt>
      <trkpt lat="46.55307" lon="0.65878">
        <ele>110.5</ele>
        <time>2010-09-26T09:50:46Z</time>
      </trkpt>
      <trkpt lat="46.55223" lon="0.65793">
        <ele>109.1</ele>
        <time>2010-09-26T09:50:57Z</time>
      </trkpt>
      <trkpt lat="46.55223" lon="0.6579">
        <ele>109.1</ele>
        <time>2010-09-26T09:50:58Z</time>
      </trkpt>
      <trkpt lat="46.55224" lon="0.65786">
        <ele>109</ele>
        <time>2010-09-26T09:50:59Z</time>
      </trkpt>
      <trkpt lat="46.55227" lon="0.65782">
        <ele>109</ele>
        <time>2010-09-26T09:51:00Z</time>
      </trkpt>
      <trkpt lat="46.5523" lon="0.65775">
        <ele>108.9</ele>
        <time>2010-09-26T09:51:01Z</time>
      </trkpt>
      <trkpt lat="46.55234" lon="0.65766">
        <ele>108.8</ele>
        <time>2010-09-26T09:51:02Z</time>
      </trkpt>
      <trkpt lat="46.55567" lon="0.64981">
        <ele>106</ele>
        <time>2010-09-26T09:52:04Z</time>
      </trkpt>
      <trkpt lat="46.55574" lon="0.6497">
        <ele>105.1</ele>
        <time>2010-09-26T09:52:05Z</time>
      </trkpt>
      <trkpt lat="46.556" lon="0.6492">
        <ele>103.9</ele>
        <time>2010-09-26T09:52:09Z</time>
      </trkpt>
      <trkpt lat="46.55606" lon="0.64904">
        <ele>103.5</ele>
        <time>2010-09-26T09:52:10Z</time>
      </trkpt>
      <trkpt lat="46.55779" lon="0.6451">
        <ele>89.5</ele>
        <time>2010-09-26T09:52:37Z</time>
      </trkpt>
      <trkpt lat="46.55781" lon="0.64499">
        <ele>88.6</ele>
        <time>2010-09-26T09:52:38Z</time>
      </trkpt>
      <trkpt lat="46.55782" lon="0.64488">
        <ele>87.5</ele>
        <time>2010-09-26T09:52:39Z</time>
      </trkpt>
      <trkpt lat="46.55787" lon="0.64451">
        <ele>84.5</ele>
        <time>2010-09-26T09:52:43Z</time>
      </trkpt>
      <trkpt lat="46.55789" lon="0.64444">
        <ele>83.9</ele>
        <time>2010-09-26T09:52:44Z</time>
      </trkpt>
      <trkpt lat="46.55792" lon="0.64439">
        <ele>83</ele>
        <time>2010-09-26T09:52:45Z</time>
      </trkpt>
      <trkpt lat="46.55795" lon="0.64436">
        <ele>82.3</ele>
        <time>2010-09-26T09:52:46Z</time>
      </trkpt>
      <trkpt lat="46.55798" lon="0.64435">
        <ele>82</ele>
        <time>2010-09-26T09:52:47Z</time>
      </trkpt>
      <trkpt lat="46.55801" lon="0.64435">
        <ele>81.4</ele>
        <time>2010-09-26T09:52:48Z</time>
      </trkpt>
      <trkpt lat="46.55803" lon="0.64436">
        <ele>82.8</ele>
        <time>2010-09-26T09:52:49Z</time>
      </trkpt>
      <trkpt lat="46.55803" lon="0.64436">
        <ele>82.8</ele>
        <time>2010-09-26T09:52:50Z</time>
      </trkpt>
      <trkpt lat="46.55803" lon="0.64436">
        <ele>82.8</ele>
        <time>2010-09-26T09:52:51Z</time>
      </trkpt>
      <trkpt lat="46.55803" lon="0.64436">
        <ele>82.8</ele>
        <time>2010-09-26T09:52:52Z</time>
      </trkpt>
      <trkpt lat="46.55803" lon="0.64436">
        <ele>82.8</ele>
        <time>2010-09-26T09:52:53Z</time>
      </trkpt>
      <trkpt lat="46.55803" lon="0.64436">
        <ele>82.8</ele>
        <time>2010-09-26T09:52:54Z</time>
      </trkpt>
      <trkpt lat="46.55803" lon="0.64436">
        <ele>82.8</ele>
        <time>2010-09-26T09:52:55Z</time>
      </trkpt>
      <trkpt lat="46.55803" lon="0.64436">
        <ele>82.8</ele>
        <time>2010-09-26T09:52:56Z</time>
      </trkpt>
      <trkpt lat="46.55803" lon="0.64436">
        <ele>82.8</ele>
        <time>2010-09-26T09:52:57Z</time>
      </trkpt>
      <trkpt lat="46.55803" lon="0.64436">
        <ele>82.8</ele>
        <time>2010-09-26T09:52:58Z</time>
      </trkpt>
      <trkpt lat="46.55803" lon="0.64436">
        <ele>82.8</ele>
        <time>2010-09-26T09:52:59Z</time>
      </trkpt>
      <trkpt lat="46.55803" lon="0.64436">
        <ele>82.8</ele>
        <time>2010-09-26T09:53:00Z</time>
      </trkpt>
      <trkpt lat="46.55803" lon="0.64436">
        <ele>82.8</ele>
        <time>2010-09-26T09:53:01Z</time>
      </trkpt>
      <trkpt lat="46.55803" lon="0.64436">
        <ele>82.8</ele>
        <time>2010-09-26T09:53:02Z</time>
      </trkpt>
      <trkpt lat="46.55803" lon="0.64436">
        <ele>82.8</ele>
        <time>2010-09-26T09:53:03Z</time>
      </trkpt>
      <trkpt lat="46.55803" lon="0.64436">
        <ele>82.8</ele>
        <time>2010-09-26T09:53:04Z</time>
      </trkpt>
      <trkpt lat="46.55803" lon="0.64436">
        <ele>82.8</ele>
        <time>2010-09-26T09:53:05Z</time>
      </trkpt>
      <trkpt lat="46.55803" lon="0.64436">
        <ele>82.8</ele>
        <time>2010-09-26T09:53:06Z</time>
      </trkpt>
      <trkpt lat="46.55803" lon="0.64436">
        <ele>82.8</ele>
        <time>2010-09-26T09:53:07Z</time>
      </trkpt>
      <trkpt lat="46.55803" lon="0.64436">
        <ele>82.8</ele>
        <time>2010-09-26T09:53:08Z</time>
      </trkpt>
      <trkpt lat="46.55803" lon="0.64436">
        <ele>82.8</ele>
        <time>2010-09-26T09:53:09Z</time>
      </trkpt>
      <trkpt lat="46.55803" lon="0.64436">
        <ele>82.8</ele>
        <time>2010-09-26T09:53:10Z</time>
      </trkpt>
      <trkpt lat="46.55803" lon="0.64436">
        <ele>82.8</ele>
        <time>2010-09-26T09:53:11Z</time>
      </trkpt>
      <trkpt lat="46.55803" lon="0.64436">
        <ele>82.8</ele>
        <time>2010-09-26T09:53:12Z</time>
      </trkpt>
      <trkpt lat="46.55803" lon="0.64436">
        <ele>82.8</ele>
        <time>2010-09-26T09:53:13Z</time>
      </trkpt>
      <trkpt lat="46.55803" lon="0.64436">
        <ele>82.8</ele>
        <time>2010-09-26T09:53:14Z</time>
      </trkpt>
      <trkpt lat="46.55803" lon="0.64436">
        <ele>82.8</ele>
        <time>2010-09-26T09:53:15Z</time>
      </trkpt>
      <trkpt lat="46.55803" lon="0.64436">
        <ele>82.8</ele>
        <time>2010-09-26T09:53:16Z</time>
      </trkpt>
      <trkpt lat="46.55803" lon="0.64436">
        <ele>82.8</ele>
        <time>2010-09-26T09:53:17Z</time>
      </trkpt>
      <trkpt lat="46.55803" lon="0.64436">
        <ele>82.8</ele>
        <time>2010-09-26T09:53:18Z</time>
      </trkpt>
      <trkpt lat="46.55803" lon="0.64436">
        <ele>82.8</ele>
        <time>2010-09-26T09:53:19Z</time>
      </trkpt>
      <trkpt lat="46.55803" lon="0.64436">
        <ele>82.8</ele>
        <time>2010-09-26T09:53:20Z</time>
      </trkpt>
      <trkpt lat="46.55803" lon="0.64436">
        <ele>82.8</ele>
        <time>2010-09-26T09:53:21Z</time>
      </trkpt>
      <trkpt lat="46.55803" lon="0.64436">
        <ele>82.8</ele>
        <time>2010-09-26T09:53:22Z</time>
      </trkpt>
      <trkpt lat="46.55803" lon="0.64436">
        <ele>82.8</ele>
        <time>2010-09-26T09:53:23Z</time>
      </trkpt>
      <trkpt lat="46.55803" lon="0.64436">
        <ele>82.8</ele>
        <time>2010-09-26T09:53:24Z</time>
      </trkpt>
      <trkpt lat="46.55803" lon="0.64436">
        <ele>82.8</ele>
        <time>2010-09-26T09:53:25Z</time>
      </trkpt>
      <trkpt lat="46.55803" lon="0.64436">
        <ele>82.8</ele>
        <time>2010-09-26T09:53:26Z</time>
      </trkpt>
      <trkpt lat="46.55803" lon="0.64436">
        <ele>82.8</ele>
        <time>2010-09-26T09:53:27Z</time>
      </trkpt>
      <trkpt lat="46.55803" lon="0.64436">
        <ele>82.8</ele>
        <time>2010-09-26T09:53:28Z</time>
      </trkpt>
      <trkpt lat="46.55803" lon="0.64436">
        <ele>82.8</ele>
        <time>2010-09-26T09:53:29Z</time>
      </trkpt>
      <trkpt lat="46.55804" lon="0.64435">
        <ele>82.6</ele>
        <time>2010-09-26T09:53:30Z</time>
      </trkpt>
      <trkpt lat="46.55806" lon="0.64432">
        <ele>82.8</ele>
        <time>2010-09-26T09:53:31Z</time>
      </trkpt>
      <trkpt lat="46.55808" lon="0.64427">
        <ele>82.9</ele>
        <time>2010-09-26T09:53:32Z</time>
      </trkpt>
      <trkpt lat="46.55809" lon="0.64418">
        <ele>82.9</ele>
        <time>2010-09-26T09:53:33Z</time>
      </trkpt>
      <trkpt lat="46.55808" lon="0.64406">
        <ele>82.6</ele>
        <time>2010-09-26T09:53:34Z</time>
      </trkpt>
      <trkpt lat="46.55799" lon="0.64247">
        <ele>76.3</ele>
        <time>2010-09-26T09:53:43Z</time>
      </trkpt>
      <trkpt lat="46.55801" lon="0.6421">
        <ele>75.3</ele>
        <time>2010-09-26T09:53:45Z</time>
      </trkpt>
      <trkpt lat="46.55805" lon="0.64175">
        <ele>74.5</ele>
        <time>2010-09-26T09:53:47Z</time>
      </trkpt>
      <trkpt lat="46.55811" lon="0.64143">
        <ele>74.6</ele>
        <time>2010-09-26T09:53:49Z</time>
      </trkpt>
      <trkpt lat="46.55819" lon="0.64115">
        <ele>74.8</ele>
        <time>2010-09-26T09:53:51Z</time>
      </trkpt>
      <trkpt lat="46.55833" lon="0.64081">
        <ele>74.6</ele>
        <time>2010-09-26T09:53:54Z</time>
      </trkpt>
      <trkpt lat="46.55839" lon="0.64071">
        <ele>74.6</ele>
        <time>2010-09-26T09:53:55Z</time>
      </trkpt>
      <trkpt lat="46.55852" lon="0.6405">
        <ele>74.1</ele>
        <time>2010-09-26T09:53:57Z</time>
      </trkpt>
      <trkpt lat="46.55856" lon="0.64037">
        <ele>74.3</ele>
        <time>2010-09-26T09:53:58Z</time>
      </trkpt>
      <trkpt lat="46.55858" lon="0.64022">
        <ele>73.9</ele>
        <time>2010-09-26T09:53:59Z</time>
      </trkpt>
      <trkpt lat="46.55865" lon="0.63989">
        <ele>73.5</ele>
        <time>2010-09-26T09:54:01Z</time>
      </trkpt>
      <trkpt lat="46.5587" lon="0.6397">
        <ele>73.1</ele>
        <time>2010-09-26T09:54:02Z</time>
      </trkpt>
      <trkpt lat="46.56033" lon="0.6341">
        <ele>75.5</ele>
        <time>2010-09-26T09:54:28Z</time>
      </trkpt>
      <trkpt lat="46.56037" lon="0.63386">
        <ele>75.8</ele>
        <time>2010-09-26T09:54:29Z</time>
      </trkpt>
      <trkpt lat="46.56044" lon="0.6331">
        <ele>78.1</ele>
        <time>2010-09-26T09:54:32Z</time>
      </trkpt>
      <trkpt lat="46.56046" lon="0.63254">
        <ele>80</ele>
        <time>2010-09-26T09:54:34Z</time>
      </trkpt>
      <trkpt lat="46.56043" lon="0.63198">
        <ele>82</ele>
        <time>2010-09-26T09:54:36Z</time>
      </trkpt>
      <trkpt lat="46.56035" lon="0.63143">
        <ele>84.6</ele>
        <time>2010-09-26T09:54:38Z</time>
      </trkpt>
      <trkpt lat="46.56018" lon="0.63062">
        <ele>88</ele>
        <time>2010-09-26T09:54:41Z</time>
      </trkpt>
      <trkpt lat="46.56002" lon="0.6301">
        <ele>90.5</ele>
        <time>2010-09-26T09:54:43Z</time>
      </trkpt>
      <trkpt lat="46.55824" lon="0.62532">
        <ele>107.1</ele>
        <time>2010-09-26T09:55:07Z</time>
      </trkpt>
      <trkpt lat="46.55824" lon="0.62518">
        <ele>107.6</ele>
        <time>2010-09-26T09:55:08Z</time>
      </trkpt>
      <trkpt lat="46.55822" lon="0.6248">
        <ele>108.1</ele>
        <time>2010-09-26T09:55:11Z</time>
      </trkpt>
      <trkpt lat="46.55817" lon="0.62473">
        <ele>108.8</ele>
        <time>2010-09-26T09:55:12Z</time>
      </trkpt>
      <trkpt lat="46.5581" lon="0.62469">
        <ele>109</ele>
        <time>2010-09-26T09:55:13Z</time>
      </trkpt>
      <trkpt lat="46.55801" lon="0.62471">
        <ele>109</ele>
        <time>2010-09-26T09:55:14Z</time>
      </trkpt>
      <trkpt lat="46.55789" lon="0.62479">
        <ele>109.3</ele>
        <time>2010-09-26T09:55:15Z</time>
      </trkpt>
      <trkpt lat="46.55776" lon="0.62483">
        <ele>108.9</ele>
        <time>2010-09-26T09:55:16Z</time>
      </trkpt>
      <trkpt lat="46.55762" lon="0.62485">
        <ele>109.1</ele>
        <time>2010-09-26T09:55:17Z</time>
      </trkpt>
      <trkpt lat="46.55749" lon="0.62483">
        <ele>110</ele>
        <time>2010-09-26T09:55:18Z</time>
      </trkpt>
      <trkpt lat="46.55735" lon="0.6248">
        <ele>110.4</ele>
        <time>2010-09-26T09:55:19Z</time>
      </trkpt>
      <trkpt lat="46.55712" lon="0.62472">
        <ele>110.9</ele>
        <time>2010-09-26T09:55:21Z</time>
      </trkpt>
      <trkpt lat="46.55702" lon="0.62465">
        <ele>111.1</ele>
        <time>2010-09-26T09:55:22Z</time>
      </trkpt>
      <trkpt lat="46.55694" lon="0.62457">
        <ele>111.5</ele>
        <time>2010-09-26T09:55:23Z</time>
      </trkpt>
      <trkpt lat="46.55689" lon="0.62447">
        <ele>111.6</ele>
        <time>2010-09-26T09:55:24Z</time>
      </trkpt>
      <trkpt lat="46.55683" lon="0.62437">
        <ele>112</ele>
        <time>2010-09-26T09:55:25Z</time>
      </trkpt>
      <trkpt lat="46.55676" lon="0.62429">
        <ele>112.1</ele>
        <time>2010-09-26T09:55:26Z</time>
      </trkpt>
      <trkpt lat="46.55666" lon="0.62424">
        <ele>112.6</ele>
        <time>2010-09-26T09:55:27Z</time>
      </trkpt>
      <trkpt lat="46.55643" lon="0.62408">
        <ele>112.9</ele>
        <time>2010-09-26T09:55:29Z</time>
      </trkpt>
      <trkpt lat="46.55632" lon="0.62396">
        <ele>113.5</ele>
        <time>2010-09-26T09:55:30Z</time>
      </trkpt>
      <trkpt lat="46.55622" lon="0.62381">
        <ele>113.5</ele>
        <time>2010-09-26T09:55:31Z</time>
      </trkpt>
      <trkpt lat="46.55614" lon="0.62363">
        <ele>113.9</ele>
        <time>2010-09-26T09:55:32Z</time>
      </trkpt>
      <trkpt lat="46.55608" lon="0.62343">
        <ele>114.5</ele>
        <time>2010-09-26T09:55:33Z</time>
      </trkpt>
      <trkpt lat="46.55604" lon="0.62322">
        <ele>114.4</ele>
        <time>2010-09-26T09:55:34Z</time>
      </trkpt>
      <trkpt lat="46.55602" lon="0.62303">
        <ele>114.8</ele>
        <time>2010-09-26T09:55:35Z</time>
      </trkpt>
      <trkpt lat="46.55601" lon="0.62284">
        <ele>115.4</ele>
        <time>2010-09-26T09:55:36Z</time>
      </trkpt>
      <trkpt lat="46.55605" lon="0.62245">
        <ele>116</ele>
        <time>2010-09-26T09:55:38Z</time>
      </trkpt>
      <trkpt lat="46.55609" lon="0.62186">
        <ele>116.5</ele>
        <time>2010-09-26T09:55:41Z</time>
      </trkpt>
      <trkpt lat="46.55608" lon="0.62172">
        <ele>116.4</ele>
        <time>2010-09-26T09:55:42Z</time>
      </trkpt>
      <trkpt lat="46.55603" lon="0.62141">
        <ele>115.8</ele>
        <time>2010-09-26T09:55:45Z</time>
      </trkpt>
      <trkpt lat="46.55599" lon="0.62134">
        <ele>115.3</ele>
        <time>2010-09-26T09:55:46Z</time>
      </trkpt>
      <trkpt lat="46.55591" lon="0.62131">
        <ele>115.5</ele>
        <time>2010-09-26T09:55:47Z</time>
      </trkpt>
      <trkpt lat="46.55581" lon="0.6213">
        <ele>116</ele>
        <time>2010-09-26T09:55:48Z</time>
      </trkpt>
      <trkpt lat="46.55545" lon="0.62126">
        <ele>115.1</ele>
        <time>2010-09-26T09:55:52Z</time>
      </trkpt>
      <trkpt lat="46.55542" lon="0.62123">
        <ele>115</ele>
        <time>2010-09-26T09:55:53Z</time>
      </trkpt>
      <trkpt lat="46.55542" lon="0.62118">
        <ele>115.5</ele>
        <time>2010-09-26T09:55:54Z</time>
      </trkpt>
      <trkpt lat="46.55537" lon="0.62101">
        <ele>116</ele>
        <time>2010-09-26T09:55:56Z</time>
      </trkpt>
      <trkpt lat="46.55532" lon="0.6209">
        <ele>116.1</ele>
        <time>2010-09-26T09:55:57Z</time>
      </trkpt>
      <trkpt lat="46.55524" lon="0.6208">
        <ele>115.5</ele>
        <time>2010-09-26T09:55:58Z</time>
      </trkpt>
      <trkpt lat="46.5551" lon="0.62066">
        <ele>115.8</ele>
        <time>2010-09-26T09:56:00Z</time>
      </trkpt>
      <trkpt lat="46.555" lon="0.62055">
        <ele>117</ele>
        <time>2010-09-26T09:56:02Z</time>
      </trkpt>
      <trkpt lat="46.55497" lon="0.62049">
        <ele>117</ele>
        <time>2010-09-26T09:56:03Z</time>
      </trkpt>
      <trkpt lat="46.55496" lon="0.6204">
        <ele>117</ele>
        <time>2010-09-26T09:56:04Z</time>
      </trkpt>
      <trkpt lat="46.55496" lon="0.62028">
        <ele>117.3</ele>
        <time>2010-09-26T09:56:05Z</time>
      </trkpt>
      <trkpt lat="46.55502" lon="0.61858">
        <ele>115.8</ele>
        <time>2010-09-26T09:56:15Z</time>
      </trkpt>
      <trkpt lat="46.555" lon="0.61837">
        <ele>115.9</ele>
        <time>2010-09-26T09:56:16Z</time>
      </trkpt>
      <trkpt lat="46.55491" lon="0.61304">
        <ele>121.5</ele>
        <time>2010-09-26T09:56:36Z</time>
      </trkpt>
      <trkpt lat="46.55492" lon="0.61298">
        <ele>121.1</ele>
        <time>2010-09-26T09:56:37Z</time>
      </trkpt>
      <trkpt lat="46.55493" lon="0.61295">
        <ele>122</ele>
        <time>2010-09-26T09:57:06Z</time>
      </trkpt>
      <trkpt lat="46.55495" lon="0.61034">
        <ele>121.3</ele>
        <time>2010-09-26T09:57:32Z</time>
      </trkpt>
      <trkpt lat="46.55498" lon="0.61005">
        <ele>121.5</ele>
        <time>2010-09-26T09:57:37Z</time>
      </trkpt>
      <trkpt lat="46.55501" lon="0.60993">
        <ele>121.5</ele>
        <time>2010-09-26T09:57:38Z</time>
      </trkpt>
      <trkpt lat="46.55515" lon="0.60926">
        <ele>121.3</ele>
        <time>2010-09-26T09:57:42Z</time>
      </trkpt>
      <trkpt lat="46.55517" lon="0.60905">
        <ele>121.5</ele>
        <time>2010-09-26T09:57:43Z</time>
      </trkpt>
      <trkpt lat="46.55519" lon="0.60841">
        <ele>122.8</ele>
        <time>2010-09-26T09:57:46Z</time>
      </trkpt>
      <trkpt lat="46.55516" lon="0.60638">
        <ele>124</ele>
        <time>2010-09-26T09:57:56Z</time>
      </trkpt>
      <trkpt lat="46.55514" lon="0.60611">
        <ele>123.5</ele>
        <time>2010-09-26T09:57:58Z</time>
      </trkpt>
      <trkpt lat="46.55512" lon="0.606">
        <ele>123.5</ele>
        <time>2010-09-26T09:57:59Z</time>
      </trkpt>
      <trkpt lat="46.55506" lon="0.60589">
        <ele>122.8</ele>
        <time>2010-09-26T09:58:00Z</time>
      </trkpt>
      <trkpt lat="46.5549" lon="0.60559">
        <ele>123</ele>
        <time>2010-09-26T09:58:03Z</time>
      </trkpt>
      <trkpt lat="46.55488" lon="0.60548">
        <ele>123.1</ele>
        <time>2010-09-26T09:58:04Z</time>
      </trkpt>
      <trkpt lat="46.55487" lon="0.60535">
        <ele>123.1</ele>
        <time>2010-09-26T09:58:05Z</time>
      </trkpt>
      <trkpt lat="46.55478" lon="0.59909">
        <ele>114</ele>
        <time>2010-09-26T09:58:40Z</time>
      </trkpt>
      <trkpt lat="46.55479" lon="0.59894">
        <ele>113</ele>
        <time>2010-09-26T09:58:41Z</time>
      </trkpt>
      <trkpt lat="46.55508" lon="0.59661">
        <ele>115</ele>
        <time>2010-09-26T09:58:55Z</time>
      </trkpt>
      <trkpt lat="46.55513" lon="0.59645">
        <ele>115</ele>
        <time>2010-09-26T09:58:56Z</time>
      </trkpt>
      <trkpt lat="46.55518" lon="0.59627">
        <ele>114.8</ele>
        <time>2010-09-26T09:58:57Z</time>
      </trkpt>
      <trkpt lat="46.55885" lon="0.58138">
        <ele>114.5</ele>
        <time>2010-09-26T10:00:29Z</time>
      </trkpt>
      <trkpt lat="46.55886" lon="0.58125">
        <ele>115.3</ele>
        <time>2010-09-26T10:00:30Z</time>
      </trkpt>
      <trkpt lat="46.55892" lon="0.58083">
        <ele>115.6</ele>
        <time>2010-09-26T10:00:33Z</time>
      </trkpt>
      <trkpt lat="46.55896" lon="0.58069">
        <ele>114.3</ele>
        <time>2010-09-26T10:00:34Z</time>
      </trkpt>
      <trkpt lat="46.56255" lon="0.56643">
        <ele>116.5</ele>
        <time>2010-09-26T10:01:59Z</time>
      </trkpt>
      <trkpt lat="46.56255" lon="0.56638">
        <ele>116.9</ele>
        <time>2010-09-26T10:02:00Z</time>
      </trkpt>
      <trkpt lat="46.56253" lon="0.56636">
        <ele>117.6</ele>
        <time>2010-09-26T10:02:01Z</time>
      </trkpt>
      <trkpt lat="46.56248" lon="0.56635">
        <ele>118.5</ele>
        <time>2010-09-26T10:02:02Z</time>
      </trkpt>
      <trkpt lat="46.56243" lon="0.56636">
        <ele>118</ele>
        <time>2010-09-26T10:02:03Z</time>
      </trkpt>
      <trkpt lat="46.55987" lon="0.56664">
        <ele>120</ele>
        <time>2010-09-26T10:02:22Z</time>
      </trkpt>
      <trkpt lat="46.55958" lon="0.56671">
        <ele>119.8</ele>
        <time>2010-09-26T10:02:24Z</time>
      </trkpt>
      <trkpt lat="46.55905" lon="0.56691">
        <ele>119.3</ele>
        <time>2010-09-26T10:02:28Z</time>
      </trkpt>
      <trkpt lat="46.55892" lon="0.56697">
        <ele>119.5</ele>
        <time>2010-09-26T10:02:29Z</time>
      </trkpt>
      <trkpt lat="46.5587" lon="0.56711">
        <ele>119.5</ele>
        <time>2010-09-26T10:02:31Z</time>
      </trkpt>
      <trkpt lat="46.55859" lon="0.56719">
        <ele>119.5</ele>
        <time>2010-09-26T10:02:32Z</time>
      </trkpt>
      <trkpt lat="46.55685" lon="0.56875">
        <ele>120.3</ele>
        <time>2010-09-26T10:02:52Z</time>
      </trkpt>
      <trkpt lat="46.55675" lon="0.5688">
        <ele>120.4</ele>
        <time>2010-09-26T10:02:53Z</time>
      </trkpt>
      <trkpt lat="46.556" lon="0.56912">
        <ele>121</ele>
        <time>2010-09-26T10:03:02Z</time>
      </trkpt>
      <trkpt lat="46.55597" lon="0.56909">
        <ele>121</ele>
        <time>2010-09-26T10:03:03Z</time>
      </trkpt>
      <trkpt lat="46.55594" lon="0.56904">
        <ele>121</ele>
        <time>2010-09-26T10:03:04Z</time>
      </trkpt>
      <trkpt lat="46.55592" lon="0.56895">
        <ele>120.8</ele>
        <time>2010-09-26T10:03:05Z</time>
      </trkpt>
      <trkpt lat="46.55526" lon="0.56613">
        <ele>121.8</ele>
        <time>2010-09-26T10:03:25Z</time>
      </trkpt>
      <trkpt lat="46.55522" lon="0.56604">
        <ele>121.5</ele>
        <time>2010-09-26T10:03:26Z</time>
      </trkpt>
      <trkpt lat="46.55516" lon="0.56585">
        <ele>121.8</ele>
        <time>2010-09-26T10:03:28Z</time>
      </trkpt>
      <trkpt lat="46.55511" lon="0.56566">
        <ele>122.3</ele>
        <time>2010-09-26T10:03:30Z</time>
      </trkpt>
      <trkpt lat="46.55508" lon="0.56542">
        <ele>122.8</ele>
        <time>2010-09-26T10:03:35Z</time>
      </trkpt>
      <trkpt lat="46.55509" lon="0.56538">
        <ele>123</ele>
        <time>2010-09-26T10:03:36Z</time>
      </trkpt>
      <trkpt lat="46.5551" lon="0.56534">
        <ele>123.4</ele>
        <time>2010-09-26T10:03:37Z</time>
      </trkpt>
      <trkpt lat="46.55515" lon="0.56529">
        <ele>123.6</ele>
        <time>2010-09-26T10:03:38Z</time>
      </trkpt>
      <trkpt lat="46.55594" lon="0.56452">
        <ele>121.1</ele>
        <time>2010-09-26T10:03:46Z</time>
      </trkpt>
      <trkpt lat="46.55607" lon="0.56436">
        <ele>120.5</ele>
        <time>2010-09-26T10:03:47Z</time>
      </trkpt>
      <trkpt lat="46.55701" lon="0.56317">
        <ele>118.6</ele>
        <time>2010-09-26T10:03:55Z</time>
      </trkpt>
      <trkpt lat="46.55713" lon="0.56307">
        <ele>118.6</ele>
        <time>2010-09-26T10:03:56Z</time>
      </trkpt>
      <trkpt lat="46.55737" lon="0.56292">
        <ele>118.5</ele>
        <time>2010-09-26T10:03:58Z</time>
      </trkpt>
      <trkpt lat="46.55862" lon="0.56223">
        <ele>121.5</ele>
        <time>2010-09-26T10:04:07Z</time>
      </trkpt>
      <trkpt lat="46.55876" lon="0.56219">
        <ele>121.8</ele>
        <time>2010-09-26T10:04:08Z</time>
      </trkpt>
      <trkpt lat="46.55929" lon="0.56201">
        <ele>123</ele>
        <time>2010-09-26T10:04:12Z</time>
      </trkpt>
      <trkpt lat="46.5594" lon="0.56195">
        <ele>123.4</ele>
        <time>2010-09-26T10:04:13Z</time>
      </trkpt>
      <trkpt lat="46.5595" lon="0.56186">
        <ele>123.6</ele>
        <time>2010-09-26T10:04:14Z</time>
      </trkpt>
      <trkpt lat="46.55958" lon="0.56176">
        <ele>124</ele>
        <time>2010-09-26T10:04:15Z</time>
      </trkpt>
      <trkpt lat="46.55965" lon="0.56164">
        <ele>124.4</ele>
        <time>2010-09-26T10:04:16Z</time>
      </trkpt>
      <trkpt lat="46.55995" lon="0.56119">
        <ele>123.9</ele>
        <time>2010-09-26T10:04:20Z</time>
      </trkpt>
      <trkpt lat="46.56001" lon="0.56114">
        <ele>124</ele>
        <time>2010-09-26T10:04:21Z</time>
      </trkpt>
      <trkpt lat="46.56008" lon="0.56104">
        <ele>124.1</ele>
        <time>2010-09-26T10:04:23Z</time>
      </trkpt>
      <trkpt lat="46.56009" lon="0.56098">
        <ele>124.4</ele>
        <time>2010-09-26T10:04:24Z</time>
      </trkpt>
      <trkpt lat="46.56007" lon="0.56092">
        <ele>124.5</ele>
        <time>2010-09-26T10:04:25Z</time>
      </trkpt>
      <trkpt lat="46.56001" lon="0.56088">
        <ele>124.5</ele>
        <time>2010-09-26T10:04:26Z</time>
      </trkpt>
      <trkpt lat="46.55993" lon="0.56084">
        <ele>124.4</ele>
        <time>2010-09-26T10:04:27Z</time>
      </trkpt>
      <trkpt lat="46.55874" lon="0.5603">
        <ele>121.6</ele>
        <time>2010-09-26T10:04:38Z</time>
      </trkpt>
      <trkpt lat="46.55863" lon="0.56022">
        <ele>121.6</ele>
        <time>2010-09-26T10:04:39Z</time>
      </trkpt>
      <trkpt lat="46.55843" lon="0.56">
        <ele>122.4</ele>
        <time>2010-09-26T10:04:41Z</time>
      </trkpt>
      <trkpt lat="46.55833" lon="0.55987">
        <ele>122.5</ele>
        <time>2010-09-26T10:04:42Z</time>
      </trkpt>
      <trkpt lat="46.55815" lon="0.55957">
        <ele>123</ele>
        <time>2010-09-26T10:04:44Z</time>
      </trkpt>
      <trkpt lat="46.55807" lon="0.5594">
        <ele>123</ele>
        <time>2010-09-26T10:04:45Z</time>
      </trkpt>
      <trkpt lat="46.5578" lon="0.55876">
        <ele>123</ele>
        <time>2010-09-26T10:04:49Z</time>
      </trkpt>
      <trkpt lat="46.55771" lon="0.55865">
        <ele>123.3</ele>
        <time>2010-09-26T10:04:50Z</time>
      </trkpt>
      <trkpt lat="46.55761" lon="0.55856">
        <ele>123.1</ele>
        <time>2010-09-26T10:04:51Z</time>
      </trkpt>
      <trkpt lat="46.5575" lon="0.55849">
        <ele>122.8</ele>
        <time>2010-09-26T10:04:52Z</time>
      </trkpt>
      <trkpt lat="46.55636" lon="0.55786">
        <ele>120</ele>
        <time>2010-09-26T10:05:03Z</time>
      </trkpt>
      <trkpt lat="46.55634" lon="0.55783">
        <ele>119.6</ele>
        <time>2010-09-26T10:05:04Z</time>
      </trkpt>
      <trkpt lat="46.55634" lon="0.55781">
        <ele>119.5</ele>
        <time>2010-09-26T10:05:05Z</time>
      </trkpt>
      <trkpt lat="46.55634" lon="0.55779">
        <ele>119.3</ele>
        <time>2010-09-26T10:05:06Z</time>
      </trkpt>
      <trkpt lat="46.55634" lon="0.55779">
        <ele>119.3</ele>
        <time>2010-09-26T10:05:07Z</time>
      </trkpt>
      <trkpt lat="46.55634" lon="0.55779">
        <ele>119.3</ele>
        <time>2010-09-26T10:05:08Z</time>
      </trkpt>
      <trkpt lat="46.55634" lon="0.55779">
        <ele>119.3</ele>
        <time>2010-09-26T10:05:09Z</time>
      </trkpt>
      <trkpt lat="46.55634" lon="0.55779">
        <ele>119.3</ele>
        <time>2010-09-26T10:05:10Z</time>
      </trkpt>
      <trkpt lat="46.55634" lon="0.55779">
        <ele>119.3</ele>
        <time>2010-09-26T10:05:11Z</time>
      </trkpt>
      <trkpt lat="46.55634" lon="0.55779">
        <ele>119.3</ele>
        <time>2010-09-26T10:05:12Z</time>
      </trkpt>
      <trkpt lat="46.55634" lon="0.55779">
        <ele>119.3</ele>
        <time>2010-09-26T10:05:13Z</time>
      </trkpt>
      <trkpt lat="46.55634" lon="0.55779">
        <ele>119.3</ele>
        <time>2010-09-26T10:05:14Z</time>
      </trkpt>
      <trkpt lat="46.55634" lon="0.55779">
        <ele>119.3</ele>
        <time>2010-09-26T10:05:15Z</time>
      </trkpt>
      <trkpt lat="46.55634" lon="0.55779">
        <ele>119.3</ele>
        <time>2010-09-26T10:05:16Z</time>
      </trkpt>
      <trkpt lat="46.55634" lon="0.55779">
        <ele>119.3</ele>
        <time>2010-09-26T10:05:17Z</time>
      </trkpt>
      <trkpt lat="46.55634" lon="0.55779">
        <ele>119.3</ele>
        <time>2010-09-26T10:05:18Z</time>
      </trkpt>
      <trkpt lat="46.55634" lon="0.55779">
        <ele>119.3</ele>
        <time>2010-09-26T10:05:19Z</time>
      </trkpt>
      <trkpt lat="46.55634" lon="0.55779">
        <ele>119.3</ele>
        <time>2010-09-26T10:05:20Z</time>
      </trkpt>
      <trkpt lat="46.55634" lon="0.55779">
        <ele>119.1</ele>
        <time>2010-09-26T10:05:21Z</time>
      </trkpt>
      <trkpt lat="46.55634" lon="0.55779">
        <ele>118.8</ele>
        <time>2010-09-26T10:05:22Z</time>
      </trkpt>
      <trkpt lat="46.55631" lon="0.55776">
        <ele>118.9</ele>
        <time>2010-09-26T10:05:24Z</time>
      </trkpt>
      <trkpt lat="46.55629" lon="0.55776">
        <ele>119</ele>
        <time>2010-09-26T10:05:25Z</time>
      </trkpt>
      <trkpt lat="46.55625" lon="0.55775">
        <ele>119.3</ele>
        <time>2010-09-26T10:05:26Z</time>
      </trkpt>
      <trkpt lat="46.5562" lon="0.55772">
        <ele>119.5</ele>
        <time>2010-09-26T10:05:27Z</time>
      </trkpt>
      <trkpt lat="46.55608" lon="0.55758">
        <ele>119</ele>
        <time>2010-09-26T10:05:29Z</time>
      </trkpt>
      <trkpt lat="46.55571" lon="0.55708">
        <ele>117.6</ele>
        <time>2010-09-26T10:05:33Z</time>
      </trkpt>
      <trkpt lat="46.55563" lon="0.55691">
        <ele>117.9</ele>
        <time>2010-09-26T10:05:34Z</time>
      </trkpt>
      <trkpt lat="46.55555" lon="0.55673">
        <ele>118</ele>
        <time>2010-09-26T10:05:35Z</time>
      </trkpt>
      <trkpt lat="46.55544" lon="0.55635">
        <ele>117.9</ele>
        <time>2010-09-26T10:05:37Z</time>
      </trkpt>
      <trkpt lat="46.55518" lon="0.55556">
        <ele>118</ele>
        <time>2010-09-26T10:05:41Z</time>
      </trkpt>
      <trkpt lat="46.5551" lon="0.5554">
        <ele>118</ele>
        <time>2010-09-26T10:05:42Z</time>
      </trkpt>
      <trkpt lat="46.55491" lon="0.5551">
        <ele>118</ele>
        <time>2010-09-26T10:05:44Z</time>
      </trkpt>
      <trkpt lat="46.55431" lon="0.5543">
        <ele>117.5</ele>
        <time>2010-09-26T10:05:50Z</time>
      </trkpt>
      <trkpt lat="46.55396" lon="0.55393">
        <ele>117.3</ele>
        <time>2010-09-26T10:05:53Z</time>
      </trkpt>
      <trkpt lat="46.5537" lon="0.5537">
        <ele>116.3</ele>
        <time>2010-09-26T10:05:55Z</time>
      </trkpt>
      <trkpt lat="46.55343" lon="0.55351">
        <ele>115.6</ele>
        <time>2010-09-26T10:05:57Z</time>
      </trkpt>
      <trkpt lat="46.55288" lon="0.55321">
        <ele>115</ele>
        <time>2010-09-26T10:06:01Z</time>
      </trkpt>
      <trkpt lat="46.55144" lon="0.55222">
        <ele>114.4</ele>
        <time>2010-09-26T10:06:13Z</time>
      </trkpt>
      <trkpt lat="46.5514" lon="0.55219">
        <ele>114.5</ele>
        <time>2010-09-26T10:06:14Z</time>
      </trkpt>
      <trkpt lat="46.55138" lon="0.55218">
        <ele>114.5</ele>
        <time>2010-09-26T10:06:18Z</time>
      </trkpt>
      <trkpt lat="46.55138" lon="0.55218">
        <ele>114.5</ele>
        <time>2010-09-26T10:06:19Z</time>
      </trkpt>
      <trkpt lat="46.55138" lon="0.55218">
        <ele>114.5</ele>
        <time>2010-09-26T10:06:20Z</time>
      </trkpt>
      <trkpt lat="46.55138" lon="0.55218">
        <ele>114.5</ele>
        <time>2010-09-26T10:06:21Z</time>
      </trkpt>
      <trkpt lat="46.55138" lon="0.55218">
        <ele>114.5</ele>
        <time>2010-09-26T10:06:22Z</time>
      </trkpt>
      <trkpt lat="46.55138" lon="0.55218">
        <ele>114.5</ele>
        <time>2010-09-26T10:06:23Z</time>
      </trkpt>
      <trkpt lat="46.55138" lon="0.55218">
        <ele>114.5</ele>
        <time>2010-09-26T10:06:24Z</time>
      </trkpt>
      <trkpt lat="46.55138" lon="0.55218">
        <ele>114.5</ele>
        <time>2010-09-26T10:06:25Z</time>
      </trkpt>
      <trkpt lat="46.55138" lon="0.55218">
        <ele>114.5</ele>
        <time>2010-09-26T10:06:26Z</time>
      </trkpt>
      <trkpt lat="46.55134" lon="0.55216">
        <ele>114.5</ele>
        <time>2010-09-26T10:06:27Z</time>
      </trkpt>
      <trkpt lat="46.54974" lon="0.55144">
        <ele>112.1</ele>
        <time>2010-09-26T10:06:44Z</time>
      </trkpt>
      <trkpt lat="46.5497" lon="0.55141">
        <ele>112</ele>
        <time>2010-09-26T10:06:45Z</time>
      </trkpt>
      <trkpt lat="46.54968" lon="0.55137">
        <ele>111.9</ele>
        <time>2010-09-26T10:06:46Z</time>
      </trkpt>
      <trkpt lat="46.54966" lon="0.55135">
        <ele>112.5</ele>
        <time>2010-09-26T10:06:47Z</time>
      </trkpt>
      <trkpt lat="46.54964" lon="0.55135">
        <ele>112.5</ele>
        <time>2010-09-26T10:06:48Z</time>
      </trkpt>
      <trkpt lat="46.54964" lon="0.55136">
        <ele>111.4</ele>
        <time>2010-09-26T10:06:49Z</time>
      </trkpt>
      <trkpt lat="46.54965" lon="0.55139">
        <ele>111</ele>
        <time>2010-09-26T10:06:50Z</time>
      </trkpt>
      <trkpt lat="46.54967" lon="0.55141">
        <ele>111</ele>
        <time>2010-09-26T10:06:51Z</time>
      </trkpt>
      <trkpt lat="46.54968" lon="0.55143">
        <ele>111.3</ele>
        <time>2010-09-26T10:06:52Z</time>
      </trkpt>
      <trkpt lat="46.5497" lon="0.55144">
        <ele>111.3</ele>
        <time>2010-09-26T10:06:53Z</time>
      </trkpt>
      <trkpt lat="46.54971" lon="0.55144">
        <ele>111.1</ele>
        <time>2010-09-26T10:06:54Z</time>
      </trkpt>
      <trkpt lat="46.54972" lon="0.55143">
        <ele>111.5</ele>
        <time>2010-09-26T10:06:55Z</time>
      </trkpt>
      <trkpt lat="46.54971" lon="0.5514">
        <ele>111.1</ele>
        <time>2010-09-26T10:06:56Z</time>
      </trkpt>
      <trkpt lat="46.54968" lon="0.55137">
        <ele>111.3</ele>
        <time>2010-09-26T10:06:57Z</time>
      </trkpt>
      <trkpt lat="46.54962" lon="0.55133">
        <ele>111.1</ele>
        <time>2010-09-26T10:06:58Z</time>
      </trkpt>
      <trkpt lat="46.54392" lon="0.5478">
        <ele>117</ele>
        <time>2010-09-26T10:07:48Z</time>
      </trkpt>
      <trkpt lat="46.54389" lon="0.54779">
        <ele>117</ele>
        <time>2010-09-26T10:07:49Z</time>
      </trkpt>
      <trkpt lat="46.54368" lon="0.54772">
        <ele>117.9</ele>
        <time>2010-09-26T10:07:53Z</time>
      </trkpt>
      <trkpt lat="46.5436" lon="0.54767">
        <ele>118</ele>
        <time>2010-09-26T10:07:54Z</time>
      </trkpt>
      <trkpt lat="46.54175" lon="0.54661">
        <ele>115.5</ele>
        <time>2010-09-26T10:08:10Z</time>
      </trkpt>
      <trkpt lat="46.5417" lon="0.54654">
        <ele>115.8</ele>
        <time>2010-09-26T10:08:11Z</time>
      </trkpt>
      <trkpt lat="46.5417" lon="0.54644">
        <ele>115.6</ele>
        <time>2010-09-26T10:08:12Z</time>
      </trkpt>
      <trkpt lat="46.54171" lon="0.54634">
        <ele>116.8</ele>
        <time>2010-09-26T10:08:13Z</time>
      </trkpt>
      <trkpt lat="46.54176" lon="0.54622">
        <ele>117.5</ele>
        <time>2010-09-26T10:08:14Z</time>
      </trkpt>
      <trkpt lat="46.54185" lon="0.54592">
        <ele>118.3</ele>
        <time>2010-09-26T10:08:16Z</time>
      </trkpt>
      <trkpt lat="46.5419" lon="0.54574">
        <ele>118.8</ele>
        <time>2010-09-26T10:08:17Z</time>
      </trkpt>
      <trkpt lat="46.54205" lon="0.54506">
        <ele>120</ele>
        <time>2010-09-26T10:08:21Z</time>
      </trkpt>
      <trkpt lat="46.54206" lon="0.54494">
        <ele>120.1</ele>
        <time>2010-09-26T10:08:22Z</time>
      </trkpt>
      <trkpt lat="46.54205" lon="0.54483">
        <ele>120.3</ele>
        <time>2010-09-26T10:08:23Z</time>
      </trkpt>
      <trkpt lat="46.542" lon="0.54472">
        <ele>121.1</ele>
        <time>2010-09-26T10:08:24Z</time>
      </trkpt>
      <trkpt lat="46.54191" lon="0.54462">
        <ele>122.9</ele>
        <time>2010-09-26T10:08:25Z</time>
      </trkpt>
      <trkpt lat="46.53901" lon="0.54077">
        <ele>118.1</ele>
        <time>2010-09-26T10:08:47Z</time>
      </trkpt>
      <trkpt lat="46.5389" lon="0.54056">
        <ele>118.1</ele>
        <time>2010-09-26T10:08:48Z</time>
      </trkpt>
      <trkpt lat="46.53587" lon="0.53499">
        <ele>120.5</ele>
        <time>2010-09-26T10:09:19Z</time>
      </trkpt>
      <trkpt lat="46.53581" lon="0.53491">
        <ele>120.4</ele>
        <time>2010-09-26T10:09:20Z</time>
      </trkpt>
      <trkpt lat="46.53567" lon="0.53476">
        <ele>120.6</ele>
        <time>2010-09-26T10:09:22Z</time>
      </trkpt>
      <trkpt lat="46.53559" lon="0.5347">
        <ele>120.6</ele>
        <time>2010-09-26T10:09:23Z</time>
      </trkpt>
      <trkpt lat="46.53543" lon="0.53458">
        <ele>120.5</ele>
        <time>2010-09-26T10:09:25Z</time>
      </trkpt>
      <trkpt lat="46.53497" lon="0.53434">
        <ele>121</ele>
        <time>2010-09-26T10:09:30Z</time>
      </trkpt>
      <trkpt lat="46.53444" lon="0.53403">
        <ele>121.4</ele>
        <time>2010-09-26T10:09:36Z</time>
      </trkpt>
      <trkpt lat="46.53424" lon="0.53388">
        <ele>121.4</ele>
        <time>2010-09-26T10:09:39Z</time>
      </trkpt>
      <trkpt lat="46.53413" lon="0.53378">
        <ele>123.3</ele>
        <time>2010-09-26T10:09:42Z</time>
      </trkpt>
      <trkpt lat="46.53411" lon="0.53376">
        <ele>123.5</ele>
        <time>2010-09-26T10:09:43Z</time>
      </trkpt>
      <trkpt lat="46.53411" lon="0.53374">
        <ele>123.5</ele>
        <time>2010-09-26T10:09:44Z</time>
      </trkpt>
      <trkpt lat="46.5341" lon="0.53372">
        <ele>123.3</ele>
        <time>2010-09-26T10:09:45Z</time>
      </trkpt>
      <trkpt lat="46.53407" lon="0.53361">
        <ele>123.6</ele>
        <time>2010-09-26T10:09:48Z</time>
      </trkpt>
      <trkpt lat="46.53405" lon="0.53357">
        <ele>123.5</ele>
        <time>2010-09-26T10:09:49Z</time>
      </trkpt>
      <trkpt lat="46.53403" lon="0.53354">
        <ele>124</ele>
        <time>2010-09-26T10:09:50Z</time>
      </trkpt>
      <trkpt lat="46.53397" lon="0.53344">
        <ele>124</ele>
        <time>2010-09-26T10:09:52Z</time>
      </trkpt>
      <trkpt lat="46.53394" lon="0.53337">
        <ele>124</ele>
        <time>2010-09-26T10:09:53Z</time>
      </trkpt>
      <trkpt lat="46.53277" lon="0.53101">
        <ele>122.1</ele>
        <time>2010-09-26T10:10:08Z</time>
      </trkpt>
      <trkpt lat="46.53256" lon="0.53068">
        <ele>121.8</ele>
        <time>2010-09-26T10:10:10Z</time>
      </trkpt>
      <trkpt lat="46.53231" lon="0.53037">
        <ele>122</ele>
        <time>2010-09-26T10:10:12Z</time>
      </trkpt>
      <trkpt lat="46.53175" lon="0.52978">
        <ele>123</ele>
        <time>2010-09-26T10:10:16Z</time>
      </trkpt>
      <trkpt lat="46.53065" lon="0.52859">
        <ele>124.5</ele>
        <time>2010-09-26T10:10:25Z</time>
      </trkpt>
      <trkpt lat="46.53049" lon="0.52848">
        <ele>124.6</ele>
        <time>2010-09-26T10:10:26Z</time>
      </trkpt>
      <trkpt lat="46.53016" lon="0.52829">
        <ele>124.5</ele>
        <time>2010-09-26T10:10:28Z</time>
      </trkpt>
      <trkpt lat="46.52907" lon="0.52756">
        <ele>125</ele>
        <time>2010-09-26T10:10:35Z</time>
      </trkpt>
      <trkpt lat="46.52893" lon="0.52741">
        <ele>125</ele>
        <time>2010-09-26T10:10:36Z</time>
      </trkpt>
      <trkpt lat="46.52832" lon="0.52665">
        <ele>125</ele>
        <time>2010-09-26T10:10:41Z</time>
      </trkpt>
      <trkpt lat="46.52825" lon="0.52649">
        <ele>125.4</ele>
        <time>2010-09-26T10:10:42Z</time>
      </trkpt>
      <trkpt lat="46.52821" lon="0.5263">
        <ele>126</ele>
        <time>2010-09-26T10:10:43Z</time>
      </trkpt>
      <trkpt lat="46.5282" lon="0.5261">
        <ele>126</ele>
        <time>2010-09-26T10:10:44Z</time>
      </trkpt>
      <trkpt lat="46.52819" lon="0.52501">
        <ele>126.3</ele>
        <time>2010-09-26T10:10:51Z</time>
      </trkpt>
      <trkpt lat="46.52817" lon="0.5249">
        <ele>126.3</ele>
        <time>2010-09-26T10:10:52Z</time>
      </trkpt>
      <trkpt lat="46.52811" lon="0.52424">
        <ele>127.6</ele>
        <time>2010-09-26T10:10:56Z</time>
      </trkpt>
      <trkpt lat="46.52811" lon="0.52405">
        <ele>127.6</ele>
        <time>2010-09-26T10:10:57Z</time>
      </trkpt>
      <trkpt lat="46.52813" lon="0.52386">
        <ele>127.6</ele>
        <time>2010-09-26T10:10:58Z</time>
      </trkpt>
      <trkpt lat="46.52817" lon="0.52367">
        <ele>127.5</ele>
        <time>2010-09-26T10:10:59Z</time>
      </trkpt>
      <trkpt lat="46.52824" lon="0.52347">
        <ele>128.3</ele>
        <time>2010-09-26T10:11:00Z</time>
      </trkpt>
      <trkpt lat="46.52841" lon="0.52309">
        <ele>128.8</ele>
        <time>2010-09-26T10:11:02Z</time>
      </trkpt>
      <trkpt lat="46.52935" lon="0.52113">
        <ele>128.6</ele>
        <time>2010-09-26T10:11:11Z</time>
      </trkpt>
      <trkpt lat="46.52943" lon="0.52089">
        <ele>128.5</ele>
        <time>2010-09-26T10:11:12Z</time>
      </trkpt>
      <trkpt lat="46.52982" lon="0.51974">
        <ele>129.3</ele>
        <time>2010-09-26T10:11:17Z</time>
      </trkpt>
      <trkpt lat="46.52993" lon="0.51955">
        <ele>129.6</ele>
        <time>2010-09-26T10:11:18Z</time>
      </trkpt>
      <trkpt lat="46.53075" lon="0.51814">
        <ele>128.8</ele>
        <time>2010-09-26T10:11:26Z</time>
      </trkpt>
      <trkpt lat="46.53084" lon="0.51793">
        <ele>128.8</ele>
        <time>2010-09-26T10:11:27Z</time>
      </trkpt>
      <trkpt lat="46.53098" lon="0.51747">
        <ele>128.3</ele>
        <time>2010-09-26T10:11:29Z</time>
      </trkpt>
      <trkpt lat="46.5314" lon="0.51625">
        <ele>127.8</ele>
        <time>2010-09-26T10:11:35Z</time>
      </trkpt>
      <trkpt lat="46.53154" lon="0.51598">
        <ele>127.6</ele>
        <time>2010-09-26T10:11:37Z</time>
      </trkpt>
      <trkpt lat="46.53168" lon="0.51577">
        <ele>127.4</ele>
        <time>2010-09-26T10:11:39Z</time>
      </trkpt>
      <trkpt lat="46.53175" lon="0.5157">
        <ele>126.5</ele>
        <time>2010-09-26T10:11:40Z</time>
      </trkpt>
      <trkpt lat="46.53182" lon="0.51565">
        <ele>126.9</ele>
        <time>2010-09-26T10:11:41Z</time>
      </trkpt>
      <trkpt lat="46.53283" lon="0.51501">
        <ele>125.9</ele>
        <time>2010-09-26T10:11:53Z</time>
      </trkpt>
      <trkpt lat="46.53292" lon="0.51491">
        <ele>125.3</ele>
        <time>2010-09-26T10:11:54Z</time>
      </trkpt>
      <trkpt lat="46.5331" lon="0.51469">
        <ele>123.8</ele>
        <time>2010-09-26T10:11:56Z</time>
      </trkpt>
      <trkpt lat="46.53336" lon="0.51428">
        <ele>122.9</ele>
        <time>2010-09-26T10:11:59Z</time>
      </trkpt>
      <trkpt lat="46.53344" lon="0.51414">
        <ele>121.5</ele>
        <time>2010-09-26T10:12:00Z</time>
      </trkpt>
      <trkpt lat="46.53417" lon="0.51295">
        <ele>121</ele>
        <time>2010-09-26T10:12:09Z</time>
      </trkpt>
      <trkpt lat="46.5354" lon="0.51095">
        <ele>118.8</ele>
        <time>2010-09-26T10:12:23Z</time>
      </trkpt>
      <trkpt lat="46.53549" lon="0.51086">
        <ele>118.9</ele>
        <time>2010-09-26T10:12:24Z</time>
      </trkpt>
      <trkpt lat="46.53596" lon="0.51036">
        <ele>118</ele>
        <time>2010-09-26T10:12:30Z</time>
      </trkpt>
      <trkpt lat="46.53601" lon="0.51027">
        <ele>118</ele>
        <time>2010-09-26T10:12:31Z</time>
      </trkpt>
      <trkpt lat="46.53606" lon="0.51016">
        <ele>118</ele>
        <time>2010-09-26T10:12:32Z</time>
      </trkpt>
      <trkpt lat="46.53633" lon="0.50958">
        <ele>117.6</ele>
        <time>2010-09-26T10:12:37Z</time>
      </trkpt>
      <trkpt lat="46.53726" lon="0.50776">
        <ele>117.5</ele>
        <time>2010-09-26T10:12:50Z</time>
      </trkpt>
      <trkpt lat="46.53866" lon="0.50524">
        <ele>119</ele>
        <time>2010-09-26T10:13:05Z</time>
      </trkpt>
      <trkpt lat="46.53872" lon="0.50506">
        <ele>119.4</ele>
        <time>2010-09-26T10:13:06Z</time>
      </trkpt>
      <trkpt lat="46.53901" lon="0.50414">
        <ele>119.8</ele>
        <time>2010-09-26T10:13:11Z</time>
      </trkpt>
      <trkpt lat="46.53905" lon="0.50396">
        <ele>119.6</ele>
        <time>2010-09-26T10:13:12Z</time>
      </trkpt>
      <trkpt lat="46.54051" lon="0.49842">
        <ele>123.8</ele>
        <time>2010-09-26T10:13:55Z</time>
      </trkpt>
      <trkpt lat="46.54055" lon="0.49831">
        <ele>124</ele>
        <time>2010-09-26T10:13:56Z</time>
      </trkpt>
      <trkpt lat="46.54078" lon="0.49784">
        <ele>125.4</ele>
        <time>2010-09-26T10:14:02Z</time>
      </trkpt>
      <trkpt lat="46.54082" lon="0.49776">
        <ele>125</ele>
        <time>2010-09-26T10:14:09Z</time>
      </trkpt>
      <trkpt lat="46.54128" lon="0.49663">
        <ele>124.9</ele>
        <time>2010-09-26T10:14:23Z</time>
      </trkpt>
      <trkpt lat="46.54133" lon="0.49658">
        <ele>124.9</ele>
        <time>2010-09-26T10:14:24Z</time>
      </trkpt>
      <trkpt lat="46.54148" lon="0.49641">
        <ele>125.3</ele>
        <time>2010-09-26T10:14:27Z</time>
      </trkpt>
      <trkpt lat="46.54153" lon="0.49633">
        <ele>125.1</ele>
        <time>2010-09-26T10:14:28Z</time>
      </trkpt>
      <trkpt lat="46.5416" lon="0.49616">
        <ele>125.1</ele>
        <time>2010-09-26T10:14:30Z</time>
      </trkpt>
      <trkpt lat="46.54561" lon="0.48783">
        <ele>117</ele>
        <time>2010-09-26T10:15:21Z</time>
      </trkpt>
      <trkpt lat="46.54569" lon="0.4877">
        <ele>116.9</ele>
        <time>2010-09-26T10:15:22Z</time>
      </trkpt>
      <trkpt lat="46.54615" lon="0.48696">
        <ele>118.5</ele>
        <time>2010-09-26T10:15:29Z</time>
      </trkpt>
      <trkpt lat="46.54622" lon="0.48692">
        <ele>118.9</ele>
        <time>2010-09-26T10:15:30Z</time>
      </trkpt>
      <trkpt lat="46.5463" lon="0.48692">
        <ele>119</ele>
        <time>2010-09-26T10:15:31Z</time>
      </trkpt>
      <trkpt lat="46.54641" lon="0.48697">
        <ele>118.9</ele>
        <time>2010-09-26T10:15:32Z</time>
      </trkpt>
      <trkpt lat="46.54684" lon="0.48724">
        <ele>117.5</ele>
        <time>2010-09-26T10:15:36Z</time>
      </trkpt>
      <trkpt lat="46.54695" lon="0.48736">
        <ele>117.5</ele>
        <time>2010-09-26T10:15:37Z</time>
      </trkpt>
      <trkpt lat="46.54704" lon="0.48751">
        <ele>117.4</ele>
        <time>2010-09-26T10:15:38Z</time>
      </trkpt>
      <trkpt lat="46.54814" lon="0.4898">
        <ele>119.9</ele>
        <time>2010-09-26T10:15:51Z</time>
      </trkpt>
      <trkpt lat="46.54824" lon="0.49">
        <ele>120.3</ele>
        <time>2010-09-26T10:15:53Z</time>
      </trkpt>
      <trkpt lat="46.54828" lon="0.49005">
        <ele>120.3</ele>
        <time>2010-09-26T10:15:54Z</time>
      </trkpt>
      <trkpt lat="46.54833" lon="0.49006">
        <ele>120.1</ele>
        <time>2010-09-26T10:15:55Z</time>
      </trkpt>
      <trkpt lat="46.54837" lon="0.49004">
        <ele>121.1</ele>
        <time>2010-09-26T10:15:56Z</time>
      </trkpt>
      <trkpt lat="46.54841" lon="0.49001">
        <ele>120.5</ele>
        <time>2010-09-26T10:15:57Z</time>
      </trkpt>
      <trkpt lat="46.54845" lon="0.48996">
        <ele>120</ele>
        <time>2010-09-26T10:15:58Z</time>
      </trkpt>
      <trkpt lat="46.54849" lon="0.48992">
        <ele>119.9</ele>
        <time>2010-09-26T10:15:59Z</time>
      </trkpt>
      <trkpt lat="46.54851" lon="0.48988">
        <ele>118.9</ele>
        <time>2010-09-26T10:16:00Z</time>
      </trkpt>
      <trkpt lat="46.54852" lon="0.48985">
        <ele>118.5</ele>
        <time>2010-09-26T10:16:01Z</time>
      </trkpt>
      <trkpt lat="46.54854" lon="0.48977">
        <ele>118.5</ele>
        <time>2010-09-26T10:16:04Z</time>
      </trkpt>
      <trkpt lat="46.54855" lon="0.48972">
        <ele>118.5</ele>
        <time>2010-09-26T10:16:05Z</time>
      </trkpt>
      <trkpt lat="46.54855" lon="0.48964">
        <ele>118.5</ele>
        <time>2010-09-26T10:16:06Z</time>
      </trkpt>
      <trkpt lat="46.54854" lon="0.48955">
        <ele>118.3</ele>
        <time>2010-09-26T10:16:07Z</time>
      </trkpt>
      <trkpt lat="46.5485" lon="0.48943">
        <ele>118</ele>
        <time>2010-09-26T10:16:08Z</time>
      </trkpt>
      <trkpt lat="46.5484" lon="0.48908">
        <ele>117.4</ele>
        <time>2010-09-26T10:16:11Z</time>
      </trkpt>
      <trkpt lat="46.54838" lon="0.48895">
        <ele>117.4</ele>
        <time>2010-09-26T10:16:12Z</time>
      </trkpt>
      <trkpt lat="46.54838" lon="0.48883">
        <ele>117.5</ele>
        <time>2010-09-26T10:16:13Z</time>
      </trkpt>
      <trkpt lat="46.54839" lon="0.4886">
        <ele>117.1</ele>
        <time>2010-09-26T10:16:15Z</time>
      </trkpt>
      <trkpt lat="46.54843" lon="0.48822">
        <ele>115.4</ele>
        <time>2010-09-26T10:16:20Z</time>
      </trkpt>
      <trkpt lat="46.54841" lon="0.48817">
        <ele>115</ele>
        <time>2010-09-26T10:16:21Z</time>
      </trkpt>
      <trkpt lat="46.54836" lon="0.48814">
        <ele>115.3</ele>
        <time>2010-09-26T10:16:22Z</time>
      </trkpt>
      <trkpt lat="46.5483" lon="0.48811">
        <ele>115</ele>
        <time>2010-09-26T10:16:23Z</time>
      </trkpt>
      <trkpt lat="46.54722" lon="0.48748">
        <ele>116.1</ele>
        <time>2010-09-26T10:16:33Z</time>
      </trkpt>
      <trkpt lat="46.54711" lon="0.48737">
        <ele>116.3</ele>
        <time>2010-09-26T10:16:34Z</time>
      </trkpt>
      <trkpt lat="46.54701" lon="0.48723">
        <ele>116.4</ele>
        <time>2010-09-26T10:16:35Z</time>
      </trkpt>
      <trkpt lat="46.54645" lon="0.48617">
        <ele>117.1</ele>
        <time>2010-09-26T10:16:42Z</time>
      </trkpt>
      <trkpt lat="46.54643" lon="0.48606">
        <ele>117.9</ele>
        <time>2010-09-26T10:16:43Z</time>
      </trkpt>
      <trkpt lat="46.54643" lon="0.48594">
        <ele>118.3</ele>
        <time>2010-09-26T10:16:44Z</time>
      </trkpt>
      <trkpt lat="46.54647" lon="0.48582">
        <ele>118.6</ele>
        <time>2010-09-26T10:16:45Z</time>
      </trkpt>
      <trkpt lat="46.54653" lon="0.48568">
        <ele>119</ele>
        <time>2010-09-26T10:16:46Z</time>
      </trkpt>
      <trkpt lat="46.54726" lon="0.48445">
        <ele>117.9</ele>
        <time>2010-09-26T10:16:54Z</time>
      </trkpt>
      <trkpt lat="46.5478" lon="0.48361">
        <ele>116.9</ele>
        <time>2010-09-26T10:17:00Z</time>
      </trkpt>
      <trkpt lat="46.54787" lon="0.48342">
        <ele>117.3</ele>
        <time>2010-09-26T10:17:01Z</time>
      </trkpt>
      <trkpt lat="46.54814" lon="0.48286">
        <ele>117.3</ele>
        <time>2010-09-26T10:17:04Z</time>
      </trkpt>
      <trkpt lat="46.54979" lon="0.47967">
        <ele>110.6</ele>
        <time>2010-09-26T10:17:20Z</time>
      </trkpt>
      <trkpt lat="46.54992" lon="0.47951">
        <ele>111.3</ele>
        <time>2010-09-26T10:17:21Z</time>
      </trkpt>
      <trkpt lat="46.55061" lon="0.4787">
        <ele>111.3</ele>
        <time>2010-09-26T10:17:27Z</time>
      </trkpt>
      <trkpt lat="46.55067" lon="0.47851">
        <ele>111.8</ele>
        <time>2010-09-26T10:17:28Z</time>
      </trkpt>
      <trkpt lat="46.5516" lon="0.47517">
        <ele>113</ele>
        <time>2010-09-26T10:17:45Z</time>
      </trkpt>
      <trkpt lat="46.55163" lon="0.47501">
        <ele>112.3</ele>
        <time>2010-09-26T10:17:46Z</time>
      </trkpt>
      <trkpt lat="46.55167" lon="0.47463">
        <ele>110.9</ele>
        <time>2010-09-26T10:17:49Z</time>
      </trkpt>
      <trkpt lat="46.55172" lon="0.47434">
        <ele>110.9</ele>
        <time>2010-09-26T10:17:51Z</time>
      </trkpt>
      <trkpt lat="46.55224" lon="0.4716">
        <ele>109.6</ele>
        <time>2010-09-26T10:18:04Z</time>
      </trkpt>
      <trkpt lat="46.55225" lon="0.47137">
        <ele>108.6</ele>
        <time>2010-09-26T10:18:05Z</time>
      </trkpt>
      <trkpt lat="46.55231" lon="0.46783">
        <ele>111.6</ele>
        <time>2010-09-26T10:18:20Z</time>
      </trkpt>
      <trkpt lat="46.55229" lon="0.4676">
        <ele>111.9</ele>
        <time>2010-09-26T10:18:21Z</time>
      </trkpt>
      <trkpt lat="46.55221" lon="0.46715">
        <ele>113</ele>
        <time>2010-09-26T10:18:23Z</time>
      </trkpt>
      <trkpt lat="46.55204" lon="0.46589">
        <ele>116.4</ele>
        <time>2010-09-26T10:18:29Z</time>
      </trkpt>
      <trkpt lat="46.55203" lon="0.46569">
        <ele>117</ele>
        <time>2010-09-26T10:18:30Z</time>
      </trkpt>
      <trkpt lat="46.55208" lon="0.46412">
        <ele>118.9</ele>
        <time>2010-09-26T10:18:41Z</time>
      </trkpt>
      <trkpt lat="46.55216" lon="0.46324">
        <ele>119.1</ele>
        <time>2010-09-26T10:18:46Z</time>
      </trkpt>
      <trkpt lat="46.55222" lon="0.46299">
        <ele>120</ele>
        <time>2010-09-26T10:18:47Z</time>
      </trkpt>
      <trkpt lat="46.5524" lon="0.46232">
        <ele>121.3</ele>
        <time>2010-09-26T10:18:50Z</time>
      </trkpt>
      <trkpt lat="46.55253" lon="0.46202">
        <ele>121</ele>
        <time>2010-09-26T10:18:52Z</time>
      </trkpt>
      <trkpt lat="46.55269" lon="0.46174">
        <ele>119.9</ele>
        <time>2010-09-26T10:18:54Z</time>
      </trkpt>
      <trkpt lat="46.553" lon="0.46118">
        <ele>119</ele>
        <time>2010-09-26T10:18:58Z</time>
      </trkpt>
      <trkpt lat="46.55304" lon="0.46105">
        <ele>118.6</ele>
        <time>2010-09-26T10:18:59Z</time>
      </trkpt>
      <trkpt lat="46.55306" lon="0.46091">
        <ele>118.5</ele>
        <time>2010-09-26T10:19:00Z</time>
      </trkpt>
      <trkpt lat="46.55307" lon="0.46078">
        <ele>118.5</ele>
        <time>2010-09-26T10:19:01Z</time>
      </trkpt>
      <trkpt lat="46.55308" lon="0.4604">
        <ele>118.1</ele>
        <time>2010-09-26T10:19:04Z</time>
      </trkpt>
      <trkpt lat="46.5532" lon="0.45848">
        <ele>116</ele>
        <time>2010-09-26T10:19:20Z</time>
      </trkpt>
      <trkpt lat="46.55324" lon="0.45831">
        <ele>115.4</ele>
        <time>2010-09-26T10:19:21Z</time>
      </trkpt>
      <trkpt lat="46.55329" lon="0.45816">
        <ele>114.9</ele>
        <time>2010-09-26T10:19:22Z</time>
      </trkpt>
      <trkpt lat="46.55339" lon="0.458">
        <ele>114</ele>
        <time>2010-09-26T10:19:23Z</time>
      </trkpt>
      <trkpt lat="46.55351" lon="0.45786">
        <ele>113.5</ele>
        <time>2010-09-26T10:19:24Z</time>
      </trkpt>
      <trkpt lat="46.55398" lon="0.45731">
        <ele>111.4</ele>
        <time>2010-09-26T10:19:28Z</time>
      </trkpt>
      <trkpt lat="46.55408" lon="0.45713">
        <ele>111.1</ele>
        <time>2010-09-26T10:19:29Z</time>
      </trkpt>
      <trkpt lat="46.55494" lon="0.45544">
        <ele>112.5</ele>
        <time>2010-09-26T10:19:38Z</time>
      </trkpt>
      <trkpt lat="46.55504" lon="0.45532">
        <ele>113</ele>
        <time>2010-09-26T10:19:39Z</time>
      </trkpt>
      <trkpt lat="46.55592" lon="0.45409">
        <ele>113.6</ele>
        <time>2010-09-26T10:19:48Z</time>
      </trkpt>
      <trkpt lat="46.55596" lon="0.45401">
        <ele>113.4</ele>
        <time>2010-09-26T10:19:49Z</time>
      </trkpt>
      <trkpt lat="46.55597" lon="0.45392">
        <ele>114</ele>
        <time>2010-09-26T10:19:50Z</time>
      </trkpt>
      <trkpt lat="46.55595" lon="0.45382">
        <ele>114</ele>
        <time>2010-09-26T10:19:51Z</time>
      </trkpt>
      <trkpt lat="46.5559" lon="0.45368">
        <ele>114.4</ele>
        <time>2010-09-26T10:19:52Z</time>
      </trkpt>
      <trkpt lat="46.55559" lon="0.45304">
        <ele>115.4</ele>
        <time>2010-09-26T10:19:55Z</time>
      </trkpt>
      <trkpt lat="46.5548" lon="0.45116">
        <ele>116.5</ele>
        <time>2010-09-26T10:20:04Z</time>
      </trkpt>
      <trkpt lat="46.55477" lon="0.45099">
        <ele>115.6</ele>
        <time>2010-09-26T10:20:05Z</time>
      </trkpt>
      <trkpt lat="46.55477" lon="0.4508">
        <ele>115.4</ele>
        <time>2010-09-26T10:20:06Z</time>
      </trkpt>
      <trkpt lat="46.55476" lon="0.44956">
        <ele>115.8</ele>
        <time>2010-09-26T10:20:12Z</time>
      </trkpt>
      <trkpt lat="46.55473" lon="0.44939">
        <ele>115.5</ele>
        <time>2010-09-26T10:20:13Z</time>
      </trkpt>
      <trkpt lat="46.55469" lon="0.44923">
        <ele>116.3</ele>
        <time>2010-09-26T10:20:14Z</time>
      </trkpt>
      <trkpt lat="46.55458" lon="0.44889">
        <ele>116.5</ele>
        <time>2010-09-26T10:20:16Z</time>
      </trkpt>
      <trkpt lat="46.55445" lon="0.4486">
        <ele>116.6</ele>
        <time>2010-09-26T10:20:18Z</time>
      </trkpt>
      <trkpt lat="46.5543" lon="0.44835">
        <ele>116.9</ele>
        <time>2010-09-26T10:20:20Z</time>
      </trkpt>
      <trkpt lat="46.55421" lon="0.44823">
        <ele>116.8</ele>
        <time>2010-09-26T10:20:21Z</time>
      </trkpt>
      <trkpt lat="46.55411" lon="0.44811">
        <ele>116.6</ele>
        <time>2010-09-26T10:20:22Z</time>
      </trkpt>
      <trkpt lat="46.54924" lon="0.44317">
        <ele>122.3</ele>
        <time>2010-09-26T10:21:06Z</time>
      </trkpt>
      <trkpt lat="46.54914" lon="0.44309">
        <ele>122.1</ele>
        <time>2010-09-26T10:21:07Z</time>
      </trkpt>
      <trkpt lat="46.54854" lon="0.44244">
        <ele>123</ele>
        <time>2010-09-26T10:21:14Z</time>
      </trkpt>
      <trkpt lat="46.54849" lon="0.44232">
        <ele>122.9</ele>
        <time>2010-09-26T10:21:15Z</time>
      </trkpt>
      <trkpt lat="46.54846" lon="0.44219">
        <ele>123</ele>
        <time>2010-09-26T10:21:16Z</time>
      </trkpt>
      <trkpt lat="46.54821" lon="0.44126">
        <ele>122</ele>
        <time>2010-09-26T10:21:22Z</time>
      </trkpt>
      <trkpt lat="46.54815" lon="0.44113">
        <ele>122</ele>
        <time>2010-09-26T10:21:23Z</time>
      </trkpt>
      <trkpt lat="46.54796" lon="0.44074">
        <ele>121.5</ele>
        <time>2010-09-26T10:21:26Z</time>
      </trkpt>
      <trkpt lat="46.54789" lon="0.44063">
        <ele>122</ele>
        <time>2010-09-26T10:21:27Z</time>
      </trkpt>
      <trkpt lat="46.54724" lon="0.43969">
        <ele>121.9</ele>
        <time>2010-09-26T10:21:37Z</time>
      </trkpt>
      <trkpt lat="46.54715" lon="0.43959">
        <ele>121.9</ele>
        <time>2010-09-26T10:21:38Z</time>
      </trkpt>
      <trkpt lat="46.54664" lon="0.43912">
        <ele>122.4</ele>
        <time>2010-09-26T10:21:43Z</time>
      </trkpt>
      <trkpt lat="46.54455" lon="0.4372">
        <ele>131.3</ele>
        <time>2010-09-26T10:22:01Z</time>
      </trkpt>
      <trkpt lat="46.54447" lon="0.43706">
        <ele>131.6</ele>
        <time>2010-09-26T10:22:02Z</time>
      </trkpt>
      <trkpt lat="46.54423" lon="0.43647">
        <ele>135.5</ele>
        <time>2010-09-26T10:22:07Z</time>
      </trkpt>
      <trkpt lat="46.54423" lon="0.43637">
        <ele>135.8</ele>
        <time>2010-09-26T10:22:08Z</time>
      </trkpt>
      <trkpt lat="46.54426" lon="0.43628">
        <ele>136.1</ele>
        <time>2010-09-26T10:22:09Z</time>
      </trkpt>
      <trkpt lat="46.54431" lon="0.4362">
        <ele>137</ele>
        <time>2010-09-26T10:22:10Z</time>
      </trkpt>
      <trkpt lat="46.54469" lon="0.43588">
        <ele>134.3</ele>
        <time>2010-09-26T10:22:13Z</time>
      </trkpt>
      <trkpt lat="46.54529" lon="0.43541">
        <ele>132.8</ele>
        <time>2010-09-26T10:22:18Z</time>
      </trkpt>
      <trkpt lat="46.54542" lon="0.43538">
        <ele>133</ele>
        <time>2010-09-26T10:22:19Z</time>
      </trkpt>
      <trkpt lat="46.54639" lon="0.43521">
        <ele>129.3</ele>
        <time>2010-09-26T10:22:25Z</time>
      </trkpt>
      <trkpt lat="46.54653" lon="0.43522">
        <ele>128.6</ele>
        <time>2010-09-26T10:22:26Z</time>
      </trkpt>
      <trkpt lat="46.54677" lon="0.43522">
        <ele>127</ele>
        <time>2010-09-26T10:22:28Z</time>
      </trkpt>
      <trkpt lat="46.54685" lon="0.4352">
        <ele>126.6</ele>
        <time>2010-09-26T10:22:29Z</time>
      </trkpt>
      <trkpt lat="46.5469" lon="0.43517">
        <ele>128.6</ele>
        <time>2010-09-26T10:22:30Z</time>
      </trkpt>
      <trkpt lat="46.54694" lon="0.43511">
        <ele>128.3</ele>
        <time>2010-09-26T10:22:31Z</time>
      </trkpt>
      <trkpt lat="46.54698" lon="0.43505">
        <ele>128.1</ele>
        <time>2010-09-26T10:22:32Z</time>
      </trkpt>
      <trkpt lat="46.54715" lon="0.43469">
        <ele>129.5</ele>
        <time>2010-09-26T10:22:36Z</time>
      </trkpt>
      <trkpt lat="46.5472" lon="0.43456">
        <ele>129.6</ele>
        <time>2010-09-26T10:22:37Z</time>
      </trkpt>
      <trkpt lat="46.54735" lon="0.43415">
        <ele>128.6</ele>
        <time>2010-09-26T10:22:40Z</time>
      </trkpt>
      <trkpt lat="46.54738" lon="0.43401">
        <ele>128.6</ele>
        <time>2010-09-26T10:22:41Z</time>
      </trkpt>
      <trkpt lat="46.54752" lon="0.43353">
        <ele>128.3</ele>
        <time>2010-09-26T10:22:45Z</time>
      </trkpt>
      <trkpt lat="46.54758" lon="0.43344">
        <ele>128.1</ele>
        <time>2010-09-26T10:22:46Z</time>
      </trkpt>
      <trkpt lat="46.54764" lon="0.43336">
        <ele>128.1</ele>
        <time>2010-09-26T10:22:47Z</time>
      </trkpt>
      <trkpt lat="46.54804" lon="0.43298">
        <ele>125.4</ele>
        <time>2010-09-26T10:22:54Z</time>
      </trkpt>
      <trkpt lat="46.54806" lon="0.43295">
        <ele>125.1</ele>
        <time>2010-09-26T10:22:55Z</time>
      </trkpt>
      <trkpt lat="46.54808" lon="0.43291">
        <ele>125</ele>
        <time>2010-09-26T10:22:56Z</time>
      </trkpt>
      <trkpt lat="46.54811" lon="0.43287">
        <ele>125</ele>
        <time>2010-09-26T10:22:57Z</time>
      </trkpt>
      <trkpt lat="46.54813" lon="0.43282">
        <ele>125.1</ele>
        <time>2010-09-26T10:22:58Z</time>
      </trkpt>
      <trkpt lat="46.54814" lon="0.43276">
        <ele>125.5</ele>
        <time>2010-09-26T10:22:59Z</time>
      </trkpt>
      <trkpt lat="46.54823" lon="0.43254">
        <ele>125</ele>
        <time>2010-09-26T10:23:03Z</time>
      </trkpt>
      <trkpt lat="46.54826" lon="0.43249">
        <ele>125</ele>
        <time>2010-09-26T10:23:04Z</time>
      </trkpt>
      <trkpt lat="46.54829" lon="0.43246">
        <ele>124.9</ele>
        <time>2010-09-26T10:23:05Z</time>
      </trkpt>
      <trkpt lat="46.54833" lon="0.43245">
        <ele>124.8</ele>
        <time>2010-09-26T10:23:06Z</time>
      </trkpt>
      <trkpt lat="46.54837" lon="0.43244">
        <ele>125</ele>
        <time>2010-09-26T10:23:07Z</time>
      </trkpt>
      <trkpt lat="46.54842" lon="0.43243">
        <ele>125</ele>
        <time>2010-09-26T10:23:09Z</time>
      </trkpt>
      <trkpt lat="46.54844" lon="0.4324">
        <ele>125</ele>
        <time>2010-09-26T10:23:10Z</time>
      </trkpt>
      <trkpt lat="46.54846" lon="0.43235">
        <ele>125</ele>
        <time>2010-09-26T10:23:11Z</time>
      </trkpt>
      <trkpt lat="46.54845" lon="0.43227">
        <ele>125</ele>
        <time>2010-09-26T10:23:12Z</time>
      </trkpt>
      <trkpt lat="46.54844" lon="0.43217">
        <ele>125.1</ele>
        <time>2010-09-26T10:23:13Z</time>
      </trkpt>
      <trkpt lat="46.54836" lon="0.43178">
        <ele>124.5</ele>
        <time>2010-09-26T10:23:17Z</time>
      </trkpt>
      <trkpt lat="46.54837" lon="0.43168">
        <ele>124.9</ele>
        <time>2010-09-26T10:23:18Z</time>
      </trkpt>
      <trkpt lat="46.54839" lon="0.43158">
        <ele>124.5</ele>
        <time>2010-09-26T10:23:19Z</time>
      </trkpt>
      <trkpt lat="46.54843" lon="0.43146">
        <ele>124.3</ele>
        <time>2010-09-26T10:23:20Z</time>
      </trkpt>
      <trkpt lat="46.55008" lon="0.42673">
        <ele>127</ele>
        <time>2010-09-26T10:23:44Z</time>
      </trkpt>
      <trkpt lat="46.55013" lon="0.42664">
        <ele>126.9</ele>
        <time>2010-09-26T10:23:45Z</time>
      </trkpt>
      <trkpt lat="46.55019" lon="0.42659">
        <ele>126.9</ele>
        <time>2010-09-26T10:23:46Z</time>
      </trkpt>
      <trkpt lat="46.55028" lon="0.42659">
        <ele>126.8</ele>
        <time>2010-09-26T10:23:47Z</time>
      </trkpt>
      <trkpt lat="46.55037" lon="0.4266">
        <ele>126.8</ele>
        <time>2010-09-26T10:23:48Z</time>
      </trkpt>
      <trkpt lat="46.55122" lon="0.42675">
        <ele>125.6</ele>
        <time>2010-09-26T10:23:57Z</time>
      </trkpt>
      <trkpt lat="46.55125" lon="0.42671">
        <ele>125.6</ele>
        <time>2010-09-26T10:23:58Z</time>
      </trkpt>
      <trkpt lat="46.55126" lon="0.42663">
        <ele>125</ele>
        <time>2010-09-26T10:23:59Z</time>
      </trkpt>
      <trkpt lat="46.55134" lon="0.42635">
        <ele>124.9</ele>
        <time>2010-09-26T10:24:02Z</time>
      </trkpt>
      <trkpt lat="46.55185" lon="0.42464">
        <ele>123.1</ele>
        <time>2010-09-26T10:24:15Z</time>
      </trkpt>
      <trkpt lat="46.55191" lon="0.42452">
        <ele>123</ele>
        <time>2010-09-26T10:24:16Z</time>
      </trkpt>
      <trkpt lat="46.55258" lon="0.42334">
        <ele>122.9</ele>
        <time>2010-09-26T10:24:30Z</time>
      </trkpt>
      <trkpt lat="46.55259" lon="0.42332">
        <ele>122.8</ele>
        <time>2010-09-26T10:24:31Z</time>
      </trkpt>
      <trkpt lat="46.55261" lon="0.4233">
        <ele>122.5</ele>
        <time>2010-09-26T10:24:32Z</time>
      </trkpt>
      <trkpt lat="46.55262" lon="0.42327">
        <ele>122.4</ele>
        <time>2010-09-26T10:24:33Z</time>
      </trkpt>
      <trkpt lat="46.55271" lon="0.42313">
        <ele>121</ele>
        <time>2010-09-26T10:24:36Z</time>
      </trkpt>
      <trkpt lat="46.55276" lon="0.42306">
        <ele>120.9</ele>
        <time>2010-09-26T10:24:37Z</time>
      </trkpt>
      <trkpt lat="46.55364" lon="0.4219">
        <ele>118.5</ele>
        <time>2010-09-26T10:24:49Z</time>
      </trkpt>
      <trkpt lat="46.5537" lon="0.42178">
        <ele>118.1</ele>
        <time>2010-09-26T10:24:50Z</time>
      </trkpt>
      <trkpt lat="46.55374" lon="0.42167">
        <ele>117.8</ele>
        <time>2010-09-26T10:24:51Z</time>
      </trkpt>
      <trkpt lat="46.55377" lon="0.42154">
        <ele>117</ele>
        <time>2010-09-26T10:24:52Z</time>
      </trkpt>
      <trkpt lat="46.5538" lon="0.4214">
        <ele>116.4</ele>
        <time>2010-09-26T10:24:53Z</time>
      </trkpt>
      <trkpt lat="46.55402" lon="0.42012">
        <ele>112.6</ele>
        <time>2010-09-26T10:25:01Z</time>
      </trkpt>
      <trkpt lat="46.55407" lon="0.41997">
        <ele>112</ele>
        <time>2010-09-26T10:25:02Z</time>
      </trkpt>
      <trkpt lat="46.55419" lon="0.41969">
        <ele>111</ele>
        <time>2010-09-26T10:25:04Z</time>
      </trkpt>
      <trkpt lat="46.55426" lon="0.41957">
        <ele>110.5</ele>
        <time>2010-09-26T10:25:05Z</time>
      </trkpt>
      <trkpt lat="46.55435" lon="0.41946">
        <ele>110.3</ele>
        <time>2010-09-26T10:25:06Z</time>
      </trkpt>
      <trkpt lat="46.55452" lon="0.4193">
        <ele>108.9</ele>
        <time>2010-09-26T10:25:08Z</time>
      </trkpt>
      <trkpt lat="46.5546" lon="0.41924">
        <ele>108.5</ele>
        <time>2010-09-26T10:25:09Z</time>
      </trkpt>
      <trkpt lat="46.55514" lon="0.41888">
        <ele>105.5</ele>
        <time>2010-09-26T10:25:17Z</time>
      </trkpt>
      <trkpt lat="46.55519" lon="0.41881">
        <ele>105.6</ele>
        <time>2010-09-26T10:25:18Z</time>
      </trkpt>
      <trkpt lat="46.55523" lon="0.41872">
        <ele>105.5</ele>
        <time>2010-09-26T10:25:19Z</time>
      </trkpt>
      <trkpt lat="46.55526" lon="0.41859">
        <ele>105.4</ele>
        <time>2010-09-26T10:25:20Z</time>
      </trkpt>
      <trkpt lat="46.55529" lon="0.41846">
        <ele>105</ele>
        <time>2010-09-26T10:25:21Z</time>
      </trkpt>
      <trkpt lat="46.5553" lon="0.41833">
        <ele>104.8</ele>
        <time>2010-09-26T10:25:22Z</time>
      </trkpt>
      <trkpt lat="46.5553" lon="0.41819">
        <ele>104.6</ele>
        <time>2010-09-26T10:25:23Z</time>
      </trkpt>
      <trkpt lat="46.55531" lon="0.41766">
        <ele>103.9</ele>
        <time>2010-09-26T10:25:27Z</time>
      </trkpt>
      <trkpt lat="46.55534" lon="0.41752">
        <ele>103.8</ele>
        <time>2010-09-26T10:25:28Z</time>
      </trkpt>
      <trkpt lat="46.55539" lon="0.41739">
        <ele>105</ele>
        <time>2010-09-26T10:25:29Z</time>
      </trkpt>
      <trkpt lat="46.55551" lon="0.41714">
        <ele>105.6</ele>
        <time>2010-09-26T10:25:31Z</time>
      </trkpt>
      <trkpt lat="46.55559" lon="0.41702">
        <ele>105.5</ele>
        <time>2010-09-26T10:25:32Z</time>
      </trkpt>
      <trkpt lat="46.55661" lon="0.41558">
        <ele>110.5</ele>
        <time>2010-09-26T10:25:43Z</time>
      </trkpt>
      <trkpt lat="46.55668" lon="0.41541">
        <ele>110.5</ele>
        <time>2010-09-26T10:25:44Z</time>
      </trkpt>
      <trkpt lat="46.55723" lon="0.41408">
        <ele>115.8</ele>
        <time>2010-09-26T10:25:53Z</time>
      </trkpt>
      <trkpt lat="46.55726" lon="0.41398">
        <ele>116.1</ele>
        <time>2010-09-26T10:25:54Z</time>
      </trkpt>
      <trkpt lat="46.55735" lon="0.41369">
        <ele>115.8</ele>
        <time>2010-09-26T10:25:59Z</time>
      </trkpt>
      <trkpt lat="46.55738" lon="0.41368">
        <ele>116.5</ele>
        <time>2010-09-26T10:26:00Z</time>
      </trkpt>
      <trkpt lat="46.55742" lon="0.41369">
        <ele>117</ele>
        <time>2010-09-26T10:26:01Z</time>
      </trkpt>
      <trkpt lat="46.55747" lon="0.41373">
        <ele>117.8</ele>
        <time>2010-09-26T10:26:02Z</time>
      </trkpt>
      <trkpt lat="46.55753" lon="0.41377">
        <ele>117.5</ele>
        <time>2010-09-26T10:26:03Z</time>
      </trkpt>
      <trkpt lat="46.55761" lon="0.4138">
        <ele>117.5</ele>
        <time>2010-09-26T10:26:04Z</time>
      </trkpt>
      <trkpt lat="46.55769" lon="0.41383">
        <ele>117.5</ele>
        <time>2010-09-26T10:26:05Z</time>
      </trkpt>
      <trkpt lat="46.55847" lon="0.41411">
        <ele>119.5</ele>
        <time>2010-09-26T10:26:14Z</time>
      </trkpt>
      <trkpt lat="46.55856" lon="0.41412">
        <ele>119.8</ele>
        <time>2010-09-26T10:26:15Z</time>
      </trkpt>
      <trkpt lat="46.55876" lon="0.41418">
        <ele>120.1</ele>
        <time>2010-09-26T10:26:17Z</time>
      </trkpt>
      <trkpt lat="46.56111" lon="0.41497">
        <ele>118</ele>
        <time>2010-09-26T10:26:33Z</time>
      </trkpt>
      <trkpt lat="46.5612" lon="0.41496">
        <ele>118.3</ele>
        <time>2010-09-26T10:26:34Z</time>
      </trkpt>
      <trkpt lat="46.56129" lon="0.41494">
        <ele>119.5</ele>
        <time>2010-09-26T10:26:36Z</time>
      </trkpt>
      <trkpt lat="46.56133" lon="0.4149">
        <ele>120.1</ele>
        <time>2010-09-26T10:26:37Z</time>
      </trkpt>
      <trkpt lat="46.56135" lon="0.41481">
        <ele>120.5</ele>
        <time>2010-09-26T10:26:38Z</time>
      </trkpt>
      <trkpt lat="46.56134" lon="0.41469">
        <ele>121</ele>
        <time>2010-09-26T10:26:39Z</time>
      </trkpt>
      <trkpt lat="46.5613" lon="0.41429">
        <ele>121.5</ele>
        <time>2010-09-26T10:26:42Z</time>
      </trkpt>
      <trkpt lat="46.56127" lon="0.41414">
        <ele>121.8</ele>
        <time>2010-09-26T10:26:43Z</time>
      </trkpt>
      <trkpt lat="46.56102" lon="0.41265">
        <ele>124.4</ele>
        <time>2010-09-26T10:26:51Z</time>
      </trkpt>
      <trkpt lat="46.56073" lon="0.41035">
        <ele>126.9</ele>
        <time>2010-09-26T10:27:02Z</time>
      </trkpt>
      <trkpt lat="46.56072" lon="0.41015">
        <ele>126.8</ele>
        <time>2010-09-26T10:27:03Z</time>
      </trkpt>
      <trkpt lat="46.56071" lon="0.40951">
        <ele>127.1</ele>
        <time>2010-09-26T10:27:07Z</time>
      </trkpt>
      <trkpt lat="46.5607" lon="0.40937">
        <ele>126.6</ele>
        <time>2010-09-26T10:27:08Z</time>
      </trkpt>
      <trkpt lat="46.56063" lon="0.40879">
        <ele>126.1</ele>
        <time>2010-09-26T10:27:15Z</time>
      </trkpt>
      <trkpt lat="46.56061" lon="0.40877">
        <ele>125.5</ele>
        <time>2010-09-26T10:27:17Z</time>
      </trkpt>
      <trkpt lat="46.56059" lon="0.40872">
        <ele>126.1</ele>
        <time>2010-09-26T10:27:19Z</time>
      </trkpt>
      <trkpt lat="46.56058" lon="0.40866">
        <ele>126.4</ele>
        <time>2010-09-26T10:27:20Z</time>
      </trkpt>
      <trkpt lat="46.56057" lon="0.40859">
        <ele>126</ele>
        <time>2010-09-26T10:27:21Z</time>
      </trkpt>
      <trkpt lat="46.56056" lon="0.40819">
        <ele>124.4</ele>
        <time>2010-09-26T10:27:25Z</time>
      </trkpt>
      <trkpt lat="46.56054" lon="0.40808">
        <ele>124.4</ele>
        <time>2010-09-26T10:27:26Z</time>
      </trkpt>
      <trkpt lat="46.56043" lon="0.40747">
        <ele>124.8</ele>
        <time>2010-09-26T10:27:31Z</time>
      </trkpt>
      <trkpt lat="46.56009" lon="0.40616">
        <ele>124</ele>
        <time>2010-09-26T10:27:41Z</time>
      </trkpt>
      <trkpt lat="46.56005" lon="0.40602">
        <ele>124</ele>
        <time>2010-09-26T10:27:42Z</time>
      </trkpt>
      <trkpt lat="46.55959" lon="0.40469">
        <ele>124</ele>
        <time>2010-09-26T10:27:53Z</time>
      </trkpt>
      <trkpt lat="46.55954" lon="0.40459">
        <ele>124.4</ele>
        <time>2010-09-26T10:27:54Z</time>
      </trkpt>
      <trkpt lat="46.55948" lon="0.40448">
        <ele>124.5</ele>
        <time>2010-09-26T10:27:55Z</time>
      </trkpt>
      <trkpt lat="46.55875" lon="0.40346">
        <ele>125.5</ele>
        <time>2010-09-26T10:28:05Z</time>
      </trkpt>
      <trkpt lat="46.55825" lon="0.40268">
        <ele>125.5</ele>
        <time>2010-09-26T10:28:13Z</time>
      </trkpt>
      <trkpt lat="46.55813" lon="0.40246">
        <ele>125.5</ele>
        <time>2010-09-26T10:28:15Z</time>
      </trkpt>
      <trkpt lat="46.55809" lon="0.40237">
        <ele>126</ele>
        <time>2010-09-26T10:28:16Z</time>
      </trkpt>
      <trkpt lat="46.55807" lon="0.40229">
        <ele>125.9</ele>
        <time>2010-09-26T10:28:17Z</time>
      </trkpt>
      <trkpt lat="46.55808" lon="0.4022">
        <ele>125.9</ele>
        <time>2010-09-26T10:28:18Z</time>
      </trkpt>
      <trkpt lat="46.55811" lon="0.40213">
        <ele>126</ele>
        <time>2010-09-26T10:28:19Z</time>
      </trkpt>
      <trkpt lat="46.55815" lon="0.40208">
        <ele>126.1</ele>
        <time>2010-09-26T10:28:20Z</time>
      </trkpt>
      <trkpt lat="46.55821" lon="0.40203">
        <ele>126</ele>
        <time>2010-09-26T10:28:21Z</time>
      </trkpt>
      <trkpt lat="46.55828" lon="0.402">
        <ele>125.6</ele>
        <time>2010-09-26T10:28:22Z</time>
      </trkpt>
      <trkpt lat="46.55836" lon="0.40199">
        <ele>125.8</ele>
        <time>2010-09-26T10:28:23Z</time>
      </trkpt>
      <trkpt lat="46.55864" lon="0.40192">
        <ele>124.9</ele>
        <time>2010-09-26T10:28:26Z</time>
      </trkpt>
      <trkpt lat="46.55872" lon="0.40187">
        <ele>124.5</ele>
        <time>2010-09-26T10:28:27Z</time>
      </trkpt>
      <trkpt lat="46.5588" lon="0.40179">
        <ele>124</ele>
        <time>2010-09-26T10:28:28Z</time>
      </trkpt>
      <trkpt lat="46.55886" lon="0.4017">
        <ele>123.6</ele>
        <time>2010-09-26T10:28:29Z</time>
      </trkpt>
      <trkpt lat="46.55892" lon="0.40158">
        <ele>123.3</ele>
        <time>2010-09-26T10:28:30Z</time>
      </trkpt>
      <trkpt lat="46.55944" lon="0.40075">
        <ele>122</ele>
        <time>2010-09-26T10:28:38Z</time>
      </trkpt>
      <trkpt lat="46.55949" lon="0.4007">
        <ele>121.8</ele>
        <time>2010-09-26T10:28:39Z</time>
      </trkpt>
      <trkpt lat="46.55955" lon="0.40067">
        <ele>121.6</ele>
        <time>2010-09-26T10:28:40Z</time>
      </trkpt>
      <trkpt lat="46.55962" lon="0.40067">
        <ele>121.5</ele>
        <time>2010-09-26T10:28:41Z</time>
      </trkpt>
      <trkpt lat="46.55968" lon="0.40072">
        <ele>121.5</ele>
        <time>2010-09-26T10:28:42Z</time>
      </trkpt>
      <trkpt lat="46.55972" lon="0.40081">
        <ele>121.3</ele>
        <time>2010-09-26T10:28:43Z</time>
      </trkpt>
      <trkpt lat="46.55976" lon="0.40093">
        <ele>121.1</ele>
        <time>2010-09-26T10:28:44Z</time>
      </trkpt>
      <trkpt lat="46.55977" lon="0.40105">
        <ele>121</ele>
        <time>2010-09-26T10:28:45Z</time>
      </trkpt>
      <trkpt lat="46.55981" lon="0.4013">
        <ele>120.8</ele>
        <time>2010-09-26T10:28:47Z</time>
      </trkpt>
      <trkpt lat="46.55986" lon="0.40141">
        <ele>120.9</ele>
        <time>2010-09-26T10:28:48Z</time>
      </trkpt>
      <trkpt lat="46.55992" lon="0.4015">
        <ele>121.3</ele>
        <time>2010-09-26T10:28:49Z</time>
      </trkpt>
      <trkpt lat="46.56011" lon="0.40176">
        <ele>120.9</ele>
        <time>2010-09-26T10:28:53Z</time>
      </trkpt>
      <trkpt lat="46.56012" lon="0.40177">
        <ele>120.8</ele>
        <time>2010-09-26T10:29:06Z</time>
      </trkpt>
      <trkpt lat="46.56013" lon="0.40178">
        <ele>120.9</ele>
        <time>2010-09-26T10:29:07Z</time>
      </trkpt>
      <trkpt lat="46.56016" lon="0.40179">
        <ele>121.1</ele>
        <time>2010-09-26T10:29:08Z</time>
      </trkpt>
      <trkpt lat="46.56021" lon="0.40178">
        <ele>121</ele>
        <time>2010-09-26T10:29:09Z</time>
      </trkpt>
      <trkpt lat="46.56027" lon="0.40174">
        <ele>121.1</ele>
        <time>2010-09-26T10:29:10Z</time>
      </trkpt>
      <trkpt lat="46.56069" lon="0.40148">
        <ele>121.5</ele>
        <time>2010-09-26T10:29:16Z</time>
      </trkpt>
      <trkpt lat="46.56077" lon="0.4015">
        <ele>122.3</ele>
        <time>2010-09-26T10:29:17Z</time>
      </trkpt>
      <trkpt lat="46.56084" lon="0.40154">
        <ele>122.6</ele>
        <time>2010-09-26T10:29:18Z</time>
      </trkpt>
      <trkpt lat="46.56157" lon="0.4022">
        <ele>122.5</ele>
        <time>2010-09-26T10:29:29Z</time>
      </trkpt>
      <trkpt lat="46.56161" lon="0.40221">
        <ele>122.8</ele>
        <time>2010-09-26T10:29:30Z</time>
      </trkpt>
      <trkpt lat="46.56165" lon="0.40218">
        <ele>122.6</ele>
        <time>2010-09-26T10:29:31Z</time>
      </trkpt>
      <trkpt lat="46.56168" lon="0.40213">
        <ele>122.5</ele>
        <time>2010-09-26T10:29:32Z</time>
      </trkpt>
      <trkpt lat="46.56169" lon="0.40207">
        <ele>123</ele>
        <time>2010-09-26T10:29:33Z</time>
      </trkpt>
      <trkpt lat="46.56172" lon="0.40195">
        <ele>123.5</ele>
        <time>2010-09-26T10:29:35Z</time>
      </trkpt>
      <trkpt lat="46.56174" lon="0.40186">
        <ele>123.9</ele>
        <time>2010-09-26T10:29:37Z</time>
      </trkpt>
      <trkpt lat="46.56173" lon="0.40182">
        <ele>124</ele>
        <time>2010-09-26T10:29:38Z</time>
      </trkpt>
      <trkpt lat="46.5617" lon="0.40179">
        <ele>124.3</ele>
        <time>2010-09-26T10:29:39Z</time>
      </trkpt>
      <trkpt lat="46.56167" lon="0.40176">
        <ele>124.5</ele>
        <time>2010-09-26T10:29:40Z</time>
      </trkpt>
      <trkpt lat="46.56152" lon="0.40166">
        <ele>125.1</ele>
        <time>2010-09-26T10:29:45Z</time>
      </trkpt>
      <trkpt lat="46.56151" lon="0.40165">
        <ele>125.3</ele>
        <time>2010-09-26T10:29:46Z</time>
      </trkpt>
      <trkpt lat="46.56151" lon="0.40165">
        <ele>125.3</ele>
        <time>2010-09-26T10:29:47Z</time>
      </trkpt>
      <trkpt lat="46.56151" lon="0.40165">
        <ele>125.3</ele>
        <time>2010-09-26T10:29:48Z</time>
      </trkpt>
      <trkpt lat="46.56151" lon="0.40165">
        <ele>125.5</ele>
        <time>2010-09-26T10:29:49Z</time>
      </trkpt>
      <trkpt lat="46.56151" lon="0.40165">
        <ele>125.5</ele>
        <time>2010-09-26T10:29:50Z</time>
      </trkpt>
      <trkpt lat="46.56151" lon="0.40165">
        <ele>125.5</ele>
        <time>2010-09-26T10:29:51Z</time>
      </trkpt>
      <trkpt lat="46.56151" lon="0.40165">
        <ele>125.5</ele>
        <time>2010-09-26T10:29:52Z</time>
      </trkpt>
      <trkpt lat="46.5615" lon="0.40165">
        <ele>125.6</ele>
        <time>2010-09-26T10:29:53Z</time>
      </trkpt>
      <trkpt lat="46.5615" lon="0.40165">
        <ele>125.6</ele>
        <time>2010-09-26T10:29:54Z</time>
      </trkpt>
      <trkpt lat="46.5615" lon="0.40165">
        <ele>125.6</ele>
        <time>2010-09-26T10:29:55Z</time>
      </trkpt>
      <trkpt lat="46.5615" lon="0.40165">
        <ele>125.6</ele>
        <time>2010-09-26T10:29:56Z</time>
      </trkpt>
      <trkpt lat="46.5615" lon="0.40165">
        <ele>125.6</ele>
        <time>2010-09-26T10:29:57Z</time>
      </trkpt>
      <trkpt lat="46.5615" lon="0.40165">
        <ele>125.6</ele>
        <time>2010-09-26T10:29:58Z</time>
      </trkpt>
      <trkpt lat="46.5615" lon="0.40165">
        <ele>125.6</ele>
        <time>2010-09-26T10:29:59Z</time>
      </trkpt>
      <trkpt lat="46.5615" lon="0.40165">
        <ele>125.6</ele>
        <time>2010-09-26T10:30:00Z</time>
      </trkpt>
      <trkpt lat="46.5615" lon="0.40165">
        <ele>125.6</ele>
        <time>2010-09-26T10:30:01Z</time>
      </trkpt>
      <trkpt lat="46.5615" lon="0.40165">
        <ele>125.6</ele>
        <time>2010-09-26T10:30:02Z</time>
      </trkpt>
      <trkpt lat="46.5615" lon="0.40165">
        <ele>125.6</ele>
        <time>2010-09-26T10:30:03Z</time>
      </trkpt>
      <trkpt lat="46.5615" lon="0.40165">
        <ele>125.6</ele>
        <time>2010-09-26T10:30:04Z</time>
      </trkpt>
      <trkpt lat="46.5615" lon="0.40165">
        <ele>125.6</ele>
        <time>2010-09-26T10:30:05Z</time>
      </trkpt>
      <trkpt lat="46.5615" lon="0.40165">
        <ele>125.6</ele>
        <time>2010-09-26T10:30:06Z</time>
      </trkpt>
      <trkpt lat="46.5615" lon="0.40165">
        <ele>125.6</ele>
        <time>2010-09-26T10:30:07Z</time>
      </trkpt>
      <trkpt lat="46.5615" lon="0.40165">
        <ele>125.6</ele>
        <time>2010-09-26T10:30:08Z</time>
      </trkpt>
      <trkpt lat="46.5615" lon="0.40165">
        <ele>125.6</ele>
        <time>2010-09-26T10:30:09Z</time>
      </trkpt>
      <trkpt lat="46.5615" lon="0.40165">
        <ele>125.6</ele>
        <time>2010-09-26T10:30:10Z</time>
      </trkpt>
      <trkpt lat="46.5615" lon="0.40165">
        <ele>125.6</ele>
        <time>2010-09-26T10:30:11Z</time>
      </trkpt>
      <trkpt lat="46.5615" lon="0.40165">
        <ele>125.6</ele>
        <time>2010-09-26T10:30:12Z</time>
      </trkpt>
      <trkpt lat="46.5615" lon="0.40165">
        <ele>125.6</ele>
        <time>2010-09-26T10:30:13Z</time>
      </trkpt>
      <trkpt lat="46.5615" lon="0.40165">
        <ele>125.6</ele>
        <time>2010-09-26T10:30:14Z</time>
      </trkpt>
      <trkpt lat="46.5615" lon="0.40165">
        <ele>125.6</ele>
        <time>2010-09-26T10:30:15Z</time>
      </trkpt>
      <trkpt lat="46.5615" lon="0.40165">
        <ele>125.6</ele>
        <time>2010-09-26T10:30:16Z</time>
      </trkpt>
      <trkpt lat="46.5615" lon="0.40165">
        <ele>125.6</ele>
        <time>2010-09-26T10:30:17Z</time>
      </trkpt>
      <trkpt lat="46.5615" lon="0.40165">
        <ele>125.6</ele>
        <time>2010-09-26T10:30:18Z</time>
      </trkpt>
      <trkpt lat="46.5615" lon="0.40165">
        <ele>125.6</ele>
        <time>2010-09-26T10:30:19Z</time>
      </trkpt>
      <trkpt lat="46.5615" lon="0.40165">
        <ele>125.6</ele>
        <time>2010-09-26T10:30:20Z</time>
      </trkpt>
      <trkpt lat="46.5615" lon="0.40165">
        <ele>125.6</ele>
        <time>2010-09-26T10:30:21Z</time>
      </trkpt>
      <trkpt lat="46.5615" lon="0.40165">
        <ele>125.6</ele>
        <time>2010-09-26T10:30:22Z</time>
      </trkpt>
      <trkpt lat="46.5615" lon="0.40165">
        <ele>125.6</ele>
        <time>2010-09-26T10:30:23Z</time>
      </trkpt>
      <trkpt lat="46.5615" lon="0.40165">
        <ele>125.6</ele>
        <time>2010-09-26T10:30:24Z</time>
      </trkpt>
      <trkpt lat="46.5615" lon="0.40165">
        <ele>125.6</ele>
        <time>2010-09-26T10:30:25Z</time>
      </trkpt>
      <trkpt lat="46.5615" lon="0.40165">
        <ele>125.6</ele>
        <time>2010-09-26T10:30:26Z</time>
      </trkpt>
      <trkpt lat="46.5615" lon="0.40165">
        <ele>125.6</ele>
        <time>2010-09-26T10:30:27Z</time>
      </trkpt>
      <trkpt lat="46.5615" lon="0.40165">
        <ele>125.6</ele>
        <time>2010-09-26T10:30:28Z</time>
      </trkpt>
      <trkpt lat="46.5615" lon="0.40165">
        <ele>125.6</ele>
        <time>2010-09-26T10:30:29Z</time>
      </trkpt>
      <trkpt lat="46.5615" lon="0.40165">
        <ele>125.6</ele>
        <time>2010-09-26T10:30:30Z</time>
      </trkpt>
      <trkpt lat="46.5615" lon="0.40165">
        <ele>125.6</ele>
        <time>2010-09-26T10:30:31Z</time>
      </trkpt>
      <trkpt lat="46.5615" lon="0.40165">
        <ele>125.6</ele>
        <time>2010-09-26T10:30:32Z</time>
      </trkpt>
      <trkpt lat="46.5615" lon="0.40165">
        <ele>125.6</ele>
        <time>2010-09-26T10:30:33Z</time>
      </trkpt>
      <trkpt lat="46.5615" lon="0.40165">
        <ele>125.6</ele>
        <time>2010-09-26T10:30:34Z</time>
      </trkpt>
      <trkpt lat="46.5615" lon="0.40165">
        <ele>125.6</ele>
        <time>2010-09-26T10:30:35Z</time>
      </trkpt>
      <trkpt lat="46.5615" lon="0.40165">
        <ele>125.6</ele>
        <time>2010-09-26T10:30:36Z</time>
      </trkpt>
      <trkpt lat="46.5615" lon="0.40165">
        <ele>125.6</ele>
        <time>2010-09-26T10:30:37Z</time>
      </trkpt>
      <trkpt lat="46.5615" lon="0.40165">
        <ele>125.6</ele>
        <time>2010-09-26T10:30:38Z</time>
      </trkpt>
      <trkpt lat="46.5615" lon="0.40165">
        <ele>125.6</ele>
        <time>2010-09-26T10:30:39Z</time>
      </trkpt>
      <trkpt lat="46.5615" lon="0.40165">
        <ele>125.6</ele>
        <time>2010-09-26T10:30:40Z</time>
      </trkpt>
      <trkpt lat="46.5615" lon="0.40165">
        <ele>125.6</ele>
        <time>2010-09-26T10:30:41Z</time>
      </trkpt>
      <trkpt lat="46.5615" lon="0.40165">
        <ele>125.6</ele>
        <time>2010-09-26T10:30:42Z</time>
      </trkpt>
      <trkpt lat="46.5615" lon="0.40165">
        <ele>125.9</ele>
        <time>2010-09-26T10:30:43Z</time>
      </trkpt>
      <trkpt lat="46.5615" lon="0.40165">
        <ele>125.9</ele>
        <time>2010-09-26T10:30:44Z</time>
      </trkpt>
      <trkpt lat="46.5615" lon="0.40165">
        <ele>125.9</ele>
        <time>2010-09-26T10:30:45Z</time>
      </trkpt>
      <trkpt lat="46.5615" lon="0.40165">
        <ele>125.9</ele>
        <time>2010-09-26T10:30:46Z</time>
      </trkpt>
      <trkpt lat="46.5615" lon="0.40165">
        <ele>125.9</ele>
        <time>2010-09-26T10:30:47Z</time>
      </trkpt>
      <trkpt lat="46.5615" lon="0.40165">
        <ele>125.9</ele>
        <time>2010-09-26T10:30:48Z</time>
      </trkpt>
      <trkpt lat="46.5615" lon="0.40165">
        <ele>125.9</ele>
        <time>2010-09-26T10:30:49Z</time>
      </trkpt>
      <trkpt lat="46.5615" lon="0.40165">
        <ele>125.6</ele>
        <time>2010-09-26T10:30:50Z</time>
      </trkpt>
      <trkpt lat="46.5615" lon="0.40164">
        <ele>125.9</ele>
        <time>2010-09-26T10:30:52Z</time>
      </trkpt>
      <trkpt lat="46.56149" lon="0.40164">
        <ele>125.5</ele>
        <time>2010-09-26T10:30:53Z</time>
      </trkpt>
      <trkpt lat="46.56149" lon="0.40164">
        <ele>125.5</ele>
        <time>2010-09-26T10:30:54Z</time>
      </trkpt>
      <trkpt lat="46.56149" lon="0.40164">
        <ele>125.5</ele>
        <time>2010-09-26T10:30:55Z</time>
      </trkpt>
      <trkpt lat="46.56149" lon="0.40164">
        <ele>125.5</ele>
        <time>2010-09-26T10:30:56Z</time>
      </trkpt>
      <trkpt lat="46.56149" lon="0.40164">
        <ele>125.5</ele>
        <time>2010-09-26T10:30:57Z</time>
      </trkpt>
      <trkpt lat="46.56149" lon="0.40164">
        <ele>125.5</ele>
        <time>2010-09-26T10:30:58Z</time>
      </trkpt>
      <trkpt lat="46.56149" lon="0.40164">
        <ele>125.5</ele>
        <time>2010-09-26T10:30:59Z</time>
      </trkpt>
      <trkpt lat="46.56149" lon="0.40164">
        <ele>125.5</ele>
        <time>2010-09-26T10:31:00Z</time>
      </trkpt>
      <trkpt lat="46.56149" lon="0.40164">
        <ele>125.5</ele>
        <time>2010-09-26T10:31:01Z</time>
      </trkpt>
      <trkpt lat="46.56149" lon="0.40164">
        <ele>125.5</ele>
        <time>2010-09-26T10:31:02Z</time>
      </trkpt>
      <trkpt lat="46.56149" lon="0.40164">
        <ele>125.5</ele>
        <time>2010-09-26T10:31:03Z</time>
      </trkpt>
      <trkpt lat="46.56149" lon="0.40164">
        <ele>125.5</ele>
        <time>2010-09-26T10:31:04Z</time>
      </trkpt>
      <trkpt lat="46.56149" lon="0.40164">
        <ele>125.5</ele>
        <time>2010-09-26T10:31:05Z</time>
      </trkpt>
      <trkpt lat="46.56149" lon="0.40164">
        <ele>125.5</ele>
        <time>2010-09-26T10:31:06Z</time>
      </trkpt>
      <trkpt lat="46.56149" lon="0.40164">
        <ele>125.5</ele>
        <time>2010-09-26T10:31:07Z</time>
      </trkpt>
      <trkpt lat="46.56149" lon="0.40164">
        <ele>125.5</ele>
        <time>2010-09-26T10:31:08Z</time>
      </trkpt>
      <trkpt lat="46.56149" lon="0.40164">
        <ele>125.5</ele>
        <time>2010-09-26T10:31:09Z</time>
      </trkpt>
      <trkpt lat="46.56149" lon="0.40164">
        <ele>125.5</ele>
        <time>2010-09-26T10:31:10Z</time>
      </trkpt>
      <trkpt lat="46.56149" lon="0.40164">
        <ele>125.5</ele>
        <time>2010-09-26T10:31:11Z</time>
      </trkpt>
      <trkpt lat="46.56149" lon="0.40164">
        <ele>125.5</ele>
        <time>2010-09-26T10:31:12Z</time>
      </trkpt>
      <trkpt lat="46.56149" lon="0.40164">
        <ele>125.5</ele>
        <time>2010-09-26T10:31:13Z</time>
      </trkpt>
      <trkpt lat="46.56149" lon="0.40164">
        <ele>125.5</ele>
        <time>2010-09-26T10:31:14Z</time>
      </trkpt>
      <trkpt lat="46.56149" lon="0.40164">
        <ele>125.5</ele>
        <time>2010-09-26T10:31:15Z</time>
      </trkpt>
      <trkpt lat="46.56149" lon="0.40164">
        <ele>125.5</ele>
        <time>2010-09-26T10:31:16Z</time>
      </trkpt>
      <trkpt lat="46.56149" lon="0.40164">
        <ele>125.5</ele>
        <time>2010-09-26T10:31:17Z</time>
      </trkpt>
      <trkpt lat="46.56149" lon="0.40164">
        <ele>125.5</ele>
        <time>2010-09-26T10:31:18Z</time>
      </trkpt>
      <trkpt lat="46.56149" lon="0.40164">
        <ele>125.5</ele>
        <time>2010-09-26T10:31:19Z</time>
      </trkpt>
      <trkpt lat="46.56149" lon="0.40164">
        <ele>125.5</ele>
        <time>2010-09-26T10:31:20Z</time>
      </trkpt>
      <trkpt lat="46.56149" lon="0.40164">
        <ele>125.5</ele>
        <time>2010-09-26T10:31:21Z</time>
      </trkpt>
      <trkpt lat="46.56149" lon="0.40164">
        <ele>125.5</ele>
        <time>2010-09-26T10:31:22Z</time>
      </trkpt>
      <trkpt lat="46.56149" lon="0.40164">
        <ele>125.5</ele>
        <time>2010-09-26T10:31:23Z</time>
      </trkpt>
      <trkpt lat="46.56149" lon="0.40164">
        <ele>125.5</ele>
        <time>2010-09-26T10:31:24Z</time>
      </trkpt>
      <trkpt lat="46.56149" lon="0.40164">
        <ele>125.5</ele>
        <time>2010-09-26T10:31:25Z</time>
      </trkpt>
      <trkpt lat="46.56149" lon="0.40164">
        <ele>125.5</ele>
        <time>2010-09-26T10:31:26Z</time>
      </trkpt>
      <trkpt lat="46.56149" lon="0.40164">
        <ele>125.5</ele>
        <time>2010-09-26T10:31:27Z</time>
      </trkpt>
      <trkpt lat="46.56149" lon="0.40164">
        <ele>125.5</ele>
        <time>2010-09-26T10:31:28Z</time>
      </trkpt>
      <trkpt lat="46.56149" lon="0.40164">
        <ele>125.5</ele>
        <time>2010-09-26T10:31:29Z</time>
      </trkpt>
      <trkpt lat="46.56149" lon="0.40164">
        <ele>125.5</ele>
        <time>2010-09-26T10:31:30Z</time>
      </trkpt>
      <trkpt lat="46.56149" lon="0.40164">
        <ele>125.5</ele>
        <time>2010-09-26T10:31:31Z</time>
      </trkpt>
      <trkpt lat="46.56149" lon="0.40164">
        <ele>125.5</ele>
        <time>2010-09-26T10:31:32Z</time>
      </trkpt>
      <trkpt lat="46.56149" lon="0.40164">
        <ele>125.5</ele>
        <time>2010-09-26T10:31:33Z</time>
      </trkpt>
      <trkpt lat="46.56149" lon="0.40164">
        <ele>125.5</ele>
        <time>2010-09-26T10:31:34Z</time>
      </trkpt>
      <trkpt lat="46.56149" lon="0.40164">
        <ele>125.5</ele>
        <time>2010-09-26T10:31:35Z</time>
      </trkpt>
      <trkpt lat="46.56149" lon="0.40164">
        <ele>125.5</ele>
        <time>2010-09-26T10:31:36Z</time>
      </trkpt>
      <trkpt lat="46.56149" lon="0.40164">
        <ele>125.5</ele>
        <time>2010-09-26T10:31:37Z</time>
      </trkpt>
      <trkpt lat="46.56149" lon="0.40164">
        <ele>125.5</ele>
        <time>2010-09-26T10:31:38Z</time>
      </trkpt>
      <trkpt lat="46.56149" lon="0.40164">
        <ele>125.5</ele>
        <time>2010-09-26T10:31:39Z</time>
      </trkpt>
      <trkpt lat="46.56149" lon="0.40164">
        <ele>125.5</ele>
        <time>2010-09-26T10:31:40Z</time>
      </trkpt>
      <trkpt lat="46.56149" lon="0.40164">
        <ele>125.5</ele>
        <time>2010-09-26T10:31:41Z</time>
      </trkpt>
      <trkpt lat="46.56149" lon="0.40164">
        <ele>125.5</ele>
        <time>2010-09-26T10:31:42Z</time>
      </trkpt>
      <trkpt lat="46.56149" lon="0.40164">
        <ele>125.5</ele>
        <time>2010-09-26T10:31:43Z</time>
      </trkpt>
      <trkpt lat="46.56149" lon="0.40164">
        <ele>125.5</ele>
        <time>2010-09-26T10:31:44Z</time>
      </trkpt>
      <trkpt lat="46.56149" lon="0.40164">
        <ele>125.5</ele>
        <time>2010-09-26T10:31:45Z</time>
      </trkpt>
      <trkpt lat="46.56149" lon="0.40164">
        <ele>125.5</ele>
        <time>2010-09-26T10:31:46Z</time>
      </trkpt>
      <trkpt lat="46.56149" lon="0.40164">
        <ele>125.5</ele>
        <time>2010-09-26T10:31:47Z</time>
      </trkpt>
      <trkpt lat="46.56149" lon="0.40164">
        <ele>125.5</ele>
        <time>2010-09-26T10:31:48Z</time>
      </trkpt>
      <trkpt lat="46.56149" lon="0.40164">
        <ele>125.5</ele>
        <time>2010-09-26T10:31:49Z</time>
      </trkpt>
    </trkseg>
  </trk>
</gpx>